<?xml version="1.0" encoding="UTF-8" standalone="no" ?>
<gpx xmlns="http://www.topografix.com/GPX/1/1" xmlns:xsi="http://www.w3.org/2001/XMLSchema-instance" xsi:schemaLocation="http://www.topografix.com/GPX/1/1 http://www.topografix.com/GPX/1/1/gpx.xsd" version="1.1" creator="VisuGPX - https://www.visugpx.com">
  <metadata>
    <name>Mont Baron - Annecy 16092012</name>
    <desc><![CDATA[Mont Baron - Annecy 16092012]]></desc>
  </metadata>
  <trk>
    <name><![CDATA[16-SEP-12 14:57:37]]></name>
    <trkseg>
      <trkpt lat="45.90175" lon="6.1311">
        <ele>554.82</ele>
        <time>2012-09-16T06:15:37Z</time>
      </trkpt>
      <trkpt lat="45.9018" lon="6.13113">
        <ele>480.8</ele>
        <time>2012-09-16T06:15:39Z</time>
      </trkpt>
      <trkpt lat="45.90183" lon="6.13126">
        <ele>484.16</ele>
        <time>2012-09-16T06:15:46Z</time>
      </trkpt>
      <trkpt lat="45.90183" lon="6.13137">
        <ele>487.53</ele>
        <time>2012-09-16T06:15:52Z</time>
      </trkpt>
      <trkpt lat="45.90188" lon="6.13146">
        <ele>485.6</ele>
        <time>2012-09-16T06:15:59Z</time>
      </trkpt>
      <trkpt lat="45.90191" lon="6.13153">
        <ele>484.64</ele>
        <time>2012-09-16T06:16:04Z</time>
      </trkpt>
      <trkpt lat="45.90191" lon="6.13155">
        <ele>484.16</ele>
        <time>2012-09-16T06:16:05Z</time>
      </trkpt>
      <trkpt lat="45.90191" lon="6.13157">
        <ele>483.2</ele>
        <time>2012-09-16T06:16:08Z</time>
      </trkpt>
      <trkpt lat="45.90198" lon="6.13174">
        <ele>482.72</ele>
        <time>2012-09-16T06:16:15Z</time>
      </trkpt>
      <trkpt lat="45.90199" lon="6.13179">
        <ele>482.24</ele>
        <time>2012-09-16T06:16:19Z</time>
      </trkpt>
      <trkpt lat="45.90205" lon="6.13187">
        <ele>475.51</ele>
        <time>2012-09-16T06:16:30Z</time>
      </trkpt>
      <trkpt lat="45.9021" lon="6.13199">
        <ele>469.74</ele>
        <time>2012-09-16T06:16:39Z</time>
      </trkpt>
      <trkpt lat="45.90215" lon="6.13209">
        <ele>467.34</ele>
        <time>2012-09-16T06:16:45Z</time>
      </trkpt>
      <trkpt lat="45.90215" lon="6.13213">
        <ele>467.34</ele>
        <time>2012-09-16T06:16:47Z</time>
      </trkpt>
      <trkpt lat="45.90214" lon="6.13217">
        <ele>466.86</ele>
        <time>2012-09-16T06:16:49Z</time>
      </trkpt>
      <trkpt lat="45.90214" lon="6.13227">
        <ele>466.86</ele>
        <time>2012-09-16T06:16:55Z</time>
      </trkpt>
      <trkpt lat="45.90219" lon="6.13235">
        <ele>466.86</ele>
        <time>2012-09-16T06:16:59Z</time>
      </trkpt>
      <trkpt lat="45.90222" lon="6.13246">
        <ele>465.9</ele>
        <time>2012-09-16T06:17:07Z</time>
      </trkpt>
      <trkpt lat="45.90223" lon="6.13252">
        <ele>465.9</ele>
        <time>2012-09-16T06:17:12Z</time>
      </trkpt>
      <trkpt lat="45.90227" lon="6.13267">
        <ele>465.42</ele>
        <time>2012-09-16T06:17:19Z</time>
      </trkpt>
      <trkpt lat="45.90228" lon="6.13274">
        <ele>464.93</ele>
        <time>2012-09-16T06:17:24Z</time>
      </trkpt>
      <trkpt lat="45.9023" lon="6.13288">
        <ele>464.45</ele>
        <time>2012-09-16T06:17:30Z</time>
      </trkpt>
      <trkpt lat="45.90237" lon="6.13301">
        <ele>463.49</ele>
        <time>2012-09-16T06:17:38Z</time>
      </trkpt>
      <trkpt lat="45.90238" lon="6.13304">
        <ele>463.49</ele>
        <time>2012-09-16T06:17:40Z</time>
      </trkpt>
      <trkpt lat="45.90238" lon="6.13313">
        <ele>463.49</ele>
        <time>2012-09-16T06:17:45Z</time>
      </trkpt>
      <trkpt lat="45.90244" lon="6.13323">
        <ele>463.01</ele>
        <time>2012-09-16T06:17:51Z</time>
      </trkpt>
      <trkpt lat="45.90245" lon="6.1333">
        <ele>463.01</ele>
        <time>2012-09-16T06:17:58Z</time>
      </trkpt>
      <trkpt lat="45.90251" lon="6.13341">
        <ele>463.01</ele>
        <time>2012-09-16T06:18:03Z</time>
      </trkpt>
      <trkpt lat="45.90253" lon="6.13348">
        <ele>459.65</ele>
        <time>2012-09-16T06:18:10Z</time>
      </trkpt>
      <trkpt lat="45.90254" lon="6.1335">
        <ele>458.69</ele>
        <time>2012-09-16T06:18:13Z</time>
      </trkpt>
      <trkpt lat="45.90255" lon="6.13356">
        <ele>458.69</ele>
        <time>2012-09-16T06:18:17Z</time>
      </trkpt>
      <trkpt lat="45.9026" lon="6.13369">
        <ele>458.69</ele>
        <time>2012-09-16T06:18:22Z</time>
      </trkpt>
      <trkpt lat="45.90263" lon="6.1338">
        <ele>458.69</ele>
        <time>2012-09-16T06:18:29Z</time>
      </trkpt>
      <trkpt lat="45.90265" lon="6.13388">
        <ele>458.21</ele>
        <time>2012-09-16T06:18:35Z</time>
      </trkpt>
      <trkpt lat="45.90268" lon="6.13395">
        <ele>458.21</ele>
        <time>2012-09-16T06:18:40Z</time>
      </trkpt>
      <trkpt lat="45.9027" lon="6.13399">
        <ele>456.76</ele>
        <time>2012-09-16T06:18:45Z</time>
      </trkpt>
      <trkpt lat="45.90273" lon="6.13409">
        <ele>456.76</ele>
        <time>2012-09-16T06:18:51Z</time>
      </trkpt>
      <trkpt lat="45.90276" lon="6.13421">
        <ele>456.76</ele>
        <time>2012-09-16T06:18:57Z</time>
      </trkpt>
      <trkpt lat="45.90279" lon="6.13423">
        <ele>456.76</ele>
        <time>2012-09-16T06:18:59Z</time>
      </trkpt>
      <trkpt lat="45.90279" lon="6.13436">
        <ele>456.28</ele>
        <time>2012-09-16T06:19:06Z</time>
      </trkpt>
      <trkpt lat="45.90282" lon="6.13443">
        <ele>456.28</ele>
        <time>2012-09-16T06:19:11Z</time>
      </trkpt>
      <trkpt lat="45.90282" lon="6.13444">
        <ele>456.28</ele>
        <time>2012-09-16T06:19:13Z</time>
      </trkpt>
      <trkpt lat="45.90285" lon="6.13454">
        <ele>456.28</ele>
        <time>2012-09-16T06:19:20Z</time>
      </trkpt>
      <trkpt lat="45.90284" lon="6.13464">
        <ele>456.28</ele>
        <time>2012-09-16T06:19:27Z</time>
      </trkpt>
      <trkpt lat="45.90292" lon="6.13479">
        <ele>455.8</ele>
        <time>2012-09-16T06:19:34Z</time>
      </trkpt>
      <trkpt lat="45.90291" lon="6.13488">
        <ele>455.32</ele>
        <time>2012-09-16T06:19:40Z</time>
      </trkpt>
      <trkpt lat="45.90297" lon="6.13498">
        <ele>455.32</ele>
        <time>2012-09-16T06:19:47Z</time>
      </trkpt>
      <trkpt lat="45.90297" lon="6.13503">
        <ele>455.32</ele>
        <time>2012-09-16T06:19:52Z</time>
      </trkpt>
      <trkpt lat="45.90304" lon="6.13519">
        <ele>454.84</ele>
        <time>2012-09-16T06:19:59Z</time>
      </trkpt>
      <trkpt lat="45.90304" lon="6.13524">
        <ele>454.84</ele>
        <time>2012-09-16T06:20:05Z</time>
      </trkpt>
      <trkpt lat="45.90308" lon="6.13533">
        <ele>454.84</ele>
        <time>2012-09-16T06:20:08Z</time>
      </trkpt>
      <trkpt lat="45.90311" lon="6.13542">
        <ele>455.8</ele>
        <time>2012-09-16T06:20:14Z</time>
      </trkpt>
      <trkpt lat="45.90311" lon="6.13544">
        <ele>456.28</ele>
        <time>2012-09-16T06:20:15Z</time>
      </trkpt>
      <trkpt lat="45.90316" lon="6.13554">
        <ele>456.28</ele>
        <time>2012-09-16T06:20:20Z</time>
      </trkpt>
      <trkpt lat="45.90316" lon="6.13563">
        <ele>455.8</ele>
        <time>2012-09-16T06:20:27Z</time>
      </trkpt>
      <trkpt lat="45.90324" lon="6.13582">
        <ele>455.8</ele>
        <time>2012-09-16T06:20:35Z</time>
      </trkpt>
      <trkpt lat="45.90324" lon="6.13583">
        <ele>455.8</ele>
        <time>2012-09-16T06:20:36Z</time>
      </trkpt>
      <trkpt lat="45.90324" lon="6.1359">
        <ele>455.8</ele>
        <time>2012-09-16T06:20:40Z</time>
      </trkpt>
      <trkpt lat="45.90325" lon="6.13595">
        <ele>456.28</ele>
        <time>2012-09-16T06:20:43Z</time>
      </trkpt>
      <trkpt lat="45.90326" lon="6.13606">
        <ele>456.28</ele>
        <time>2012-09-16T06:20:51Z</time>
      </trkpt>
      <trkpt lat="45.90327" lon="6.13608">
        <ele>456.28</ele>
        <time>2012-09-16T06:20:53Z</time>
      </trkpt>
      <trkpt lat="45.9033" lon="6.13616">
        <ele>455.8</ele>
        <time>2012-09-16T06:20:58Z</time>
      </trkpt>
      <trkpt lat="45.90332" lon="6.13625">
        <ele>455.8</ele>
        <time>2012-09-16T06:21:04Z</time>
      </trkpt>
      <trkpt lat="45.90335" lon="6.13629">
        <ele>455.32</ele>
        <time>2012-09-16T06:21:11Z</time>
      </trkpt>
      <trkpt lat="45.90335" lon="6.13631">
        <ele>455.8</ele>
        <time>2012-09-16T06:21:19Z</time>
      </trkpt>
      <trkpt lat="45.90336" lon="6.13639">
        <ele>455.8</ele>
        <time>2012-09-16T06:21:23Z</time>
      </trkpt>
      <trkpt lat="45.90336" lon="6.13647">
        <ele>455.8</ele>
        <time>2012-09-16T06:21:28Z</time>
      </trkpt>
      <trkpt lat="45.90338" lon="6.13658">
        <ele>456.28</ele>
        <time>2012-09-16T06:21:34Z</time>
      </trkpt>
      <trkpt lat="45.90341" lon="6.13661">
        <ele>456.28</ele>
        <time>2012-09-16T06:21:37Z</time>
      </trkpt>
      <trkpt lat="45.90344" lon="6.13669">
        <ele>456.28</ele>
        <time>2012-09-16T06:21:41Z</time>
      </trkpt>
      <trkpt lat="45.90346" lon="6.13682">
        <ele>456.28</ele>
        <time>2012-09-16T06:21:49Z</time>
      </trkpt>
      <trkpt lat="45.90348" lon="6.13687">
        <ele>456.28</ele>
        <time>2012-09-16T06:21:53Z</time>
      </trkpt>
      <trkpt lat="45.90353" lon="6.13696">
        <ele>456.28</ele>
        <time>2012-09-16T06:21:58Z</time>
      </trkpt>
      <trkpt lat="45.90353" lon="6.13705">
        <ele>455.8</ele>
        <time>2012-09-16T06:22:04Z</time>
      </trkpt>
      <trkpt lat="45.90355" lon="6.1371">
        <ele>455.8</ele>
        <time>2012-09-16T06:22:08Z</time>
      </trkpt>
      <trkpt lat="45.90359" lon="6.13729">
        <ele>455.32</ele>
        <time>2012-09-16T06:22:16Z</time>
      </trkpt>
      <trkpt lat="45.90361" lon="6.13741">
        <ele>455.8</ele>
        <time>2012-09-16T06:22:24Z</time>
      </trkpt>
      <trkpt lat="45.90367" lon="6.13759">
        <ele>455.8</ele>
        <time>2012-09-16T06:22:32Z</time>
      </trkpt>
      <trkpt lat="45.90368" lon="6.13768">
        <ele>455.32</ele>
        <time>2012-09-16T06:22:39Z</time>
      </trkpt>
      <trkpt lat="45.90369" lon="6.13769">
        <ele>455.32</ele>
        <time>2012-09-16T06:22:40Z</time>
      </trkpt>
      <trkpt lat="45.90375" lon="6.13783">
        <ele>455.32</ele>
        <time>2012-09-16T06:22:48Z</time>
      </trkpt>
      <trkpt lat="45.90377" lon="6.13792">
        <ele>455.32</ele>
        <time>2012-09-16T06:22:55Z</time>
      </trkpt>
      <trkpt lat="45.90382" lon="6.13806">
        <ele>455.32</ele>
        <time>2012-09-16T06:23:02Z</time>
      </trkpt>
      <trkpt lat="45.90383" lon="6.13821">
        <ele>454.84</ele>
        <time>2012-09-16T06:23:11Z</time>
      </trkpt>
      <trkpt lat="45.90384" lon="6.13823">
        <ele>454.84</ele>
        <time>2012-09-16T06:23:12Z</time>
      </trkpt>
      <trkpt lat="45.90389" lon="6.13837">
        <ele>454.36</ele>
        <time>2012-09-16T06:23:19Z</time>
      </trkpt>
      <trkpt lat="45.9039" lon="6.13847">
        <ele>454.36</ele>
        <time>2012-09-16T06:23:27Z</time>
      </trkpt>
      <trkpt lat="45.90391" lon="6.1385">
        <ele>454.84</ele>
        <time>2012-09-16T06:23:29Z</time>
      </trkpt>
      <trkpt lat="45.90396" lon="6.13864">
        <ele>454.84</ele>
        <time>2012-09-16T06:23:37Z</time>
      </trkpt>
      <trkpt lat="45.90397" lon="6.13866">
        <ele>455.32</ele>
        <time>2012-09-16T06:23:38Z</time>
      </trkpt>
      <trkpt lat="45.904" lon="6.13873">
        <ele>455.32</ele>
        <time>2012-09-16T06:23:42Z</time>
      </trkpt>
      <trkpt lat="45.90403" lon="6.13884">
        <ele>454.84</ele>
        <time>2012-09-16T06:23:48Z</time>
      </trkpt>
      <trkpt lat="45.90404" lon="6.13889">
        <ele>454.84</ele>
        <time>2012-09-16T06:23:51Z</time>
      </trkpt>
      <trkpt lat="45.90407" lon="6.13899">
        <ele>454.84</ele>
        <time>2012-09-16T06:23:55Z</time>
      </trkpt>
      <trkpt lat="45.90411" lon="6.13915">
        <ele>454.84</ele>
        <time>2012-09-16T06:24:03Z</time>
      </trkpt>
      <trkpt lat="45.90413" lon="6.13925">
        <ele>454.84</ele>
        <time>2012-09-16T06:24:09Z</time>
      </trkpt>
      <trkpt lat="45.90418" lon="6.13939">
        <ele>454.84</ele>
        <time>2012-09-16T06:24:15Z</time>
      </trkpt>
      <trkpt lat="45.90417" lon="6.13942">
        <ele>454.84</ele>
        <time>2012-09-16T06:24:17Z</time>
      </trkpt>
      <trkpt lat="45.90422" lon="6.13958">
        <ele>454.84</ele>
        <time>2012-09-16T06:24:24Z</time>
      </trkpt>
      <trkpt lat="45.90423" lon="6.13966">
        <ele>454.84</ele>
        <time>2012-09-16T06:24:29Z</time>
      </trkpt>
      <trkpt lat="45.90423" lon="6.13973">
        <ele>454.84</ele>
        <time>2012-09-16T06:24:34Z</time>
      </trkpt>
      <trkpt lat="45.90427" lon="6.13981">
        <ele>454.84</ele>
        <time>2012-09-16T06:24:39Z</time>
      </trkpt>
      <trkpt lat="45.90428" lon="6.13996">
        <ele>457.24</ele>
        <time>2012-09-16T06:24:47Z</time>
      </trkpt>
      <trkpt lat="45.90428" lon="6.13998">
        <ele>456.76</ele>
        <time>2012-09-16T06:24:48Z</time>
      </trkpt>
      <trkpt lat="45.90431" lon="6.14008">
        <ele>456.76</ele>
        <time>2012-09-16T06:24:52Z</time>
      </trkpt>
      <trkpt lat="45.90434" lon="6.14015">
        <ele>456.76</ele>
        <time>2012-09-16T06:24:57Z</time>
      </trkpt>
      <trkpt lat="45.90434" lon="6.14018">
        <ele>456.76</ele>
        <time>2012-09-16T06:24:59Z</time>
      </trkpt>
      <trkpt lat="45.90438" lon="6.14035">
        <ele>456.76</ele>
        <time>2012-09-16T06:25:07Z</time>
      </trkpt>
      <trkpt lat="45.90439" lon="6.14041">
        <ele>456.76</ele>
        <time>2012-09-16T06:25:11Z</time>
      </trkpt>
      <trkpt lat="45.90442" lon="6.14044">
        <ele>457.72</ele>
        <time>2012-09-16T06:25:14Z</time>
      </trkpt>
      <trkpt lat="45.90445" lon="6.14055">
        <ele>458.21</ele>
        <time>2012-09-16T06:25:23Z</time>
      </trkpt>
      <trkpt lat="45.90446" lon="6.14059">
        <ele>458.21</ele>
        <time>2012-09-16T06:25:26Z</time>
      </trkpt>
      <trkpt lat="45.90453" lon="6.14072">
        <ele>458.69</ele>
        <time>2012-09-16T06:25:33Z</time>
      </trkpt>
      <trkpt lat="45.90454" lon="6.14081">
        <ele>458.21</ele>
        <time>2012-09-16T06:25:40Z</time>
      </trkpt>
      <trkpt lat="45.90454" lon="6.14093">
        <ele>457.72</ele>
        <time>2012-09-16T06:25:46Z</time>
      </trkpt>
      <trkpt lat="45.90456" lon="6.14103">
        <ele>459.17</ele>
        <time>2012-09-16T06:25:53Z</time>
      </trkpt>
      <trkpt lat="45.90458" lon="6.14104">
        <ele>459.17</ele>
        <time>2012-09-16T06:25:55Z</time>
      </trkpt>
      <trkpt lat="45.9046" lon="6.14115">
        <ele>459.65</ele>
        <time>2012-09-16T06:26:00Z</time>
      </trkpt>
      <trkpt lat="45.90461" lon="6.1412">
        <ele>459.65</ele>
        <time>2012-09-16T06:26:03Z</time>
      </trkpt>
      <trkpt lat="45.90464" lon="6.14133">
        <ele>460.13</ele>
        <time>2012-09-16T06:26:09Z</time>
      </trkpt>
      <trkpt lat="45.90464" lon="6.14137">
        <ele>460.61</ele>
        <time>2012-09-16T06:26:14Z</time>
      </trkpt>
      <trkpt lat="45.90468" lon="6.14143">
        <ele>460.61</ele>
        <time>2012-09-16T06:26:19Z</time>
      </trkpt>
      <trkpt lat="45.90469" lon="6.14149">
        <ele>461.09</ele>
        <time>2012-09-16T06:26:23Z</time>
      </trkpt>
      <trkpt lat="45.9047" lon="6.14162">
        <ele>461.57</ele>
        <time>2012-09-16T06:26:28Z</time>
      </trkpt>
      <trkpt lat="45.90474" lon="6.14171">
        <ele>461.57</ele>
        <time>2012-09-16T06:26:35Z</time>
      </trkpt>
      <trkpt lat="45.90479" lon="6.14179">
        <ele>462.05</ele>
        <time>2012-09-16T06:26:40Z</time>
      </trkpt>
      <trkpt lat="45.90484" lon="6.14187">
        <ele>462.53</ele>
        <time>2012-09-16T06:26:47Z</time>
      </trkpt>
      <trkpt lat="45.90484" lon="6.14191">
        <ele>462.53</ele>
        <time>2012-09-16T06:26:49Z</time>
      </trkpt>
      <trkpt lat="45.90485" lon="6.14196">
        <ele>462.53</ele>
        <time>2012-09-16T06:26:51Z</time>
      </trkpt>
      <trkpt lat="45.9049" lon="6.14214">
        <ele>463.49</ele>
        <time>2012-09-16T06:26:57Z</time>
      </trkpt>
      <trkpt lat="45.90492" lon="6.14219">
        <ele>463.49</ele>
        <time>2012-09-16T06:27:03Z</time>
      </trkpt>
      <trkpt lat="45.90497" lon="6.14229">
        <ele>463.01</ele>
        <time>2012-09-16T06:27:08Z</time>
      </trkpt>
      <trkpt lat="45.90502" lon="6.14236">
        <ele>462.05</ele>
        <time>2012-09-16T06:27:13Z</time>
      </trkpt>
      <trkpt lat="45.90502" lon="6.14237">
        <ele>462.05</ele>
        <time>2012-09-16T06:27:14Z</time>
      </trkpt>
      <trkpt lat="45.90503" lon="6.14252">
        <ele>462.53</ele>
        <time>2012-09-16T06:27:20Z</time>
      </trkpt>
      <trkpt lat="45.90504" lon="6.14261">
        <ele>462.53</ele>
        <time>2012-09-16T06:27:25Z</time>
      </trkpt>
      <trkpt lat="45.90503" lon="6.14263">
        <ele>463.01</ele>
        <time>2012-09-16T06:27:27Z</time>
      </trkpt>
      <trkpt lat="45.90502" lon="6.14267">
        <ele>463.01</ele>
        <time>2012-09-16T06:27:29Z</time>
      </trkpt>
      <trkpt lat="45.90508" lon="6.14286">
        <ele>463.01</ele>
        <time>2012-09-16T06:27:36Z</time>
      </trkpt>
      <trkpt lat="45.90507" lon="6.14287">
        <ele>463.01</ele>
        <time>2012-09-16T06:27:37Z</time>
      </trkpt>
      <trkpt lat="45.90507" lon="6.14299">
        <ele>463.01</ele>
        <time>2012-09-16T06:27:43Z</time>
      </trkpt>
      <trkpt lat="45.90505" lon="6.14316">
        <ele>463.01</ele>
        <time>2012-09-16T06:27:49Z</time>
      </trkpt>
      <trkpt lat="45.90504" lon="6.14322">
        <ele>463.49</ele>
        <time>2012-09-16T06:27:55Z</time>
      </trkpt>
      <trkpt lat="45.90504" lon="6.1434">
        <ele>464.45</ele>
        <time>2012-09-16T06:28:02Z</time>
      </trkpt>
      <trkpt lat="45.90503" lon="6.14347">
        <ele>465.42</ele>
        <time>2012-09-16T06:28:08Z</time>
      </trkpt>
      <trkpt lat="45.90502" lon="6.14348">
        <ele>465.42</ele>
        <time>2012-09-16T06:28:09Z</time>
      </trkpt>
      <trkpt lat="45.90502" lon="6.1436">
        <ele>465.42</ele>
        <time>2012-09-16T06:28:14Z</time>
      </trkpt>
      <trkpt lat="45.90502" lon="6.14363">
        <ele>465.42</ele>
        <time>2012-09-16T06:28:15Z</time>
      </trkpt>
      <trkpt lat="45.90499" lon="6.14372">
        <ele>465.42</ele>
        <time>2012-09-16T06:28:21Z</time>
      </trkpt>
      <trkpt lat="45.90498" lon="6.14373">
        <ele>465.42</ele>
        <time>2012-09-16T06:28:22Z</time>
      </trkpt>
      <trkpt lat="45.90493" lon="6.14384">
        <ele>465.42</ele>
        <time>2012-09-16T06:28:27Z</time>
      </trkpt>
      <trkpt lat="45.90492" lon="6.14394">
        <ele>465.42</ele>
        <time>2012-09-16T06:28:31Z</time>
      </trkpt>
      <trkpt lat="45.90491" lon="6.144">
        <ele>465.42</ele>
        <time>2012-09-16T06:28:36Z</time>
      </trkpt>
      <trkpt lat="45.90489" lon="6.14403">
        <ele>465.9</ele>
        <time>2012-09-16T06:28:39Z</time>
      </trkpt>
      <trkpt lat="45.90492" lon="6.14414">
        <ele>465.9</ele>
        <time>2012-09-16T06:28:45Z</time>
      </trkpt>
      <trkpt lat="45.90493" lon="6.14412">
        <ele>465.42</ele>
        <time>2012-09-16T06:28:49Z</time>
      </trkpt>
      <trkpt lat="45.90493" lon="6.14413">
        <ele>464.93</ele>
        <time>2012-09-16T06:28:50Z</time>
      </trkpt>
      <trkpt lat="45.90492" lon="6.14425">
        <ele>461.57</ele>
        <time>2012-09-16T06:28:56Z</time>
      </trkpt>
      <trkpt lat="45.90492" lon="6.14426">
        <ele>461.09</ele>
        <time>2012-09-16T06:28:57Z</time>
      </trkpt>
      <trkpt lat="45.90488" lon="6.14426">
        <ele>460.61</ele>
        <time>2012-09-16T06:29:01Z</time>
      </trkpt>
      <trkpt lat="45.90485" lon="6.14432">
        <ele>461.09</ele>
        <time>2012-09-16T06:29:04Z</time>
      </trkpt>
      <trkpt lat="45.90482" lon="6.14453">
        <ele>462.05</ele>
        <time>2012-09-16T06:29:11Z</time>
      </trkpt>
      <trkpt lat="45.90479" lon="6.14457">
        <ele>462.05</ele>
        <time>2012-09-16T06:29:15Z</time>
      </trkpt>
      <trkpt lat="45.90478" lon="6.14459">
        <ele>462.53</ele>
        <time>2012-09-16T06:29:17Z</time>
      </trkpt>
      <trkpt lat="45.90475" lon="6.14474">
        <ele>462.53</ele>
        <time>2012-09-16T06:29:23Z</time>
      </trkpt>
      <trkpt lat="45.90472" lon="6.14478">
        <ele>463.01</ele>
        <time>2012-09-16T06:29:29Z</time>
      </trkpt>
      <trkpt lat="45.90472" lon="6.1448">
        <ele>463.49</ele>
        <time>2012-09-16T06:29:30Z</time>
      </trkpt>
      <trkpt lat="45.90469" lon="6.14497">
        <ele>464.45</ele>
        <time>2012-09-16T06:29:36Z</time>
      </trkpt>
      <trkpt lat="45.90465" lon="6.14505">
        <ele>465.42</ele>
        <time>2012-09-16T06:29:43Z</time>
      </trkpt>
      <trkpt lat="45.90465" lon="6.14506">
        <ele>465.42</ele>
        <time>2012-09-16T06:29:44Z</time>
      </trkpt>
      <trkpt lat="45.90464" lon="6.14519">
        <ele>466.38</ele>
        <time>2012-09-16T06:29:51Z</time>
      </trkpt>
      <trkpt lat="45.90463" lon="6.14525">
        <ele>466.38</ele>
        <time>2012-09-16T06:29:55Z</time>
      </trkpt>
      <trkpt lat="45.90462" lon="6.14545">
        <ele>466.38</ele>
        <time>2012-09-16T06:30:04Z</time>
      </trkpt>
      <trkpt lat="45.90459" lon="6.14549">
        <ele>466.38</ele>
        <time>2012-09-16T06:30:06Z</time>
      </trkpt>
      <trkpt lat="45.90457" lon="6.14563">
        <ele>466.86</ele>
        <time>2012-09-16T06:30:12Z</time>
      </trkpt>
      <trkpt lat="45.90455" lon="6.14568">
        <ele>466.86</ele>
        <time>2012-09-16T06:30:17Z</time>
      </trkpt>
      <trkpt lat="45.90454" lon="6.14586">
        <ele>466.86</ele>
        <time>2012-09-16T06:30:23Z</time>
      </trkpt>
      <trkpt lat="45.90454" lon="6.14589">
        <ele>466.86</ele>
        <time>2012-09-16T06:30:24Z</time>
      </trkpt>
      <trkpt lat="45.90452" lon="6.14596">
        <ele>466.86</ele>
        <time>2012-09-16T06:30:28Z</time>
      </trkpt>
      <trkpt lat="45.9045" lon="6.14601">
        <ele>466.86</ele>
        <time>2012-09-16T06:30:33Z</time>
      </trkpt>
      <trkpt lat="45.90451" lon="6.14603">
        <ele>466.86</ele>
        <time>2012-09-16T06:30:35Z</time>
      </trkpt>
      <trkpt lat="45.90451" lon="6.14614">
        <ele>466.86</ele>
        <time>2012-09-16T06:30:39Z</time>
      </trkpt>
      <trkpt lat="45.9045" lon="6.14621">
        <ele>466.86</ele>
        <time>2012-09-16T06:30:44Z</time>
      </trkpt>
      <trkpt lat="45.90452" lon="6.14633">
        <ele>467.34</ele>
        <time>2012-09-16T06:30:50Z</time>
      </trkpt>
      <trkpt lat="45.90451" lon="6.14649">
        <ele>467.34</ele>
        <time>2012-09-16T06:30:57Z</time>
      </trkpt>
      <trkpt lat="45.90453" lon="6.14671">
        <ele>466.86</ele>
        <time>2012-09-16T06:31:04Z</time>
      </trkpt>
      <trkpt lat="45.90451" lon="6.1467">
        <ele>466.86</ele>
        <time>2012-09-16T06:31:06Z</time>
      </trkpt>
      <trkpt lat="45.9045" lon="6.14671">
        <ele>466.86</ele>
        <time>2012-09-16T06:31:08Z</time>
      </trkpt>
      <trkpt lat="45.90451" lon="6.14687">
        <ele>466.86</ele>
        <time>2012-09-16T06:31:15Z</time>
      </trkpt>
      <trkpt lat="45.9045" lon="6.14695">
        <ele>467.34</ele>
        <time>2012-09-16T06:31:21Z</time>
      </trkpt>
      <trkpt lat="45.90452" lon="6.14708">
        <ele>467.34</ele>
        <time>2012-09-16T06:31:28Z</time>
      </trkpt>
      <trkpt lat="45.90451" lon="6.14714">
        <ele>467.34</ele>
        <time>2012-09-16T06:31:32Z</time>
      </trkpt>
      <trkpt lat="45.90454" lon="6.14732">
        <ele>467.34</ele>
        <time>2012-09-16T06:31:40Z</time>
      </trkpt>
      <trkpt lat="45.90455" lon="6.14741">
        <ele>466.86</ele>
        <time>2012-09-16T06:31:46Z</time>
      </trkpt>
      <trkpt lat="45.90456" lon="6.14744">
        <ele>466.86</ele>
        <time>2012-09-16T06:31:48Z</time>
      </trkpt>
      <trkpt lat="45.90459" lon="6.14756">
        <ele>466.86</ele>
        <time>2012-09-16T06:31:54Z</time>
      </trkpt>
      <trkpt lat="45.9046" lon="6.14768">
        <ele>467.34</ele>
        <time>2012-09-16T06:32:03Z</time>
      </trkpt>
      <trkpt lat="45.90461" lon="6.14775">
        <ele>467.34</ele>
        <time>2012-09-16T06:32:09Z</time>
      </trkpt>
      <trkpt lat="45.90462" lon="6.14787">
        <ele>467.34</ele>
        <time>2012-09-16T06:32:17Z</time>
      </trkpt>
      <trkpt lat="45.90463" lon="6.14797">
        <ele>467.34</ele>
        <time>2012-09-16T06:32:24Z</time>
      </trkpt>
      <trkpt lat="45.90465" lon="6.14812">
        <ele>467.34</ele>
        <time>2012-09-16T06:32:31Z</time>
      </trkpt>
      <trkpt lat="45.90465" lon="6.14826">
        <ele>467.34</ele>
        <time>2012-09-16T06:32:38Z</time>
      </trkpt>
      <trkpt lat="45.90469" lon="6.14843">
        <ele>467.34</ele>
        <time>2012-09-16T06:32:45Z</time>
      </trkpt>
      <trkpt lat="45.9047" lon="6.14851">
        <ele>467.34</ele>
        <time>2012-09-16T06:32:52Z</time>
      </trkpt>
      <trkpt lat="45.90471" lon="6.14859">
        <ele>468.78</ele>
        <time>2012-09-16T06:32:56Z</time>
      </trkpt>
      <trkpt lat="45.90471" lon="6.14871">
        <ele>469.74</ele>
        <time>2012-09-16T06:33:00Z</time>
      </trkpt>
      <trkpt lat="45.90471" lon="6.14875">
        <ele>469.74</ele>
        <time>2012-09-16T06:33:03Z</time>
      </trkpt>
      <trkpt lat="45.90473" lon="6.14888">
        <ele>469.74</ele>
        <time>2012-09-16T06:33:10Z</time>
      </trkpt>
      <trkpt lat="45.90474" lon="6.14894">
        <ele>469.26</ele>
        <time>2012-09-16T06:33:17Z</time>
      </trkpt>
      <trkpt lat="45.90475" lon="6.14898">
        <ele>469.26</ele>
        <time>2012-09-16T06:33:20Z</time>
      </trkpt>
      <trkpt lat="45.90474" lon="6.14901">
        <ele>469.26</ele>
        <time>2012-09-16T06:33:22Z</time>
      </trkpt>
      <trkpt lat="45.90475" lon="6.14916">
        <ele>469.74</ele>
        <time>2012-09-16T06:33:26Z</time>
      </trkpt>
      <trkpt lat="45.90475" lon="6.1493">
        <ele>470.22</ele>
        <time>2012-09-16T06:33:32Z</time>
      </trkpt>
      <trkpt lat="45.90476" lon="6.14933">
        <ele>470.22</ele>
        <time>2012-09-16T06:33:34Z</time>
      </trkpt>
      <trkpt lat="45.90478" lon="6.14931">
        <ele>470.7</ele>
        <time>2012-09-16T06:33:37Z</time>
      </trkpt>
      <trkpt lat="45.9048" lon="6.1494">
        <ele>470.7</ele>
        <time>2012-09-16T06:33:43Z</time>
      </trkpt>
      <trkpt lat="45.90482" lon="6.14954">
        <ele>470.7</ele>
        <time>2012-09-16T06:33:50Z</time>
      </trkpt>
      <trkpt lat="45.90483" lon="6.14958">
        <ele>470.22</ele>
        <time>2012-09-16T06:33:54Z</time>
      </trkpt>
      <trkpt lat="45.90485" lon="6.14966">
        <ele>470.22</ele>
        <time>2012-09-16T06:33:58Z</time>
      </trkpt>
      <trkpt lat="45.90488" lon="6.14972">
        <ele>470.22</ele>
        <time>2012-09-16T06:34:00Z</time>
      </trkpt>
      <trkpt lat="45.90488" lon="6.14979">
        <ele>470.22</ele>
        <time>2012-09-16T06:34:04Z</time>
      </trkpt>
      <trkpt lat="45.90489" lon="6.14999">
        <ele>470.7</ele>
        <time>2012-09-16T06:34:11Z</time>
      </trkpt>
      <trkpt lat="45.9049" lon="6.15005">
        <ele>470.22</ele>
        <time>2012-09-16T06:34:18Z</time>
      </trkpt>
      <trkpt lat="45.9049" lon="6.15006">
        <ele>470.22</ele>
        <time>2012-09-16T06:34:19Z</time>
      </trkpt>
      <trkpt lat="45.90493" lon="6.15016">
        <ele>469.74</ele>
        <time>2012-09-16T06:34:25Z</time>
      </trkpt>
      <trkpt lat="45.90493" lon="6.15023">
        <ele>469.26</ele>
        <time>2012-09-16T06:34:29Z</time>
      </trkpt>
      <trkpt lat="45.90496" lon="6.15038">
        <ele>469.26</ele>
        <time>2012-09-16T06:34:35Z</time>
      </trkpt>
      <trkpt lat="45.90495" lon="6.15052">
        <ele>469.74</ele>
        <time>2012-09-16T06:34:42Z</time>
      </trkpt>
      <trkpt lat="45.90498" lon="6.15066">
        <ele>469.74</ele>
        <time>2012-09-16T06:34:49Z</time>
      </trkpt>
      <trkpt lat="45.90498" lon="6.15067">
        <ele>470.22</ele>
        <time>2012-09-16T06:34:51Z</time>
      </trkpt>
      <trkpt lat="45.90503" lon="6.15081">
        <ele>470.22</ele>
        <time>2012-09-16T06:34:59Z</time>
      </trkpt>
      <trkpt lat="45.90505" lon="6.15092">
        <ele>469.74</ele>
        <time>2012-09-16T06:35:06Z</time>
      </trkpt>
      <trkpt lat="45.90505" lon="6.15094">
        <ele>469.74</ele>
        <time>2012-09-16T06:35:07Z</time>
      </trkpt>
      <trkpt lat="45.90508" lon="6.15103">
        <ele>470.22</ele>
        <time>2012-09-16T06:35:14Z</time>
      </trkpt>
      <trkpt lat="45.90508" lon="6.15105">
        <ele>470.22</ele>
        <time>2012-09-16T06:35:17Z</time>
      </trkpt>
      <trkpt lat="45.90509" lon="6.15109">
        <ele>470.22</ele>
        <time>2012-09-16T06:35:19Z</time>
      </trkpt>
      <trkpt lat="45.90512" lon="6.15117">
        <ele>469.74</ele>
        <time>2012-09-16T06:35:25Z</time>
      </trkpt>
      <trkpt lat="45.90513" lon="6.15119">
        <ele>469.74</ele>
        <time>2012-09-16T06:35:28Z</time>
      </trkpt>
      <trkpt lat="45.90517" lon="6.15125">
        <ele>469.26</ele>
        <time>2012-09-16T06:35:32Z</time>
      </trkpt>
      <trkpt lat="45.90516" lon="6.15134">
        <ele>468.3</ele>
        <time>2012-09-16T06:35:38Z</time>
      </trkpt>
      <trkpt lat="45.90514" lon="6.1514">
        <ele>468.3</ele>
        <time>2012-09-16T06:35:41Z</time>
      </trkpt>
      <trkpt lat="45.90516" lon="6.1516">
        <ele>468.3</ele>
        <time>2012-09-16T06:35:49Z</time>
      </trkpt>
      <trkpt lat="45.90515" lon="6.15163">
        <ele>468.3</ele>
        <time>2012-09-16T06:35:51Z</time>
      </trkpt>
      <trkpt lat="45.9052" lon="6.1517">
        <ele>468.78</ele>
        <time>2012-09-16T06:35:55Z</time>
      </trkpt>
      <trkpt lat="45.90518" lon="6.15179">
        <ele>468.78</ele>
        <time>2012-09-16T06:36:00Z</time>
      </trkpt>
      <trkpt lat="45.90517" lon="6.15185">
        <ele>468.78</ele>
        <time>2012-09-16T06:36:04Z</time>
      </trkpt>
      <trkpt lat="45.9052" lon="6.15189">
        <ele>468.78</ele>
        <time>2012-09-16T06:36:11Z</time>
      </trkpt>
      <trkpt lat="45.90523" lon="6.15197">
        <ele>469.26</ele>
        <time>2012-09-16T06:36:16Z</time>
      </trkpt>
      <trkpt lat="45.90525" lon="6.15207">
        <ele>469.26</ele>
        <time>2012-09-16T06:36:22Z</time>
      </trkpt>
      <trkpt lat="45.90526" lon="6.15212">
        <ele>469.26</ele>
        <time>2012-09-16T06:36:25Z</time>
      </trkpt>
      <trkpt lat="45.90529" lon="6.15222">
        <ele>469.26</ele>
        <time>2012-09-16T06:36:32Z</time>
      </trkpt>
      <trkpt lat="45.90531" lon="6.15222">
        <ele>469.26</ele>
        <time>2012-09-16T06:36:33Z</time>
      </trkpt>
      <trkpt lat="45.90531" lon="6.15226">
        <ele>469.26</ele>
        <time>2012-09-16T06:36:39Z</time>
      </trkpt>
      <trkpt lat="45.90534" lon="6.1524">
        <ele>468.78</ele>
        <time>2012-09-16T06:36:45Z</time>
      </trkpt>
      <trkpt lat="45.90533" lon="6.1525">
        <ele>468.78</ele>
        <time>2012-09-16T06:36:50Z</time>
      </trkpt>
      <trkpt lat="45.90533" lon="6.15256">
        <ele>468.78</ele>
        <time>2012-09-16T06:36:52Z</time>
      </trkpt>
      <trkpt lat="45.90536" lon="6.15272">
        <ele>469.26</ele>
        <time>2012-09-16T06:36:57Z</time>
      </trkpt>
      <trkpt lat="45.90537" lon="6.15294">
        <ele>468.78</ele>
        <time>2012-09-16T06:37:05Z</time>
      </trkpt>
      <trkpt lat="45.9054" lon="6.15306">
        <ele>469.26</ele>
        <time>2012-09-16T06:37:12Z</time>
      </trkpt>
      <trkpt lat="45.90541" lon="6.15319">
        <ele>469.74</ele>
        <time>2012-09-16T06:37:19Z</time>
      </trkpt>
      <trkpt lat="45.90544" lon="6.1533">
        <ele>470.22</ele>
        <time>2012-09-16T06:37:23Z</time>
      </trkpt>
      <trkpt lat="45.90543" lon="6.1534">
        <ele>470.22</ele>
        <time>2012-09-16T06:37:30Z</time>
      </trkpt>
      <trkpt lat="45.90547" lon="6.15359">
        <ele>469.74</ele>
        <time>2012-09-16T06:37:37Z</time>
      </trkpt>
      <trkpt lat="45.90548" lon="6.15367">
        <ele>469.74</ele>
        <time>2012-09-16T06:37:43Z</time>
      </trkpt>
      <trkpt lat="45.90549" lon="6.15377">
        <ele>469.74</ele>
        <time>2012-09-16T06:37:50Z</time>
      </trkpt>
      <trkpt lat="45.90551" lon="6.15384">
        <ele>469.26</ele>
        <time>2012-09-16T06:37:53Z</time>
      </trkpt>
      <trkpt lat="45.90549" lon="6.15397">
        <ele>470.22</ele>
        <time>2012-09-16T06:38:01Z</time>
      </trkpt>
      <trkpt lat="45.90554" lon="6.1541">
        <ele>470.22</ele>
        <time>2012-09-16T06:38:07Z</time>
      </trkpt>
      <trkpt lat="45.90554" lon="6.15415">
        <ele>470.22</ele>
        <time>2012-09-16T06:38:12Z</time>
      </trkpt>
      <trkpt lat="45.90555" lon="6.15418">
        <ele>470.22</ele>
        <time>2012-09-16T06:38:14Z</time>
      </trkpt>
      <trkpt lat="45.90558" lon="6.15426">
        <ele>469.74</ele>
        <time>2012-09-16T06:38:18Z</time>
      </trkpt>
      <trkpt lat="45.90558" lon="6.15433">
        <ele>469.74</ele>
        <time>2012-09-16T06:38:24Z</time>
      </trkpt>
      <trkpt lat="45.90558" lon="6.15434">
        <ele>469.74</ele>
        <time>2012-09-16T06:38:25Z</time>
      </trkpt>
      <trkpt lat="45.90561" lon="6.15447">
        <ele>470.22</ele>
        <time>2012-09-16T06:38:31Z</time>
      </trkpt>
      <trkpt lat="45.90561" lon="6.15458">
        <ele>470.7</ele>
        <time>2012-09-16T06:38:38Z</time>
      </trkpt>
      <trkpt lat="45.90564" lon="6.1547">
        <ele>470.22</ele>
        <time>2012-09-16T06:38:43Z</time>
      </trkpt>
      <trkpt lat="45.90563" lon="6.15481">
        <ele>470.7</ele>
        <time>2012-09-16T06:38:49Z</time>
      </trkpt>
      <trkpt lat="45.90563" lon="6.15495">
        <ele>470.7</ele>
        <time>2012-09-16T06:38:54Z</time>
      </trkpt>
      <trkpt lat="45.90564" lon="6.15503">
        <ele>470.7</ele>
        <time>2012-09-16T06:38:59Z</time>
      </trkpt>
      <trkpt lat="45.90564" lon="6.15508">
        <ele>471.18</ele>
        <time>2012-09-16T06:39:04Z</time>
      </trkpt>
      <trkpt lat="45.9057" lon="6.15524">
        <ele>470.7</ele>
        <time>2012-09-16T06:39:10Z</time>
      </trkpt>
      <trkpt lat="45.90567" lon="6.15538">
        <ele>470.7</ele>
        <time>2012-09-16T06:39:17Z</time>
      </trkpt>
      <trkpt lat="45.9057" lon="6.15547">
        <ele>470.7</ele>
        <time>2012-09-16T06:39:20Z</time>
      </trkpt>
      <trkpt lat="45.90573" lon="6.15551">
        <ele>470.7</ele>
        <time>2012-09-16T06:39:24Z</time>
      </trkpt>
      <trkpt lat="45.90571" lon="6.15553">
        <ele>470.22</ele>
        <time>2012-09-16T06:39:27Z</time>
      </trkpt>
      <trkpt lat="45.90576" lon="6.15567">
        <ele>468.78</ele>
        <time>2012-09-16T06:39:33Z</time>
      </trkpt>
      <trkpt lat="45.90576" lon="6.15574">
        <ele>467.82</ele>
        <time>2012-09-16T06:39:39Z</time>
      </trkpt>
      <trkpt lat="45.90575" lon="6.15577">
        <ele>468.3</ele>
        <time>2012-09-16T06:39:44Z</time>
      </trkpt>
      <trkpt lat="45.90576" lon="6.15579">
        <ele>468.3</ele>
        <time>2012-09-16T06:39:47Z</time>
      </trkpt>
      <trkpt lat="45.90576" lon="6.15583">
        <ele>467.82</ele>
        <time>2012-09-16T06:39:49Z</time>
      </trkpt>
      <trkpt lat="45.90575" lon="6.15592">
        <ele>468.78</ele>
        <time>2012-09-16T06:39:53Z</time>
      </trkpt>
      <trkpt lat="45.90578" lon="6.15604">
        <ele>469.26</ele>
        <time>2012-09-16T06:39:59Z</time>
      </trkpt>
      <trkpt lat="45.90579" lon="6.15623">
        <ele>468.3</ele>
        <time>2012-09-16T06:40:07Z</time>
      </trkpt>
      <trkpt lat="45.90579" lon="6.1564">
        <ele>468.78</ele>
        <time>2012-09-16T06:40:13Z</time>
      </trkpt>
      <trkpt lat="45.9058" lon="6.15643">
        <ele>469.26</ele>
        <time>2012-09-16T06:40:15Z</time>
      </trkpt>
      <trkpt lat="45.9058" lon="6.15656">
        <ele>467.82</ele>
        <time>2012-09-16T06:40:22Z</time>
      </trkpt>
      <trkpt lat="45.90577" lon="6.15667">
        <ele>467.34</ele>
        <time>2012-09-16T06:40:27Z</time>
      </trkpt>
      <trkpt lat="45.90579" lon="6.15673">
        <ele>466.86</ele>
        <time>2012-09-16T06:40:32Z</time>
      </trkpt>
      <trkpt lat="45.90577" lon="6.15685">
        <ele>466.38</ele>
        <time>2012-09-16T06:40:39Z</time>
      </trkpt>
      <trkpt lat="45.90577" lon="6.1569">
        <ele>465.9</ele>
        <time>2012-09-16T06:40:43Z</time>
      </trkpt>
      <trkpt lat="45.90577" lon="6.15696">
        <ele>465.42</ele>
        <time>2012-09-16T06:40:46Z</time>
      </trkpt>
      <trkpt lat="45.90574" lon="6.15709">
        <ele>463.49</ele>
        <time>2012-09-16T06:40:54Z</time>
      </trkpt>
      <trkpt lat="45.90573" lon="6.15712">
        <ele>463.01</ele>
        <time>2012-09-16T06:40:59Z</time>
      </trkpt>
      <trkpt lat="45.90572" lon="6.15714">
        <ele>462.53</ele>
        <time>2012-09-16T06:41:00Z</time>
      </trkpt>
      <trkpt lat="45.90566" lon="6.15719">
        <ele>461.09</ele>
        <time>2012-09-16T06:41:07Z</time>
      </trkpt>
      <trkpt lat="45.90566" lon="6.15719">
        <ele>461.09</ele>
        <time>2012-09-16T06:41:08Z</time>
      </trkpt>
      <trkpt lat="45.90565" lon="6.15722">
        <ele>461.09</ele>
        <time>2012-09-16T06:41:11Z</time>
      </trkpt>
      <trkpt lat="45.90559" lon="6.15731">
        <ele>460.61</ele>
        <time>2012-09-16T06:41:16Z</time>
      </trkpt>
      <trkpt lat="45.90557" lon="6.15734">
        <ele>461.57</ele>
        <time>2012-09-16T06:41:18Z</time>
      </trkpt>
      <trkpt lat="45.90552" lon="6.15743">
        <ele>463.01</ele>
        <time>2012-09-16T06:41:24Z</time>
      </trkpt>
      <trkpt lat="45.90545" lon="6.15751">
        <ele>461.57</ele>
        <time>2012-09-16T06:41:31Z</time>
      </trkpt>
      <trkpt lat="45.90544" lon="6.15754">
        <ele>461.09</ele>
        <time>2012-09-16T06:41:35Z</time>
      </trkpt>
      <trkpt lat="45.9054" lon="6.15756">
        <ele>458.69</ele>
        <time>2012-09-16T06:41:40Z</time>
      </trkpt>
      <trkpt lat="45.90539" lon="6.15758">
        <ele>456.76</ele>
        <time>2012-09-16T06:41:43Z</time>
      </trkpt>
      <trkpt lat="45.90535" lon="6.15771">
        <ele>456.28</ele>
        <time>2012-09-16T06:41:48Z</time>
      </trkpt>
      <trkpt lat="45.90534" lon="6.15773">
        <ele>456.28</ele>
        <time>2012-09-16T06:41:49Z</time>
      </trkpt>
      <trkpt lat="45.90528" lon="6.1578">
        <ele>456.76</ele>
        <time>2012-09-16T06:41:55Z</time>
      </trkpt>
      <trkpt lat="45.90525" lon="6.15791">
        <ele>456.28</ele>
        <time>2012-09-16T06:42:02Z</time>
      </trkpt>
      <trkpt lat="45.90524" lon="6.15792">
        <ele>456.28</ele>
        <time>2012-09-16T06:42:03Z</time>
      </trkpt>
      <trkpt lat="45.90519" lon="6.15801">
        <ele>456.28</ele>
        <time>2012-09-16T06:42:09Z</time>
      </trkpt>
      <trkpt lat="45.90518" lon="6.15803">
        <ele>456.28</ele>
        <time>2012-09-16T06:42:11Z</time>
      </trkpt>
      <trkpt lat="45.90518" lon="6.15817">
        <ele>456.28</ele>
        <time>2012-09-16T06:42:18Z</time>
      </trkpt>
      <trkpt lat="45.90516" lon="6.15827">
        <ele>456.28</ele>
        <time>2012-09-16T06:42:25Z</time>
      </trkpt>
      <trkpt lat="45.90516" lon="6.15829">
        <ele>456.28</ele>
        <time>2012-09-16T06:42:26Z</time>
      </trkpt>
      <trkpt lat="45.90512" lon="6.15841">
        <ele>456.28</ele>
        <time>2012-09-16T06:42:33Z</time>
      </trkpt>
      <trkpt lat="45.90512" lon="6.15844">
        <ele>456.28</ele>
        <time>2012-09-16T06:42:34Z</time>
      </trkpt>
      <trkpt lat="45.90508" lon="6.1585">
        <ele>457.24</ele>
        <time>2012-09-16T06:42:38Z</time>
      </trkpt>
      <trkpt lat="45.90503" lon="6.15865">
        <ele>457.72</ele>
        <time>2012-09-16T06:42:46Z</time>
      </trkpt>
      <trkpt lat="45.905" lon="6.15874">
        <ele>458.21</ele>
        <time>2012-09-16T06:42:51Z</time>
      </trkpt>
      <trkpt lat="45.90497" lon="6.15881">
        <ele>458.21</ele>
        <time>2012-09-16T06:42:57Z</time>
      </trkpt>
      <trkpt lat="45.90491" lon="6.15889">
        <ele>457.24</ele>
        <time>2012-09-16T06:43:05Z</time>
      </trkpt>
      <trkpt lat="45.9049" lon="6.15889">
        <ele>457.24</ele>
        <time>2012-09-16T06:43:06Z</time>
      </trkpt>
      <trkpt lat="45.90484" lon="6.15895">
        <ele>456.76</ele>
        <time>2012-09-16T06:43:13Z</time>
      </trkpt>
      <trkpt lat="45.9048" lon="6.15895">
        <ele>457.24</ele>
        <time>2012-09-16T06:43:18Z</time>
      </trkpt>
      <trkpt lat="45.90475" lon="6.15895">
        <ele>456.76</ele>
        <time>2012-09-16T06:43:25Z</time>
      </trkpt>
      <trkpt lat="45.90467" lon="6.15905">
        <ele>456.76</ele>
        <time>2012-09-16T06:43:32Z</time>
      </trkpt>
      <trkpt lat="45.90464" lon="6.15905">
        <ele>456.28</ele>
        <time>2012-09-16T06:43:35Z</time>
      </trkpt>
      <trkpt lat="45.90461" lon="6.1591">
        <ele>455.32</ele>
        <time>2012-09-16T06:43:39Z</time>
      </trkpt>
      <trkpt lat="45.90457" lon="6.15909">
        <ele>455.32</ele>
        <time>2012-09-16T06:43:43Z</time>
      </trkpt>
      <trkpt lat="45.90455" lon="6.15911">
        <ele>454.84</ele>
        <time>2012-09-16T06:43:45Z</time>
      </trkpt>
      <trkpt lat="45.90447" lon="6.1592">
        <ele>453.4</ele>
        <time>2012-09-16T06:43:52Z</time>
      </trkpt>
      <trkpt lat="45.90444" lon="6.15918">
        <ele>451.96</ele>
        <time>2012-09-16T06:43:58Z</time>
      </trkpt>
      <trkpt lat="45.90439" lon="6.15917">
        <ele>450.03</ele>
        <time>2012-09-16T06:44:04Z</time>
      </trkpt>
      <trkpt lat="45.90437" lon="6.15917">
        <ele>449.55</ele>
        <time>2012-09-16T06:44:07Z</time>
      </trkpt>
      <trkpt lat="45.90429" lon="6.15922">
        <ele>448.11</ele>
        <time>2012-09-16T06:44:13Z</time>
      </trkpt>
      <trkpt lat="45.90422" lon="6.15927">
        <ele>448.59</ele>
        <time>2012-09-16T06:44:19Z</time>
      </trkpt>
      <trkpt lat="45.90419" lon="6.15931">
        <ele>448.59</ele>
        <time>2012-09-16T06:44:21Z</time>
      </trkpt>
      <trkpt lat="45.9041" lon="6.15936">
        <ele>448.59</ele>
        <time>2012-09-16T06:44:28Z</time>
      </trkpt>
      <trkpt lat="45.90407" lon="6.15938">
        <ele>448.59</ele>
        <time>2012-09-16T06:44:31Z</time>
      </trkpt>
      <trkpt lat="45.90402" lon="6.15942">
        <ele>449.07</ele>
        <time>2012-09-16T06:44:36Z</time>
      </trkpt>
      <trkpt lat="45.90399" lon="6.15951">
        <ele>449.07</ele>
        <time>2012-09-16T06:44:42Z</time>
      </trkpt>
      <trkpt lat="45.90397" lon="6.15954">
        <ele>448.59</ele>
        <time>2012-09-16T06:44:46Z</time>
      </trkpt>
      <trkpt lat="45.90389" lon="6.15958">
        <ele>448.59</ele>
        <time>2012-09-16T06:44:52Z</time>
      </trkpt>
      <trkpt lat="45.90392" lon="6.15975">
        <ele>448.59</ele>
        <time>2012-09-16T06:44:59Z</time>
      </trkpt>
      <trkpt lat="45.904" lon="6.15977">
        <ele>449.07</ele>
        <time>2012-09-16T06:45:06Z</time>
      </trkpt>
      <trkpt lat="45.904" lon="6.15979">
        <ele>449.55</ele>
        <time>2012-09-16T06:45:16Z</time>
      </trkpt>
      <trkpt lat="45.904" lon="6.15983">
        <ele>450.03</ele>
        <time>2012-09-16T06:45:21Z</time>
      </trkpt>
      <trkpt lat="45.90396" lon="6.15998">
        <ele>451.96</ele>
        <time>2012-09-16T06:45:29Z</time>
      </trkpt>
      <trkpt lat="45.90393" lon="6.16016">
        <ele>455.8</ele>
        <time>2012-09-16T06:45:34Z</time>
      </trkpt>
      <trkpt lat="45.90391" lon="6.16039">
        <ele>460.13</ele>
        <time>2012-09-16T06:45:40Z</time>
      </trkpt>
      <trkpt lat="45.90392" lon="6.1605">
        <ele>463.01</ele>
        <time>2012-09-16T06:45:44Z</time>
      </trkpt>
      <trkpt lat="45.90398" lon="6.16061">
        <ele>468.3</ele>
        <time>2012-09-16T06:45:52Z</time>
      </trkpt>
      <trkpt lat="45.90399" lon="6.16072">
        <ele>470.7</ele>
        <time>2012-09-16T06:45:58Z</time>
      </trkpt>
      <trkpt lat="45.90403" lon="6.16082">
        <ele>473.59</ele>
        <time>2012-09-16T06:46:05Z</time>
      </trkpt>
      <trkpt lat="45.90407" lon="6.16089">
        <ele>475.03</ele>
        <time>2012-09-16T06:46:11Z</time>
      </trkpt>
      <trkpt lat="45.90404" lon="6.16101">
        <ele>474.55</ele>
        <time>2012-09-16T06:46:17Z</time>
      </trkpt>
      <trkpt lat="45.90404" lon="6.16105">
        <ele>474.07</ele>
        <time>2012-09-16T06:46:19Z</time>
      </trkpt>
      <trkpt lat="45.90403" lon="6.16106">
        <ele>473.11</ele>
        <time>2012-09-16T06:46:21Z</time>
      </trkpt>
      <trkpt lat="45.90405" lon="6.1611">
        <ele>470.22</ele>
        <time>2012-09-16T06:46:28Z</time>
      </trkpt>
      <trkpt lat="45.90409" lon="6.16112">
        <ele>468.78</ele>
        <time>2012-09-16T06:46:33Z</time>
      </trkpt>
      <trkpt lat="45.90418" lon="6.16098">
        <ele>464.93</ele>
        <time>2012-09-16T06:46:39Z</time>
      </trkpt>
      <trkpt lat="45.90422" lon="6.16098">
        <ele>463.01</ele>
        <time>2012-09-16T06:46:43Z</time>
      </trkpt>
      <trkpt lat="45.90423" lon="6.16105">
        <ele>462.05</ele>
        <time>2012-09-16T06:46:49Z</time>
      </trkpt>
      <trkpt lat="45.90425" lon="6.16106">
        <ele>461.09</ele>
        <time>2012-09-16T06:46:52Z</time>
      </trkpt>
      <trkpt lat="45.90422" lon="6.16117">
        <ele>461.09</ele>
        <time>2012-09-16T06:46:56Z</time>
      </trkpt>
      <trkpt lat="45.90424" lon="6.16122">
        <ele>461.57</ele>
        <time>2012-09-16T06:47:00Z</time>
      </trkpt>
      <trkpt lat="45.90432" lon="6.16129">
        <ele>462.05</ele>
        <time>2012-09-16T06:47:08Z</time>
      </trkpt>
      <trkpt lat="45.90433" lon="6.16129">
        <ele>462.05</ele>
        <time>2012-09-16T06:47:09Z</time>
      </trkpt>
      <trkpt lat="45.90438" lon="6.16138">
        <ele>461.57</ele>
        <time>2012-09-16T06:47:17Z</time>
      </trkpt>
      <trkpt lat="45.90441" lon="6.1614">
        <ele>462.05</ele>
        <time>2012-09-16T06:47:22Z</time>
      </trkpt>
      <trkpt lat="45.90444" lon="6.16141">
        <ele>462.53</ele>
        <time>2012-09-16T06:47:25Z</time>
      </trkpt>
      <trkpt lat="45.90446" lon="6.16146">
        <ele>463.97</ele>
        <time>2012-09-16T06:47:31Z</time>
      </trkpt>
      <trkpt lat="45.9045" lon="6.16152">
        <ele>464.93</ele>
        <time>2012-09-16T06:47:38Z</time>
      </trkpt>
      <trkpt lat="45.90453" lon="6.16157">
        <ele>464.93</ele>
        <time>2012-09-16T06:47:43Z</time>
      </trkpt>
      <trkpt lat="45.90456" lon="6.16159">
        <ele>464.93</ele>
        <time>2012-09-16T06:47:49Z</time>
      </trkpt>
      <trkpt lat="45.90458" lon="6.16162">
        <ele>465.9</ele>
        <time>2012-09-16T06:47:55Z</time>
      </trkpt>
      <trkpt lat="45.9046" lon="6.16169">
        <ele>467.34</ele>
        <time>2012-09-16T06:48:03Z</time>
      </trkpt>
      <trkpt lat="45.90463" lon="6.16177">
        <ele>468.78</ele>
        <time>2012-09-16T06:48:12Z</time>
      </trkpt>
      <trkpt lat="45.90464" lon="6.16179">
        <ele>470.22</ele>
        <time>2012-09-16T06:48:20Z</time>
      </trkpt>
      <trkpt lat="45.90464" lon="6.16185">
        <ele>472.14</ele>
        <time>2012-09-16T06:48:28Z</time>
      </trkpt>
      <trkpt lat="45.90464" lon="6.16195">
        <ele>473.11</ele>
        <time>2012-09-16T06:48:36Z</time>
      </trkpt>
      <trkpt lat="45.9047" lon="6.16193">
        <ele>475.03</ele>
        <time>2012-09-16T06:48:40Z</time>
      </trkpt>
      <trkpt lat="45.90474" lon="6.16192">
        <ele>476.47</ele>
        <time>2012-09-16T06:48:48Z</time>
      </trkpt>
      <trkpt lat="45.90472" lon="6.162">
        <ele>476.95</ele>
        <time>2012-09-16T06:48:56Z</time>
      </trkpt>
      <trkpt lat="45.90471" lon="6.16215">
        <ele>477.91</ele>
        <time>2012-09-16T06:49:07Z</time>
      </trkpt>
      <trkpt lat="45.90472" lon="6.16222">
        <ele>478.87</ele>
        <time>2012-09-16T06:49:16Z</time>
      </trkpt>
      <trkpt lat="45.90471" lon="6.16232">
        <ele>479.35</ele>
        <time>2012-09-16T06:49:21Z</time>
      </trkpt>
      <trkpt lat="45.90469" lon="6.16252">
        <ele>479.35</ele>
        <time>2012-09-16T06:49:32Z</time>
      </trkpt>
      <trkpt lat="45.90469" lon="6.16262">
        <ele>479.35</ele>
        <time>2012-09-16T06:49:43Z</time>
      </trkpt>
      <trkpt lat="45.90469" lon="6.16271">
        <ele>479.35</ele>
        <time>2012-09-16T06:49:52Z</time>
      </trkpt>
      <trkpt lat="45.90467" lon="6.1628">
        <ele>479.84</ele>
        <time>2012-09-16T06:50:02Z</time>
      </trkpt>
      <trkpt lat="45.90466" lon="6.16293">
        <ele>479.84</ele>
        <time>2012-09-16T06:50:13Z</time>
      </trkpt>
      <trkpt lat="45.90466" lon="6.16305">
        <ele>479.84</ele>
        <time>2012-09-16T06:50:21Z</time>
      </trkpt>
      <trkpt lat="45.90467" lon="6.16308">
        <ele>479.84</ele>
        <time>2012-09-16T06:50:26Z</time>
      </trkpt>
      <trkpt lat="45.90465" lon="6.16312">
        <ele>479.84</ele>
        <time>2012-09-16T06:50:34Z</time>
      </trkpt>
      <trkpt lat="45.90465" lon="6.16316">
        <ele>479.84</ele>
        <time>2012-09-16T06:50:43Z</time>
      </trkpt>
      <trkpt lat="45.90468" lon="6.16328">
        <ele>479.84</ele>
        <time>2012-09-16T06:50:56Z</time>
      </trkpt>
      <trkpt lat="45.9047" lon="6.16331">
        <ele>479.84</ele>
        <time>2012-09-16T06:50:59Z</time>
      </trkpt>
      <trkpt lat="45.90476" lon="6.16345">
        <ele>479.84</ele>
        <time>2012-09-16T06:51:09Z</time>
      </trkpt>
      <trkpt lat="45.90479" lon="6.16364">
        <ele>479.84</ele>
        <time>2012-09-16T06:51:18Z</time>
      </trkpt>
      <trkpt lat="45.90477" lon="6.16383">
        <ele>479.84</ele>
        <time>2012-09-16T06:51:31Z</time>
      </trkpt>
      <trkpt lat="45.90478" lon="6.16383">
        <ele>479.84</ele>
        <time>2012-09-16T06:51:42Z</time>
      </trkpt>
      <trkpt lat="45.90486" lon="6.16385">
        <ele>479.84</ele>
        <time>2012-09-16T06:51:53Z</time>
      </trkpt>
      <trkpt lat="45.90493" lon="6.16387">
        <ele>479.84</ele>
        <time>2012-09-16T06:52:05Z</time>
      </trkpt>
      <trkpt lat="45.905" lon="6.16389">
        <ele>479.84</ele>
        <time>2012-09-16T06:52:16Z</time>
      </trkpt>
      <trkpt lat="45.90507" lon="6.16395">
        <ele>479.84</ele>
        <time>2012-09-16T06:52:25Z</time>
      </trkpt>
      <trkpt lat="45.90518" lon="6.16401">
        <ele>480.32</ele>
        <time>2012-09-16T06:52:34Z</time>
      </trkpt>
      <trkpt lat="45.90525" lon="6.16393">
        <ele>480.32</ele>
        <time>2012-09-16T06:52:41Z</time>
      </trkpt>
      <trkpt lat="45.90529" lon="6.16396">
        <ele>480.32</ele>
        <time>2012-09-16T06:52:50Z</time>
      </trkpt>
      <trkpt lat="45.90531" lon="6.16401">
        <ele>480.32</ele>
        <time>2012-09-16T06:53:00Z</time>
      </trkpt>
      <trkpt lat="45.90532" lon="6.16402">
        <ele>480.32</ele>
        <time>2012-09-16T06:53:11Z</time>
      </trkpt>
      <trkpt lat="45.90531" lon="6.16402">
        <ele>480.32</ele>
        <time>2012-09-16T06:53:20Z</time>
      </trkpt>
      <trkpt lat="45.90532" lon="6.16404">
        <ele>480.32</ele>
        <time>2012-09-16T06:53:30Z</time>
      </trkpt>
      <trkpt lat="45.90531" lon="6.16402">
        <ele>480.32</ele>
        <time>2012-09-16T06:53:32Z</time>
      </trkpt>
      <trkpt lat="45.90527" lon="6.16392">
        <ele>479.84</ele>
        <time>2012-09-16T06:53:37Z</time>
      </trkpt>
      <trkpt lat="45.90521" lon="6.16381">
        <ele>479.84</ele>
        <time>2012-09-16T06:53:46Z</time>
      </trkpt>
      <trkpt lat="45.90514" lon="6.1638">
        <ele>479.84</ele>
        <time>2012-09-16T06:53:54Z</time>
      </trkpt>
      <trkpt lat="45.90509" lon="6.16397">
        <ele>479.84</ele>
        <time>2012-09-16T06:54:09Z</time>
      </trkpt>
      <trkpt lat="45.90494" lon="6.16414">
        <ele>479.84</ele>
        <time>2012-09-16T06:54:27Z</time>
      </trkpt>
      <trkpt lat="45.90482" lon="6.16421">
        <ele>479.84</ele>
        <time>2012-09-16T06:54:39Z</time>
      </trkpt>
      <trkpt lat="45.90477" lon="6.16421">
        <ele>479.84</ele>
        <time>2012-09-16T06:54:44Z</time>
      </trkpt>
      <trkpt lat="45.90472" lon="6.16412">
        <ele>479.84</ele>
        <time>2012-09-16T06:54:49Z</time>
      </trkpt>
      <trkpt lat="45.9047" lon="6.16405">
        <ele>479.84</ele>
        <time>2012-09-16T06:54:59Z</time>
      </trkpt>
      <trkpt lat="45.90479" lon="6.16407">
        <ele>479.84</ele>
        <time>2012-09-16T06:55:14Z</time>
      </trkpt>
      <trkpt lat="45.90485" lon="6.16413">
        <ele>479.84</ele>
        <time>2012-09-16T06:55:24Z</time>
      </trkpt>
      <trkpt lat="45.90489" lon="6.16418">
        <ele>479.84</ele>
        <time>2012-09-16T06:55:30Z</time>
      </trkpt>
      <trkpt lat="45.905" lon="6.16443">
        <ele>479.84</ele>
        <time>2012-09-16T06:55:47Z</time>
      </trkpt>
      <trkpt lat="45.90495" lon="6.16428">
        <ele>479.84</ele>
        <time>2012-09-16T06:56:24Z</time>
      </trkpt>
      <trkpt lat="45.9049" lon="6.16416">
        <ele>479.84</ele>
        <time>2012-09-16T06:56:38Z</time>
      </trkpt>
      <trkpt lat="45.90483" lon="6.16425">
        <ele>479.84</ele>
        <time>2012-09-16T06:56:45Z</time>
      </trkpt>
      <trkpt lat="45.90477" lon="6.16428">
        <ele>479.84</ele>
        <time>2012-09-16T06:56:54Z</time>
      </trkpt>
      <trkpt lat="45.9047" lon="6.16432">
        <ele>479.84</ele>
        <time>2012-09-16T06:57:04Z</time>
      </trkpt>
      <trkpt lat="45.90467" lon="6.16436">
        <ele>479.84</ele>
        <time>2012-09-16T06:57:12Z</time>
      </trkpt>
      <trkpt lat="45.90464" lon="6.16449">
        <ele>479.84</ele>
        <time>2012-09-16T06:57:25Z</time>
      </trkpt>
      <trkpt lat="45.90468" lon="6.16452">
        <ele>479.84</ele>
        <time>2012-09-16T06:57:36Z</time>
      </trkpt>
      <trkpt lat="45.90477" lon="6.1646">
        <ele>479.84</ele>
        <time>2012-09-16T06:57:51Z</time>
      </trkpt>
      <trkpt lat="45.90486" lon="6.16467">
        <ele>479.84</ele>
        <time>2012-09-16T06:58:08Z</time>
      </trkpt>
      <trkpt lat="45.90499" lon="6.1647">
        <ele>479.84</ele>
        <time>2012-09-16T06:58:24Z</time>
      </trkpt>
      <trkpt lat="45.905" lon="6.16473">
        <ele>479.84</ele>
        <time>2012-09-16T06:58:33Z</time>
      </trkpt>
      <trkpt lat="45.90503" lon="6.16468">
        <ele>479.84</ele>
        <time>2012-09-16T06:58:43Z</time>
      </trkpt>
      <trkpt lat="45.905" lon="6.16465">
        <ele>479.84</ele>
        <time>2012-09-16T06:58:53Z</time>
      </trkpt>
      <trkpt lat="45.90506" lon="6.1646">
        <ele>479.84</ele>
        <time>2012-09-16T06:59:04Z</time>
      </trkpt>
      <trkpt lat="45.90509" lon="6.16464">
        <ele>479.84</ele>
        <time>2012-09-16T06:59:19Z</time>
      </trkpt>
      <trkpt lat="45.90511" lon="6.16476">
        <ele>479.84</ele>
        <time>2012-09-16T06:59:31Z</time>
      </trkpt>
      <trkpt lat="45.90517" lon="6.1648">
        <ele>479.84</ele>
        <time>2012-09-16T06:59:40Z</time>
      </trkpt>
      <trkpt lat="45.90518" lon="6.16478">
        <ele>479.84</ele>
        <time>2012-09-16T06:59:48Z</time>
      </trkpt>
      <trkpt lat="45.90524" lon="6.16483">
        <ele>479.84</ele>
        <time>2012-09-16T06:59:57Z</time>
      </trkpt>
      <trkpt lat="45.90535" lon="6.1649">
        <ele>479.84</ele>
        <time>2012-09-16T07:00:08Z</time>
      </trkpt>
      <trkpt lat="45.90541" lon="6.16499">
        <ele>479.84</ele>
        <time>2012-09-16T07:00:15Z</time>
      </trkpt>
      <trkpt lat="45.90551" lon="6.16514">
        <ele>479.84</ele>
        <time>2012-09-16T07:00:27Z</time>
      </trkpt>
      <trkpt lat="45.90563" lon="6.16525">
        <ele>479.84</ele>
        <time>2012-09-16T07:00:40Z</time>
      </trkpt>
      <trkpt lat="45.90572" lon="6.16528">
        <ele>480.32</ele>
        <time>2012-09-16T07:00:53Z</time>
      </trkpt>
      <trkpt lat="45.90579" lon="6.16529">
        <ele>480.32</ele>
        <time>2012-09-16T07:01:01Z</time>
      </trkpt>
      <trkpt lat="45.90588" lon="6.16534">
        <ele>480.32</ele>
        <time>2012-09-16T07:01:12Z</time>
      </trkpt>
      <trkpt lat="45.906" lon="6.16546">
        <ele>480.32</ele>
        <time>2012-09-16T07:01:31Z</time>
      </trkpt>
      <trkpt lat="45.90599" lon="6.16545">
        <ele>480.32</ele>
        <time>2012-09-16T07:01:40Z</time>
      </trkpt>
      <trkpt lat="45.90598" lon="6.16545">
        <ele>480.32</ele>
        <time>2012-09-16T07:01:49Z</time>
      </trkpt>
      <trkpt lat="45.90603" lon="6.1654">
        <ele>480.32</ele>
        <time>2012-09-16T07:01:57Z</time>
      </trkpt>
      <trkpt lat="45.90605" lon="6.16531">
        <ele>480.32</ele>
        <time>2012-09-16T07:02:05Z</time>
      </trkpt>
      <trkpt lat="45.90602" lon="6.16525">
        <ele>480.32</ele>
        <time>2012-09-16T07:02:14Z</time>
      </trkpt>
      <trkpt lat="45.90604" lon="6.16525">
        <ele>480.32</ele>
        <time>2012-09-16T07:02:25Z</time>
      </trkpt>
      <trkpt lat="45.90609" lon="6.16532">
        <ele>480.32</ele>
        <time>2012-09-16T07:02:38Z</time>
      </trkpt>
      <trkpt lat="45.90612" lon="6.16529">
        <ele>480.32</ele>
        <time>2012-09-16T07:02:47Z</time>
      </trkpt>
      <trkpt lat="45.90616" lon="6.16529">
        <ele>480.32</ele>
        <time>2012-09-16T07:02:58Z</time>
      </trkpt>
      <trkpt lat="45.90614" lon="6.16532">
        <ele>480.32</ele>
        <time>2012-09-16T07:03:12Z</time>
      </trkpt>
      <trkpt lat="45.90611" lon="6.16533">
        <ele>480.32</ele>
        <time>2012-09-16T07:03:17Z</time>
      </trkpt>
      <trkpt lat="45.90604" lon="6.16534">
        <ele>480.32</ele>
        <time>2012-09-16T07:03:25Z</time>
      </trkpt>
      <trkpt lat="45.90602" lon="6.16536">
        <ele>480.32</ele>
        <time>2012-09-16T07:03:29Z</time>
      </trkpt>
      <trkpt lat="45.90596" lon="6.16545">
        <ele>480.32</ele>
        <time>2012-09-16T07:03:40Z</time>
      </trkpt>
      <trkpt lat="45.90594" lon="6.16548">
        <ele>480.32</ele>
        <time>2012-09-16T07:03:48Z</time>
      </trkpt>
      <trkpt lat="45.90594" lon="6.16551">
        <ele>480.32</ele>
        <time>2012-09-16T07:03:50Z</time>
      </trkpt>
      <trkpt lat="45.90594" lon="6.16543">
        <ele>480.32</ele>
        <time>2012-09-16T07:03:58Z</time>
      </trkpt>
      <trkpt lat="45.90595" lon="6.1654">
        <ele>480.32</ele>
        <time>2012-09-16T07:04:05Z</time>
      </trkpt>
      <trkpt lat="45.90595" lon="6.16546">
        <ele>480.32</ele>
        <time>2012-09-16T07:04:18Z</time>
      </trkpt>
      <trkpt lat="45.9053" lon="6.16601">
        <ele>554.34</ele>
        <time>2012-09-16T07:04:33Z</time>
      </trkpt>
      <trkpt lat="45.9052" lon="6.16574">
        <ele>595.67</ele>
        <time>2012-09-16T07:04:50Z</time>
      </trkpt>
      <trkpt lat="45.90523" lon="6.16565">
        <ele>609.61</ele>
        <time>2012-09-16T07:05:06Z</time>
      </trkpt>
      <trkpt lat="45.90527" lon="6.16562">
        <ele>610.09</ele>
        <time>2012-09-16T07:05:23Z</time>
      </trkpt>
      <trkpt lat="45.9053" lon="6.16546">
        <ele>607.69</ele>
        <time>2012-09-16T07:05:42Z</time>
      </trkpt>
      <trkpt lat="45.90526" lon="6.16552">
        <ele>607.69</ele>
        <time>2012-09-16T07:06:01Z</time>
      </trkpt>
      <trkpt lat="45.90527" lon="6.16556">
        <ele>611.06</ele>
        <time>2012-09-16T07:06:21Z</time>
      </trkpt>
      <trkpt lat="45.90528" lon="6.16556">
        <ele>612.5</ele>
        <time>2012-09-16T07:06:37Z</time>
      </trkpt>
      <trkpt lat="45.90528" lon="6.16555">
        <ele>613.46</ele>
        <time>2012-09-16T07:06:53Z</time>
      </trkpt>
      <trkpt lat="45.90527" lon="6.16554">
        <ele>613.94</ele>
        <time>2012-09-16T07:07:10Z</time>
      </trkpt>
      <trkpt lat="45.90527" lon="6.16552">
        <ele>616.82</ele>
        <time>2012-09-16T07:07:26Z</time>
      </trkpt>
      <trkpt lat="45.90527" lon="6.16552">
        <ele>618.26</ele>
        <time>2012-09-16T07:07:42Z</time>
      </trkpt>
      <trkpt lat="45.90527" lon="6.1655">
        <ele>621.15</ele>
        <time>2012-09-16T07:07:57Z</time>
      </trkpt>
      <trkpt lat="45.90526" lon="6.1655">
        <ele>623.07</ele>
        <time>2012-09-16T07:08:14Z</time>
      </trkpt>
      <trkpt lat="45.90526" lon="6.16548">
        <ele>627.88</ele>
        <time>2012-09-16T07:08:33Z</time>
      </trkpt>
      <trkpt lat="45.90525" lon="6.16545">
        <ele>631.72</ele>
        <time>2012-09-16T07:08:51Z</time>
      </trkpt>
      <trkpt lat="45.90525" lon="6.16543">
        <ele>634.61</ele>
        <time>2012-09-16T07:09:08Z</time>
      </trkpt>
      <trkpt lat="45.90525" lon="6.16545">
        <ele>634.61</ele>
        <time>2012-09-16T07:09:16Z</time>
      </trkpt>
      <trkpt lat="45.90525" lon="6.16547">
        <ele>635.09</ele>
        <time>2012-09-16T07:09:22Z</time>
      </trkpt>
      <trkpt lat="45.90526" lon="6.16547">
        <ele>634.61</ele>
        <time>2012-09-16T07:09:31Z</time>
      </trkpt>
      <trkpt lat="45.90525" lon="6.1655">
        <ele>634.61</ele>
        <time>2012-09-16T07:09:41Z</time>
      </trkpt>
      <trkpt lat="45.90525" lon="6.16552">
        <ele>634.13</ele>
        <time>2012-09-16T07:09:53Z</time>
      </trkpt>
      <trkpt lat="45.90526" lon="6.16557">
        <ele>633.65</ele>
        <time>2012-09-16T07:10:01Z</time>
      </trkpt>
      <trkpt lat="45.90525" lon="6.16551">
        <ele>638.45</ele>
        <time>2012-09-16T07:10:09Z</time>
      </trkpt>
      <trkpt lat="45.90522" lon="6.16546">
        <ele>640.86</ele>
        <time>2012-09-16T07:10:17Z</time>
      </trkpt>
      <trkpt lat="45.90521" lon="6.16546">
        <ele>641.34</ele>
        <time>2012-09-16T07:10:25Z</time>
      </trkpt>
      <trkpt lat="45.90517" lon="6.16543">
        <ele>642.78</ele>
        <time>2012-09-16T07:10:33Z</time>
      </trkpt>
      <trkpt lat="45.90515" lon="6.16543">
        <ele>645.18</ele>
        <time>2012-09-16T07:10:36Z</time>
      </trkpt>
      <trkpt lat="45.90508" lon="6.16541">
        <ele>651.43</ele>
        <time>2012-09-16T07:10:45Z</time>
      </trkpt>
      <trkpt lat="45.90505" lon="6.1654">
        <ele>654.31</ele>
        <time>2012-09-16T07:10:54Z</time>
      </trkpt>
      <trkpt lat="45.90499" lon="6.1654">
        <ele>656.72</ele>
        <time>2012-09-16T07:11:01Z</time>
      </trkpt>
      <trkpt lat="45.90496" lon="6.16536">
        <ele>655.28</ele>
        <time>2012-09-16T07:11:07Z</time>
      </trkpt>
      <trkpt lat="45.90488" lon="6.16538">
        <ele>653.83</ele>
        <time>2012-09-16T07:11:14Z</time>
      </trkpt>
      <trkpt lat="45.90485" lon="6.16538">
        <ele>653.83</ele>
        <time>2012-09-16T07:11:18Z</time>
      </trkpt>
      <trkpt lat="45.90477" lon="6.16538">
        <ele>652.87</ele>
        <time>2012-09-16T07:11:26Z</time>
      </trkpt>
      <trkpt lat="45.90473" lon="6.1654">
        <ele>652.39</ele>
        <time>2012-09-16T07:11:33Z</time>
      </trkpt>
      <trkpt lat="45.90468" lon="6.16541">
        <ele>654.31</ele>
        <time>2012-09-16T07:11:41Z</time>
      </trkpt>
      <trkpt lat="45.90466" lon="6.16547">
        <ele>654.8</ele>
        <time>2012-09-16T07:11:50Z</time>
      </trkpt>
      <trkpt lat="45.9047" lon="6.16554">
        <ele>655.76</ele>
        <time>2012-09-16T07:11:59Z</time>
      </trkpt>
      <trkpt lat="45.90478" lon="6.16561">
        <ele>656.24</ele>
        <time>2012-09-16T07:12:07Z</time>
      </trkpt>
      <trkpt lat="45.90484" lon="6.16569">
        <ele>656.24</ele>
        <time>2012-09-16T07:12:16Z</time>
      </trkpt>
      <trkpt lat="45.90486" lon="6.16573">
        <ele>656.72</ele>
        <time>2012-09-16T07:12:24Z</time>
      </trkpt>
      <trkpt lat="45.90486" lon="6.16572">
        <ele>655.76</ele>
        <time>2012-09-16T07:12:31Z</time>
      </trkpt>
      <trkpt lat="45.90487" lon="6.16574">
        <ele>657.2</ele>
        <time>2012-09-16T07:12:38Z</time>
      </trkpt>
      <trkpt lat="45.90487" lon="6.16577">
        <ele>658.16</ele>
        <time>2012-09-16T07:12:46Z</time>
      </trkpt>
      <trkpt lat="45.90489" lon="6.16584">
        <ele>657.68</ele>
        <time>2012-09-16T07:12:55Z</time>
      </trkpt>
      <trkpt lat="45.90497" lon="6.16591">
        <ele>658.16</ele>
        <time>2012-09-16T07:13:04Z</time>
      </trkpt>
      <trkpt lat="45.90507" lon="6.16595">
        <ele>659.12</ele>
        <time>2012-09-16T07:13:13Z</time>
      </trkpt>
      <trkpt lat="45.90514" lon="6.16601">
        <ele>658.16</ele>
        <time>2012-09-16T07:13:24Z</time>
      </trkpt>
      <trkpt lat="45.90522" lon="6.16606">
        <ele>656.72</ele>
        <time>2012-09-16T07:13:34Z</time>
      </trkpt>
      <trkpt lat="45.90525" lon="6.16612">
        <ele>658.64</ele>
        <time>2012-09-16T07:13:43Z</time>
      </trkpt>
      <trkpt lat="45.90532" lon="6.16615">
        <ele>658.16</ele>
        <time>2012-09-16T07:13:52Z</time>
      </trkpt>
      <trkpt lat="45.90536" lon="6.16612">
        <ele>658.64</ele>
        <time>2012-09-16T07:14:01Z</time>
      </trkpt>
      <trkpt lat="45.90535" lon="6.16611">
        <ele>660.08</ele>
        <time>2012-09-16T07:14:06Z</time>
      </trkpt>
      <trkpt lat="45.9053" lon="6.16608">
        <ele>662.01</ele>
        <time>2012-09-16T07:14:14Z</time>
      </trkpt>
      <trkpt lat="45.90525" lon="6.1661">
        <ele>664.89</ele>
        <time>2012-09-16T07:14:22Z</time>
      </trkpt>
      <trkpt lat="45.90521" lon="6.16612">
        <ele>666.81</ele>
        <time>2012-09-16T07:14:31Z</time>
      </trkpt>
      <trkpt lat="45.90521" lon="6.16621">
        <ele>667.77</ele>
        <time>2012-09-16T07:14:39Z</time>
      </trkpt>
      <trkpt lat="45.90522" lon="6.16627">
        <ele>669.22</ele>
        <time>2012-09-16T07:14:48Z</time>
      </trkpt>
      <trkpt lat="45.90526" lon="6.16632">
        <ele>670.18</ele>
        <time>2012-09-16T07:14:57Z</time>
      </trkpt>
      <trkpt lat="45.9053" lon="6.16635">
        <ele>670.66</ele>
        <time>2012-09-16T07:15:08Z</time>
      </trkpt>
      <trkpt lat="45.90537" lon="6.16639">
        <ele>672.1</ele>
        <time>2012-09-16T07:15:17Z</time>
      </trkpt>
      <trkpt lat="45.90544" lon="6.16645">
        <ele>675.46</ele>
        <time>2012-09-16T07:15:28Z</time>
      </trkpt>
      <trkpt lat="45.90551" lon="6.16649">
        <ele>675.94</ele>
        <time>2012-09-16T07:15:37Z</time>
      </trkpt>
      <trkpt lat="45.90551" lon="6.16653">
        <ele>676.42</ele>
        <time>2012-09-16T07:15:48Z</time>
      </trkpt>
      <trkpt lat="45.90556" lon="6.16662">
        <ele>680.27</ele>
        <time>2012-09-16T07:15:58Z</time>
      </trkpt>
      <trkpt lat="45.90561" lon="6.16665">
        <ele>682.19</ele>
        <time>2012-09-16T07:16:07Z</time>
      </trkpt>
      <trkpt lat="45.90563" lon="6.16666">
        <ele>684.6</ele>
        <time>2012-09-16T07:16:15Z</time>
      </trkpt>
      <trkpt lat="45.90568" lon="6.1667">
        <ele>687.96</ele>
        <time>2012-09-16T07:16:26Z</time>
      </trkpt>
      <trkpt lat="45.90572" lon="6.16675">
        <ele>690.84</ele>
        <time>2012-09-16T07:16:36Z</time>
      </trkpt>
      <trkpt lat="45.90572" lon="6.16678">
        <ele>692.77</ele>
        <time>2012-09-16T07:16:40Z</time>
      </trkpt>
      <trkpt lat="45.90588" lon="6.16683">
        <ele>691.81</ele>
        <time>2012-09-16T07:16:50Z</time>
      </trkpt>
      <trkpt lat="45.90593" lon="6.16681">
        <ele>690.36</ele>
        <time>2012-09-16T07:17:00Z</time>
      </trkpt>
      <trkpt lat="45.906" lon="6.16678">
        <ele>691.81</ele>
        <time>2012-09-16T07:17:10Z</time>
      </trkpt>
      <trkpt lat="45.90608" lon="6.16669">
        <ele>691.33</ele>
        <time>2012-09-16T07:17:21Z</time>
      </trkpt>
      <trkpt lat="45.90613" lon="6.16668">
        <ele>689.4</ele>
        <time>2012-09-16T07:17:31Z</time>
      </trkpt>
      <trkpt lat="45.90619" lon="6.16667">
        <ele>689.88</ele>
        <time>2012-09-16T07:17:38Z</time>
      </trkpt>
      <trkpt lat="45.90618" lon="6.16664">
        <ele>693.73</ele>
        <time>2012-09-16T07:17:45Z</time>
      </trkpt>
      <trkpt lat="45.90615" lon="6.16665">
        <ele>694.69</ele>
        <time>2012-09-16T07:17:52Z</time>
      </trkpt>
      <trkpt lat="45.90612" lon="6.16674">
        <ele>694.69</ele>
        <time>2012-09-16T07:18:01Z</time>
      </trkpt>
      <trkpt lat="45.90609" lon="6.16682">
        <ele>696.61</ele>
        <time>2012-09-16T07:18:11Z</time>
      </trkpt>
      <trkpt lat="45.90605" lon="6.16687">
        <ele>699.02</ele>
        <time>2012-09-16T07:18:19Z</time>
      </trkpt>
      <trkpt lat="45.90603" lon="6.16691">
        <ele>701.42</ele>
        <time>2012-09-16T07:18:26Z</time>
      </trkpt>
      <trkpt lat="45.906" lon="6.16698">
        <ele>703.34</ele>
        <time>2012-09-16T07:18:34Z</time>
      </trkpt>
      <trkpt lat="45.90603" lon="6.16704">
        <ele>704.3</ele>
        <time>2012-09-16T07:18:42Z</time>
      </trkpt>
      <trkpt lat="45.9061" lon="6.16703">
        <ele>706.71</ele>
        <time>2012-09-16T07:18:53Z</time>
      </trkpt>
      <trkpt lat="45.90614" lon="6.16702">
        <ele>707.67</ele>
        <time>2012-09-16T07:19:02Z</time>
      </trkpt>
      <trkpt lat="45.90617" lon="6.16701">
        <ele>708.63</ele>
        <time>2012-09-16T07:19:10Z</time>
      </trkpt>
      <trkpt lat="45.90624" lon="6.16699">
        <ele>709.59</ele>
        <time>2012-09-16T07:19:20Z</time>
      </trkpt>
      <trkpt lat="45.90629" lon="6.16693">
        <ele>709.59</ele>
        <time>2012-09-16T07:19:29Z</time>
      </trkpt>
      <trkpt lat="45.90632" lon="6.16694">
        <ele>709.11</ele>
        <time>2012-09-16T07:19:38Z</time>
      </trkpt>
      <trkpt lat="45.90629" lon="6.1669">
        <ele>713.44</ele>
        <time>2012-09-16T07:19:46Z</time>
      </trkpt>
      <trkpt lat="45.90627" lon="6.16696">
        <ele>713.92</ele>
        <time>2012-09-16T07:19:54Z</time>
      </trkpt>
      <trkpt lat="45.90626" lon="6.16705">
        <ele>713.92</ele>
        <time>2012-09-16T07:20:03Z</time>
      </trkpt>
      <trkpt lat="45.90623" lon="6.16711">
        <ele>715.84</ele>
        <time>2012-09-16T07:20:13Z</time>
      </trkpt>
      <trkpt lat="45.9062" lon="6.16717">
        <ele>717.28</ele>
        <time>2012-09-16T07:20:22Z</time>
      </trkpt>
      <trkpt lat="45.90625" lon="6.16716">
        <ele>718.24</ele>
        <time>2012-09-16T07:20:31Z</time>
      </trkpt>
      <trkpt lat="45.90633" lon="6.16718">
        <ele>718.24</ele>
        <time>2012-09-16T07:20:42Z</time>
      </trkpt>
      <trkpt lat="45.9064" lon="6.16714">
        <ele>719.2</ele>
        <time>2012-09-16T07:20:52Z</time>
      </trkpt>
      <trkpt lat="45.90643" lon="6.16712">
        <ele>719.2</ele>
        <time>2012-09-16T07:20:59Z</time>
      </trkpt>
      <trkpt lat="45.90651" lon="6.16712">
        <ele>720.16</ele>
        <time>2012-09-16T07:21:09Z</time>
      </trkpt>
      <trkpt lat="45.90658" lon="6.16713">
        <ele>720.65</ele>
        <time>2012-09-16T07:21:19Z</time>
      </trkpt>
      <trkpt lat="45.90663" lon="6.16714">
        <ele>721.61</ele>
        <time>2012-09-16T07:21:27Z</time>
      </trkpt>
      <trkpt lat="45.90669" lon="6.16715">
        <ele>721.13</ele>
        <time>2012-09-16T07:21:37Z</time>
      </trkpt>
      <trkpt lat="45.90681" lon="6.1672">
        <ele>720.16</ele>
        <time>2012-09-16T07:21:49Z</time>
      </trkpt>
      <trkpt lat="45.90687" lon="6.16723">
        <ele>722.57</ele>
        <time>2012-09-16T07:22:00Z</time>
      </trkpt>
      <trkpt lat="45.90691" lon="6.16725">
        <ele>723.53</ele>
        <time>2012-09-16T07:22:09Z</time>
      </trkpt>
      <trkpt lat="45.90693" lon="6.16726">
        <ele>724.01</ele>
        <time>2012-09-16T07:22:18Z</time>
      </trkpt>
      <trkpt lat="45.90691" lon="6.16726">
        <ele>724.97</ele>
        <time>2012-09-16T07:22:27Z</time>
      </trkpt>
      <trkpt lat="45.90688" lon="6.16726">
        <ele>726.89</ele>
        <time>2012-09-16T07:22:34Z</time>
      </trkpt>
      <trkpt lat="45.90683" lon="6.16726">
        <ele>730.74</ele>
        <time>2012-09-16T07:22:43Z</time>
      </trkpt>
      <trkpt lat="45.90677" lon="6.16727">
        <ele>734.1</ele>
        <time>2012-09-16T07:22:52Z</time>
      </trkpt>
      <trkpt lat="45.90671" lon="6.1673">
        <ele>737.95</ele>
        <time>2012-09-16T07:23:00Z</time>
      </trkpt>
      <trkpt lat="45.90663" lon="6.16738">
        <ele>741.31</ele>
        <time>2012-09-16T07:23:10Z</time>
      </trkpt>
      <trkpt lat="45.90658" lon="6.16745">
        <ele>745.16</ele>
        <time>2012-09-16T07:23:20Z</time>
      </trkpt>
      <trkpt lat="45.90652" lon="6.16752">
        <ele>747.08</ele>
        <time>2012-09-16T07:23:30Z</time>
      </trkpt>
      <trkpt lat="45.90648" lon="6.16763">
        <ele>748.52</ele>
        <time>2012-09-16T07:23:40Z</time>
      </trkpt>
      <trkpt lat="45.90644" lon="6.16771">
        <ele>749</ele>
        <time>2012-09-16T07:23:48Z</time>
      </trkpt>
      <trkpt lat="45.90642" lon="6.16777">
        <ele>749.49</ele>
        <time>2012-09-16T07:23:57Z</time>
      </trkpt>
      <trkpt lat="45.9064" lon="6.16784">
        <ele>749</ele>
        <time>2012-09-16T07:24:05Z</time>
      </trkpt>
      <trkpt lat="45.9064" lon="6.16788">
        <ele>749.49</ele>
        <time>2012-09-16T07:24:14Z</time>
      </trkpt>
      <trkpt lat="45.90645" lon="6.16789">
        <ele>750.45</ele>
        <time>2012-09-16T07:24:24Z</time>
      </trkpt>
      <trkpt lat="45.90649" lon="6.16787">
        <ele>751.41</ele>
        <time>2012-09-16T07:24:34Z</time>
      </trkpt>
      <trkpt lat="45.90657" lon="6.16785">
        <ele>751.89</ele>
        <time>2012-09-16T07:24:44Z</time>
      </trkpt>
      <trkpt lat="45.90664" lon="6.16784">
        <ele>750.93</ele>
        <time>2012-09-16T07:24:54Z</time>
      </trkpt>
      <trkpt lat="45.9067" lon="6.16783">
        <ele>752.37</ele>
        <time>2012-09-16T07:25:05Z</time>
      </trkpt>
      <trkpt lat="45.90671" lon="6.16776">
        <ele>753.81</ele>
        <time>2012-09-16T07:25:14Z</time>
      </trkpt>
      <trkpt lat="45.90672" lon="6.16776">
        <ele>754.29</ele>
        <time>2012-09-16T07:25:21Z</time>
      </trkpt>
      <trkpt lat="45.90666" lon="6.16778">
        <ele>756.69</ele>
        <time>2012-09-16T07:25:30Z</time>
      </trkpt>
      <trkpt lat="45.90664" lon="6.16784">
        <ele>759.58</ele>
        <time>2012-09-16T07:25:39Z</time>
      </trkpt>
      <trkpt lat="45.9066" lon="6.1679">
        <ele>760.06</ele>
        <time>2012-09-16T07:25:47Z</time>
      </trkpt>
      <trkpt lat="45.90655" lon="6.16797">
        <ele>761.02</ele>
        <time>2012-09-16T07:25:55Z</time>
      </trkpt>
      <trkpt lat="45.90651" lon="6.16807">
        <ele>761.02</ele>
        <time>2012-09-16T07:26:05Z</time>
      </trkpt>
      <trkpt lat="45.90649" lon="6.16814">
        <ele>757.18</ele>
        <time>2012-09-16T07:26:20Z</time>
      </trkpt>
      <trkpt lat="45.90649" lon="6.16815">
        <ele>756.69</ele>
        <time>2012-09-16T07:26:30Z</time>
      </trkpt>
      <trkpt lat="45.90648" lon="6.16816">
        <ele>756.69</ele>
        <time>2012-09-16T07:26:39Z</time>
      </trkpt>
      <trkpt lat="45.90649" lon="6.16816">
        <ele>757.18</ele>
        <time>2012-09-16T07:26:48Z</time>
      </trkpt>
      <trkpt lat="45.90649" lon="6.16816">
        <ele>757.18</ele>
        <time>2012-09-16T07:26:59Z</time>
      </trkpt>
      <trkpt lat="45.90653" lon="6.16814">
        <ele>757.66</ele>
        <time>2012-09-16T07:27:06Z</time>
      </trkpt>
      <trkpt lat="45.90662" lon="6.16813">
        <ele>758.62</ele>
        <time>2012-09-16T07:27:15Z</time>
      </trkpt>
      <trkpt lat="45.90672" lon="6.1681">
        <ele>760.06</ele>
        <time>2012-09-16T07:27:23Z</time>
      </trkpt>
      <trkpt lat="45.90681" lon="6.16805">
        <ele>759.58</ele>
        <time>2012-09-16T07:27:31Z</time>
      </trkpt>
      <trkpt lat="45.90684" lon="6.16807">
        <ele>759.58</ele>
        <time>2012-09-16T07:27:38Z</time>
      </trkpt>
      <trkpt lat="45.90683" lon="6.16808">
        <ele>761.02</ele>
        <time>2012-09-16T07:27:46Z</time>
      </trkpt>
      <trkpt lat="45.9068" lon="6.16816">
        <ele>764.39</ele>
        <time>2012-09-16T07:27:55Z</time>
      </trkpt>
      <trkpt lat="45.9068" lon="6.16818">
        <ele>765.35</ele>
        <time>2012-09-16T07:28:04Z</time>
      </trkpt>
      <trkpt lat="45.90678" lon="6.16822">
        <ele>763.9</ele>
        <time>2012-09-16T07:28:11Z</time>
      </trkpt>
      <trkpt lat="45.90678" lon="6.16824">
        <ele>763.42</ele>
        <time>2012-09-16T07:28:15Z</time>
      </trkpt>
      <trkpt lat="45.90678" lon="6.16828">
        <ele>762.46</ele>
        <time>2012-09-16T07:28:18Z</time>
      </trkpt>
      <trkpt lat="45.90678" lon="6.16831">
        <ele>761.5</ele>
        <time>2012-09-16T07:28:24Z</time>
      </trkpt>
      <trkpt lat="45.90677" lon="6.16833">
        <ele>760.54</ele>
        <time>2012-09-16T07:28:32Z</time>
      </trkpt>
      <trkpt lat="45.90677" lon="6.16839">
        <ele>758.14</ele>
        <time>2012-09-16T07:28:42Z</time>
      </trkpt>
      <trkpt lat="45.90677" lon="6.16843">
        <ele>756.69</ele>
        <time>2012-09-16T07:28:49Z</time>
      </trkpt>
      <trkpt lat="45.90674" lon="6.16847">
        <ele>759.58</ele>
        <time>2012-09-16T07:28:55Z</time>
      </trkpt>
      <trkpt lat="45.90673" lon="6.16848">
        <ele>761.5</ele>
        <time>2012-09-16T07:29:00Z</time>
      </trkpt>
      <trkpt lat="45.90674" lon="6.16846">
        <ele>761.5</ele>
        <time>2012-09-16T07:29:06Z</time>
      </trkpt>
      <trkpt lat="45.90675" lon="6.16846">
        <ele>763.42</ele>
        <time>2012-09-16T07:29:14Z</time>
      </trkpt>
      <trkpt lat="45.90679" lon="6.16844">
        <ele>763.42</ele>
        <time>2012-09-16T07:29:22Z</time>
      </trkpt>
      <trkpt lat="45.90683" lon="6.16843">
        <ele>765.35</ele>
        <time>2012-09-16T07:29:27Z</time>
      </trkpt>
      <trkpt lat="45.90687" lon="6.16843">
        <ele>765.83</ele>
        <time>2012-09-16T07:29:34Z</time>
      </trkpt>
      <trkpt lat="45.90689" lon="6.16841">
        <ele>767.27</ele>
        <time>2012-09-16T07:29:41Z</time>
      </trkpt>
      <trkpt lat="45.9069" lon="6.16839">
        <ele>768.23</ele>
        <time>2012-09-16T07:29:48Z</time>
      </trkpt>
      <trkpt lat="45.90694" lon="6.16838">
        <ele>769.19</ele>
        <time>2012-09-16T07:29:56Z</time>
      </trkpt>
      <trkpt lat="45.90699" lon="6.16836">
        <ele>771.11</ele>
        <time>2012-09-16T07:30:02Z</time>
      </trkpt>
      <trkpt lat="45.90705" lon="6.16835">
        <ele>773.04</ele>
        <time>2012-09-16T07:30:09Z</time>
      </trkpt>
      <trkpt lat="45.90708" lon="6.16833">
        <ele>774.48</ele>
        <time>2012-09-16T07:30:16Z</time>
      </trkpt>
      <trkpt lat="45.90715" lon="6.16828">
        <ele>774.96</ele>
        <time>2012-09-16T07:30:24Z</time>
      </trkpt>
      <trkpt lat="45.90721" lon="6.16828">
        <ele>775.92</ele>
        <time>2012-09-16T07:30:30Z</time>
      </trkpt>
      <trkpt lat="45.90723" lon="6.16827">
        <ele>776.88</ele>
        <time>2012-09-16T07:30:37Z</time>
      </trkpt>
      <trkpt lat="45.90727" lon="6.16827">
        <ele>779.29</ele>
        <time>2012-09-16T07:30:44Z</time>
      </trkpt>
      <trkpt lat="45.90727" lon="6.1683">
        <ele>778.32</ele>
        <time>2012-09-16T07:30:50Z</time>
      </trkpt>
      <trkpt lat="45.90727" lon="6.16837">
        <ele>777.84</ele>
        <time>2012-09-16T07:30:57Z</time>
      </trkpt>
      <trkpt lat="45.90727" lon="6.1684">
        <ele>777.84</ele>
        <time>2012-09-16T07:31:04Z</time>
      </trkpt>
      <trkpt lat="45.90727" lon="6.16843">
        <ele>777.84</ele>
        <time>2012-09-16T07:31:10Z</time>
      </trkpt>
      <trkpt lat="45.90725" lon="6.16847">
        <ele>777.36</ele>
        <time>2012-09-16T07:31:17Z</time>
      </trkpt>
      <trkpt lat="45.90725" lon="6.16849">
        <ele>777.36</ele>
        <time>2012-09-16T07:31:24Z</time>
      </trkpt>
      <trkpt lat="45.90724" lon="6.16854">
        <ele>776.4</ele>
        <time>2012-09-16T07:31:32Z</time>
      </trkpt>
      <trkpt lat="45.90721" lon="6.16858">
        <ele>775.92</ele>
        <time>2012-09-16T07:31:39Z</time>
      </trkpt>
      <trkpt lat="45.90718" lon="6.16862">
        <ele>774.96</ele>
        <time>2012-09-16T07:31:47Z</time>
      </trkpt>
      <trkpt lat="45.90716" lon="6.16869">
        <ele>774.96</ele>
        <time>2012-09-16T07:31:54Z</time>
      </trkpt>
      <trkpt lat="45.90713" lon="6.16877">
        <ele>774.48</ele>
        <time>2012-09-16T07:32:00Z</time>
      </trkpt>
      <trkpt lat="45.90708" lon="6.16886">
        <ele>774.48</ele>
        <time>2012-09-16T07:32:06Z</time>
      </trkpt>
      <trkpt lat="45.90703" lon="6.16895">
        <ele>774.48</ele>
        <time>2012-09-16T07:32:13Z</time>
      </trkpt>
      <trkpt lat="45.90701" lon="6.16902">
        <ele>774</ele>
        <time>2012-09-16T07:32:20Z</time>
      </trkpt>
      <trkpt lat="45.90702" lon="6.16907">
        <ele>774.48</ele>
        <time>2012-09-16T07:32:28Z</time>
      </trkpt>
      <trkpt lat="45.90701" lon="6.1691">
        <ele>774</ele>
        <time>2012-09-16T07:32:36Z</time>
      </trkpt>
      <trkpt lat="45.90701" lon="6.16913">
        <ele>774</ele>
        <time>2012-09-16T07:32:44Z</time>
      </trkpt>
      <trkpt lat="45.907" lon="6.16916">
        <ele>774</ele>
        <time>2012-09-16T07:32:52Z</time>
      </trkpt>
      <trkpt lat="45.907" lon="6.16918">
        <ele>774</ele>
        <time>2012-09-16T07:33:06Z</time>
      </trkpt>
      <trkpt lat="45.90699" lon="6.16919">
        <ele>773.52</ele>
        <time>2012-09-16T07:33:20Z</time>
      </trkpt>
      <trkpt lat="45.90699" lon="6.16919">
        <ele>773.52</ele>
        <time>2012-09-16T07:33:30Z</time>
      </trkpt>
      <trkpt lat="45.90696" lon="6.16921">
        <ele>773.52</ele>
        <time>2012-09-16T07:33:41Z</time>
      </trkpt>
      <trkpt lat="45.90691" lon="6.16929">
        <ele>773.52</ele>
        <time>2012-09-16T07:33:49Z</time>
      </trkpt>
      <trkpt lat="45.90685" lon="6.16939">
        <ele>773.52</ele>
        <time>2012-09-16T07:34:00Z</time>
      </trkpt>
      <trkpt lat="45.9068" lon="6.16942">
        <ele>774</ele>
        <time>2012-09-16T07:34:11Z</time>
      </trkpt>
      <trkpt lat="45.90669" lon="6.1695">
        <ele>774</ele>
        <time>2012-09-16T07:34:21Z</time>
      </trkpt>
      <trkpt lat="45.90664" lon="6.16951">
        <ele>774</ele>
        <time>2012-09-16T07:34:29Z</time>
      </trkpt>
      <trkpt lat="45.90662" lon="6.16953">
        <ele>774</ele>
        <time>2012-09-16T07:34:38Z</time>
      </trkpt>
      <trkpt lat="45.90663" lon="6.16953">
        <ele>774</ele>
        <time>2012-09-16T07:34:45Z</time>
      </trkpt>
      <trkpt lat="45.90658" lon="6.1696">
        <ele>774</ele>
        <time>2012-09-16T07:34:53Z</time>
      </trkpt>
      <trkpt lat="45.90659" lon="6.16963">
        <ele>774</ele>
        <time>2012-09-16T07:34:59Z</time>
      </trkpt>
      <trkpt lat="45.90661" lon="6.16965">
        <ele>773.52</ele>
        <time>2012-09-16T07:35:07Z</time>
      </trkpt>
      <trkpt lat="45.90673" lon="6.16974">
        <ele>773.52</ele>
        <time>2012-09-16T07:35:17Z</time>
      </trkpt>
      <trkpt lat="45.90679" lon="6.16981">
        <ele>774</ele>
        <time>2012-09-16T07:35:26Z</time>
      </trkpt>
      <trkpt lat="45.90681" lon="6.16985">
        <ele>774</ele>
        <time>2012-09-16T07:35:37Z</time>
      </trkpt>
      <trkpt lat="45.90687" lon="6.16995">
        <ele>774</ele>
        <time>2012-09-16T07:35:47Z</time>
      </trkpt>
      <trkpt lat="45.90686" lon="6.17007">
        <ele>781.69</ele>
        <time>2012-09-16T07:35:57Z</time>
      </trkpt>
      <trkpt lat="45.90674" lon="6.17">
        <ele>802.36</ele>
        <time>2012-09-16T07:36:08Z</time>
      </trkpt>
      <trkpt lat="45.90674" lon="6.17">
        <ele>817.74</ele>
        <time>2012-09-16T07:36:22Z</time>
      </trkpt>
      <trkpt lat="45.90675" lon="6.17001">
        <ele>823.03</ele>
        <time>2012-09-16T07:36:33Z</time>
      </trkpt>
      <trkpt lat="45.90676" lon="6.17002">
        <ele>827.83</ele>
        <time>2012-09-16T07:36:42Z</time>
      </trkpt>
      <trkpt lat="45.90681" lon="6.16995">
        <ele>830.72</ele>
        <time>2012-09-16T07:36:53Z</time>
      </trkpt>
      <trkpt lat="45.90688" lon="6.16991">
        <ele>841.77</ele>
        <time>2012-09-16T07:37:02Z</time>
      </trkpt>
      <trkpt lat="45.90688" lon="6.16987">
        <ele>846.58</ele>
        <time>2012-09-16T07:37:11Z</time>
      </trkpt>
      <trkpt lat="45.90684" lon="6.16984">
        <ele>847.06</ele>
        <time>2012-09-16T07:37:20Z</time>
      </trkpt>
      <trkpt lat="45.90682" lon="6.16989">
        <ele>848.02</ele>
        <time>2012-09-16T07:37:27Z</time>
      </trkpt>
      <trkpt lat="45.9068" lon="6.16998">
        <ele>850.42</ele>
        <time>2012-09-16T07:37:36Z</time>
      </trkpt>
      <trkpt lat="45.90683" lon="6.17001">
        <ele>851.38</ele>
        <time>2012-09-16T07:37:45Z</time>
      </trkpt>
      <trkpt lat="45.90688" lon="6.17003">
        <ele>851.87</ele>
        <time>2012-09-16T07:37:53Z</time>
      </trkpt>
      <trkpt lat="45.90688" lon="6.17">
        <ele>854.75</ele>
        <time>2012-09-16T07:38:01Z</time>
      </trkpt>
      <trkpt lat="45.90685" lon="6.17003">
        <ele>857.63</ele>
        <time>2012-09-16T07:38:09Z</time>
      </trkpt>
      <trkpt lat="45.90683" lon="6.17009">
        <ele>860.04</ele>
        <time>2012-09-16T07:38:19Z</time>
      </trkpt>
      <trkpt lat="45.90676" lon="6.17018">
        <ele>863.4</ele>
        <time>2012-09-16T07:38:30Z</time>
      </trkpt>
      <trkpt lat="45.90677" lon="6.17027">
        <ele>865.32</ele>
        <time>2012-09-16T07:38:39Z</time>
      </trkpt>
      <trkpt lat="45.90684" lon="6.17025">
        <ele>865.8</ele>
        <time>2012-09-16T07:38:48Z</time>
      </trkpt>
      <trkpt lat="45.90687" lon="6.17025">
        <ele>866.77</ele>
        <time>2012-09-16T07:38:57Z</time>
      </trkpt>
      <trkpt lat="45.90692" lon="6.17024">
        <ele>867.25</ele>
        <time>2012-09-16T07:39:06Z</time>
      </trkpt>
      <trkpt lat="45.90698" lon="6.17029">
        <ele>870.61</ele>
        <time>2012-09-16T07:39:17Z</time>
      </trkpt>
      <trkpt lat="45.90701" lon="6.17031">
        <ele>872.53</ele>
        <time>2012-09-16T07:39:29Z</time>
      </trkpt>
      <trkpt lat="45.90703" lon="6.17033">
        <ele>874.46</ele>
        <time>2012-09-16T07:39:39Z</time>
      </trkpt>
      <trkpt lat="45.90703" lon="6.17025">
        <ele>876.38</ele>
        <time>2012-09-16T07:39:48Z</time>
      </trkpt>
      <trkpt lat="45.90706" lon="6.17023">
        <ele>874.94</ele>
        <time>2012-09-16T07:40:03Z</time>
      </trkpt>
      <trkpt lat="45.90702" lon="6.17025">
        <ele>877.82</ele>
        <time>2012-09-16T07:40:11Z</time>
      </trkpt>
      <trkpt lat="45.90697" lon="6.1703">
        <ele>879.26</ele>
        <time>2012-09-16T07:40:18Z</time>
      </trkpt>
      <trkpt lat="45.9069" lon="6.17036">
        <ele>882.63</ele>
        <time>2012-09-16T07:40:26Z</time>
      </trkpt>
      <trkpt lat="45.90686" lon="6.17046">
        <ele>883.59</ele>
        <time>2012-09-16T07:40:35Z</time>
      </trkpt>
      <trkpt lat="45.90693" lon="6.17052">
        <ele>882.63</ele>
        <time>2012-09-16T07:40:47Z</time>
      </trkpt>
      <trkpt lat="45.90699" lon="6.17055">
        <ele>883.11</ele>
        <time>2012-09-16T07:40:59Z</time>
      </trkpt>
      <trkpt lat="45.90705" lon="6.1706">
        <ele>883.59</ele>
        <time>2012-09-16T07:41:08Z</time>
      </trkpt>
      <trkpt lat="45.90709" lon="6.17064">
        <ele>884.55</ele>
        <time>2012-09-16T07:41:19Z</time>
      </trkpt>
      <trkpt lat="45.90709" lon="6.17056">
        <ele>885.51</ele>
        <time>2012-09-16T07:41:26Z</time>
      </trkpt>
      <trkpt lat="45.90705" lon="6.17052">
        <ele>888.4</ele>
        <time>2012-09-16T07:41:34Z</time>
      </trkpt>
      <trkpt lat="45.90698" lon="6.17057">
        <ele>888.4</ele>
        <time>2012-09-16T07:41:41Z</time>
      </trkpt>
      <trkpt lat="45.90693" lon="6.17066">
        <ele>886.95</ele>
        <time>2012-09-16T07:41:49Z</time>
      </trkpt>
      <trkpt lat="45.90692" lon="6.17076">
        <ele>886.95</ele>
        <time>2012-09-16T07:41:57Z</time>
      </trkpt>
      <trkpt lat="45.90697" lon="6.17079">
        <ele>887.43</ele>
        <time>2012-09-16T07:42:07Z</time>
      </trkpt>
      <trkpt lat="45.90706" lon="6.17081">
        <ele>887.43</ele>
        <time>2012-09-16T07:42:20Z</time>
      </trkpt>
      <trkpt lat="45.90713" lon="6.17088">
        <ele>889.36</ele>
        <time>2012-09-16T07:42:30Z</time>
      </trkpt>
      <trkpt lat="45.9072" lon="6.17092">
        <ele>891.76</ele>
        <time>2012-09-16T07:42:41Z</time>
      </trkpt>
      <trkpt lat="45.90719" lon="6.17101">
        <ele>892.72</ele>
        <time>2012-09-16T07:42:50Z</time>
      </trkpt>
      <trkpt lat="45.90726" lon="6.17104">
        <ele>894.16</ele>
        <time>2012-09-16T07:42:59Z</time>
      </trkpt>
      <trkpt lat="45.90723" lon="6.17103">
        <ele>898.49</ele>
        <time>2012-09-16T07:43:07Z</time>
      </trkpt>
      <trkpt lat="45.90725" lon="6.17107">
        <ele>898.97</ele>
        <time>2012-09-16T07:43:16Z</time>
      </trkpt>
      <trkpt lat="45.90733" lon="6.17116">
        <ele>900.89</ele>
        <time>2012-09-16T07:43:26Z</time>
      </trkpt>
      <trkpt lat="45.90735" lon="6.17119">
        <ele>902.82</ele>
        <time>2012-09-16T07:43:37Z</time>
      </trkpt>
      <trkpt lat="45.90746" lon="6.17126">
        <ele>906.66</ele>
        <time>2012-09-16T07:43:47Z</time>
      </trkpt>
      <trkpt lat="45.90749" lon="6.17129">
        <ele>908.1</ele>
        <time>2012-09-16T07:43:58Z</time>
      </trkpt>
      <trkpt lat="45.90751" lon="6.17133">
        <ele>908.58</ele>
        <time>2012-09-16T07:44:09Z</time>
      </trkpt>
      <trkpt lat="45.90753" lon="6.17146">
        <ele>910.03</ele>
        <time>2012-09-16T07:44:18Z</time>
      </trkpt>
      <trkpt lat="45.90761" lon="6.17158">
        <ele>914.35</ele>
        <time>2012-09-16T07:44:29Z</time>
      </trkpt>
      <trkpt lat="45.90764" lon="6.17169">
        <ele>917.72</ele>
        <time>2012-09-16T07:44:38Z</time>
      </trkpt>
      <trkpt lat="45.90776" lon="6.17181">
        <ele>919.16</ele>
        <time>2012-09-16T07:44:48Z</time>
      </trkpt>
      <trkpt lat="45.90779" lon="6.17187">
        <ele>921.08</ele>
        <time>2012-09-16T07:44:56Z</time>
      </trkpt>
      <trkpt lat="45.90778" lon="6.17193">
        <ele>920.6</ele>
        <time>2012-09-16T07:45:04Z</time>
      </trkpt>
      <trkpt lat="45.90781" lon="6.17199">
        <ele>921.56</ele>
        <time>2012-09-16T07:45:12Z</time>
      </trkpt>
      <trkpt lat="45.90785" lon="6.17204">
        <ele>922.04</ele>
        <time>2012-09-16T07:45:23Z</time>
      </trkpt>
      <trkpt lat="45.90799" lon="6.17219">
        <ele>926.85</ele>
        <time>2012-09-16T07:45:33Z</time>
      </trkpt>
      <trkpt lat="45.90801" lon="6.17227">
        <ele>928.29</ele>
        <time>2012-09-16T07:45:40Z</time>
      </trkpt>
      <trkpt lat="45.90804" lon="6.1723">
        <ele>929.25</ele>
        <time>2012-09-16T07:45:47Z</time>
      </trkpt>
      <trkpt lat="45.90817" lon="6.17241">
        <ele>930.69</ele>
        <time>2012-09-16T07:45:54Z</time>
      </trkpt>
      <trkpt lat="45.90837" lon="6.17243">
        <ele>930.21</ele>
        <time>2012-09-16T07:46:02Z</time>
      </trkpt>
      <trkpt lat="45.90844" lon="6.17227">
        <ele>928.77</ele>
        <time>2012-09-16T07:46:10Z</time>
      </trkpt>
      <trkpt lat="45.90843" lon="6.17202">
        <ele>929.73</ele>
        <time>2012-09-16T07:46:18Z</time>
      </trkpt>
      <trkpt lat="45.90842" lon="6.17192">
        <ele>930.69</ele>
        <time>2012-09-16T07:46:25Z</time>
      </trkpt>
      <trkpt lat="45.90843" lon="6.17178">
        <ele>931.17</ele>
        <time>2012-09-16T07:46:34Z</time>
      </trkpt>
      <trkpt lat="45.90848" lon="6.17168">
        <ele>933.1</ele>
        <time>2012-09-16T07:46:44Z</time>
      </trkpt>
      <trkpt lat="45.90847" lon="6.17151">
        <ele>935.02</ele>
        <time>2012-09-16T07:46:54Z</time>
      </trkpt>
      <trkpt lat="45.90846" lon="6.17141">
        <ele>935.02</ele>
        <time>2012-09-16T07:47:03Z</time>
      </trkpt>
      <trkpt lat="45.90847" lon="6.17134">
        <ele>936.46</ele>
        <time>2012-09-16T07:47:12Z</time>
      </trkpt>
      <trkpt lat="45.90848" lon="6.17129">
        <ele>937.9</ele>
        <time>2012-09-16T07:47:20Z</time>
      </trkpt>
      <trkpt lat="45.90849" lon="6.17121">
        <ele>937.9</ele>
        <time>2012-09-16T07:47:27Z</time>
      </trkpt>
      <trkpt lat="45.90848" lon="6.17114">
        <ele>938.38</ele>
        <time>2012-09-16T07:47:36Z</time>
      </trkpt>
      <trkpt lat="45.90847" lon="6.17106">
        <ele>939.83</ele>
        <time>2012-09-16T07:47:41Z</time>
      </trkpt>
      <trkpt lat="45.90846" lon="6.17096">
        <ele>941.27</ele>
        <time>2012-09-16T07:47:48Z</time>
      </trkpt>
      <trkpt lat="45.90846" lon="6.17087">
        <ele>940.79</ele>
        <time>2012-09-16T07:47:57Z</time>
      </trkpt>
      <trkpt lat="45.90847" lon="6.17079">
        <ele>940.79</ele>
        <time>2012-09-16T07:48:04Z</time>
      </trkpt>
      <trkpt lat="45.90842" lon="6.17065">
        <ele>941.27</ele>
        <time>2012-09-16T07:48:13Z</time>
      </trkpt>
      <trkpt lat="45.90844" lon="6.17058">
        <ele>940.79</ele>
        <time>2012-09-16T07:48:21Z</time>
      </trkpt>
      <trkpt lat="45.90844" lon="6.17056">
        <ele>940.79</ele>
        <time>2012-09-16T07:48:22Z</time>
      </trkpt>
      <trkpt lat="45.90844" lon="6.17052">
        <ele>941.27</ele>
        <time>2012-09-16T07:48:26Z</time>
      </trkpt>
      <trkpt lat="45.90843" lon="6.17043">
        <ele>941.27</ele>
        <time>2012-09-16T07:48:33Z</time>
      </trkpt>
      <trkpt lat="45.9084" lon="6.17031">
        <ele>942.71</ele>
        <time>2012-09-16T07:48:40Z</time>
      </trkpt>
      <trkpt lat="45.90839" lon="6.17026">
        <ele>942.71</ele>
        <time>2012-09-16T07:48:48Z</time>
      </trkpt>
      <trkpt lat="45.90839" lon="6.17026">
        <ele>942.71</ele>
        <time>2012-09-16T07:48:49Z</time>
      </trkpt>
      <trkpt lat="45.90832" lon="6.1702">
        <ele>940.79</ele>
        <time>2012-09-16T07:48:55Z</time>
      </trkpt>
      <trkpt lat="45.90831" lon="6.17018">
        <ele>940.31</ele>
        <time>2012-09-16T07:49:01Z</time>
      </trkpt>
      <trkpt lat="45.9083" lon="6.17019">
        <ele>939.35</ele>
        <time>2012-09-16T07:49:09Z</time>
      </trkpt>
      <trkpt lat="45.9083" lon="6.17019">
        <ele>938.86</ele>
        <time>2012-09-16T07:49:16Z</time>
      </trkpt>
      <trkpt lat="45.90831" lon="6.1702">
        <ele>938.86</ele>
        <time>2012-09-16T07:49:24Z</time>
      </trkpt>
      <trkpt lat="45.90832" lon="6.17021">
        <ele>938.86</ele>
        <time>2012-09-16T07:49:32Z</time>
      </trkpt>
      <trkpt lat="45.9084" lon="6.1703">
        <ele>937.9</ele>
        <time>2012-09-16T07:49:45Z</time>
      </trkpt>
      <trkpt lat="45.90843" lon="6.17037">
        <ele>937.42</ele>
        <time>2012-09-16T07:49:59Z</time>
      </trkpt>
      <trkpt lat="45.90842" lon="6.17037">
        <ele>937.42</ele>
        <time>2012-09-16T07:50:10Z</time>
      </trkpt>
      <trkpt lat="45.90842" lon="6.17036">
        <ele>937.42</ele>
        <time>2012-09-16T07:50:24Z</time>
      </trkpt>
      <trkpt lat="45.90842" lon="6.17035">
        <ele>937.42</ele>
        <time>2012-09-16T07:50:38Z</time>
      </trkpt>
      <trkpt lat="45.9084" lon="6.17032">
        <ele>936.46</ele>
        <time>2012-09-16T07:50:52Z</time>
      </trkpt>
      <trkpt lat="45.90839" lon="6.1703">
        <ele>936.94</ele>
        <time>2012-09-16T07:51:08Z</time>
      </trkpt>
      <trkpt lat="45.90837" lon="6.17029">
        <ele>937.42</ele>
        <time>2012-09-16T07:51:25Z</time>
      </trkpt>
      <trkpt lat="45.90837" lon="6.17027">
        <ele>937.9</ele>
        <time>2012-09-16T07:51:44Z</time>
      </trkpt>
      <trkpt lat="45.90836" lon="6.17027">
        <ele>937.9</ele>
        <time>2012-09-16T07:52:04Z</time>
      </trkpt>
      <trkpt lat="45.90836" lon="6.17027">
        <ele>938.38</ele>
        <time>2012-09-16T07:52:23Z</time>
      </trkpt>
      <trkpt lat="45.90836" lon="6.17027">
        <ele>938.86</ele>
        <time>2012-09-16T07:52:44Z</time>
      </trkpt>
      <trkpt lat="45.90835" lon="6.17027">
        <ele>938.86</ele>
        <time>2012-09-16T07:53:01Z</time>
      </trkpt>
      <trkpt lat="45.90834" lon="6.17026">
        <ele>938.86</ele>
        <time>2012-09-16T07:53:23Z</time>
      </trkpt>
      <trkpt lat="45.90832" lon="6.17024">
        <ele>938.38</ele>
        <time>2012-09-16T07:53:40Z</time>
      </trkpt>
      <trkpt lat="45.90831" lon="6.17022">
        <ele>938.86</ele>
        <time>2012-09-16T07:53:58Z</time>
      </trkpt>
      <trkpt lat="45.9083" lon="6.17022">
        <ele>939.83</ele>
        <time>2012-09-16T07:54:14Z</time>
      </trkpt>
      <trkpt lat="45.9083" lon="6.17021">
        <ele>940.79</ele>
        <time>2012-09-16T07:54:33Z</time>
      </trkpt>
      <trkpt lat="45.90829" lon="6.17021">
        <ele>941.27</ele>
        <time>2012-09-16T07:54:46Z</time>
      </trkpt>
      <trkpt lat="45.90829" lon="6.1702">
        <ele>941.75</ele>
        <time>2012-09-16T07:55:05Z</time>
      </trkpt>
      <trkpt lat="45.90828" lon="6.1702">
        <ele>942.23</ele>
        <time>2012-09-16T07:55:26Z</time>
      </trkpt>
      <trkpt lat="45.90828" lon="6.17021">
        <ele>942.23</ele>
        <time>2012-09-16T07:55:43Z</time>
      </trkpt>
      <trkpt lat="45.90828" lon="6.17021">
        <ele>941.27</ele>
        <time>2012-09-16T07:55:58Z</time>
      </trkpt>
      <trkpt lat="45.90829" lon="6.17021">
        <ele>940.79</ele>
        <time>2012-09-16T07:56:15Z</time>
      </trkpt>
      <trkpt lat="45.90829" lon="6.17021">
        <ele>940.31</ele>
        <time>2012-09-16T07:56:21Z</time>
      </trkpt>
      <trkpt lat="45.90829" lon="6.17021">
        <ele>940.31</ele>
        <time>2012-09-16T07:56:33Z</time>
      </trkpt>
      <trkpt lat="45.9083" lon="6.17021">
        <ele>939.83</ele>
        <time>2012-09-16T07:56:44Z</time>
      </trkpt>
      <trkpt lat="45.90829" lon="6.17021">
        <ele>939.83</ele>
        <time>2012-09-16T07:56:54Z</time>
      </trkpt>
      <trkpt lat="45.9083" lon="6.17021">
        <ele>939.35</ele>
        <time>2012-09-16T07:57:04Z</time>
      </trkpt>
      <trkpt lat="45.9083" lon="6.17021">
        <ele>939.83</ele>
        <time>2012-09-16T07:57:16Z</time>
      </trkpt>
      <trkpt lat="45.9083" lon="6.17021">
        <ele>939.35</ele>
        <time>2012-09-16T07:57:33Z</time>
      </trkpt>
      <trkpt lat="45.9083" lon="6.17021">
        <ele>939.35</ele>
        <time>2012-09-16T07:57:42Z</time>
      </trkpt>
      <trkpt lat="45.90831" lon="6.17021">
        <ele>938.38</ele>
        <time>2012-09-16T07:57:58Z</time>
      </trkpt>
      <trkpt lat="45.90832" lon="6.17022">
        <ele>938.38</ele>
        <time>2012-09-16T07:58:09Z</time>
      </trkpt>
      <trkpt lat="45.90835" lon="6.17027">
        <ele>938.38</ele>
        <time>2012-09-16T07:58:15Z</time>
      </trkpt>
      <trkpt lat="45.90838" lon="6.17034">
        <ele>938.38</ele>
        <time>2012-09-16T07:58:21Z</time>
      </trkpt>
      <trkpt lat="45.90841" lon="6.17044">
        <ele>937.9</ele>
        <time>2012-09-16T07:58:27Z</time>
      </trkpt>
      <trkpt lat="45.90842" lon="6.17053">
        <ele>937.9</ele>
        <time>2012-09-16T07:58:35Z</time>
      </trkpt>
      <trkpt lat="45.90842" lon="6.17055">
        <ele>937.9</ele>
        <time>2012-09-16T07:58:37Z</time>
      </trkpt>
      <trkpt lat="45.9084" lon="6.17057">
        <ele>938.38</ele>
        <time>2012-09-16T07:58:39Z</time>
      </trkpt>
      <trkpt lat="45.90839" lon="6.17066">
        <ele>937.9</ele>
        <time>2012-09-16T07:58:45Z</time>
      </trkpt>
      <trkpt lat="45.90841" lon="6.17072">
        <ele>936.94</ele>
        <time>2012-09-16T07:58:51Z</time>
      </trkpt>
      <trkpt lat="45.90841" lon="6.17074">
        <ele>936.94</ele>
        <time>2012-09-16T07:58:56Z</time>
      </trkpt>
      <trkpt lat="45.90842" lon="6.17083">
        <ele>938.38</ele>
        <time>2012-09-16T07:59:01Z</time>
      </trkpt>
      <trkpt lat="45.9084" lon="6.17089">
        <ele>937.9</ele>
        <time>2012-09-16T07:59:06Z</time>
      </trkpt>
      <trkpt lat="45.9084" lon="6.17097">
        <ele>935.5</ele>
        <time>2012-09-16T07:59:14Z</time>
      </trkpt>
      <trkpt lat="45.90839" lon="6.17102">
        <ele>935.02</ele>
        <time>2012-09-16T07:59:19Z</time>
      </trkpt>
      <trkpt lat="45.90839" lon="6.1711">
        <ele>935.02</ele>
        <time>2012-09-16T07:59:26Z</time>
      </trkpt>
      <trkpt lat="45.9084" lon="6.17116">
        <ele>935.5</ele>
        <time>2012-09-16T07:59:31Z</time>
      </trkpt>
      <trkpt lat="45.90841" lon="6.17125">
        <ele>935.5</ele>
        <time>2012-09-16T07:59:37Z</time>
      </trkpt>
      <trkpt lat="45.9084" lon="6.17126">
        <ele>935.5</ele>
        <time>2012-09-16T07:59:39Z</time>
      </trkpt>
      <trkpt lat="45.90838" lon="6.17126">
        <ele>935.02</ele>
        <time>2012-09-16T07:59:41Z</time>
      </trkpt>
      <trkpt lat="45.90838" lon="6.17133">
        <ele>935.02</ele>
        <time>2012-09-16T07:59:49Z</time>
      </trkpt>
      <trkpt lat="45.90839" lon="6.17133">
        <ele>935.02</ele>
        <time>2012-09-16T07:59:50Z</time>
      </trkpt>
      <trkpt lat="45.90839" lon="6.1714">
        <ele>934.54</ele>
        <time>2012-09-16T07:59:57Z</time>
      </trkpt>
      <trkpt lat="45.9084" lon="6.17148">
        <ele>931.17</ele>
        <time>2012-09-16T08:00:06Z</time>
      </trkpt>
      <trkpt lat="45.90839" lon="6.17156">
        <ele>930.21</ele>
        <time>2012-09-16T08:00:12Z</time>
      </trkpt>
      <trkpt lat="45.90837" lon="6.17169">
        <ele>929.73</ele>
        <time>2012-09-16T08:00:19Z</time>
      </trkpt>
      <trkpt lat="45.90838" lon="6.17176">
        <ele>929.25</ele>
        <time>2012-09-16T08:00:27Z</time>
      </trkpt>
      <trkpt lat="45.90835" lon="6.1718">
        <ele>929.73</ele>
        <time>2012-09-16T08:00:33Z</time>
      </trkpt>
      <trkpt lat="45.90831" lon="6.17188">
        <ele>928.77</ele>
        <time>2012-09-16T08:00:42Z</time>
      </trkpt>
      <trkpt lat="45.90833" lon="6.17198">
        <ele>929.25</ele>
        <time>2012-09-16T08:00:50Z</time>
      </trkpt>
      <trkpt lat="45.90833" lon="6.17199">
        <ele>929.25</ele>
        <time>2012-09-16T08:00:51Z</time>
      </trkpt>
      <trkpt lat="45.90832" lon="6.17212">
        <ele>930.69</ele>
        <time>2012-09-16T08:01:01Z</time>
      </trkpt>
      <trkpt lat="45.90829" lon="6.17217">
        <ele>930.69</ele>
        <time>2012-09-16T08:01:09Z</time>
      </trkpt>
      <trkpt lat="45.90828" lon="6.17218">
        <ele>930.69</ele>
        <time>2012-09-16T08:01:10Z</time>
      </trkpt>
      <trkpt lat="45.90826" lon="6.17226">
        <ele>930.21</ele>
        <time>2012-09-16T08:01:18Z</time>
      </trkpt>
      <trkpt lat="45.90824" lon="6.17229">
        <ele>930.21</ele>
        <time>2012-09-16T08:01:25Z</time>
      </trkpt>
      <trkpt lat="45.90822" lon="6.1723">
        <ele>930.69</ele>
        <time>2012-09-16T08:01:32Z</time>
      </trkpt>
      <trkpt lat="45.90821" lon="6.1723">
        <ele>931.17</ele>
        <time>2012-09-16T08:01:39Z</time>
      </trkpt>
      <trkpt lat="45.90821" lon="6.1723">
        <ele>931.65</ele>
        <time>2012-09-16T08:01:47Z</time>
      </trkpt>
      <trkpt lat="45.90818" lon="6.17234">
        <ele>932.14</ele>
        <time>2012-09-16T08:01:58Z</time>
      </trkpt>
      <trkpt lat="45.90816" lon="6.17235">
        <ele>932.14</ele>
        <time>2012-09-16T08:02:12Z</time>
      </trkpt>
      <trkpt lat="45.90814" lon="6.17243">
        <ele>931.65</ele>
        <time>2012-09-16T08:02:23Z</time>
      </trkpt>
      <trkpt lat="45.90814" lon="6.17246">
        <ele>930.21</ele>
        <time>2012-09-16T08:02:34Z</time>
      </trkpt>
      <trkpt lat="45.90814" lon="6.17248">
        <ele>929.73</ele>
        <time>2012-09-16T08:02:45Z</time>
      </trkpt>
      <trkpt lat="45.90814" lon="6.17248">
        <ele>929.73</ele>
        <time>2012-09-16T08:03:02Z</time>
      </trkpt>
      <trkpt lat="45.90809" lon="6.17246">
        <ele>929.25</ele>
        <time>2012-09-16T08:03:11Z</time>
      </trkpt>
      <trkpt lat="45.90807" lon="6.17246">
        <ele>929.25</ele>
        <time>2012-09-16T08:03:20Z</time>
      </trkpt>
      <trkpt lat="45.90805" lon="6.17245">
        <ele>929.73</ele>
        <time>2012-09-16T08:03:27Z</time>
      </trkpt>
      <trkpt lat="45.90803" lon="6.17243">
        <ele>929.25</ele>
        <time>2012-09-16T08:03:37Z</time>
      </trkpt>
      <trkpt lat="45.90801" lon="6.17242">
        <ele>929.73</ele>
        <time>2012-09-16T08:03:44Z</time>
      </trkpt>
      <trkpt lat="45.90799" lon="6.17241">
        <ele>929.73</ele>
        <time>2012-09-16T08:03:54Z</time>
      </trkpt>
      <trkpt lat="45.90797" lon="6.17239">
        <ele>930.69</ele>
        <time>2012-09-16T08:04:00Z</time>
      </trkpt>
      <trkpt lat="45.90791" lon="6.17236">
        <ele>929.73</ele>
        <time>2012-09-16T08:04:08Z</time>
      </trkpt>
      <trkpt lat="45.90783" lon="6.17232">
        <ele>926.37</ele>
        <time>2012-09-16T08:04:17Z</time>
      </trkpt>
      <trkpt lat="45.9078" lon="6.17231">
        <ele>924.93</ele>
        <time>2012-09-16T08:04:25Z</time>
      </trkpt>
      <trkpt lat="45.90778" lon="6.17231">
        <ele>924.93</ele>
        <time>2012-09-16T08:04:28Z</time>
      </trkpt>
      <trkpt lat="45.90777" lon="6.17233">
        <ele>923</ele>
        <time>2012-09-16T08:04:37Z</time>
      </trkpt>
      <trkpt lat="45.90779" lon="6.17238">
        <ele>920.12</ele>
        <time>2012-09-16T08:04:46Z</time>
      </trkpt>
      <trkpt lat="45.90779" lon="6.17245">
        <ele>919.16</ele>
        <time>2012-09-16T08:04:54Z</time>
      </trkpt>
      <trkpt lat="45.90777" lon="6.17247">
        <ele>918.68</ele>
        <time>2012-09-16T08:05:01Z</time>
      </trkpt>
      <trkpt lat="45.90775" lon="6.1725">
        <ele>918.2</ele>
        <time>2012-09-16T08:05:09Z</time>
      </trkpt>
      <trkpt lat="45.90776" lon="6.17259">
        <ele>919.16</ele>
        <time>2012-09-16T08:05:17Z</time>
      </trkpt>
      <trkpt lat="45.90778" lon="6.17263">
        <ele>919.16</ele>
        <time>2012-09-16T08:05:25Z</time>
      </trkpt>
      <trkpt lat="45.90779" lon="6.17269">
        <ele>919.64</ele>
        <time>2012-09-16T08:05:34Z</time>
      </trkpt>
      <trkpt lat="45.9078" lon="6.17271">
        <ele>920.12</ele>
        <time>2012-09-16T08:05:43Z</time>
      </trkpt>
      <trkpt lat="45.90779" lon="6.17279">
        <ele>921.56</ele>
        <time>2012-09-16T08:05:50Z</time>
      </trkpt>
      <trkpt lat="45.90779" lon="6.17284">
        <ele>921.56</ele>
        <time>2012-09-16T08:05:59Z</time>
      </trkpt>
      <trkpt lat="45.9078" lon="6.17288">
        <ele>921.56</ele>
        <time>2012-09-16T08:06:06Z</time>
      </trkpt>
      <trkpt lat="45.90783" lon="6.17295">
        <ele>921.08</ele>
        <time>2012-09-16T08:06:18Z</time>
      </trkpt>
      <trkpt lat="45.90783" lon="6.17298">
        <ele>921.08</ele>
        <time>2012-09-16T08:06:24Z</time>
      </trkpt>
      <trkpt lat="45.9078" lon="6.17304">
        <ele>921.08</ele>
        <time>2012-09-16T08:06:33Z</time>
      </trkpt>
      <trkpt lat="45.90779" lon="6.17309">
        <ele>921.56</ele>
        <time>2012-09-16T08:06:42Z</time>
      </trkpt>
      <trkpt lat="45.90779" lon="6.17313">
        <ele>921.08</ele>
        <time>2012-09-16T08:06:51Z</time>
      </trkpt>
      <trkpt lat="45.90779" lon="6.17318">
        <ele>921.08</ele>
        <time>2012-09-16T08:07:00Z</time>
      </trkpt>
      <trkpt lat="45.90779" lon="6.17323">
        <ele>921.56</ele>
        <time>2012-09-16T08:07:09Z</time>
      </trkpt>
      <trkpt lat="45.9078" lon="6.17325">
        <ele>921.08</ele>
        <time>2012-09-16T08:07:13Z</time>
      </trkpt>
      <trkpt lat="45.90783" lon="6.17334">
        <ele>921.08</ele>
        <time>2012-09-16T08:07:21Z</time>
      </trkpt>
      <trkpt lat="45.90786" lon="6.17352">
        <ele>922.04</ele>
        <time>2012-09-16T08:07:29Z</time>
      </trkpt>
      <trkpt lat="45.90787" lon="6.17365">
        <ele>922.52</ele>
        <time>2012-09-16T08:07:39Z</time>
      </trkpt>
      <trkpt lat="45.90787" lon="6.17373">
        <ele>923.48</ele>
        <time>2012-09-16T08:07:47Z</time>
      </trkpt>
      <trkpt lat="45.90787" lon="6.17376">
        <ele>923.96</ele>
        <time>2012-09-16T08:07:56Z</time>
      </trkpt>
      <trkpt lat="45.90786" lon="6.17377">
        <ele>924.45</ele>
        <time>2012-09-16T08:08:02Z</time>
      </trkpt>
      <trkpt lat="45.90784" lon="6.17379">
        <ele>925.41</ele>
        <time>2012-09-16T08:08:10Z</time>
      </trkpt>
      <trkpt lat="45.90783" lon="6.17379">
        <ele>925.89</ele>
        <time>2012-09-16T08:08:13Z</time>
      </trkpt>
      <trkpt lat="45.90776" lon="6.17375">
        <ele>926.85</ele>
        <time>2012-09-16T08:08:20Z</time>
      </trkpt>
      <trkpt lat="45.90776" lon="6.17373">
        <ele>927.33</ele>
        <time>2012-09-16T08:08:26Z</time>
      </trkpt>
      <trkpt lat="45.90774" lon="6.17375">
        <ele>927.33</ele>
        <time>2012-09-16T08:08:36Z</time>
      </trkpt>
      <trkpt lat="45.90772" lon="6.17375">
        <ele>927.33</ele>
        <time>2012-09-16T08:08:45Z</time>
      </trkpt>
      <trkpt lat="45.90771" lon="6.17375">
        <ele>927.81</ele>
        <time>2012-09-16T08:08:54Z</time>
      </trkpt>
      <trkpt lat="45.90769" lon="6.17376">
        <ele>927.81</ele>
        <time>2012-09-16T08:09:04Z</time>
      </trkpt>
      <trkpt lat="45.90766" lon="6.17376">
        <ele>927.81</ele>
        <time>2012-09-16T08:09:13Z</time>
      </trkpt>
      <trkpt lat="45.90765" lon="6.17377">
        <ele>928.29</ele>
        <time>2012-09-16T08:09:21Z</time>
      </trkpt>
      <trkpt lat="45.90762" lon="6.17377">
        <ele>929.25</ele>
        <time>2012-09-16T08:09:29Z</time>
      </trkpt>
      <trkpt lat="45.9076" lon="6.17377">
        <ele>929.73</ele>
        <time>2012-09-16T08:09:38Z</time>
      </trkpt>
      <trkpt lat="45.90758" lon="6.17377">
        <ele>930.21</ele>
        <time>2012-09-16T08:09:48Z</time>
      </trkpt>
      <trkpt lat="45.90756" lon="6.17376">
        <ele>930.69</ele>
        <time>2012-09-16T08:09:56Z</time>
      </trkpt>
      <trkpt lat="45.90753" lon="6.17376">
        <ele>931.65</ele>
        <time>2012-09-16T08:10:02Z</time>
      </trkpt>
      <trkpt lat="45.90752" lon="6.17373">
        <ele>932.14</ele>
        <time>2012-09-16T08:10:08Z</time>
      </trkpt>
      <trkpt lat="45.90749" lon="6.17369">
        <ele>932.62</ele>
        <time>2012-09-16T08:10:15Z</time>
      </trkpt>
      <trkpt lat="45.90746" lon="6.17364">
        <ele>933.1</ele>
        <time>2012-09-16T08:10:24Z</time>
      </trkpt>
      <trkpt lat="45.90741" lon="6.17356">
        <ele>933.58</ele>
        <time>2012-09-16T08:10:34Z</time>
      </trkpt>
      <trkpt lat="45.90736" lon="6.1735">
        <ele>935.5</ele>
        <time>2012-09-16T08:10:40Z</time>
      </trkpt>
      <trkpt lat="45.90734" lon="6.17347">
        <ele>935.98</ele>
        <time>2012-09-16T08:10:48Z</time>
      </trkpt>
      <trkpt lat="45.90731" lon="6.17344">
        <ele>936.94</ele>
        <time>2012-09-16T08:10:55Z</time>
      </trkpt>
      <trkpt lat="45.90726" lon="6.17337">
        <ele>938.86</ele>
        <time>2012-09-16T08:11:01Z</time>
      </trkpt>
      <trkpt lat="45.90721" lon="6.17332">
        <ele>939.83</ele>
        <time>2012-09-16T08:11:08Z</time>
      </trkpt>
      <trkpt lat="45.90718" lon="6.17328">
        <ele>940.31</ele>
        <time>2012-09-16T08:11:16Z</time>
      </trkpt>
      <trkpt lat="45.90716" lon="6.17326">
        <ele>940.79</ele>
        <time>2012-09-16T08:11:23Z</time>
      </trkpt>
      <trkpt lat="45.90712" lon="6.17321">
        <ele>942.23</ele>
        <time>2012-09-16T08:11:30Z</time>
      </trkpt>
      <trkpt lat="45.90709" lon="6.17316">
        <ele>942.71</ele>
        <time>2012-09-16T08:11:37Z</time>
      </trkpt>
      <trkpt lat="45.90707" lon="6.17314">
        <ele>943.67</ele>
        <time>2012-09-16T08:11:43Z</time>
      </trkpt>
      <trkpt lat="45.90705" lon="6.17311">
        <ele>943.67</ele>
        <time>2012-09-16T08:11:52Z</time>
      </trkpt>
      <trkpt lat="45.90701" lon="6.17312">
        <ele>943.19</ele>
        <time>2012-09-16T08:12:01Z</time>
      </trkpt>
      <trkpt lat="45.9069" lon="6.17311">
        <ele>942.71</ele>
        <time>2012-09-16T08:12:09Z</time>
      </trkpt>
      <trkpt lat="45.90683" lon="6.17312">
        <ele>942.71</ele>
        <time>2012-09-16T08:12:17Z</time>
      </trkpt>
      <trkpt lat="45.90679" lon="6.17311">
        <ele>943.19</ele>
        <time>2012-09-16T08:12:24Z</time>
      </trkpt>
      <trkpt lat="45.90676" lon="6.17311">
        <ele>944.15</ele>
        <time>2012-09-16T08:12:32Z</time>
      </trkpt>
      <trkpt lat="45.90671" lon="6.17308">
        <ele>945.11</ele>
        <time>2012-09-16T08:12:40Z</time>
      </trkpt>
      <trkpt lat="45.90665" lon="6.17305">
        <ele>946.07</ele>
        <time>2012-09-16T08:12:49Z</time>
      </trkpt>
      <trkpt lat="45.9066" lon="6.17303">
        <ele>947.04</ele>
        <time>2012-09-16T08:12:58Z</time>
      </trkpt>
      <trkpt lat="45.90654" lon="6.173">
        <ele>948.48</ele>
        <time>2012-09-16T08:13:05Z</time>
      </trkpt>
      <trkpt lat="45.9065" lon="6.17298">
        <ele>948.96</ele>
        <time>2012-09-16T08:13:11Z</time>
      </trkpt>
      <trkpt lat="45.90647" lon="6.17295">
        <ele>949.44</ele>
        <time>2012-09-16T08:13:14Z</time>
      </trkpt>
      <trkpt lat="45.90642" lon="6.17285">
        <ele>949.92</ele>
        <time>2012-09-16T08:13:19Z</time>
      </trkpt>
      <trkpt lat="45.90636" lon="6.17284">
        <ele>950.88</ele>
        <time>2012-09-16T08:13:24Z</time>
      </trkpt>
      <trkpt lat="45.90631" lon="6.17281">
        <ele>951.84</ele>
        <time>2012-09-16T08:13:30Z</time>
      </trkpt>
      <trkpt lat="45.90622" lon="6.17278">
        <ele>952.32</ele>
        <time>2012-09-16T08:13:36Z</time>
      </trkpt>
      <trkpt lat="45.90618" lon="6.17275">
        <ele>952.32</ele>
        <time>2012-09-16T08:13:39Z</time>
      </trkpt>
      <trkpt lat="45.90613" lon="6.1727">
        <ele>952.8</ele>
        <time>2012-09-16T08:13:45Z</time>
      </trkpt>
      <trkpt lat="45.90604" lon="6.17266">
        <ele>953.77</ele>
        <time>2012-09-16T08:13:53Z</time>
      </trkpt>
      <trkpt lat="45.90599" lon="6.17261">
        <ele>957.13</ele>
        <time>2012-09-16T08:14:00Z</time>
      </trkpt>
      <trkpt lat="45.90593" lon="6.1725">
        <ele>963.38</ele>
        <time>2012-09-16T08:14:13Z</time>
      </trkpt>
      <trkpt lat="45.90591" lon="6.17249">
        <ele>965.78</ele>
        <time>2012-09-16T08:14:20Z</time>
      </trkpt>
      <trkpt lat="45.90589" lon="6.17246">
        <ele>970.59</ele>
        <time>2012-09-16T08:14:33Z</time>
      </trkpt>
      <trkpt lat="45.90585" lon="6.17243">
        <ele>979.24</ele>
        <time>2012-09-16T08:14:47Z</time>
      </trkpt>
      <trkpt lat="45.90584" lon="6.17241">
        <ele>983.09</ele>
        <time>2012-09-16T08:14:55Z</time>
      </trkpt>
      <trkpt lat="45.90582" lon="6.17238">
        <ele>987.41</ele>
        <time>2012-09-16T08:15:09Z</time>
      </trkpt>
      <trkpt lat="45.90582" lon="6.17236">
        <ele>991.26</ele>
        <time>2012-09-16T08:15:28Z</time>
      </trkpt>
      <trkpt lat="45.90582" lon="6.17236">
        <ele>992.7</ele>
        <time>2012-09-16T08:15:42Z</time>
      </trkpt>
      <trkpt lat="45.90581" lon="6.17238">
        <ele>991.26</ele>
        <time>2012-09-16T08:15:55Z</time>
      </trkpt>
      <trkpt lat="45.90581" lon="6.17238">
        <ele>990.3</ele>
        <time>2012-09-16T08:16:03Z</time>
      </trkpt>
      <trkpt lat="45.90581" lon="6.17235">
        <ele>989.81</ele>
        <time>2012-09-16T08:16:15Z</time>
      </trkpt>
      <trkpt lat="45.90581" lon="6.17236">
        <ele>988.37</ele>
        <time>2012-09-16T08:16:32Z</time>
      </trkpt>
      <trkpt lat="45.90582" lon="6.17237">
        <ele>988.85</ele>
        <time>2012-09-16T08:16:40Z</time>
      </trkpt>
      <trkpt lat="45.90581" lon="6.17236">
        <ele>988.85</ele>
        <time>2012-09-16T08:16:46Z</time>
      </trkpt>
      <trkpt lat="45.90576" lon="6.17235">
        <ele>988.85</ele>
        <time>2012-09-16T08:16:52Z</time>
      </trkpt>
      <trkpt lat="45.90572" lon="6.17235">
        <ele>988.37</ele>
        <time>2012-09-16T08:16:59Z</time>
      </trkpt>
      <trkpt lat="45.90565" lon="6.17236">
        <ele>987.89</ele>
        <time>2012-09-16T08:17:07Z</time>
      </trkpt>
      <trkpt lat="45.90562" lon="6.17237">
        <ele>987.89</ele>
        <time>2012-09-16T08:17:12Z</time>
      </trkpt>
      <trkpt lat="45.90558" lon="6.17238">
        <ele>987.89</ele>
        <time>2012-09-16T08:17:18Z</time>
      </trkpt>
      <trkpt lat="45.90552" lon="6.17239">
        <ele>987.89</ele>
        <time>2012-09-16T08:17:26Z</time>
      </trkpt>
      <trkpt lat="45.9055" lon="6.17242">
        <ele>988.85</ele>
        <time>2012-09-16T08:17:32Z</time>
      </trkpt>
      <trkpt lat="45.90552" lon="6.17247">
        <ele>990.3</ele>
        <time>2012-09-16T08:17:39Z</time>
      </trkpt>
      <trkpt lat="45.90552" lon="6.1725">
        <ele>991.74</ele>
        <time>2012-09-16T08:17:47Z</time>
      </trkpt>
      <trkpt lat="45.90551" lon="6.17252">
        <ele>993.18</ele>
        <time>2012-09-16T08:17:53Z</time>
      </trkpt>
      <trkpt lat="45.90553" lon="6.17255">
        <ele>995.58</ele>
        <time>2012-09-16T08:18:00Z</time>
      </trkpt>
      <trkpt lat="45.90556" lon="6.17257">
        <ele>997.99</ele>
        <time>2012-09-16T08:18:06Z</time>
      </trkpt>
      <trkpt lat="45.90561" lon="6.17263">
        <ele>999.91</ele>
        <time>2012-09-16T08:18:14Z</time>
      </trkpt>
      <trkpt lat="45.90557" lon="6.17262">
        <ele>1000.87</ele>
        <time>2012-09-16T08:18:18Z</time>
      </trkpt>
      <trkpt lat="45.90554" lon="6.17264">
        <ele>1001.83</ele>
        <time>2012-09-16T08:18:24Z</time>
      </trkpt>
      <trkpt lat="45.90551" lon="6.17264">
        <ele>1002.31</ele>
        <time>2012-09-16T08:18:31Z</time>
      </trkpt>
      <trkpt lat="45.90545" lon="6.17266">
        <ele>1002.79</ele>
        <time>2012-09-16T08:18:40Z</time>
      </trkpt>
      <trkpt lat="45.90541" lon="6.17267">
        <ele>1003.75</ele>
        <time>2012-09-16T08:18:47Z</time>
      </trkpt>
      <trkpt lat="45.90541" lon="6.17271">
        <ele>1005.2</ele>
        <time>2012-09-16T08:18:56Z</time>
      </trkpt>
      <trkpt lat="45.90544" lon="6.17273">
        <ele>1006.64</ele>
        <time>2012-09-16T08:19:05Z</time>
      </trkpt>
      <trkpt lat="45.90546" lon="6.17276">
        <ele>1008.56</ele>
        <time>2012-09-16T08:19:12Z</time>
      </trkpt>
      <trkpt lat="45.90546" lon="6.17277">
        <ele>1008.56</ele>
        <time>2012-09-16T08:19:13Z</time>
      </trkpt>
      <trkpt lat="45.9055" lon="6.17282">
        <ele>1010</ele>
        <time>2012-09-16T08:19:21Z</time>
      </trkpt>
      <trkpt lat="45.9055" lon="6.17285">
        <ele>1010.96</ele>
        <time>2012-09-16T08:19:30Z</time>
      </trkpt>
      <trkpt lat="45.90546" lon="6.17288">
        <ele>1012.89</ele>
        <time>2012-09-16T08:19:37Z</time>
      </trkpt>
      <trkpt lat="45.90541" lon="6.17287">
        <ele>1014.81</ele>
        <time>2012-09-16T08:19:44Z</time>
      </trkpt>
      <trkpt lat="45.90536" lon="6.17288">
        <ele>1017.21</ele>
        <time>2012-09-16T08:19:52Z</time>
      </trkpt>
      <trkpt lat="45.90537" lon="6.17293">
        <ele>1019.13</ele>
        <time>2012-09-16T08:19:57Z</time>
      </trkpt>
      <trkpt lat="45.90539" lon="6.17295">
        <ele>1020.1</ele>
        <time>2012-09-16T08:20:02Z</time>
      </trkpt>
      <trkpt lat="45.9054" lon="6.17296">
        <ele>1021.54</ele>
        <time>2012-09-16T08:20:09Z</time>
      </trkpt>
      <trkpt lat="45.90545" lon="6.173">
        <ele>1022.5</ele>
        <time>2012-09-16T08:20:17Z</time>
      </trkpt>
      <trkpt lat="45.90547" lon="6.17303">
        <ele>1022.98</ele>
        <time>2012-09-16T08:20:26Z</time>
      </trkpt>
      <trkpt lat="45.90551" lon="6.17312">
        <ele>1024.42</ele>
        <time>2012-09-16T08:20:34Z</time>
      </trkpt>
      <trkpt lat="45.90552" lon="6.17316">
        <ele>1028.75</ele>
        <time>2012-09-16T08:20:44Z</time>
      </trkpt>
      <trkpt lat="45.90554" lon="6.17319">
        <ele>1032.11</ele>
        <time>2012-09-16T08:20:52Z</time>
      </trkpt>
      <trkpt lat="45.9055" lon="6.17317">
        <ele>1035.48</ele>
        <time>2012-09-16T08:20:59Z</time>
      </trkpt>
      <trkpt lat="45.90549" lon="6.17322">
        <ele>1036.44</ele>
        <time>2012-09-16T08:21:05Z</time>
      </trkpt>
      <trkpt lat="45.90549" lon="6.17324">
        <ele>1036.44</ele>
        <time>2012-09-16T08:21:08Z</time>
      </trkpt>
      <trkpt lat="45.90549" lon="6.17326">
        <ele>1036.44</ele>
        <time>2012-09-16T08:21:14Z</time>
      </trkpt>
      <trkpt lat="45.90552" lon="6.17331">
        <ele>1037.4</ele>
        <time>2012-09-16T08:21:24Z</time>
      </trkpt>
      <trkpt lat="45.90556" lon="6.17336">
        <ele>1038.84</ele>
        <time>2012-09-16T08:21:31Z</time>
      </trkpt>
      <trkpt lat="45.90559" lon="6.17341">
        <ele>1039.32</ele>
        <time>2012-09-16T08:21:39Z</time>
      </trkpt>
      <trkpt lat="45.90565" lon="6.17344">
        <ele>1041.25</ele>
        <time>2012-09-16T08:21:46Z</time>
      </trkpt>
      <trkpt lat="45.90564" lon="6.17346">
        <ele>1043.65</ele>
        <time>2012-09-16T08:21:53Z</time>
      </trkpt>
      <trkpt lat="45.90564" lon="6.17355">
        <ele>1045.57</ele>
        <time>2012-09-16T08:22:01Z</time>
      </trkpt>
      <trkpt lat="45.90567" lon="6.17361">
        <ele>1048.45</ele>
        <time>2012-09-16T08:22:07Z</time>
      </trkpt>
      <trkpt lat="45.90568" lon="6.17363">
        <ele>1048.45</ele>
        <time>2012-09-16T08:22:14Z</time>
      </trkpt>
      <trkpt lat="45.90568" lon="6.17369">
        <ele>1049.9</ele>
        <time>2012-09-16T08:22:22Z</time>
      </trkpt>
      <trkpt lat="45.90569" lon="6.17377">
        <ele>1051.34</ele>
        <time>2012-09-16T08:22:31Z</time>
      </trkpt>
      <trkpt lat="45.9057" lon="6.1739">
        <ele>1053.74</ele>
        <time>2012-09-16T08:22:41Z</time>
      </trkpt>
      <trkpt lat="45.90574" lon="6.17399">
        <ele>1054.22</ele>
        <time>2012-09-16T08:22:48Z</time>
      </trkpt>
      <trkpt lat="45.90575" lon="6.17401">
        <ele>1055.18</ele>
        <time>2012-09-16T08:22:55Z</time>
      </trkpt>
      <trkpt lat="45.90572" lon="6.17405">
        <ele>1056.15</ele>
        <time>2012-09-16T08:23:02Z</time>
      </trkpt>
      <trkpt lat="45.90571" lon="6.17411">
        <ele>1059.99</ele>
        <time>2012-09-16T08:23:11Z</time>
      </trkpt>
      <trkpt lat="45.90572" lon="6.17409">
        <ele>1062.39</ele>
        <time>2012-09-16T08:23:21Z</time>
      </trkpt>
      <trkpt lat="45.90571" lon="6.17404">
        <ele>1064.32</ele>
        <time>2012-09-16T08:23:37Z</time>
      </trkpt>
      <trkpt lat="45.90571" lon="6.17404">
        <ele>1064.8</ele>
        <time>2012-09-16T08:23:39Z</time>
      </trkpt>
      <trkpt lat="45.90571" lon="6.17404">
        <ele>1064.8</ele>
        <time>2012-09-16T08:23:45Z</time>
      </trkpt>
      <trkpt lat="45.9057" lon="6.17404">
        <ele>1065.76</ele>
        <time>2012-09-16T08:23:58Z</time>
      </trkpt>
      <trkpt lat="45.9057" lon="6.17403">
        <ele>1067.2</ele>
        <time>2012-09-16T08:24:10Z</time>
      </trkpt>
      <trkpt lat="45.9057" lon="6.17403">
        <ele>1068.16</ele>
        <time>2012-09-16T08:24:18Z</time>
      </trkpt>
      <trkpt lat="45.90571" lon="6.17403">
        <ele>1068.16</ele>
        <time>2012-09-16T08:24:32Z</time>
      </trkpt>
      <trkpt lat="45.90572" lon="6.17401">
        <ele>1068.64</ele>
        <time>2012-09-16T08:24:47Z</time>
      </trkpt>
      <trkpt lat="45.90572" lon="6.17401">
        <ele>1069.12</ele>
        <time>2012-09-16T08:25:03Z</time>
      </trkpt>
      <trkpt lat="45.90572" lon="6.17401">
        <ele>1069.12</ele>
        <time>2012-09-16T08:25:15Z</time>
      </trkpt>
      <trkpt lat="45.9057" lon="6.17402">
        <ele>1069.12</ele>
        <time>2012-09-16T08:25:25Z</time>
      </trkpt>
      <trkpt lat="45.90569" lon="6.17404">
        <ele>1069.12</ele>
        <time>2012-09-16T08:25:37Z</time>
      </trkpt>
      <trkpt lat="45.90568" lon="6.17403">
        <ele>1069.12</ele>
        <time>2012-09-16T08:25:48Z</time>
      </trkpt>
      <trkpt lat="45.90569" lon="6.17406">
        <ele>1069.6</ele>
        <time>2012-09-16T08:26:06Z</time>
      </trkpt>
      <trkpt lat="45.9057" lon="6.17405">
        <ele>1069.6</ele>
        <time>2012-09-16T08:26:14Z</time>
      </trkpt>
      <trkpt lat="45.90567" lon="6.17404">
        <ele>1069.12</ele>
        <time>2012-09-16T08:26:22Z</time>
      </trkpt>
      <trkpt lat="45.90564" lon="6.17399">
        <ele>1068.64</ele>
        <time>2012-09-16T08:26:29Z</time>
      </trkpt>
      <trkpt lat="45.90563" lon="6.17398">
        <ele>1068.64</ele>
        <time>2012-09-16T08:26:36Z</time>
      </trkpt>
      <trkpt lat="45.90559" lon="6.17397">
        <ele>1068.16</ele>
        <time>2012-09-16T08:26:46Z</time>
      </trkpt>
      <trkpt lat="45.90558" lon="6.17396">
        <ele>1068.16</ele>
        <time>2012-09-16T08:26:55Z</time>
      </trkpt>
      <trkpt lat="45.90548" lon="6.17393">
        <ele>1069.12</ele>
        <time>2012-09-16T08:27:07Z</time>
      </trkpt>
      <trkpt lat="45.90543" lon="6.17389">
        <ele>1069.12</ele>
        <time>2012-09-16T08:27:13Z</time>
      </trkpt>
      <trkpt lat="45.90539" lon="6.17385">
        <ele>1072.49</ele>
        <time>2012-09-16T08:27:20Z</time>
      </trkpt>
      <trkpt lat="45.90537" lon="6.1738">
        <ele>1074.41</ele>
        <time>2012-09-16T08:27:27Z</time>
      </trkpt>
      <trkpt lat="45.90535" lon="6.1738">
        <ele>1073.93</ele>
        <time>2012-09-16T08:27:34Z</time>
      </trkpt>
      <trkpt lat="45.90534" lon="6.17385">
        <ele>1073.93</ele>
        <time>2012-09-16T08:27:41Z</time>
      </trkpt>
      <trkpt lat="45.90534" lon="6.1739">
        <ele>1072.49</ele>
        <time>2012-09-16T08:27:51Z</time>
      </trkpt>
      <trkpt lat="45.90539" lon="6.17394">
        <ele>1072.49</ele>
        <time>2012-09-16T08:27:58Z</time>
      </trkpt>
      <trkpt lat="45.9054" lon="6.17404">
        <ele>1075.37</ele>
        <time>2012-09-16T08:28:06Z</time>
      </trkpt>
      <trkpt lat="45.90544" lon="6.1741">
        <ele>1078.26</ele>
        <time>2012-09-16T08:28:12Z</time>
      </trkpt>
      <trkpt lat="45.90544" lon="6.1741">
        <ele>1078.26</ele>
        <time>2012-09-16T08:28:14Z</time>
      </trkpt>
      <trkpt lat="45.90539" lon="6.17413">
        <ele>1079.7</ele>
        <time>2012-09-16T08:28:22Z</time>
      </trkpt>
      <trkpt lat="45.9054" lon="6.17418">
        <ele>1081.14</ele>
        <time>2012-09-16T08:28:33Z</time>
      </trkpt>
      <trkpt lat="45.90537" lon="6.17421">
        <ele>1081.62</ele>
        <time>2012-09-16T08:28:43Z</time>
      </trkpt>
      <trkpt lat="45.90538" lon="6.17427">
        <ele>1083.06</ele>
        <time>2012-09-16T08:28:50Z</time>
      </trkpt>
      <trkpt lat="45.90538" lon="6.1743">
        <ele>1084.02</ele>
        <time>2012-09-16T08:28:58Z</time>
      </trkpt>
      <trkpt lat="45.90537" lon="6.17436">
        <ele>1084.5</ele>
        <time>2012-09-16T08:29:06Z</time>
      </trkpt>
      <trkpt lat="45.90536" lon="6.17439">
        <ele>1085.95</ele>
        <time>2012-09-16T08:29:12Z</time>
      </trkpt>
      <trkpt lat="45.90538" lon="6.17444">
        <ele>1087.39</ele>
        <time>2012-09-16T08:29:18Z</time>
      </trkpt>
      <trkpt lat="45.90539" lon="6.17448">
        <ele>1089.31</ele>
        <time>2012-09-16T08:29:28Z</time>
      </trkpt>
      <trkpt lat="45.9054" lon="6.17452">
        <ele>1090.27</ele>
        <time>2012-09-16T08:29:36Z</time>
      </trkpt>
      <trkpt lat="45.9054" lon="6.17453">
        <ele>1090.75</ele>
        <time>2012-09-16T08:29:48Z</time>
      </trkpt>
      <trkpt lat="45.90536" lon="6.1746">
        <ele>1091.71</ele>
        <time>2012-09-16T08:29:57Z</time>
      </trkpt>
      <trkpt lat="45.90536" lon="6.17466">
        <ele>1092.68</ele>
        <time>2012-09-16T08:30:05Z</time>
      </trkpt>
      <trkpt lat="45.90536" lon="6.17471">
        <ele>1092.68</ele>
        <time>2012-09-16T08:30:13Z</time>
      </trkpt>
      <trkpt lat="45.90537" lon="6.1748">
        <ele>1094.12</ele>
        <time>2012-09-16T08:30:22Z</time>
      </trkpt>
      <trkpt lat="45.90536" lon="6.17481">
        <ele>1094.12</ele>
        <time>2012-09-16T08:30:23Z</time>
      </trkpt>
      <trkpt lat="45.90534" lon="6.17481">
        <ele>1095.08</ele>
        <time>2012-09-16T08:30:27Z</time>
      </trkpt>
      <trkpt lat="45.90533" lon="6.17482">
        <ele>1096.04</ele>
        <time>2012-09-16T08:30:33Z</time>
      </trkpt>
      <trkpt lat="45.90532" lon="6.17482">
        <ele>1097.48</ele>
        <time>2012-09-16T08:30:40Z</time>
      </trkpt>
      <trkpt lat="45.90531" lon="6.17483">
        <ele>1098.44</ele>
        <time>2012-09-16T08:30:48Z</time>
      </trkpt>
      <trkpt lat="45.9053" lon="6.17485">
        <ele>1099.4</ele>
        <time>2012-09-16T08:30:57Z</time>
      </trkpt>
      <trkpt lat="45.9053" lon="6.17487">
        <ele>1101.33</ele>
        <time>2012-09-16T08:31:05Z</time>
      </trkpt>
      <trkpt lat="45.90531" lon="6.1749">
        <ele>1101.81</ele>
        <time>2012-09-16T08:31:14Z</time>
      </trkpt>
      <trkpt lat="45.90526" lon="6.17495">
        <ele>1102.77</ele>
        <time>2012-09-16T08:31:22Z</time>
      </trkpt>
      <trkpt lat="45.90526" lon="6.17501">
        <ele>1103.25</ele>
        <time>2012-09-16T08:31:29Z</time>
      </trkpt>
      <trkpt lat="45.90523" lon="6.17501">
        <ele>1104.21</ele>
        <time>2012-09-16T08:31:36Z</time>
      </trkpt>
      <trkpt lat="45.90521" lon="6.17497">
        <ele>1104.69</ele>
        <time>2012-09-16T08:31:45Z</time>
      </trkpt>
      <trkpt lat="45.90521" lon="6.17491">
        <ele>1108.06</ele>
        <time>2012-09-16T08:31:53Z</time>
      </trkpt>
      <trkpt lat="45.90523" lon="6.17483">
        <ele>1108.54</ele>
        <time>2012-09-16T08:32:01Z</time>
      </trkpt>
      <trkpt lat="45.90523" lon="6.17483">
        <ele>1108.54</ele>
        <time>2012-09-16T08:32:08Z</time>
      </trkpt>
      <trkpt lat="45.9052" lon="6.17486">
        <ele>1108.54</ele>
        <time>2012-09-16T08:32:16Z</time>
      </trkpt>
      <trkpt lat="45.90516" lon="6.17483">
        <ele>1110.46</ele>
        <time>2012-09-16T08:32:24Z</time>
      </trkpt>
      <trkpt lat="45.90516" lon="6.17482">
        <ele>1110.94</ele>
        <time>2012-09-16T08:32:26Z</time>
      </trkpt>
      <trkpt lat="45.90517" lon="6.17478">
        <ele>1113.82</ele>
        <time>2012-09-16T08:32:32Z</time>
      </trkpt>
      <trkpt lat="45.90517" lon="6.17482">
        <ele>1113.82</ele>
        <time>2012-09-16T08:32:39Z</time>
      </trkpt>
      <trkpt lat="45.90517" lon="6.17483">
        <ele>1113.82</ele>
        <time>2012-09-16T08:32:45Z</time>
      </trkpt>
      <trkpt lat="45.90512" lon="6.17481">
        <ele>1114.79</ele>
        <time>2012-09-16T08:32:52Z</time>
      </trkpt>
      <trkpt lat="45.90507" lon="6.17476">
        <ele>1117.67</ele>
        <time>2012-09-16T08:33:00Z</time>
      </trkpt>
      <trkpt lat="45.90504" lon="6.17474">
        <ele>1121.03</ele>
        <time>2012-09-16T08:33:09Z</time>
      </trkpt>
      <trkpt lat="45.90504" lon="6.17467">
        <ele>1121.03</ele>
        <time>2012-09-16T08:33:16Z</time>
      </trkpt>
      <trkpt lat="45.90501" lon="6.17464">
        <ele>1122.48</ele>
        <time>2012-09-16T08:33:22Z</time>
      </trkpt>
      <trkpt lat="45.90501" lon="6.1746">
        <ele>1122.96</ele>
        <time>2012-09-16T08:33:28Z</time>
      </trkpt>
      <trkpt lat="45.90498" lon="6.17456">
        <ele>1124.4</ele>
        <time>2012-09-16T08:33:35Z</time>
      </trkpt>
      <trkpt lat="45.90496" lon="6.17455">
        <ele>1123.44</ele>
        <time>2012-09-16T08:33:41Z</time>
      </trkpt>
      <trkpt lat="45.90492" lon="6.17452">
        <ele>1122</ele>
        <time>2012-09-16T08:33:48Z</time>
      </trkpt>
      <trkpt lat="45.90487" lon="6.1745">
        <ele>1120.07</ele>
        <time>2012-09-16T08:33:56Z</time>
      </trkpt>
      <trkpt lat="45.90483" lon="6.17449">
        <ele>1119.59</ele>
        <time>2012-09-16T08:34:02Z</time>
      </trkpt>
      <trkpt lat="45.90482" lon="6.17448">
        <ele>1119.59</ele>
        <time>2012-09-16T08:34:08Z</time>
      </trkpt>
      <trkpt lat="45.90478" lon="6.17445">
        <ele>1119.11</ele>
        <time>2012-09-16T08:34:15Z</time>
      </trkpt>
      <trkpt lat="45.90476" lon="6.17441">
        <ele>1120.55</ele>
        <time>2012-09-16T08:34:20Z</time>
      </trkpt>
      <trkpt lat="45.90475" lon="6.17442">
        <ele>1120.07</ele>
        <time>2012-09-16T08:34:26Z</time>
      </trkpt>
      <trkpt lat="45.90471" lon="6.17433">
        <ele>1120.55</ele>
        <time>2012-09-16T08:34:34Z</time>
      </trkpt>
      <trkpt lat="45.90468" lon="6.17434">
        <ele>1121.52</ele>
        <time>2012-09-16T08:34:43Z</time>
      </trkpt>
      <trkpt lat="45.90467" lon="6.17434">
        <ele>1122.48</ele>
        <time>2012-09-16T08:34:50Z</time>
      </trkpt>
      <trkpt lat="45.90468" lon="6.17433">
        <ele>1122</ele>
        <time>2012-09-16T08:34:53Z</time>
      </trkpt>
      <trkpt lat="45.90464" lon="6.17434">
        <ele>1122.48</ele>
        <time>2012-09-16T08:34:58Z</time>
      </trkpt>
      <trkpt lat="45.90464" lon="6.17434">
        <ele>1123.44</ele>
        <time>2012-09-16T08:34:59Z</time>
      </trkpt>
      <trkpt lat="45.90465" lon="6.17435">
        <ele>1124.4</ele>
        <time>2012-09-16T08:35:05Z</time>
      </trkpt>
      <trkpt lat="45.90464" lon="6.17435">
        <ele>1125.84</ele>
        <time>2012-09-16T08:35:18Z</time>
      </trkpt>
      <trkpt lat="45.90463" lon="6.17436">
        <ele>1125.84</ele>
        <time>2012-09-16T08:35:36Z</time>
      </trkpt>
      <trkpt lat="45.90465" lon="6.17435">
        <ele>1126.32</ele>
        <time>2012-09-16T08:35:41Z</time>
      </trkpt>
      <trkpt lat="45.90464" lon="6.17435">
        <ele>1126.32</ele>
        <time>2012-09-16T08:35:53Z</time>
      </trkpt>
      <trkpt lat="45.90466" lon="6.17436">
        <ele>1126.8</ele>
        <time>2012-09-16T08:35:59Z</time>
      </trkpt>
      <trkpt lat="45.90465" lon="6.17437">
        <ele>1128.24</ele>
        <time>2012-09-16T08:36:07Z</time>
      </trkpt>
      <trkpt lat="45.90464" lon="6.17437">
        <ele>1128.24</ele>
        <time>2012-09-16T08:36:13Z</time>
      </trkpt>
      <trkpt lat="45.9046" lon="6.17435">
        <ele>1129.21</ele>
        <time>2012-09-16T08:36:20Z</time>
      </trkpt>
      <trkpt lat="45.90459" lon="6.17434">
        <ele>1129.21</ele>
        <time>2012-09-16T08:36:21Z</time>
      </trkpt>
      <trkpt lat="45.90455" lon="6.17432">
        <ele>1129.69</ele>
        <time>2012-09-16T08:36:29Z</time>
      </trkpt>
      <trkpt lat="45.90454" lon="6.17432">
        <ele>1129.21</ele>
        <time>2012-09-16T08:36:36Z</time>
      </trkpt>
      <trkpt lat="45.90453" lon="6.17435">
        <ele>1130.17</ele>
        <time>2012-09-16T08:36:41Z</time>
      </trkpt>
      <trkpt lat="45.90451" lon="6.17439">
        <ele>1130.65</ele>
        <time>2012-09-16T08:36:51Z</time>
      </trkpt>
      <trkpt lat="45.90451" lon="6.17443">
        <ele>1131.61</ele>
        <time>2012-09-16T08:36:55Z</time>
      </trkpt>
      <trkpt lat="45.9045" lon="6.17448">
        <ele>1133.53</ele>
        <time>2012-09-16T08:37:02Z</time>
      </trkpt>
      <trkpt lat="45.9045" lon="6.17449">
        <ele>1134.01</ele>
        <time>2012-09-16T08:37:08Z</time>
      </trkpt>
      <trkpt lat="45.90449" lon="6.17451">
        <ele>1135.45</ele>
        <time>2012-09-16T08:37:15Z</time>
      </trkpt>
      <trkpt lat="45.90447" lon="6.17455">
        <ele>1137.38</ele>
        <time>2012-09-16T08:37:24Z</time>
      </trkpt>
      <trkpt lat="45.90449" lon="6.17457">
        <ele>1138.82</ele>
        <time>2012-09-16T08:37:32Z</time>
      </trkpt>
      <trkpt lat="45.90449" lon="6.17457">
        <ele>1138.82</ele>
        <time>2012-09-16T08:37:38Z</time>
      </trkpt>
      <trkpt lat="45.90447" lon="6.17455">
        <ele>1139.3</ele>
        <time>2012-09-16T08:37:54Z</time>
      </trkpt>
      <trkpt lat="45.90447" lon="6.17455">
        <ele>1140.26</ele>
        <time>2012-09-16T08:38:03Z</time>
      </trkpt>
      <trkpt lat="45.90447" lon="6.17454">
        <ele>1140.74</ele>
        <time>2012-09-16T08:38:14Z</time>
      </trkpt>
      <trkpt lat="45.90448" lon="6.17455">
        <ele>1140.26</ele>
        <time>2012-09-16T08:38:28Z</time>
      </trkpt>
      <trkpt lat="45.90448" lon="6.17457">
        <ele>1140.74</ele>
        <time>2012-09-16T08:38:39Z</time>
      </trkpt>
      <trkpt lat="45.90448" lon="6.17459">
        <ele>1141.22</ele>
        <time>2012-09-16T08:38:57Z</time>
      </trkpt>
      <trkpt lat="45.90448" lon="6.1746">
        <ele>1141.22</ele>
        <time>2012-09-16T08:39:10Z</time>
      </trkpt>
      <trkpt lat="45.90448" lon="6.17459">
        <ele>1141.22</ele>
        <time>2012-09-16T08:39:20Z</time>
      </trkpt>
      <trkpt lat="45.90448" lon="6.17458">
        <ele>1141.7</ele>
        <time>2012-09-16T08:39:29Z</time>
      </trkpt>
      <trkpt lat="45.9045" lon="6.17454">
        <ele>1141.22</ele>
        <time>2012-09-16T08:39:38Z</time>
      </trkpt>
      <trkpt lat="45.90451" lon="6.17449">
        <ele>1140.26</ele>
        <time>2012-09-16T08:39:44Z</time>
      </trkpt>
      <trkpt lat="45.90451" lon="6.17447">
        <ele>1140.26</ele>
        <time>2012-09-16T08:39:53Z</time>
      </trkpt>
      <trkpt lat="45.90451" lon="6.17446">
        <ele>1140.74</ele>
        <time>2012-09-16T08:40:01Z</time>
      </trkpt>
      <trkpt lat="45.90451" lon="6.17445">
        <ele>1140.74</ele>
        <time>2012-09-16T08:40:06Z</time>
      </trkpt>
      <trkpt lat="45.90451" lon="6.17444">
        <ele>1140.26</ele>
        <time>2012-09-16T08:40:14Z</time>
      </trkpt>
      <trkpt lat="45.90449" lon="6.17442">
        <ele>1139.78</ele>
        <time>2012-09-16T08:40:23Z</time>
      </trkpt>
      <trkpt lat="45.90441" lon="6.17433">
        <ele>1139.78</ele>
        <time>2012-09-16T08:40:33Z</time>
      </trkpt>
      <trkpt lat="45.90439" lon="6.17421">
        <ele>1137.86</ele>
        <time>2012-09-16T08:40:42Z</time>
      </trkpt>
      <trkpt lat="45.90437" lon="6.17421">
        <ele>1138.34</ele>
        <time>2012-09-16T08:40:48Z</time>
      </trkpt>
      <trkpt lat="45.90436" lon="6.1742">
        <ele>1137.86</ele>
        <time>2012-09-16T08:40:54Z</time>
      </trkpt>
      <trkpt lat="45.90435" lon="6.1742">
        <ele>1137.86</ele>
        <time>2012-09-16T08:41:02Z</time>
      </trkpt>
      <trkpt lat="45.90435" lon="6.17421">
        <ele>1137.86</ele>
        <time>2012-09-16T08:41:10Z</time>
      </trkpt>
      <trkpt lat="45.90432" lon="6.17421">
        <ele>1138.34</ele>
        <time>2012-09-16T08:41:18Z</time>
      </trkpt>
      <trkpt lat="45.90431" lon="6.17421">
        <ele>1138.34</ele>
        <time>2012-09-16T08:41:25Z</time>
      </trkpt>
      <trkpt lat="45.90427" lon="6.17419">
        <ele>1141.22</ele>
        <time>2012-09-16T08:41:32Z</time>
      </trkpt>
      <trkpt lat="45.90426" lon="6.17418">
        <ele>1142.18</ele>
        <time>2012-09-16T08:41:38Z</time>
      </trkpt>
      <trkpt lat="45.90424" lon="6.17417">
        <ele>1143.63</ele>
        <time>2012-09-16T08:41:46Z</time>
      </trkpt>
      <trkpt lat="45.90423" lon="6.17416">
        <ele>1143.63</ele>
        <time>2012-09-16T08:41:54Z</time>
      </trkpt>
      <trkpt lat="45.90421" lon="6.17415">
        <ele>1143.63</ele>
        <time>2012-09-16T08:42:02Z</time>
      </trkpt>
      <trkpt lat="45.90418" lon="6.17414">
        <ele>1143.14</ele>
        <time>2012-09-16T08:42:10Z</time>
      </trkpt>
      <trkpt lat="45.90415" lon="6.17414">
        <ele>1142.66</ele>
        <time>2012-09-16T08:42:17Z</time>
      </trkpt>
      <trkpt lat="45.90412" lon="6.17413">
        <ele>1142.66</ele>
        <time>2012-09-16T08:42:25Z</time>
      </trkpt>
      <trkpt lat="45.9041" lon="6.1741">
        <ele>1142.66</ele>
        <time>2012-09-16T08:42:34Z</time>
      </trkpt>
      <trkpt lat="45.90405" lon="6.17408">
        <ele>1141.7</ele>
        <time>2012-09-16T08:42:41Z</time>
      </trkpt>
      <trkpt lat="45.90403" lon="6.17407">
        <ele>1140.74</ele>
        <time>2012-09-16T08:42:49Z</time>
      </trkpt>
      <trkpt lat="45.904" lon="6.17407">
        <ele>1136.9</ele>
        <time>2012-09-16T08:42:56Z</time>
      </trkpt>
      <trkpt lat="45.90396" lon="6.17407">
        <ele>1134.49</ele>
        <time>2012-09-16T08:43:04Z</time>
      </trkpt>
      <trkpt lat="45.90394" lon="6.17407">
        <ele>1134.01</ele>
        <time>2012-09-16T08:43:14Z</time>
      </trkpt>
      <trkpt lat="45.90391" lon="6.17409">
        <ele>1132.57</ele>
        <time>2012-09-16T08:43:23Z</time>
      </trkpt>
      <trkpt lat="45.90382" lon="6.17413">
        <ele>1131.13</ele>
        <time>2012-09-16T08:43:31Z</time>
      </trkpt>
      <trkpt lat="45.9038" lon="6.17412">
        <ele>1132.57</ele>
        <time>2012-09-16T08:43:37Z</time>
      </trkpt>
      <trkpt lat="45.90379" lon="6.1741">
        <ele>1132.57</ele>
        <time>2012-09-16T08:43:43Z</time>
      </trkpt>
      <trkpt lat="45.90371" lon="6.1741">
        <ele>1142.18</ele>
        <time>2012-09-16T08:43:48Z</time>
      </trkpt>
      <trkpt lat="45.90367" lon="6.17407">
        <ele>1145.07</ele>
        <time>2012-09-16T08:43:54Z</time>
      </trkpt>
      <trkpt lat="45.90364" lon="6.17401">
        <ele>1148.91</ele>
        <time>2012-09-16T08:44:00Z</time>
      </trkpt>
      <trkpt lat="45.90363" lon="6.174">
        <ele>1149.87</ele>
        <time>2012-09-16T08:44:04Z</time>
      </trkpt>
      <trkpt lat="45.90362" lon="6.17399">
        <ele>1150.35</ele>
        <time>2012-09-16T08:44:11Z</time>
      </trkpt>
      <trkpt lat="45.90357" lon="6.17399">
        <ele>1149.39</ele>
        <time>2012-09-16T08:44:18Z</time>
      </trkpt>
      <trkpt lat="45.90355" lon="6.17399">
        <ele>1150.35</ele>
        <time>2012-09-16T08:44:24Z</time>
      </trkpt>
      <trkpt lat="45.90353" lon="6.17399">
        <ele>1150.35</ele>
        <time>2012-09-16T08:44:32Z</time>
      </trkpt>
      <trkpt lat="45.90352" lon="6.17399">
        <ele>1150.84</ele>
        <time>2012-09-16T08:44:36Z</time>
      </trkpt>
      <trkpt lat="45.90348" lon="6.174">
        <ele>1151.8</ele>
        <time>2012-09-16T08:44:44Z</time>
      </trkpt>
      <trkpt lat="45.90345" lon="6.17401">
        <ele>1153.72</ele>
        <time>2012-09-16T08:44:52Z</time>
      </trkpt>
      <trkpt lat="45.90341" lon="6.17404">
        <ele>1154.68</ele>
        <time>2012-09-16T08:44:58Z</time>
      </trkpt>
      <trkpt lat="45.9034" lon="6.17412">
        <ele>1158.05</ele>
        <time>2012-09-16T08:45:04Z</time>
      </trkpt>
      <trkpt lat="45.90337" lon="6.17415">
        <ele>1158.53</ele>
        <time>2012-09-16T08:45:11Z</time>
      </trkpt>
      <trkpt lat="45.90335" lon="6.17417">
        <ele>1158.53</ele>
        <time>2012-09-16T08:45:16Z</time>
      </trkpt>
      <trkpt lat="45.90333" lon="6.17419">
        <ele>1158.05</ele>
        <time>2012-09-16T08:45:19Z</time>
      </trkpt>
      <trkpt lat="45.90337" lon="6.17425">
        <ele>1159.01</ele>
        <time>2012-09-16T08:45:25Z</time>
      </trkpt>
      <trkpt lat="45.90337" lon="6.17428">
        <ele>1160.93</ele>
        <time>2012-09-16T08:45:31Z</time>
      </trkpt>
      <trkpt lat="45.90336" lon="6.17431">
        <ele>1163.33</ele>
        <time>2012-09-16T08:45:34Z</time>
      </trkpt>
      <trkpt lat="45.90334" lon="6.17435">
        <ele>1164.77</ele>
        <time>2012-09-16T08:45:38Z</time>
      </trkpt>
      <trkpt lat="45.90333" lon="6.17439">
        <ele>1165.74</ele>
        <time>2012-09-16T08:45:43Z</time>
      </trkpt>
      <trkpt lat="45.90333" lon="6.1744">
        <ele>1165.74</ele>
        <time>2012-09-16T08:45:44Z</time>
      </trkpt>
      <trkpt lat="45.90332" lon="6.17444">
        <ele>1166.22</ele>
        <time>2012-09-16T08:45:50Z</time>
      </trkpt>
      <trkpt lat="45.90331" lon="6.17442">
        <ele>1167.18</ele>
        <time>2012-09-16T08:45:57Z</time>
      </trkpt>
      <trkpt lat="45.90331" lon="6.17441">
        <ele>1170.54</ele>
        <time>2012-09-16T08:46:14Z</time>
      </trkpt>
      <trkpt lat="45.90332" lon="6.17442">
        <ele>1170.54</ele>
        <time>2012-09-16T08:46:30Z</time>
      </trkpt>
      <trkpt lat="45.90333" lon="6.17444">
        <ele>1169.58</ele>
        <time>2012-09-16T08:46:33Z</time>
      </trkpt>
      <trkpt lat="45.90332" lon="6.17443">
        <ele>1169.58</ele>
        <time>2012-09-16T08:46:38Z</time>
      </trkpt>
      <trkpt lat="45.90331" lon="6.17443">
        <ele>1169.58</ele>
        <time>2012-09-16T08:46:53Z</time>
      </trkpt>
      <trkpt lat="45.90331" lon="6.17442">
        <ele>1170.54</ele>
        <time>2012-09-16T08:47:06Z</time>
      </trkpt>
      <trkpt lat="45.90332" lon="6.17443">
        <ele>1170.06</ele>
        <time>2012-09-16T08:47:17Z</time>
      </trkpt>
      <trkpt lat="45.90332" lon="6.17443">
        <ele>1170.06</ele>
        <time>2012-09-16T08:47:32Z</time>
      </trkpt>
      <trkpt lat="45.90332" lon="6.17443">
        <ele>1169.58</ele>
        <time>2012-09-16T08:47:46Z</time>
      </trkpt>
      <trkpt lat="45.90332" lon="6.17442">
        <ele>1169.58</ele>
        <time>2012-09-16T08:48:04Z</time>
      </trkpt>
      <trkpt lat="45.90332" lon="6.17443">
        <ele>1169.1</ele>
        <time>2012-09-16T08:48:20Z</time>
      </trkpt>
      <trkpt lat="45.90333" lon="6.17442">
        <ele>1169.58</ele>
        <time>2012-09-16T08:48:37Z</time>
      </trkpt>
      <trkpt lat="45.90332" lon="6.17442">
        <ele>1170.06</ele>
        <time>2012-09-16T08:48:49Z</time>
      </trkpt>
      <trkpt lat="45.90332" lon="6.17442">
        <ele>1170.06</ele>
        <time>2012-09-16T08:48:58Z</time>
      </trkpt>
      <trkpt lat="45.9033" lon="6.17443">
        <ele>1169.58</ele>
        <time>2012-09-16T08:49:03Z</time>
      </trkpt>
      <trkpt lat="45.90329" lon="6.17445">
        <ele>1169.58</ele>
        <time>2012-09-16T08:49:09Z</time>
      </trkpt>
      <trkpt lat="45.90329" lon="6.1745">
        <ele>1170.54</ele>
        <time>2012-09-16T08:49:13Z</time>
      </trkpt>
      <trkpt lat="45.90331" lon="6.17455">
        <ele>1169.1</ele>
        <time>2012-09-16T08:49:18Z</time>
      </trkpt>
      <trkpt lat="45.90331" lon="6.17458">
        <ele>1168.62</ele>
        <time>2012-09-16T08:49:25Z</time>
      </trkpt>
      <trkpt lat="45.9033" lon="6.17459">
        <ele>1169.1</ele>
        <time>2012-09-16T08:49:36Z</time>
      </trkpt>
      <trkpt lat="45.9033" lon="6.17459">
        <ele>1169.58</ele>
        <time>2012-09-16T08:49:50Z</time>
      </trkpt>
      <trkpt lat="45.90331" lon="6.1746">
        <ele>1170.06</ele>
        <time>2012-09-16T08:50:04Z</time>
      </trkpt>
      <trkpt lat="45.90331" lon="6.17462">
        <ele>1170.06</ele>
        <time>2012-09-16T08:50:15Z</time>
      </trkpt>
      <trkpt lat="45.90331" lon="6.17462">
        <ele>1170.54</ele>
        <time>2012-09-16T08:50:34Z</time>
      </trkpt>
      <trkpt lat="45.90331" lon="6.17462">
        <ele>1171.02</ele>
        <time>2012-09-16T08:50:52Z</time>
      </trkpt>
      <trkpt lat="45.90331" lon="6.17463">
        <ele>1171.5</ele>
        <time>2012-09-16T08:51:09Z</time>
      </trkpt>
      <trkpt lat="45.90331" lon="6.17463">
        <ele>1171.98</ele>
        <time>2012-09-16T08:51:26Z</time>
      </trkpt>
      <trkpt lat="45.9033" lon="6.17464">
        <ele>1171.98</ele>
        <time>2012-09-16T08:51:36Z</time>
      </trkpt>
      <trkpt lat="45.9033" lon="6.17473">
        <ele>1172.95</ele>
        <time>2012-09-16T08:51:44Z</time>
      </trkpt>
      <trkpt lat="45.90331" lon="6.17479">
        <ele>1172.95</ele>
        <time>2012-09-16T08:51:53Z</time>
      </trkpt>
      <trkpt lat="45.90331" lon="6.17481">
        <ele>1173.43</ele>
        <time>2012-09-16T08:52:08Z</time>
      </trkpt>
      <trkpt lat="45.90334" lon="6.17485">
        <ele>1174.39</ele>
        <time>2012-09-16T08:52:16Z</time>
      </trkpt>
      <trkpt lat="45.90333" lon="6.17487">
        <ele>1175.35</ele>
        <time>2012-09-16T08:52:26Z</time>
      </trkpt>
      <trkpt lat="45.90332" lon="6.1749">
        <ele>1175.83</ele>
        <time>2012-09-16T08:52:35Z</time>
      </trkpt>
      <trkpt lat="45.90331" lon="6.17494">
        <ele>1176.79</ele>
        <time>2012-09-16T08:52:46Z</time>
      </trkpt>
      <trkpt lat="45.90331" lon="6.17498">
        <ele>1177.75</ele>
        <time>2012-09-16T08:52:59Z</time>
      </trkpt>
      <trkpt lat="45.90333" lon="6.17506">
        <ele>1177.75</ele>
        <time>2012-09-16T08:53:08Z</time>
      </trkpt>
      <trkpt lat="45.90334" lon="6.17519">
        <ele>1178.23</ele>
        <time>2012-09-16T08:53:19Z</time>
      </trkpt>
      <trkpt lat="45.90332" lon="6.17526">
        <ele>1179.19</ele>
        <time>2012-09-16T08:53:25Z</time>
      </trkpt>
      <trkpt lat="45.9033" lon="6.17533">
        <ele>1179.67</ele>
        <time>2012-09-16T08:53:32Z</time>
      </trkpt>
      <trkpt lat="45.9033" lon="6.17543">
        <ele>1179.19</ele>
        <time>2012-09-16T08:53:43Z</time>
      </trkpt>
      <trkpt lat="45.90333" lon="6.17548">
        <ele>1179.19</ele>
        <time>2012-09-16T08:53:53Z</time>
      </trkpt>
      <trkpt lat="45.90337" lon="6.17554">
        <ele>1178.23</ele>
        <time>2012-09-16T08:54:02Z</time>
      </trkpt>
      <trkpt lat="45.9034" lon="6.17559">
        <ele>1178.23</ele>
        <time>2012-09-16T08:54:10Z</time>
      </trkpt>
      <trkpt lat="45.90346" lon="6.1756">
        <ele>1179.67</ele>
        <time>2012-09-16T08:54:18Z</time>
      </trkpt>
      <trkpt lat="45.90352" lon="6.17561">
        <ele>1182.08</ele>
        <time>2012-09-16T08:54:27Z</time>
      </trkpt>
      <trkpt lat="45.90356" lon="6.17557">
        <ele>1184.48</ele>
        <time>2012-09-16T08:54:36Z</time>
      </trkpt>
      <trkpt lat="45.90358" lon="6.17563">
        <ele>1183.04</ele>
        <time>2012-09-16T08:54:44Z</time>
      </trkpt>
      <trkpt lat="45.90361" lon="6.1756">
        <ele>1182.08</ele>
        <time>2012-09-16T08:54:51Z</time>
      </trkpt>
      <trkpt lat="45.90363" lon="6.17556">
        <ele>1183.04</ele>
        <time>2012-09-16T08:54:58Z</time>
      </trkpt>
      <trkpt lat="45.90365" lon="6.17547">
        <ele>1186.4</ele>
        <time>2012-09-16T08:55:07Z</time>
      </trkpt>
      <trkpt lat="45.90366" lon="6.17545">
        <ele>1188.81</ele>
        <time>2012-09-16T08:55:14Z</time>
      </trkpt>
      <trkpt lat="45.9037" lon="6.17549">
        <ele>1191.69</ele>
        <time>2012-09-16T08:55:23Z</time>
      </trkpt>
      <trkpt lat="45.90374" lon="6.17554">
        <ele>1193.13</ele>
        <time>2012-09-16T08:55:31Z</time>
      </trkpt>
      <trkpt lat="45.90375" lon="6.17559">
        <ele>1195.06</ele>
        <time>2012-09-16T08:55:39Z</time>
      </trkpt>
      <trkpt lat="45.90375" lon="6.17561">
        <ele>1195.54</ele>
        <time>2012-09-16T08:55:50Z</time>
      </trkpt>
      <trkpt lat="45.90374" lon="6.1757">
        <ele>1196.02</ele>
        <time>2012-09-16T08:56:01Z</time>
      </trkpt>
      <trkpt lat="45.90373" lon="6.17577">
        <ele>1197.46</ele>
        <time>2012-09-16T08:56:11Z</time>
      </trkpt>
      <trkpt lat="45.90365" lon="6.17589">
        <ele>1198.42</ele>
        <time>2012-09-16T08:56:21Z</time>
      </trkpt>
      <trkpt lat="45.9036" lon="6.17595">
        <ele>1201.3</ele>
        <time>2012-09-16T08:56:30Z</time>
      </trkpt>
      <trkpt lat="45.90359" lon="6.17602">
        <ele>1204.67</ele>
        <time>2012-09-16T08:56:41Z</time>
      </trkpt>
      <trkpt lat="45.90355" lon="6.17607">
        <ele>1207.07</ele>
        <time>2012-09-16T08:56:50Z</time>
      </trkpt>
      <trkpt lat="45.90353" lon="6.1761">
        <ele>1208.51</ele>
        <time>2012-09-16T08:56:59Z</time>
      </trkpt>
      <trkpt lat="45.90352" lon="6.17612">
        <ele>1209.96</ele>
        <time>2012-09-16T08:57:08Z</time>
      </trkpt>
      <trkpt lat="45.90349" lon="6.17614">
        <ele>1211.4</ele>
        <time>2012-09-16T08:57:17Z</time>
      </trkpt>
      <trkpt lat="45.90346" lon="6.17612">
        <ele>1212.36</ele>
        <time>2012-09-16T08:57:23Z</time>
      </trkpt>
      <trkpt lat="45.90342" lon="6.17613">
        <ele>1212.84</ele>
        <time>2012-09-16T08:57:33Z</time>
      </trkpt>
      <trkpt lat="45.90337" lon="6.17615">
        <ele>1213.8</ele>
        <time>2012-09-16T08:57:41Z</time>
      </trkpt>
      <trkpt lat="45.90333" lon="6.17621">
        <ele>1213.8</ele>
        <time>2012-09-16T08:57:50Z</time>
      </trkpt>
      <trkpt lat="45.90328" lon="6.17626">
        <ele>1214.76</ele>
        <time>2012-09-16T08:58:01Z</time>
      </trkpt>
      <trkpt lat="45.90324" lon="6.17633">
        <ele>1217.17</ele>
        <time>2012-09-16T08:58:11Z</time>
      </trkpt>
      <trkpt lat="45.90322" lon="6.17637">
        <ele>1218.13</ele>
        <time>2012-09-16T08:58:18Z</time>
      </trkpt>
      <trkpt lat="45.90318" lon="6.17638">
        <ele>1219.09</ele>
        <time>2012-09-16T08:58:27Z</time>
      </trkpt>
      <trkpt lat="45.90312" lon="6.17645">
        <ele>1221.49</ele>
        <time>2012-09-16T08:58:34Z</time>
      </trkpt>
      <trkpt lat="45.90307" lon="6.17653">
        <ele>1223.42</ele>
        <time>2012-09-16T08:58:42Z</time>
      </trkpt>
      <trkpt lat="45.90305" lon="6.17658">
        <ele>1224.86</ele>
        <time>2012-09-16T08:58:48Z</time>
      </trkpt>
      <trkpt lat="45.90302" lon="6.1766">
        <ele>1226.3</ele>
        <time>2012-09-16T08:58:55Z</time>
      </trkpt>
      <trkpt lat="45.90299" lon="6.1766">
        <ele>1226.3</ele>
        <time>2012-09-16T08:59:03Z</time>
      </trkpt>
      <trkpt lat="45.90293" lon="6.17657">
        <ele>1226.78</ele>
        <time>2012-09-16T08:59:12Z</time>
      </trkpt>
      <trkpt lat="45.9029" lon="6.17656">
        <ele>1226.3</ele>
        <time>2012-09-16T08:59:15Z</time>
      </trkpt>
      <trkpt lat="45.90286" lon="6.17657">
        <ele>1225.82</ele>
        <time>2012-09-16T08:59:22Z</time>
      </trkpt>
      <trkpt lat="45.90284" lon="6.17659">
        <ele>1225.82</ele>
        <time>2012-09-16T08:59:25Z</time>
      </trkpt>
      <trkpt lat="45.9028" lon="6.17661">
        <ele>1225.82</ele>
        <time>2012-09-16T08:59:28Z</time>
      </trkpt>
      <trkpt lat="45.90277" lon="6.17665">
        <ele>1224.86</ele>
        <time>2012-09-16T08:59:33Z</time>
      </trkpt>
      <trkpt lat="45.90276" lon="6.17672">
        <ele>1223.9</ele>
        <time>2012-09-16T08:59:40Z</time>
      </trkpt>
      <trkpt lat="45.90274" lon="6.17678">
        <ele>1224.38</ele>
        <time>2012-09-16T08:59:47Z</time>
      </trkpt>
      <trkpt lat="45.90272" lon="6.17682">
        <ele>1224.38</ele>
        <time>2012-09-16T08:59:53Z</time>
      </trkpt>
      <trkpt lat="45.90269" lon="6.17685">
        <ele>1225.82</ele>
        <time>2012-09-16T08:59:59Z</time>
      </trkpt>
      <trkpt lat="45.90267" lon="6.17687">
        <ele>1225.82</ele>
        <time>2012-09-16T09:00:04Z</time>
      </trkpt>
      <trkpt lat="45.90266" lon="6.17689">
        <ele>1225.34</ele>
        <time>2012-09-16T09:00:08Z</time>
      </trkpt>
      <trkpt lat="45.90266" lon="6.17697">
        <ele>1226.78</ele>
        <time>2012-09-16T09:00:14Z</time>
      </trkpt>
      <trkpt lat="45.90266" lon="6.17699">
        <ele>1227.26</ele>
        <time>2012-09-16T09:00:20Z</time>
      </trkpt>
      <trkpt lat="45.90267" lon="6.17703">
        <ele>1227.74</ele>
        <time>2012-09-16T09:00:23Z</time>
      </trkpt>
      <trkpt lat="45.90262" lon="6.17707">
        <ele>1227.26</ele>
        <time>2012-09-16T09:00:29Z</time>
      </trkpt>
      <trkpt lat="45.9026" lon="6.17711">
        <ele>1227.74</ele>
        <time>2012-09-16T09:00:37Z</time>
      </trkpt>
      <trkpt lat="45.90258" lon="6.17715">
        <ele>1228.22</ele>
        <time>2012-09-16T09:00:42Z</time>
      </trkpt>
      <trkpt lat="45.90255" lon="6.1772">
        <ele>1228.22</ele>
        <time>2012-09-16T09:00:50Z</time>
      </trkpt>
      <trkpt lat="45.90252" lon="6.17723">
        <ele>1229.66</ele>
        <time>2012-09-16T09:00:55Z</time>
      </trkpt>
      <trkpt lat="45.90252" lon="6.17728">
        <ele>1231.11</ele>
        <time>2012-09-16T09:01:03Z</time>
      </trkpt>
      <trkpt lat="45.90247" lon="6.1773">
        <ele>1231.11</ele>
        <time>2012-09-16T09:01:10Z</time>
      </trkpt>
      <trkpt lat="45.90247" lon="6.1773">
        <ele>1231.11</ele>
        <time>2012-09-16T09:01:12Z</time>
      </trkpt>
      <trkpt lat="45.9024" lon="6.17736">
        <ele>1231.11</ele>
        <time>2012-09-16T09:01:18Z</time>
      </trkpt>
      <trkpt lat="45.90238" lon="6.17738">
        <ele>1231.11</ele>
        <time>2012-09-16T09:01:21Z</time>
      </trkpt>
      <trkpt lat="45.90236" lon="6.17743">
        <ele>1232.07</ele>
        <time>2012-09-16T09:01:26Z</time>
      </trkpt>
      <trkpt lat="45.90234" lon="6.17748">
        <ele>1232.55</ele>
        <time>2012-09-16T09:01:33Z</time>
      </trkpt>
      <trkpt lat="45.90231" lon="6.17757">
        <ele>1233.03</ele>
        <time>2012-09-16T09:01:42Z</time>
      </trkpt>
      <trkpt lat="45.90231" lon="6.17761">
        <ele>1233.99</ele>
        <time>2012-09-16T09:01:48Z</time>
      </trkpt>
      <trkpt lat="45.90227" lon="6.17769">
        <ele>1234.47</ele>
        <time>2012-09-16T09:01:54Z</time>
      </trkpt>
      <trkpt lat="45.90227" lon="6.1777">
        <ele>1234.47</ele>
        <time>2012-09-16T09:01:56Z</time>
      </trkpt>
      <trkpt lat="45.90225" lon="6.17775">
        <ele>1235.43</ele>
        <time>2012-09-16T09:02:02Z</time>
      </trkpt>
      <trkpt lat="45.90222" lon="6.17778">
        <ele>1234.95</ele>
        <time>2012-09-16T09:02:06Z</time>
      </trkpt>
      <trkpt lat="45.90221" lon="6.17783">
        <ele>1234.95</ele>
        <time>2012-09-16T09:02:10Z</time>
      </trkpt>
      <trkpt lat="45.9022" lon="6.17788">
        <ele>1234.95</ele>
        <time>2012-09-16T09:02:17Z</time>
      </trkpt>
      <trkpt lat="45.9022" lon="6.17791">
        <ele>1234.47</ele>
        <time>2012-09-16T09:02:23Z</time>
      </trkpt>
      <trkpt lat="45.90223" lon="6.17795">
        <ele>1233.99</ele>
        <time>2012-09-16T09:02:30Z</time>
      </trkpt>
      <trkpt lat="45.90225" lon="6.17801">
        <ele>1234.47</ele>
        <time>2012-09-16T09:02:35Z</time>
      </trkpt>
      <trkpt lat="45.9023" lon="6.17802">
        <ele>1235.91</ele>
        <time>2012-09-16T09:02:42Z</time>
      </trkpt>
      <trkpt lat="45.90231" lon="6.17806">
        <ele>1236.87</ele>
        <time>2012-09-16T09:02:46Z</time>
      </trkpt>
      <trkpt lat="45.90229" lon="6.17808">
        <ele>1238.8</ele>
        <time>2012-09-16T09:02:53Z</time>
      </trkpt>
      <trkpt lat="45.90231" lon="6.17814">
        <ele>1239.76</ele>
        <time>2012-09-16T09:02:58Z</time>
      </trkpt>
      <trkpt lat="45.90231" lon="6.17819">
        <ele>1241.68</ele>
        <time>2012-09-16T09:03:04Z</time>
      </trkpt>
      <trkpt lat="45.90233" lon="6.17823">
        <ele>1242.64</ele>
        <time>2012-09-16T09:03:12Z</time>
      </trkpt>
      <trkpt lat="45.90233" lon="6.17824">
        <ele>1242.64</ele>
        <time>2012-09-16T09:03:26Z</time>
      </trkpt>
      <trkpt lat="45.90234" lon="6.17825">
        <ele>1243.6</ele>
        <time>2012-09-16T09:03:34Z</time>
      </trkpt>
      <trkpt lat="45.90232" lon="6.17825">
        <ele>1244.56</ele>
        <time>2012-09-16T09:03:40Z</time>
      </trkpt>
      <trkpt lat="45.90232" lon="6.17825">
        <ele>1246.01</ele>
        <time>2012-09-16T09:03:52Z</time>
      </trkpt>
      <trkpt lat="45.90232" lon="6.17823">
        <ele>1247.45</ele>
        <time>2012-09-16T09:04:05Z</time>
      </trkpt>
      <trkpt lat="45.90231" lon="6.17822">
        <ele>1247.45</ele>
        <time>2012-09-16T09:04:11Z</time>
      </trkpt>
      <trkpt lat="45.90231" lon="6.17822">
        <ele>1247.45</ele>
        <time>2012-09-16T09:04:25Z</time>
      </trkpt>
      <trkpt lat="45.90231" lon="6.17822">
        <ele>1248.89</ele>
        <time>2012-09-16T09:04:38Z</time>
      </trkpt>
      <trkpt lat="45.90232" lon="6.17822">
        <ele>1248.89</ele>
        <time>2012-09-16T09:04:49Z</time>
      </trkpt>
      <trkpt lat="45.90232" lon="6.17821">
        <ele>1248.89</ele>
        <time>2012-09-16T09:04:59Z</time>
      </trkpt>
      <trkpt lat="45.90231" lon="6.17819">
        <ele>1249.37</ele>
        <time>2012-09-16T09:05:11Z</time>
      </trkpt>
      <trkpt lat="45.90231" lon="6.17819">
        <ele>1249.37</ele>
        <time>2012-09-16T09:05:22Z</time>
      </trkpt>
      <trkpt lat="45.90231" lon="6.17819">
        <ele>1249.85</ele>
        <time>2012-09-16T09:05:31Z</time>
      </trkpt>
      <trkpt lat="45.90231" lon="6.1782">
        <ele>1249.37</ele>
        <time>2012-09-16T09:05:36Z</time>
      </trkpt>
      <trkpt lat="45.90231" lon="6.17822">
        <ele>1248.89</ele>
        <time>2012-09-16T09:05:41Z</time>
      </trkpt>
      <trkpt lat="45.9023" lon="6.17831">
        <ele>1249.37</ele>
        <time>2012-09-16T09:05:48Z</time>
      </trkpt>
      <trkpt lat="45.9023" lon="6.17836">
        <ele>1249.37</ele>
        <time>2012-09-16T09:05:54Z</time>
      </trkpt>
      <trkpt lat="45.90225" lon="6.17836">
        <ele>1248.89</ele>
        <time>2012-09-16T09:06:02Z</time>
      </trkpt>
      <trkpt lat="45.90223" lon="6.17836">
        <ele>1249.37</ele>
        <time>2012-09-16T09:06:10Z</time>
      </trkpt>
      <trkpt lat="45.90218" lon="6.17841">
        <ele>1251.29</ele>
        <time>2012-09-16T09:06:18Z</time>
      </trkpt>
      <trkpt lat="45.90219" lon="6.17845">
        <ele>1252.74</ele>
        <time>2012-09-16T09:06:22Z</time>
      </trkpt>
      <trkpt lat="45.90213" lon="6.17847">
        <ele>1254.66</ele>
        <time>2012-09-16T09:06:31Z</time>
      </trkpt>
      <trkpt lat="45.90213" lon="6.1785">
        <ele>1254.66</ele>
        <time>2012-09-16T09:06:37Z</time>
      </trkpt>
      <trkpt lat="45.90212" lon="6.17851">
        <ele>1254.18</ele>
        <time>2012-09-16T09:06:43Z</time>
      </trkpt>
      <trkpt lat="45.90212" lon="6.17853">
        <ele>1254.18</ele>
        <time>2012-09-16T09:06:54Z</time>
      </trkpt>
      <trkpt lat="45.90212" lon="6.17853">
        <ele>1254.18</ele>
        <time>2012-09-16T09:06:55Z</time>
      </trkpt>
      <trkpt lat="45.9021" lon="6.17849">
        <ele>1252.74</ele>
        <time>2012-09-16T09:07:01Z</time>
      </trkpt>
      <trkpt lat="45.90208" lon="6.17847">
        <ele>1253.22</ele>
        <time>2012-09-16T09:07:10Z</time>
      </trkpt>
      <trkpt lat="45.90209" lon="6.17848">
        <ele>1253.22</ele>
        <time>2012-09-16T09:07:17Z</time>
      </trkpt>
      <trkpt lat="45.90209" lon="6.1785">
        <ele>1252.74</ele>
        <time>2012-09-16T09:07:21Z</time>
      </trkpt>
      <trkpt lat="45.90208" lon="6.17856">
        <ele>1252.74</ele>
        <time>2012-09-16T09:07:27Z</time>
      </trkpt>
      <trkpt lat="45.90207" lon="6.17859">
        <ele>1252.25</ele>
        <time>2012-09-16T09:07:33Z</time>
      </trkpt>
      <trkpt lat="45.90206" lon="6.1786">
        <ele>1251.29</ele>
        <time>2012-09-16T09:07:39Z</time>
      </trkpt>
      <trkpt lat="45.90206" lon="6.1786">
        <ele>1251.29</ele>
        <time>2012-09-16T09:07:42Z</time>
      </trkpt>
      <trkpt lat="45.90205" lon="6.17865">
        <ele>1250.33</ele>
        <time>2012-09-16T09:07:47Z</time>
      </trkpt>
      <trkpt lat="45.90205" lon="6.17866">
        <ele>1249.85</ele>
        <time>2012-09-16T09:07:48Z</time>
      </trkpt>
      <trkpt lat="45.90203" lon="6.1787">
        <ele>1247.93</ele>
        <time>2012-09-16T09:07:54Z</time>
      </trkpt>
      <trkpt lat="45.90202" lon="6.17871">
        <ele>1246.97</ele>
        <time>2012-09-16T09:08:00Z</time>
      </trkpt>
      <trkpt lat="45.902" lon="6.17875">
        <ele>1246.01</ele>
        <time>2012-09-16T09:08:07Z</time>
      </trkpt>
      <trkpt lat="45.90201" lon="6.17879">
        <ele>1245.53</ele>
        <time>2012-09-16T09:08:13Z</time>
      </trkpt>
      <trkpt lat="45.90201" lon="6.17881">
        <ele>1245.04</ele>
        <time>2012-09-16T09:08:17Z</time>
      </trkpt>
      <trkpt lat="45.90203" lon="6.17882">
        <ele>1245.04</ele>
        <time>2012-09-16T09:08:22Z</time>
      </trkpt>
      <trkpt lat="45.90206" lon="6.17887">
        <ele>1245.53</ele>
        <time>2012-09-16T09:08:29Z</time>
      </trkpt>
      <trkpt lat="45.90203" lon="6.17893">
        <ele>1245.53</ele>
        <time>2012-09-16T09:08:36Z</time>
      </trkpt>
      <trkpt lat="45.90202" lon="6.17897">
        <ele>1245.04</ele>
        <time>2012-09-16T09:08:42Z</time>
      </trkpt>
      <trkpt lat="45.902" lon="6.17899">
        <ele>1245.04</ele>
        <time>2012-09-16T09:08:51Z</time>
      </trkpt>
      <trkpt lat="45.90199" lon="6.17905">
        <ele>1245.04</ele>
        <time>2012-09-16T09:08:58Z</time>
      </trkpt>
      <trkpt lat="45.90194" lon="6.1791">
        <ele>1246.49</ele>
        <time>2012-09-16T09:09:04Z</time>
      </trkpt>
      <trkpt lat="45.90193" lon="6.17911">
        <ele>1246.97</ele>
        <time>2012-09-16T09:09:05Z</time>
      </trkpt>
      <trkpt lat="45.90191" lon="6.17918">
        <ele>1247.45</ele>
        <time>2012-09-16T09:09:12Z</time>
      </trkpt>
      <trkpt lat="45.90192" lon="6.1792">
        <ele>1247.45</ele>
        <time>2012-09-16T09:09:17Z</time>
      </trkpt>
      <trkpt lat="45.90191" lon="6.17926">
        <ele>1247.45</ele>
        <time>2012-09-16T09:09:24Z</time>
      </trkpt>
      <trkpt lat="45.9019" lon="6.1793">
        <ele>1247.93</ele>
        <time>2012-09-16T09:09:31Z</time>
      </trkpt>
      <trkpt lat="45.9019" lon="6.17932">
        <ele>1247.93</ele>
        <time>2012-09-16T09:09:34Z</time>
      </trkpt>
      <trkpt lat="45.90189" lon="6.17939">
        <ele>1248.89</ele>
        <time>2012-09-16T09:09:40Z</time>
      </trkpt>
      <trkpt lat="45.90189" lon="6.1794">
        <ele>1248.89</ele>
        <time>2012-09-16T09:09:44Z</time>
      </trkpt>
      <trkpt lat="45.90188" lon="6.17946">
        <ele>1249.37</ele>
        <time>2012-09-16T09:09:49Z</time>
      </trkpt>
      <trkpt lat="45.90189" lon="6.1795">
        <ele>1250.33</ele>
        <time>2012-09-16T09:09:51Z</time>
      </trkpt>
      <trkpt lat="45.9019" lon="6.17954">
        <ele>1251.29</ele>
        <time>2012-09-16T09:09:56Z</time>
      </trkpt>
      <trkpt lat="45.9019" lon="6.17956">
        <ele>1251.77</ele>
        <time>2012-09-16T09:09:58Z</time>
      </trkpt>
      <trkpt lat="45.90192" lon="6.17965">
        <ele>1253.22</ele>
        <time>2012-09-16T09:10:04Z</time>
      </trkpt>
      <trkpt lat="45.90193" lon="6.17972">
        <ele>1253.22</ele>
        <time>2012-09-16T09:10:10Z</time>
      </trkpt>
      <trkpt lat="45.90192" lon="6.17973">
        <ele>1253.22</ele>
        <time>2012-09-16T09:10:18Z</time>
      </trkpt>
      <trkpt lat="45.90192" lon="6.17975">
        <ele>1253.22</ele>
        <time>2012-09-16T09:10:20Z</time>
      </trkpt>
      <trkpt lat="45.90191" lon="6.17983">
        <ele>1252.25</ele>
        <time>2012-09-16T09:10:26Z</time>
      </trkpt>
      <trkpt lat="45.9019" lon="6.17987">
        <ele>1251.29</ele>
        <time>2012-09-16T09:10:32Z</time>
      </trkpt>
      <trkpt lat="45.90189" lon="6.17988">
        <ele>1251.29</ele>
        <time>2012-09-16T09:10:33Z</time>
      </trkpt>
      <trkpt lat="45.90186" lon="6.17993">
        <ele>1250.33</ele>
        <time>2012-09-16T09:10:39Z</time>
      </trkpt>
      <trkpt lat="45.90183" lon="6.17997">
        <ele>1252.25</ele>
        <time>2012-09-16T09:10:44Z</time>
      </trkpt>
      <trkpt lat="45.90181" lon="6.18">
        <ele>1252.25</ele>
        <time>2012-09-16T09:10:50Z</time>
      </trkpt>
      <trkpt lat="45.90181" lon="6.18006">
        <ele>1250.33</ele>
        <time>2012-09-16T09:10:56Z</time>
      </trkpt>
      <trkpt lat="45.9018" lon="6.18007">
        <ele>1249.37</ele>
        <time>2012-09-16T09:11:01Z</time>
      </trkpt>
      <trkpt lat="45.9018" lon="6.18009">
        <ele>1249.85</ele>
        <time>2012-09-16T09:11:11Z</time>
      </trkpt>
      <trkpt lat="45.90179" lon="6.18016">
        <ele>1250.81</ele>
        <time>2012-09-16T09:11:15Z</time>
      </trkpt>
      <trkpt lat="45.90175" lon="6.18023">
        <ele>1252.25</ele>
        <time>2012-09-16T09:11:23Z</time>
      </trkpt>
      <trkpt lat="45.90173" lon="6.18027">
        <ele>1253.22</ele>
        <time>2012-09-16T09:11:31Z</time>
      </trkpt>
      <trkpt lat="45.90169" lon="6.18027">
        <ele>1254.18</ele>
        <time>2012-09-16T09:11:37Z</time>
      </trkpt>
      <trkpt lat="45.90163" lon="6.18027">
        <ele>1257.54</ele>
        <time>2012-09-16T09:11:44Z</time>
      </trkpt>
      <trkpt lat="45.90162" lon="6.18026">
        <ele>1257.54</ele>
        <time>2012-09-16T09:11:49Z</time>
      </trkpt>
      <trkpt lat="45.90158" lon="6.18027">
        <ele>1256.58</ele>
        <time>2012-09-16T09:11:57Z</time>
      </trkpt>
      <trkpt lat="45.90155" lon="6.18028">
        <ele>1254.66</ele>
        <time>2012-09-16T09:12:03Z</time>
      </trkpt>
      <trkpt lat="45.90152" lon="6.18029">
        <ele>1253.7</ele>
        <time>2012-09-16T09:12:08Z</time>
      </trkpt>
      <trkpt lat="45.90151" lon="6.1803">
        <ele>1253.7</ele>
        <time>2012-09-16T09:12:09Z</time>
      </trkpt>
      <trkpt lat="45.9015" lon="6.18029">
        <ele>1253.22</ele>
        <time>2012-09-16T09:12:11Z</time>
      </trkpt>
      <trkpt lat="45.90138" lon="6.18033">
        <ele>1252.74</ele>
        <time>2012-09-16T09:12:21Z</time>
      </trkpt>
      <trkpt lat="45.90135" lon="6.18036">
        <ele>1252.25</ele>
        <time>2012-09-16T09:12:27Z</time>
      </trkpt>
      <trkpt lat="45.90131" lon="6.18038">
        <ele>1252.74</ele>
        <time>2012-09-16T09:12:32Z</time>
      </trkpt>
      <trkpt lat="45.90128" lon="6.18041">
        <ele>1251.29</ele>
        <time>2012-09-16T09:12:37Z</time>
      </trkpt>
      <trkpt lat="45.90125" lon="6.18049">
        <ele>1249.85</ele>
        <time>2012-09-16T09:12:44Z</time>
      </trkpt>
      <trkpt lat="45.90122" lon="6.18052">
        <ele>1248.89</ele>
        <time>2012-09-16T09:12:51Z</time>
      </trkpt>
      <trkpt lat="45.90119" lon="6.18056">
        <ele>1249.37</ele>
        <time>2012-09-16T09:12:58Z</time>
      </trkpt>
      <trkpt lat="45.90115" lon="6.18059">
        <ele>1250.33</ele>
        <time>2012-09-16T09:13:04Z</time>
      </trkpt>
      <trkpt lat="45.90114" lon="6.1806">
        <ele>1250.81</ele>
        <time>2012-09-16T09:13:05Z</time>
      </trkpt>
      <trkpt lat="45.90114" lon="6.18066">
        <ele>1250.81</ele>
        <time>2012-09-16T09:13:11Z</time>
      </trkpt>
      <trkpt lat="45.90112" lon="6.18071">
        <ele>1251.29</ele>
        <time>2012-09-16T09:13:15Z</time>
      </trkpt>
      <trkpt lat="45.90111" lon="6.18078">
        <ele>1251.77</ele>
        <time>2012-09-16T09:13:21Z</time>
      </trkpt>
      <trkpt lat="45.90112" lon="6.18083">
        <ele>1251.29</ele>
        <time>2012-09-16T09:13:27Z</time>
      </trkpt>
      <trkpt lat="45.90116" lon="6.18086">
        <ele>1251.77</ele>
        <time>2012-09-16T09:13:35Z</time>
      </trkpt>
      <trkpt lat="45.90118" lon="6.18091">
        <ele>1253.22</ele>
        <time>2012-09-16T09:13:42Z</time>
      </trkpt>
      <trkpt lat="45.90122" lon="6.18098">
        <ele>1252.74</ele>
        <time>2012-09-16T09:13:54Z</time>
      </trkpt>
      <trkpt lat="45.90126" lon="6.18102">
        <ele>1254.18</ele>
        <time>2012-09-16T09:14:01Z</time>
      </trkpt>
      <trkpt lat="45.90129" lon="6.18105">
        <ele>1254.66</ele>
        <time>2012-09-16T09:14:07Z</time>
      </trkpt>
      <trkpt lat="45.9013" lon="6.18107">
        <ele>1255.62</ele>
        <time>2012-09-16T09:14:13Z</time>
      </trkpt>
      <trkpt lat="45.90129" lon="6.18111">
        <ele>1258.02</ele>
        <time>2012-09-16T09:14:20Z</time>
      </trkpt>
      <trkpt lat="45.90129" lon="6.18112">
        <ele>1258.98</ele>
        <time>2012-09-16T09:14:25Z</time>
      </trkpt>
      <trkpt lat="45.90125" lon="6.18116">
        <ele>1259.94</ele>
        <time>2012-09-16T09:14:34Z</time>
      </trkpt>
      <trkpt lat="45.90123" lon="6.18116">
        <ele>1259.46</ele>
        <time>2012-09-16T09:14:40Z</time>
      </trkpt>
      <trkpt lat="45.90122" lon="6.18118">
        <ele>1260.43</ele>
        <time>2012-09-16T09:14:52Z</time>
      </trkpt>
      <trkpt lat="45.90121" lon="6.18118">
        <ele>1262.35</ele>
        <time>2012-09-16T09:15:01Z</time>
      </trkpt>
      <trkpt lat="45.90119" lon="6.18115">
        <ele>1264.27</ele>
        <time>2012-09-16T09:15:09Z</time>
      </trkpt>
      <trkpt lat="45.90117" lon="6.18112">
        <ele>1265.23</ele>
        <time>2012-09-16T09:15:14Z</time>
      </trkpt>
      <trkpt lat="45.90113" lon="6.18106">
        <ele>1264.75</ele>
        <time>2012-09-16T09:15:21Z</time>
      </trkpt>
      <trkpt lat="45.9011" lon="6.18109">
        <ele>1266.19</ele>
        <time>2012-09-16T09:15:25Z</time>
      </trkpt>
      <trkpt lat="45.90111" lon="6.18111">
        <ele>1267.64</ele>
        <time>2012-09-16T09:15:30Z</time>
      </trkpt>
      <trkpt lat="45.90114" lon="6.18118">
        <ele>1269.08</ele>
        <time>2012-09-16T09:15:36Z</time>
      </trkpt>
      <trkpt lat="45.90112" lon="6.18123">
        <ele>1268.12</ele>
        <time>2012-09-16T09:15:42Z</time>
      </trkpt>
      <trkpt lat="45.90112" lon="6.18124">
        <ele>1268.12</ele>
        <time>2012-09-16T09:15:43Z</time>
      </trkpt>
      <trkpt lat="45.9011" lon="6.18128">
        <ele>1269.56</ele>
        <time>2012-09-16T09:15:46Z</time>
      </trkpt>
      <trkpt lat="45.90108" lon="6.18132">
        <ele>1270.04</ele>
        <time>2012-09-16T09:15:52Z</time>
      </trkpt>
      <trkpt lat="45.90106" lon="6.18134">
        <ele>1270.52</ele>
        <time>2012-09-16T09:15:56Z</time>
      </trkpt>
      <trkpt lat="45.90103" lon="6.18139">
        <ele>1271.48</ele>
        <time>2012-09-16T09:16:02Z</time>
      </trkpt>
      <trkpt lat="45.90105" lon="6.18146">
        <ele>1271.96</ele>
        <time>2012-09-16T09:16:08Z</time>
      </trkpt>
      <trkpt lat="45.90105" lon="6.18151">
        <ele>1271.96</ele>
        <time>2012-09-16T09:16:15Z</time>
      </trkpt>
      <trkpt lat="45.90105" lon="6.18152">
        <ele>1271.96</ele>
        <time>2012-09-16T09:16:16Z</time>
      </trkpt>
      <trkpt lat="45.90103" lon="6.18156">
        <ele>1272.44</ele>
        <time>2012-09-16T09:16:20Z</time>
      </trkpt>
      <trkpt lat="45.90099" lon="6.18162">
        <ele>1272.44</ele>
        <time>2012-09-16T09:16:28Z</time>
      </trkpt>
      <trkpt lat="45.90098" lon="6.18165">
        <ele>1272.44</ele>
        <time>2012-09-16T09:16:35Z</time>
      </trkpt>
      <trkpt lat="45.90096" lon="6.18168">
        <ele>1272.44</ele>
        <time>2012-09-16T09:16:42Z</time>
      </trkpt>
      <trkpt lat="45.90092" lon="6.18171">
        <ele>1272.44</ele>
        <time>2012-09-16T09:16:47Z</time>
      </trkpt>
      <trkpt lat="45.90091" lon="6.18178">
        <ele>1272.44</ele>
        <time>2012-09-16T09:16:53Z</time>
      </trkpt>
      <trkpt lat="45.90091" lon="6.18183">
        <ele>1272.44</ele>
        <time>2012-09-16T09:16:59Z</time>
      </trkpt>
      <trkpt lat="45.90089" lon="6.18191">
        <ele>1273.4</ele>
        <time>2012-09-16T09:17:05Z</time>
      </trkpt>
      <trkpt lat="45.90089" lon="6.18198">
        <ele>1273.4</ele>
        <time>2012-09-16T09:17:11Z</time>
      </trkpt>
      <trkpt lat="45.90085" lon="6.18203">
        <ele>1272.92</ele>
        <time>2012-09-16T09:17:16Z</time>
      </trkpt>
      <trkpt lat="45.90082" lon="6.1821">
        <ele>1271</ele>
        <time>2012-09-16T09:17:24Z</time>
      </trkpt>
      <trkpt lat="45.90082" lon="6.18213">
        <ele>1270.04</ele>
        <time>2012-09-16T09:17:31Z</time>
      </trkpt>
      <trkpt lat="45.90081" lon="6.18216">
        <ele>1270.04</ele>
        <time>2012-09-16T09:17:38Z</time>
      </trkpt>
      <trkpt lat="45.90081" lon="6.18221">
        <ele>1270.04</ele>
        <time>2012-09-16T09:17:45Z</time>
      </trkpt>
      <trkpt lat="45.9008" lon="6.18225">
        <ele>1269.56</ele>
        <time>2012-09-16T09:17:51Z</time>
      </trkpt>
      <trkpt lat="45.90078" lon="6.18231">
        <ele>1267.64</ele>
        <time>2012-09-16T09:17:59Z</time>
      </trkpt>
      <trkpt lat="45.90079" lon="6.18235">
        <ele>1267.64</ele>
        <time>2012-09-16T09:18:06Z</time>
      </trkpt>
      <trkpt lat="45.90079" lon="6.18238">
        <ele>1269.08</ele>
        <time>2012-09-16T09:18:13Z</time>
      </trkpt>
      <trkpt lat="45.90077" lon="6.18247">
        <ele>1271.48</ele>
        <time>2012-09-16T09:18:20Z</time>
      </trkpt>
      <trkpt lat="45.90074" lon="6.1825">
        <ele>1273.4</ele>
        <time>2012-09-16T09:18:27Z</time>
      </trkpt>
      <trkpt lat="45.90072" lon="6.18253">
        <ele>1275.33</ele>
        <time>2012-09-16T09:18:32Z</time>
      </trkpt>
      <trkpt lat="45.9007" lon="6.18256">
        <ele>1276.77</ele>
        <time>2012-09-16T09:18:38Z</time>
      </trkpt>
      <trkpt lat="45.90069" lon="6.18257">
        <ele>1277.73</ele>
        <time>2012-09-16T09:18:43Z</time>
      </trkpt>
      <trkpt lat="45.90067" lon="6.18257">
        <ele>1280.61</ele>
        <time>2012-09-16T09:18:49Z</time>
      </trkpt>
      <trkpt lat="45.90066" lon="6.18259">
        <ele>1281.57</ele>
        <time>2012-09-16T09:18:55Z</time>
      </trkpt>
      <trkpt lat="45.90064" lon="6.18259">
        <ele>1282.06</ele>
        <time>2012-09-16T09:19:05Z</time>
      </trkpt>
      <trkpt lat="45.90063" lon="6.18259">
        <ele>1282.06</ele>
        <time>2012-09-16T09:19:07Z</time>
      </trkpt>
      <trkpt lat="45.90059" lon="6.18262">
        <ele>1282.54</ele>
        <time>2012-09-16T09:19:14Z</time>
      </trkpt>
      <trkpt lat="45.90056" lon="6.18265">
        <ele>1283.5</ele>
        <time>2012-09-16T09:19:19Z</time>
      </trkpt>
      <trkpt lat="45.90053" lon="6.18269">
        <ele>1283.5</ele>
        <time>2012-09-16T09:19:25Z</time>
      </trkpt>
      <trkpt lat="45.90052" lon="6.18271">
        <ele>1284.46</ele>
        <time>2012-09-16T09:19:31Z</time>
      </trkpt>
      <trkpt lat="45.9005" lon="6.18273">
        <ele>1284.46</ele>
        <time>2012-09-16T09:19:37Z</time>
      </trkpt>
      <trkpt lat="45.90049" lon="6.18275">
        <ele>1283.5</ele>
        <time>2012-09-16T09:19:41Z</time>
      </trkpt>
      <trkpt lat="45.90046" lon="6.18279">
        <ele>1283.02</ele>
        <time>2012-09-16T09:19:47Z</time>
      </trkpt>
      <trkpt lat="45.90045" lon="6.18281">
        <ele>1283.5</ele>
        <time>2012-09-16T09:19:53Z</time>
      </trkpt>
      <trkpt lat="45.90042" lon="6.18286">
        <ele>1282.54</ele>
        <time>2012-09-16T09:19:59Z</time>
      </trkpt>
      <trkpt lat="45.9004" lon="6.18288">
        <ele>1281.57</ele>
        <time>2012-09-16T09:20:04Z</time>
      </trkpt>
      <trkpt lat="45.90037" lon="6.18291">
        <ele>1280.13</ele>
        <time>2012-09-16T09:20:10Z</time>
      </trkpt>
      <trkpt lat="45.90035" lon="6.18295">
        <ele>1279.17</ele>
        <time>2012-09-16T09:20:16Z</time>
      </trkpt>
      <trkpt lat="45.90035" lon="6.18295">
        <ele>1279.17</ele>
        <time>2012-09-16T09:20:17Z</time>
      </trkpt>
      <trkpt lat="45.90036" lon="6.18296">
        <ele>1278.69</ele>
        <time>2012-09-16T09:20:19Z</time>
      </trkpt>
      <trkpt lat="45.90039" lon="6.18299">
        <ele>1279.17</ele>
        <time>2012-09-16T09:20:28Z</time>
      </trkpt>
      <trkpt lat="45.90037" lon="6.183">
        <ele>1278.69</ele>
        <time>2012-09-16T09:20:35Z</time>
      </trkpt>
      <trkpt lat="45.90038" lon="6.18302">
        <ele>1279.17</ele>
        <time>2012-09-16T09:20:43Z</time>
      </trkpt>
      <trkpt lat="45.90037" lon="6.18305">
        <ele>1278.69</ele>
        <time>2012-09-16T09:20:52Z</time>
      </trkpt>
      <trkpt lat="45.90033" lon="6.18309">
        <ele>1278.21</ele>
        <time>2012-09-16T09:20:59Z</time>
      </trkpt>
      <trkpt lat="45.90031" lon="6.18312">
        <ele>1277.73</ele>
        <time>2012-09-16T09:21:03Z</time>
      </trkpt>
      <trkpt lat="45.90026" lon="6.18315">
        <ele>1276.77</ele>
        <time>2012-09-16T09:21:10Z</time>
      </trkpt>
      <trkpt lat="45.90026" lon="6.18317">
        <ele>1275.81</ele>
        <time>2012-09-16T09:21:16Z</time>
      </trkpt>
      <trkpt lat="45.90024" lon="6.18319">
        <ele>1275.33</ele>
        <time>2012-09-16T09:21:21Z</time>
      </trkpt>
      <trkpt lat="45.9002" lon="6.18322">
        <ele>1273.88</ele>
        <time>2012-09-16T09:21:28Z</time>
      </trkpt>
      <trkpt lat="45.90014" lon="6.18327">
        <ele>1272.44</ele>
        <time>2012-09-16T09:21:36Z</time>
      </trkpt>
      <trkpt lat="45.90009" lon="6.18329">
        <ele>1271.96</ele>
        <time>2012-09-16T09:21:44Z</time>
      </trkpt>
      <trkpt lat="45.90007" lon="6.18329">
        <ele>1271.96</ele>
        <time>2012-09-16T09:21:46Z</time>
      </trkpt>
      <trkpt lat="45.90003" lon="6.18332">
        <ele>1270.52</ele>
        <time>2012-09-16T09:21:52Z</time>
      </trkpt>
      <trkpt lat="45.90002" lon="6.18333">
        <ele>1270.04</ele>
        <time>2012-09-16T09:21:55Z</time>
      </trkpt>
      <trkpt lat="45.89998" lon="6.18342">
        <ele>1269.08</ele>
        <time>2012-09-16T09:22:02Z</time>
      </trkpt>
      <trkpt lat="45.89997" lon="6.18344">
        <ele>1269.08</ele>
        <time>2012-09-16T09:22:03Z</time>
      </trkpt>
      <trkpt lat="45.89998" lon="6.18349">
        <ele>1269.08</ele>
        <time>2012-09-16T09:22:07Z</time>
      </trkpt>
      <trkpt lat="45.89994" lon="6.18358">
        <ele>1269.56</ele>
        <time>2012-09-16T09:22:14Z</time>
      </trkpt>
      <trkpt lat="45.89992" lon="6.18362">
        <ele>1268.12</ele>
        <time>2012-09-16T09:22:19Z</time>
      </trkpt>
      <trkpt lat="45.89988" lon="6.18367">
        <ele>1266.19</ele>
        <time>2012-09-16T09:22:25Z</time>
      </trkpt>
      <trkpt lat="45.89986" lon="6.18371">
        <ele>1263.79</ele>
        <time>2012-09-16T09:22:30Z</time>
      </trkpt>
      <trkpt lat="45.89981" lon="6.18376">
        <ele>1263.79</ele>
        <time>2012-09-16T09:22:38Z</time>
      </trkpt>
      <trkpt lat="45.89978" lon="6.18377">
        <ele>1263.31</ele>
        <time>2012-09-16T09:22:42Z</time>
      </trkpt>
      <trkpt lat="45.8997" lon="6.18381">
        <ele>1263.79</ele>
        <time>2012-09-16T09:22:50Z</time>
      </trkpt>
      <trkpt lat="45.89964" lon="6.1839">
        <ele>1264.27</ele>
        <time>2012-09-16T09:22:58Z</time>
      </trkpt>
      <trkpt lat="45.89963" lon="6.18392">
        <ele>1264.27</ele>
        <time>2012-09-16T09:23:00Z</time>
      </trkpt>
      <trkpt lat="45.8996" lon="6.18399">
        <ele>1264.27</ele>
        <time>2012-09-16T09:23:06Z</time>
      </trkpt>
      <trkpt lat="45.89956" lon="6.18403">
        <ele>1264.27</ele>
        <time>2012-09-16T09:23:12Z</time>
      </trkpt>
      <trkpt lat="45.89954" lon="6.18404">
        <ele>1264.75</ele>
        <time>2012-09-16T09:23:19Z</time>
      </trkpt>
      <trkpt lat="45.8995" lon="6.18405">
        <ele>1264.27</ele>
        <time>2012-09-16T09:23:24Z</time>
      </trkpt>
      <trkpt lat="45.89947" lon="6.1841">
        <ele>1263.31</ele>
        <time>2012-09-16T09:23:30Z</time>
      </trkpt>
      <trkpt lat="45.89943" lon="6.18413">
        <ele>1263.79</ele>
        <time>2012-09-16T09:23:37Z</time>
      </trkpt>
      <trkpt lat="45.89939" lon="6.18418">
        <ele>1262.35</ele>
        <time>2012-09-16T09:23:44Z</time>
      </trkpt>
      <trkpt lat="45.89939" lon="6.18419">
        <ele>1261.87</ele>
        <time>2012-09-16T09:23:46Z</time>
      </trkpt>
      <trkpt lat="45.89937" lon="6.18424">
        <ele>1262.35</ele>
        <time>2012-09-16T09:23:52Z</time>
      </trkpt>
      <trkpt lat="45.89933" lon="6.1843">
        <ele>1261.87</ele>
        <time>2012-09-16T09:23:59Z</time>
      </trkpt>
      <trkpt lat="45.89929" lon="6.18433">
        <ele>1262.35</ele>
        <time>2012-09-16T09:24:05Z</time>
      </trkpt>
      <trkpt lat="45.89925" lon="6.18439">
        <ele>1264.27</ele>
        <time>2012-09-16T09:24:11Z</time>
      </trkpt>
      <trkpt lat="45.89923" lon="6.18442">
        <ele>1263.79</ele>
        <time>2012-09-16T09:24:17Z</time>
      </trkpt>
      <trkpt lat="45.89921" lon="6.18447">
        <ele>1262.35</ele>
        <time>2012-09-16T09:24:24Z</time>
      </trkpt>
      <trkpt lat="45.8992" lon="6.1845">
        <ele>1260.91</ele>
        <time>2012-09-16T09:24:32Z</time>
      </trkpt>
      <trkpt lat="45.89918" lon="6.18453">
        <ele>1261.87</ele>
        <time>2012-09-16T09:24:39Z</time>
      </trkpt>
      <trkpt lat="45.89912" lon="6.18456">
        <ele>1263.31</ele>
        <time>2012-09-16T09:24:46Z</time>
      </trkpt>
      <trkpt lat="45.89908" lon="6.18461">
        <ele>1262.83</ele>
        <time>2012-09-16T09:24:54Z</time>
      </trkpt>
      <trkpt lat="45.89906" lon="6.18461">
        <ele>1262.35</ele>
        <time>2012-09-16T09:25:01Z</time>
      </trkpt>
      <trkpt lat="45.89902" lon="6.18463">
        <ele>1261.87</ele>
        <time>2012-09-16T09:25:07Z</time>
      </trkpt>
      <trkpt lat="45.899" lon="6.18464">
        <ele>1261.87</ele>
        <time>2012-09-16T09:25:09Z</time>
      </trkpt>
      <trkpt lat="45.89893" lon="6.18468">
        <ele>1261.87</ele>
        <time>2012-09-16T09:25:17Z</time>
      </trkpt>
      <trkpt lat="45.89891" lon="6.18467">
        <ele>1262.83</ele>
        <time>2012-09-16T09:25:24Z</time>
      </trkpt>
      <trkpt lat="45.89889" lon="6.18467">
        <ele>1263.31</ele>
        <time>2012-09-16T09:25:30Z</time>
      </trkpt>
      <trkpt lat="45.89887" lon="6.18467">
        <ele>1263.31</ele>
        <time>2012-09-16T09:25:37Z</time>
      </trkpt>
      <trkpt lat="45.89888" lon="6.18467">
        <ele>1263.31</ele>
        <time>2012-09-16T09:25:43Z</time>
      </trkpt>
      <trkpt lat="45.89889" lon="6.18468">
        <ele>1263.79</ele>
        <time>2012-09-16T09:25:51Z</time>
      </trkpt>
      <trkpt lat="45.8989" lon="6.18469">
        <ele>1263.79</ele>
        <time>2012-09-16T09:25:58Z</time>
      </trkpt>
      <trkpt lat="45.8989" lon="6.18473">
        <ele>1262.35</ele>
        <time>2012-09-16T09:26:04Z</time>
      </trkpt>
      <trkpt lat="45.89889" lon="6.18475">
        <ele>1262.83</ele>
        <time>2012-09-16T09:26:10Z</time>
      </trkpt>
      <trkpt lat="45.89888" lon="6.1848">
        <ele>1262.83</ele>
        <time>2012-09-16T09:26:15Z</time>
      </trkpt>
      <trkpt lat="45.89885" lon="6.18484">
        <ele>1261.87</ele>
        <time>2012-09-16T09:26:21Z</time>
      </trkpt>
      <trkpt lat="45.89882" lon="6.18484">
        <ele>1261.87</ele>
        <time>2012-09-16T09:26:26Z</time>
      </trkpt>
      <trkpt lat="45.89879" lon="6.18483">
        <ele>1262.35</ele>
        <time>2012-09-16T09:26:33Z</time>
      </trkpt>
      <trkpt lat="45.89876" lon="6.18486">
        <ele>1262.35</ele>
        <time>2012-09-16T09:26:39Z</time>
      </trkpt>
      <trkpt lat="45.89873" lon="6.18488">
        <ele>1262.35</ele>
        <time>2012-09-16T09:26:45Z</time>
      </trkpt>
      <trkpt lat="45.8987" lon="6.1849">
        <ele>1261.39</ele>
        <time>2012-09-16T09:26:48Z</time>
      </trkpt>
      <trkpt lat="45.89867" lon="6.18493">
        <ele>1260.91</ele>
        <time>2012-09-16T09:26:51Z</time>
      </trkpt>
      <trkpt lat="45.89863" lon="6.18493">
        <ele>1262.35</ele>
        <time>2012-09-16T09:26:57Z</time>
      </trkpt>
      <trkpt lat="45.89859" lon="6.1849">
        <ele>1263.31</ele>
        <time>2012-09-16T09:27:03Z</time>
      </trkpt>
      <trkpt lat="45.89854" lon="6.18492">
        <ele>1264.27</ele>
        <time>2012-09-16T09:27:10Z</time>
      </trkpt>
      <trkpt lat="45.89854" lon="6.18493">
        <ele>1265.23</ele>
        <time>2012-09-16T09:27:17Z</time>
      </trkpt>
      <trkpt lat="45.89854" lon="6.18493">
        <ele>1265.23</ele>
        <time>2012-09-16T09:27:33Z</time>
      </trkpt>
      <trkpt lat="45.8985" lon="6.18501">
        <ele>1264.75</ele>
        <time>2012-09-16T09:27:40Z</time>
      </trkpt>
      <trkpt lat="45.89846" lon="6.18502">
        <ele>1265.71</ele>
        <time>2012-09-16T09:27:47Z</time>
      </trkpt>
      <trkpt lat="45.89846" lon="6.18502">
        <ele>1266.19</ele>
        <time>2012-09-16T09:27:49Z</time>
      </trkpt>
      <trkpt lat="45.89842" lon="6.18504">
        <ele>1267.64</ele>
        <time>2012-09-16T09:27:53Z</time>
      </trkpt>
      <trkpt lat="45.8984" lon="6.18505">
        <ele>1268.6</ele>
        <time>2012-09-16T09:27:58Z</time>
      </trkpt>
      <trkpt lat="45.89834" lon="6.18508">
        <ele>1271</ele>
        <time>2012-09-16T09:28:06Z</time>
      </trkpt>
      <trkpt lat="45.8983" lon="6.18506">
        <ele>1272.44</ele>
        <time>2012-09-16T09:28:17Z</time>
      </trkpt>
      <trkpt lat="45.89827" lon="6.18508">
        <ele>1272.44</ele>
        <time>2012-09-16T09:28:23Z</time>
      </trkpt>
      <trkpt lat="45.89826" lon="6.1851">
        <ele>1272.92</ele>
        <time>2012-09-16T09:28:26Z</time>
      </trkpt>
      <trkpt lat="45.89823" lon="6.18515">
        <ele>1273.88</ele>
        <time>2012-09-16T09:28:30Z</time>
      </trkpt>
      <trkpt lat="45.89818" lon="6.18519">
        <ele>1275.33</ele>
        <time>2012-09-16T09:28:36Z</time>
      </trkpt>
      <trkpt lat="45.89817" lon="6.18521">
        <ele>1275.81</ele>
        <time>2012-09-16T09:28:41Z</time>
      </trkpt>
      <trkpt lat="45.89813" lon="6.18523">
        <ele>1276.77</ele>
        <time>2012-09-16T09:28:46Z</time>
      </trkpt>
      <trkpt lat="45.89812" lon="6.18528">
        <ele>1277.25</ele>
        <time>2012-09-16T09:28:52Z</time>
      </trkpt>
      <trkpt lat="45.89808" lon="6.18531">
        <ele>1277.25</ele>
        <time>2012-09-16T09:28:58Z</time>
      </trkpt>
      <trkpt lat="45.89808" lon="6.18532">
        <ele>1278.21</ele>
        <time>2012-09-16T09:29:06Z</time>
      </trkpt>
      <trkpt lat="45.89807" lon="6.18532">
        <ele>1277.73</ele>
        <time>2012-09-16T09:29:17Z</time>
      </trkpt>
      <trkpt lat="45.89805" lon="6.1853">
        <ele>1277.25</ele>
        <time>2012-09-16T09:29:24Z</time>
      </trkpt>
      <trkpt lat="45.89803" lon="6.1853">
        <ele>1277.73</ele>
        <time>2012-09-16T09:29:34Z</time>
      </trkpt>
      <trkpt lat="45.89802" lon="6.18531">
        <ele>1277.25</ele>
        <time>2012-09-16T09:29:42Z</time>
      </trkpt>
      <trkpt lat="45.89801" lon="6.18531">
        <ele>1276.29</ele>
        <time>2012-09-16T09:29:47Z</time>
      </trkpt>
      <trkpt lat="45.89803" lon="6.1853">
        <ele>1275.81</ele>
        <time>2012-09-16T09:29:56Z</time>
      </trkpt>
      <trkpt lat="45.89805" lon="6.1853">
        <ele>1274.36</ele>
        <time>2012-09-16T09:30:13Z</time>
      </trkpt>
      <trkpt lat="45.89804" lon="6.1853">
        <ele>1272.92</ele>
        <time>2012-09-16T09:30:31Z</time>
      </trkpt>
      <trkpt lat="45.89804" lon="6.1853">
        <ele>1272.44</ele>
        <time>2012-09-16T09:30:49Z</time>
      </trkpt>
      <trkpt lat="45.89804" lon="6.1853">
        <ele>1272.44</ele>
        <time>2012-09-16T09:31:10Z</time>
      </trkpt>
      <trkpt lat="45.89804" lon="6.18529">
        <ele>1271.96</ele>
        <time>2012-09-16T09:31:28Z</time>
      </trkpt>
      <trkpt lat="45.89804" lon="6.18529">
        <ele>1272.92</ele>
        <time>2012-09-16T09:31:47Z</time>
      </trkpt>
      <trkpt lat="45.89805" lon="6.18529">
        <ele>1273.4</ele>
        <time>2012-09-16T09:32:03Z</time>
      </trkpt>
      <trkpt lat="45.89804" lon="6.1853">
        <ele>1274.85</ele>
        <time>2012-09-16T09:32:21Z</time>
      </trkpt>
      <trkpt lat="45.89804" lon="6.1853">
        <ele>1274.36</ele>
        <time>2012-09-16T09:32:38Z</time>
      </trkpt>
      <trkpt lat="45.89803" lon="6.18529">
        <ele>1274.85</ele>
        <time>2012-09-16T09:32:57Z</time>
      </trkpt>
      <trkpt lat="45.89803" lon="6.18529">
        <ele>1275.33</ele>
        <time>2012-09-16T09:33:13Z</time>
      </trkpt>
      <trkpt lat="45.89803" lon="6.18528">
        <ele>1275.81</ele>
        <time>2012-09-16T09:33:29Z</time>
      </trkpt>
      <trkpt lat="45.89803" lon="6.18529">
        <ele>1275.81</ele>
        <time>2012-09-16T09:33:47Z</time>
      </trkpt>
      <trkpt lat="45.89804" lon="6.1853">
        <ele>1276.77</ele>
        <time>2012-09-16T09:34:13Z</time>
      </trkpt>
      <trkpt lat="45.89804" lon="6.1853">
        <ele>1275.81</ele>
        <time>2012-09-16T09:34:32Z</time>
      </trkpt>
      <trkpt lat="45.89803" lon="6.18529">
        <ele>1275.33</ele>
        <time>2012-09-16T09:34:47Z</time>
      </trkpt>
      <trkpt lat="45.89803" lon="6.18529">
        <ele>1274.85</ele>
        <time>2012-09-16T09:35:06Z</time>
      </trkpt>
      <trkpt lat="45.89803" lon="6.18529">
        <ele>1274.85</ele>
        <time>2012-09-16T09:35:24Z</time>
      </trkpt>
      <trkpt lat="45.89803" lon="6.1853">
        <ele>1275.33</ele>
        <time>2012-09-16T09:35:41Z</time>
      </trkpt>
      <trkpt lat="45.89805" lon="6.18529">
        <ele>1275.33</ele>
        <time>2012-09-16T09:36:01Z</time>
      </trkpt>
      <trkpt lat="45.89805" lon="6.18527">
        <ele>1275.33</ele>
        <time>2012-09-16T09:36:20Z</time>
      </trkpt>
      <trkpt lat="45.89805" lon="6.18528">
        <ele>1275.33</ele>
        <time>2012-09-16T09:36:39Z</time>
      </trkpt>
      <trkpt lat="45.89805" lon="6.18529">
        <ele>1274.85</ele>
        <time>2012-09-16T09:36:59Z</time>
      </trkpt>
      <trkpt lat="45.89805" lon="6.18529">
        <ele>1274.36</ele>
        <time>2012-09-16T09:37:18Z</time>
      </trkpt>
      <trkpt lat="45.89806" lon="6.18528">
        <ele>1274.36</ele>
        <time>2012-09-16T09:37:32Z</time>
      </trkpt>
      <trkpt lat="45.89806" lon="6.18527">
        <ele>1274.36</ele>
        <time>2012-09-16T09:37:51Z</time>
      </trkpt>
      <trkpt lat="45.89807" lon="6.18527">
        <ele>1274.85</ele>
        <time>2012-09-16T09:38:12Z</time>
      </trkpt>
      <trkpt lat="45.89807" lon="6.18527">
        <ele>1274.36</ele>
        <time>2012-09-16T09:38:30Z</time>
      </trkpt>
      <trkpt lat="45.89807" lon="6.18526">
        <ele>1273.88</ele>
        <time>2012-09-16T09:38:50Z</time>
      </trkpt>
      <trkpt lat="45.89807" lon="6.18526">
        <ele>1274.36</ele>
        <time>2012-09-16T09:39:07Z</time>
      </trkpt>
      <trkpt lat="45.89807" lon="6.18527">
        <ele>1273.88</ele>
        <time>2012-09-16T09:39:25Z</time>
      </trkpt>
      <trkpt lat="45.89807" lon="6.18527">
        <ele>1273.88</ele>
        <time>2012-09-16T09:39:44Z</time>
      </trkpt>
      <trkpt lat="45.89807" lon="6.18528">
        <ele>1274.36</ele>
        <time>2012-09-16T09:40:03Z</time>
      </trkpt>
      <trkpt lat="45.89807" lon="6.18529">
        <ele>1275.33</ele>
        <time>2012-09-16T09:40:23Z</time>
      </trkpt>
      <trkpt lat="45.89807" lon="6.18529">
        <ele>1275.81</ele>
        <time>2012-09-16T09:40:41Z</time>
      </trkpt>
      <trkpt lat="45.89807" lon="6.18529">
        <ele>1275.81</ele>
        <time>2012-09-16T09:40:59Z</time>
      </trkpt>
      <trkpt lat="45.89808" lon="6.18529">
        <ele>1275.81</ele>
        <time>2012-09-16T09:41:18Z</time>
      </trkpt>
      <trkpt lat="45.89808" lon="6.18528">
        <ele>1275.81</ele>
        <time>2012-09-16T09:41:37Z</time>
      </trkpt>
      <trkpt lat="45.89808" lon="6.18528">
        <ele>1275.81</ele>
        <time>2012-09-16T09:41:56Z</time>
      </trkpt>
      <trkpt lat="45.89808" lon="6.18528">
        <ele>1275.81</ele>
        <time>2012-09-16T09:42:13Z</time>
      </trkpt>
      <trkpt lat="45.89807" lon="6.18529">
        <ele>1276.29</ele>
        <time>2012-09-16T09:42:31Z</time>
      </trkpt>
      <trkpt lat="45.89807" lon="6.18529">
        <ele>1276.29</ele>
        <time>2012-09-16T09:42:46Z</time>
      </trkpt>
      <trkpt lat="45.89807" lon="6.18529">
        <ele>1277.25</ele>
        <time>2012-09-16T09:43:04Z</time>
      </trkpt>
      <trkpt lat="45.89807" lon="6.18527">
        <ele>1277.25</ele>
        <time>2012-09-16T09:43:25Z</time>
      </trkpt>
      <trkpt lat="45.89808" lon="6.18527">
        <ele>1277.73</ele>
        <time>2012-09-16T09:43:40Z</time>
      </trkpt>
      <trkpt lat="45.89808" lon="6.18527">
        <ele>1277.73</ele>
        <time>2012-09-16T09:44:00Z</time>
      </trkpt>
      <trkpt lat="45.89808" lon="6.18527">
        <ele>1278.21</ele>
        <time>2012-09-16T09:44:18Z</time>
      </trkpt>
      <trkpt lat="45.89808" lon="6.18526">
        <ele>1278.69</ele>
        <time>2012-09-16T09:44:38Z</time>
      </trkpt>
      <trkpt lat="45.89808" lon="6.18527">
        <ele>1278.21</ele>
        <time>2012-09-16T09:44:56Z</time>
      </trkpt>
      <trkpt lat="45.89808" lon="6.18526">
        <ele>1277.25</ele>
        <time>2012-09-16T09:45:11Z</time>
      </trkpt>
      <trkpt lat="45.89809" lon="6.18526">
        <ele>1276.77</ele>
        <time>2012-09-16T09:45:30Z</time>
      </trkpt>
      <trkpt lat="45.89809" lon="6.18526">
        <ele>1277.25</ele>
        <time>2012-09-16T09:45:46Z</time>
      </trkpt>
      <trkpt lat="45.89811" lon="6.18527">
        <ele>1276.77</ele>
        <time>2012-09-16T09:46:04Z</time>
      </trkpt>
      <trkpt lat="45.89811" lon="6.18526">
        <ele>1277.25</ele>
        <time>2012-09-16T09:46:21Z</time>
      </trkpt>
      <trkpt lat="45.89811" lon="6.18526">
        <ele>1277.25</ele>
        <time>2012-09-16T09:46:38Z</time>
      </trkpt>
      <trkpt lat="45.89811" lon="6.18526">
        <ele>1277.25</ele>
        <time>2012-09-16T09:46:54Z</time>
      </trkpt>
      <trkpt lat="45.89811" lon="6.18527">
        <ele>1277.25</ele>
        <time>2012-09-16T09:47:10Z</time>
      </trkpt>
      <trkpt lat="45.89811" lon="6.18527">
        <ele>1277.73</ele>
        <time>2012-09-16T09:47:27Z</time>
      </trkpt>
      <trkpt lat="45.89811" lon="6.18528">
        <ele>1277.73</ele>
        <time>2012-09-16T09:47:43Z</time>
      </trkpt>
      <trkpt lat="45.89811" lon="6.18528">
        <ele>1278.21</ele>
        <time>2012-09-16T09:48:02Z</time>
      </trkpt>
      <trkpt lat="45.89808" lon="6.1853">
        <ele>1277.73</ele>
        <time>2012-09-16T09:48:12Z</time>
      </trkpt>
      <trkpt lat="45.89805" lon="6.18527">
        <ele>1276.29</ele>
        <time>2012-09-16T09:48:20Z</time>
      </trkpt>
      <trkpt lat="45.89802" lon="6.18527">
        <ele>1276.29</ele>
        <time>2012-09-16T09:48:27Z</time>
      </trkpt>
      <trkpt lat="45.898" lon="6.18527">
        <ele>1275.81</ele>
        <time>2012-09-16T09:48:31Z</time>
      </trkpt>
      <trkpt lat="45.89797" lon="6.18528">
        <ele>1274.85</ele>
        <time>2012-09-16T09:48:36Z</time>
      </trkpt>
      <trkpt lat="45.89797" lon="6.18527">
        <ele>1274.85</ele>
        <time>2012-09-16T09:48:39Z</time>
      </trkpt>
      <trkpt lat="45.89789" lon="6.18531">
        <ele>1273.4</ele>
        <time>2012-09-16T09:48:47Z</time>
      </trkpt>
      <trkpt lat="45.89788" lon="6.18531">
        <ele>1273.4</ele>
        <time>2012-09-16T09:48:55Z</time>
      </trkpt>
      <trkpt lat="45.89787" lon="6.18531">
        <ele>1272.92</ele>
        <time>2012-09-16T09:48:59Z</time>
      </trkpt>
      <trkpt lat="45.89784" lon="6.18531">
        <ele>1272.44</ele>
        <time>2012-09-16T09:49:01Z</time>
      </trkpt>
      <trkpt lat="45.8978" lon="6.18536">
        <ele>1271.48</ele>
        <time>2012-09-16T09:49:05Z</time>
      </trkpt>
      <trkpt lat="45.89783" lon="6.18534">
        <ele>1269.08</ele>
        <time>2012-09-16T09:49:09Z</time>
      </trkpt>
      <trkpt lat="45.89779" lon="6.1854">
        <ele>1268.6</ele>
        <time>2012-09-16T09:49:15Z</time>
      </trkpt>
      <trkpt lat="45.89771" lon="6.18546">
        <ele>1268.6</ele>
        <time>2012-09-16T09:49:23Z</time>
      </trkpt>
      <trkpt lat="45.89763" lon="6.1855">
        <ele>1270.04</ele>
        <time>2012-09-16T09:49:30Z</time>
      </trkpt>
      <trkpt lat="45.89755" lon="6.18557">
        <ele>1272.44</ele>
        <time>2012-09-16T09:49:37Z</time>
      </trkpt>
      <trkpt lat="45.89746" lon="6.18563">
        <ele>1275.33</ele>
        <time>2012-09-16T09:49:43Z</time>
      </trkpt>
      <trkpt lat="45.89745" lon="6.18565">
        <ele>1275.81</ele>
        <time>2012-09-16T09:49:49Z</time>
      </trkpt>
      <trkpt lat="45.89742" lon="6.18564">
        <ele>1276.77</ele>
        <time>2012-09-16T09:49:55Z</time>
      </trkpt>
      <trkpt lat="45.89739" lon="6.18564">
        <ele>1276.29</ele>
        <time>2012-09-16T09:49:59Z</time>
      </trkpt>
      <trkpt lat="45.89731" lon="6.18568">
        <ele>1277.73</ele>
        <time>2012-09-16T09:50:06Z</time>
      </trkpt>
      <trkpt lat="45.89727" lon="6.18572">
        <ele>1278.69</ele>
        <time>2012-09-16T09:50:14Z</time>
      </trkpt>
      <trkpt lat="45.89726" lon="6.18573">
        <ele>1278.69</ele>
        <time>2012-09-16T09:50:18Z</time>
      </trkpt>
      <trkpt lat="45.89721" lon="6.18576">
        <ele>1277.73</ele>
        <time>2012-09-16T09:50:24Z</time>
      </trkpt>
      <trkpt lat="45.89716" lon="6.18574">
        <ele>1275.81</ele>
        <time>2012-09-16T09:50:31Z</time>
      </trkpt>
      <trkpt lat="45.89716" lon="6.18573">
        <ele>1275.33</ele>
        <time>2012-09-16T09:50:32Z</time>
      </trkpt>
      <trkpt lat="45.89715" lon="6.18573">
        <ele>1275.81</ele>
        <time>2012-09-16T09:50:35Z</time>
      </trkpt>
      <trkpt lat="45.8972" lon="6.18575">
        <ele>1275.33</ele>
        <time>2012-09-16T09:50:40Z</time>
      </trkpt>
      <trkpt lat="45.89717" lon="6.18577">
        <ele>1275.81</ele>
        <time>2012-09-16T09:50:43Z</time>
      </trkpt>
      <trkpt lat="45.89716" lon="6.18583">
        <ele>1275.33</ele>
        <time>2012-09-16T09:50:51Z</time>
      </trkpt>
      <trkpt lat="45.89713" lon="6.18588">
        <ele>1274.85</ele>
        <time>2012-09-16T09:51:01Z</time>
      </trkpt>
      <trkpt lat="45.89713" lon="6.18588">
        <ele>1274.85</ele>
        <time>2012-09-16T09:51:02Z</time>
      </trkpt>
      <trkpt lat="45.89705" lon="6.18592">
        <ele>1275.81</ele>
        <time>2012-09-16T09:51:08Z</time>
      </trkpt>
      <trkpt lat="45.89698" lon="6.18597">
        <ele>1278.69</ele>
        <time>2012-09-16T09:51:15Z</time>
      </trkpt>
      <trkpt lat="45.89692" lon="6.18597">
        <ele>1280.61</ele>
        <time>2012-09-16T09:51:22Z</time>
      </trkpt>
      <trkpt lat="45.89692" lon="6.18598">
        <ele>1281.09</ele>
        <time>2012-09-16T09:51:28Z</time>
      </trkpt>
      <trkpt lat="45.89692" lon="6.18597">
        <ele>1282.06</ele>
        <time>2012-09-16T09:51:33Z</time>
      </trkpt>
      <trkpt lat="45.89691" lon="6.18598">
        <ele>1281.57</ele>
        <time>2012-09-16T09:51:38Z</time>
      </trkpt>
      <trkpt lat="45.89691" lon="6.18598">
        <ele>1281.57</ele>
        <time>2012-09-16T09:51:39Z</time>
      </trkpt>
      <trkpt lat="45.89689" lon="6.18601">
        <ele>1283.5</ele>
        <time>2012-09-16T09:51:44Z</time>
      </trkpt>
      <trkpt lat="45.89689" lon="6.18601">
        <ele>1283.98</ele>
        <time>2012-09-16T09:51:45Z</time>
      </trkpt>
      <trkpt lat="45.89689" lon="6.18597">
        <ele>1285.42</ele>
        <time>2012-09-16T09:51:51Z</time>
      </trkpt>
      <trkpt lat="45.8969" lon="6.18597">
        <ele>1285.9</ele>
        <time>2012-09-16T09:52:02Z</time>
      </trkpt>
      <trkpt lat="45.89689" lon="6.18596">
        <ele>1285.9</ele>
        <time>2012-09-16T09:52:14Z</time>
      </trkpt>
      <trkpt lat="45.8969" lon="6.18597">
        <ele>1286.86</ele>
        <time>2012-09-16T09:52:26Z</time>
      </trkpt>
      <trkpt lat="45.8969" lon="6.18597">
        <ele>1287.34</ele>
        <time>2012-09-16T09:52:35Z</time>
      </trkpt>
      <trkpt lat="45.8969" lon="6.18597">
        <ele>1286.38</ele>
        <time>2012-09-16T09:52:46Z</time>
      </trkpt>
      <trkpt lat="45.89689" lon="6.18598">
        <ele>1286.38</ele>
        <time>2012-09-16T09:52:48Z</time>
      </trkpt>
      <trkpt lat="45.89685" lon="6.18605">
        <ele>1285.42</ele>
        <time>2012-09-16T09:52:55Z</time>
      </trkpt>
      <trkpt lat="45.89686" lon="6.18606">
        <ele>1286.38</ele>
        <time>2012-09-16T09:53:02Z</time>
      </trkpt>
      <trkpt lat="45.89686" lon="6.18606">
        <ele>1287.34</ele>
        <time>2012-09-16T09:53:06Z</time>
      </trkpt>
      <trkpt lat="45.89686" lon="6.18604">
        <ele>1286.86</ele>
        <time>2012-09-16T09:53:12Z</time>
      </trkpt>
      <trkpt lat="45.89686" lon="6.18603">
        <ele>1287.34</ele>
        <time>2012-09-16T09:53:24Z</time>
      </trkpt>
      <trkpt lat="45.89686" lon="6.18603">
        <ele>1286.86</ele>
        <time>2012-09-16T09:53:38Z</time>
      </trkpt>
      <trkpt lat="45.89687" lon="6.18603">
        <ele>1286.86</ele>
        <time>2012-09-16T09:53:55Z</time>
      </trkpt>
      <trkpt lat="45.89687" lon="6.18605">
        <ele>1286.86</ele>
        <time>2012-09-16T09:54:09Z</time>
      </trkpt>
      <trkpt lat="45.89688" lon="6.18606">
        <ele>1286.86</ele>
        <time>2012-09-16T09:54:23Z</time>
      </trkpt>
      <trkpt lat="45.89688" lon="6.18606">
        <ele>1286.86</ele>
        <time>2012-09-16T09:54:41Z</time>
      </trkpt>
      <trkpt lat="45.89688" lon="6.18605">
        <ele>1286.86</ele>
        <time>2012-09-16T09:54:54Z</time>
      </trkpt>
      <trkpt lat="45.89688" lon="6.18603">
        <ele>1286.86</ele>
        <time>2012-09-16T09:55:10Z</time>
      </trkpt>
      <trkpt lat="45.89687" lon="6.18603">
        <ele>1286.86</ele>
        <time>2012-09-16T09:55:27Z</time>
      </trkpt>
      <trkpt lat="45.89687" lon="6.18603">
        <ele>1286.86</ele>
        <time>2012-09-16T09:55:40Z</time>
      </trkpt>
      <trkpt lat="45.89686" lon="6.18603">
        <ele>1287.82</ele>
        <time>2012-09-16T09:55:51Z</time>
      </trkpt>
      <trkpt lat="45.89687" lon="6.18603">
        <ele>1289.75</ele>
        <time>2012-09-16T09:56:10Z</time>
      </trkpt>
      <trkpt lat="45.89688" lon="6.18604">
        <ele>1290.71</ele>
        <time>2012-09-16T09:56:31Z</time>
      </trkpt>
      <trkpt lat="45.8969" lon="6.18605">
        <ele>1291.19</ele>
        <time>2012-09-16T09:56:51Z</time>
      </trkpt>
      <trkpt lat="45.8969" lon="6.18604">
        <ele>1290.71</ele>
        <time>2012-09-16T09:57:09Z</time>
      </trkpt>
      <trkpt lat="45.8969" lon="6.18603">
        <ele>1289.75</ele>
        <time>2012-09-16T09:57:29Z</time>
      </trkpt>
      <trkpt lat="45.8969" lon="6.18603">
        <ele>1290.23</ele>
        <time>2012-09-16T09:57:47Z</time>
      </trkpt>
      <trkpt lat="45.8969" lon="6.18603">
        <ele>1290.71</ele>
        <time>2012-09-16T09:58:04Z</time>
      </trkpt>
      <trkpt lat="45.89689" lon="6.18603">
        <ele>1291.19</ele>
        <time>2012-09-16T09:58:18Z</time>
      </trkpt>
      <trkpt lat="45.89689" lon="6.18603">
        <ele>1290.71</ele>
        <time>2012-09-16T09:58:37Z</time>
      </trkpt>
      <trkpt lat="45.89688" lon="6.18605">
        <ele>1290.71</ele>
        <time>2012-09-16T09:58:56Z</time>
      </trkpt>
      <trkpt lat="45.89688" lon="6.18606">
        <ele>1291.67</ele>
        <time>2012-09-16T09:59:12Z</time>
      </trkpt>
      <trkpt lat="45.89687" lon="6.18607">
        <ele>1292.63</ele>
        <time>2012-09-16T09:59:28Z</time>
      </trkpt>
      <trkpt lat="45.89687" lon="6.18607">
        <ele>1292.63</ele>
        <time>2012-09-16T09:59:42Z</time>
      </trkpt>
      <trkpt lat="45.89688" lon="6.18607">
        <ele>1293.59</ele>
        <time>2012-09-16T10:00:00Z</time>
      </trkpt>
      <trkpt lat="45.89687" lon="6.18606">
        <ele>1293.59</ele>
        <time>2012-09-16T10:00:12Z</time>
      </trkpt>
      <trkpt lat="45.89688" lon="6.18606">
        <ele>1294.07</ele>
        <time>2012-09-16T10:00:33Z</time>
      </trkpt>
      <trkpt lat="45.89688" lon="6.18604">
        <ele>1293.59</ele>
        <time>2012-09-16T10:00:54Z</time>
      </trkpt>
      <trkpt lat="45.89688" lon="6.18604">
        <ele>1293.59</ele>
        <time>2012-09-16T10:01:13Z</time>
      </trkpt>
      <trkpt lat="45.89688" lon="6.18605">
        <ele>1293.11</ele>
        <time>2012-09-16T10:01:33Z</time>
      </trkpt>
      <trkpt lat="45.89688" lon="6.18605">
        <ele>1293.11</ele>
        <time>2012-09-16T10:01:53Z</time>
      </trkpt>
      <trkpt lat="45.89687" lon="6.18605">
        <ele>1293.11</ele>
        <time>2012-09-16T10:02:14Z</time>
      </trkpt>
      <trkpt lat="45.89687" lon="6.18605">
        <ele>1293.11</ele>
        <time>2012-09-16T10:02:33Z</time>
      </trkpt>
      <trkpt lat="45.89687" lon="6.18605">
        <ele>1293.11</ele>
        <time>2012-09-16T10:02:51Z</time>
      </trkpt>
      <trkpt lat="45.89687" lon="6.18605">
        <ele>1293.11</ele>
        <time>2012-09-16T10:03:09Z</time>
      </trkpt>
      <trkpt lat="45.89687" lon="6.18604">
        <ele>1293.59</ele>
        <time>2012-09-16T10:03:29Z</time>
      </trkpt>
      <trkpt lat="45.89687" lon="6.18603">
        <ele>1294.07</ele>
        <time>2012-09-16T10:03:46Z</time>
      </trkpt>
      <trkpt lat="45.89687" lon="6.18603">
        <ele>1293.59</ele>
        <time>2012-09-16T10:04:03Z</time>
      </trkpt>
      <trkpt lat="45.89687" lon="6.18603">
        <ele>1293.59</ele>
        <time>2012-09-16T10:04:17Z</time>
      </trkpt>
      <trkpt lat="45.89686" lon="6.18603">
        <ele>1294.07</ele>
        <time>2012-09-16T10:04:27Z</time>
      </trkpt>
      <trkpt lat="45.89686" lon="6.18603">
        <ele>1294.07</ele>
        <time>2012-09-16T10:04:36Z</time>
      </trkpt>
      <trkpt lat="45.89686" lon="6.18603">
        <ele>1294.07</ele>
        <time>2012-09-16T10:04:50Z</time>
      </trkpt>
      <trkpt lat="45.89686" lon="6.18602">
        <ele>1294.55</ele>
        <time>2012-09-16T10:04:59Z</time>
      </trkpt>
      <trkpt lat="45.89686" lon="6.18603">
        <ele>1294.07</ele>
        <time>2012-09-16T10:05:05Z</time>
      </trkpt>
      <trkpt lat="45.89687" lon="6.18604">
        <ele>1294.07</ele>
        <time>2012-09-16T10:05:14Z</time>
      </trkpt>
      <trkpt lat="45.89687" lon="6.18605">
        <ele>1293.59</ele>
        <time>2012-09-16T10:05:23Z</time>
      </trkpt>
      <trkpt lat="45.89689" lon="6.18605">
        <ele>1293.59</ele>
        <time>2012-09-16T10:05:29Z</time>
      </trkpt>
      <trkpt lat="45.89692" lon="6.18604">
        <ele>1293.59</ele>
        <time>2012-09-16T10:05:36Z</time>
      </trkpt>
      <trkpt lat="45.89695" lon="6.18603">
        <ele>1292.63</ele>
        <time>2012-09-16T10:05:43Z</time>
      </trkpt>
      <trkpt lat="45.89699" lon="6.18607">
        <ele>1291.67</ele>
        <time>2012-09-16T10:05:49Z</time>
      </trkpt>
      <trkpt lat="45.897" lon="6.18608">
        <ele>1291.19</ele>
        <time>2012-09-16T10:05:55Z</time>
      </trkpt>
      <trkpt lat="45.89702" lon="6.18609">
        <ele>1290.71</ele>
        <time>2012-09-16T10:06:01Z</time>
      </trkpt>
      <trkpt lat="45.89704" lon="6.18612">
        <ele>1290.71</ele>
        <time>2012-09-16T10:06:08Z</time>
      </trkpt>
      <trkpt lat="45.89705" lon="6.18613">
        <ele>1290.71</ele>
        <time>2012-09-16T10:06:09Z</time>
      </trkpt>
      <trkpt lat="45.89706" lon="6.18615">
        <ele>1290.23</ele>
        <time>2012-09-16T10:06:15Z</time>
      </trkpt>
      <trkpt lat="45.89705" lon="6.18618">
        <ele>1290.23</ele>
        <time>2012-09-16T10:06:24Z</time>
      </trkpt>
      <trkpt lat="45.89705" lon="6.18622">
        <ele>1291.67</ele>
        <time>2012-09-16T10:06:36Z</time>
      </trkpt>
      <trkpt lat="45.89707" lon="6.18631">
        <ele>1295.99</ele>
        <time>2012-09-16T10:06:44Z</time>
      </trkpt>
      <trkpt lat="45.89707" lon="6.18638">
        <ele>1296.96</ele>
        <time>2012-09-16T10:06:51Z</time>
      </trkpt>
      <trkpt lat="45.89702" lon="6.18638">
        <ele>1295.99</ele>
        <time>2012-09-16T10:06:57Z</time>
      </trkpt>
      <trkpt lat="45.89699" lon="6.18639">
        <ele>1295.51</ele>
        <time>2012-09-16T10:07:04Z</time>
      </trkpt>
      <trkpt lat="45.89699" lon="6.18643">
        <ele>1295.51</ele>
        <time>2012-09-16T10:07:10Z</time>
      </trkpt>
      <trkpt lat="45.89698" lon="6.18644">
        <ele>1295.51</ele>
        <time>2012-09-16T10:07:18Z</time>
      </trkpt>
      <trkpt lat="45.89696" lon="6.1865">
        <ele>1295.51</ele>
        <time>2012-09-16T10:07:26Z</time>
      </trkpt>
      <trkpt lat="45.89691" lon="6.18654">
        <ele>1295.51</ele>
        <time>2012-09-16T10:07:32Z</time>
      </trkpt>
      <trkpt lat="45.89688" lon="6.18659">
        <ele>1296.48</ele>
        <time>2012-09-16T10:07:39Z</time>
      </trkpt>
      <trkpt lat="45.89682" lon="6.18663">
        <ele>1296.96</ele>
        <time>2012-09-16T10:07:46Z</time>
      </trkpt>
      <trkpt lat="45.89681" lon="6.18664">
        <ele>1297.44</ele>
        <time>2012-09-16T10:07:53Z</time>
      </trkpt>
      <trkpt lat="45.89679" lon="6.18666">
        <ele>1297.44</ele>
        <time>2012-09-16T10:08:01Z</time>
      </trkpt>
      <trkpt lat="45.89677" lon="6.18671">
        <ele>1297.92</ele>
        <time>2012-09-16T10:08:07Z</time>
      </trkpt>
      <trkpt lat="45.89676" lon="6.18671">
        <ele>1297.92</ele>
        <time>2012-09-16T10:08:12Z</time>
      </trkpt>
      <trkpt lat="45.89678" lon="6.18671">
        <ele>1297.92</ele>
        <time>2012-09-16T10:08:14Z</time>
      </trkpt>
      <trkpt lat="45.89676" lon="6.18672">
        <ele>1298.88</ele>
        <time>2012-09-16T10:08:20Z</time>
      </trkpt>
      <trkpt lat="45.89677" lon="6.18671">
        <ele>1299.84</ele>
        <time>2012-09-16T10:08:30Z</time>
      </trkpt>
      <trkpt lat="45.89677" lon="6.18671">
        <ele>1299.84</ele>
        <time>2012-09-16T10:08:38Z</time>
      </trkpt>
      <trkpt lat="45.89677" lon="6.18672">
        <ele>1300.32</ele>
        <time>2012-09-16T10:08:57Z</time>
      </trkpt>
      <trkpt lat="45.89677" lon="6.18672">
        <ele>1300.32</ele>
        <time>2012-09-16T10:09:05Z</time>
      </trkpt>
      <trkpt lat="45.89677" lon="6.18671">
        <ele>1300.32</ele>
        <time>2012-09-16T10:09:18Z</time>
      </trkpt>
      <trkpt lat="45.89677" lon="6.18671">
        <ele>1300.8</ele>
        <time>2012-09-16T10:09:28Z</time>
      </trkpt>
      <trkpt lat="45.89677" lon="6.18671">
        <ele>1300.32</ele>
        <time>2012-09-16T10:09:47Z</time>
      </trkpt>
      <trkpt lat="45.89677" lon="6.18671">
        <ele>1300.32</ele>
        <time>2012-09-16T10:09:54Z</time>
      </trkpt>
      <trkpt lat="45.89677" lon="6.18671">
        <ele>1300.32</ele>
        <time>2012-09-16T10:10:02Z</time>
      </trkpt>
      <trkpt lat="45.89677" lon="6.18671">
        <ele>1299.84</ele>
        <time>2012-09-16T10:10:17Z</time>
      </trkpt>
      <trkpt lat="45.89677" lon="6.1867">
        <ele>1299.84</ele>
        <time>2012-09-16T10:10:30Z</time>
      </trkpt>
      <trkpt lat="45.89676" lon="6.18671">
        <ele>1300.32</ele>
        <time>2012-09-16T10:10:47Z</time>
      </trkpt>
      <trkpt lat="45.89676" lon="6.1867">
        <ele>1300.8</ele>
        <time>2012-09-16T10:11:03Z</time>
      </trkpt>
      <trkpt lat="45.89676" lon="6.1867">
        <ele>1300.8</ele>
        <time>2012-09-16T10:11:12Z</time>
      </trkpt>
      <trkpt lat="45.89677" lon="6.18671">
        <ele>1300.8</ele>
        <time>2012-09-16T10:11:27Z</time>
      </trkpt>
      <trkpt lat="45.89677" lon="6.18671">
        <ele>1300.8</ele>
        <time>2012-09-16T10:11:44Z</time>
      </trkpt>
      <trkpt lat="45.89676" lon="6.18671">
        <ele>1300.8</ele>
        <time>2012-09-16T10:11:58Z</time>
      </trkpt>
      <trkpt lat="45.89676" lon="6.18671">
        <ele>1300.8</ele>
        <time>2012-09-16T10:12:16Z</time>
      </trkpt>
      <trkpt lat="45.89676" lon="6.18671">
        <ele>1300.8</ele>
        <time>2012-09-16T10:12:33Z</time>
      </trkpt>
      <trkpt lat="45.89677" lon="6.18671">
        <ele>1300.8</ele>
        <time>2012-09-16T10:12:49Z</time>
      </trkpt>
      <trkpt lat="45.89677" lon="6.18672">
        <ele>1300.32</ele>
        <time>2012-09-16T10:13:03Z</time>
      </trkpt>
      <trkpt lat="45.89677" lon="6.18671">
        <ele>1300.8</ele>
        <time>2012-09-16T10:13:17Z</time>
      </trkpt>
      <trkpt lat="45.89677" lon="6.18671">
        <ele>1300.8</ele>
        <time>2012-09-16T10:13:31Z</time>
      </trkpt>
      <trkpt lat="45.89677" lon="6.18671">
        <ele>1300.32</ele>
        <time>2012-09-16T10:13:45Z</time>
      </trkpt>
      <trkpt lat="45.89677" lon="6.18671">
        <ele>1299.84</ele>
        <time>2012-09-16T10:13:55Z</time>
      </trkpt>
      <trkpt lat="45.89678" lon="6.1867">
        <ele>1299.84</ele>
        <time>2012-09-16T10:14:09Z</time>
      </trkpt>
      <trkpt lat="45.89678" lon="6.18669">
        <ele>1299.84</ele>
        <time>2012-09-16T10:14:21Z</time>
      </trkpt>
      <trkpt lat="45.89679" lon="6.18669">
        <ele>1300.32</ele>
        <time>2012-09-16T10:14:38Z</time>
      </trkpt>
      <trkpt lat="45.89678" lon="6.18668">
        <ele>1299.84</ele>
        <time>2012-09-16T10:14:50Z</time>
      </trkpt>
      <trkpt lat="45.89679" lon="6.18669">
        <ele>1299.36</ele>
        <time>2012-09-16T10:15:01Z</time>
      </trkpt>
      <trkpt lat="45.89678" lon="6.18669">
        <ele>1299.36</ele>
        <time>2012-09-16T10:15:13Z</time>
      </trkpt>
      <trkpt lat="45.89678" lon="6.18669">
        <ele>1299.36</ele>
        <time>2012-09-16T10:15:19Z</time>
      </trkpt>
      <trkpt lat="45.89678" lon="6.18669">
        <ele>1298.88</ele>
        <time>2012-09-16T10:15:28Z</time>
      </trkpt>
      <trkpt lat="45.89678" lon="6.18671">
        <ele>1299.36</ele>
        <time>2012-09-16T10:15:46Z</time>
      </trkpt>
      <trkpt lat="45.89679" lon="6.18671">
        <ele>1298.88</ele>
        <time>2012-09-16T10:16:04Z</time>
      </trkpt>
      <trkpt lat="45.89678" lon="6.18671">
        <ele>1299.84</ele>
        <time>2012-09-16T10:16:17Z</time>
      </trkpt>
      <trkpt lat="45.89678" lon="6.18671">
        <ele>1299.36</ele>
        <time>2012-09-16T10:16:29Z</time>
      </trkpt>
      <trkpt lat="45.89678" lon="6.18671">
        <ele>1299.36</ele>
        <time>2012-09-16T10:16:43Z</time>
      </trkpt>
      <trkpt lat="45.89678" lon="6.18671">
        <ele>1299.36</ele>
        <time>2012-09-16T10:17:00Z</time>
      </trkpt>
      <trkpt lat="45.89678" lon="6.18671">
        <ele>1299.36</ele>
        <time>2012-09-16T10:17:12Z</time>
      </trkpt>
      <trkpt lat="45.89677" lon="6.1867">
        <ele>1298.88</ele>
        <time>2012-09-16T10:17:30Z</time>
      </trkpt>
      <trkpt lat="45.89677" lon="6.18671">
        <ele>1298.88</ele>
        <time>2012-09-16T10:17:36Z</time>
      </trkpt>
      <trkpt lat="45.89677" lon="6.1867">
        <ele>1298.88</ele>
        <time>2012-09-16T10:17:47Z</time>
      </trkpt>
      <trkpt lat="45.89677" lon="6.1867">
        <ele>1299.36</ele>
        <time>2012-09-16T10:17:57Z</time>
      </trkpt>
      <trkpt lat="45.89677" lon="6.18671">
        <ele>1298.88</ele>
        <time>2012-09-16T10:18:12Z</time>
      </trkpt>
      <trkpt lat="45.89676" lon="6.18671">
        <ele>1298.88</ele>
        <time>2012-09-16T10:18:30Z</time>
      </trkpt>
      <trkpt lat="45.89676" lon="6.18671">
        <ele>1298.88</ele>
        <time>2012-09-16T10:18:39Z</time>
      </trkpt>
      <trkpt lat="45.89675" lon="6.18672">
        <ele>1298.4</ele>
        <time>2012-09-16T10:18:55Z</time>
      </trkpt>
      <trkpt lat="45.89675" lon="6.18672">
        <ele>1298.4</ele>
        <time>2012-09-16T10:19:05Z</time>
      </trkpt>
      <trkpt lat="45.89676" lon="6.18672">
        <ele>1297.92</ele>
        <time>2012-09-16T10:19:13Z</time>
      </trkpt>
      <trkpt lat="45.89676" lon="6.18672">
        <ele>1297.92</ele>
        <time>2012-09-16T10:19:23Z</time>
      </trkpt>
      <trkpt lat="45.89676" lon="6.18671">
        <ele>1298.4</ele>
        <time>2012-09-16T10:19:34Z</time>
      </trkpt>
      <trkpt lat="45.89676" lon="6.1867">
        <ele>1298.4</ele>
        <time>2012-09-16T10:19:50Z</time>
      </trkpt>
      <trkpt lat="45.89677" lon="6.1867">
        <ele>1298.4</ele>
        <time>2012-09-16T10:20:03Z</time>
      </trkpt>
      <trkpt lat="45.89676" lon="6.18671">
        <ele>1298.4</ele>
        <time>2012-09-16T10:20:14Z</time>
      </trkpt>
      <trkpt lat="45.89677" lon="6.1867">
        <ele>1297.92</ele>
        <time>2012-09-16T10:20:30Z</time>
      </trkpt>
      <trkpt lat="45.89677" lon="6.1867">
        <ele>1297.92</ele>
        <time>2012-09-16T10:20:40Z</time>
      </trkpt>
      <trkpt lat="45.89677" lon="6.18669">
        <ele>1297.92</ele>
        <time>2012-09-16T10:20:53Z</time>
      </trkpt>
      <trkpt lat="45.89677" lon="6.18669">
        <ele>1297.92</ele>
        <time>2012-09-16T10:21:10Z</time>
      </trkpt>
      <trkpt lat="45.89676" lon="6.18669">
        <ele>1297.92</ele>
        <time>2012-09-16T10:21:22Z</time>
      </trkpt>
      <trkpt lat="45.89676" lon="6.1867">
        <ele>1298.4</ele>
        <time>2012-09-16T10:21:36Z</time>
      </trkpt>
      <trkpt lat="45.89676" lon="6.18669">
        <ele>1298.88</ele>
        <time>2012-09-16T10:21:46Z</time>
      </trkpt>
      <trkpt lat="45.89676" lon="6.18669">
        <ele>1299.36</ele>
        <time>2012-09-16T10:22:02Z</time>
      </trkpt>
      <trkpt lat="45.89676" lon="6.18669">
        <ele>1299.36</ele>
        <time>2012-09-16T10:22:15Z</time>
      </trkpt>
      <trkpt lat="45.89676" lon="6.18669">
        <ele>1299.36</ele>
        <time>2012-09-16T10:22:25Z</time>
      </trkpt>
      <trkpt lat="45.89675" lon="6.18669">
        <ele>1299.36</ele>
        <time>2012-09-16T10:22:35Z</time>
      </trkpt>
      <trkpt lat="45.89674" lon="6.18669">
        <ele>1300.8</ele>
        <time>2012-09-16T10:22:55Z</time>
      </trkpt>
      <trkpt lat="45.89673" lon="6.18668">
        <ele>1301.76</ele>
        <time>2012-09-16T10:23:16Z</time>
      </trkpt>
      <trkpt lat="45.89673" lon="6.18668">
        <ele>1302.72</ele>
        <time>2012-09-16T10:23:31Z</time>
      </trkpt>
      <trkpt lat="45.89674" lon="6.18669">
        <ele>1301.76</ele>
        <time>2012-09-16T10:23:50Z</time>
      </trkpt>
      <trkpt lat="45.89674" lon="6.18671">
        <ele>1300.8</ele>
        <time>2012-09-16T10:24:07Z</time>
      </trkpt>
      <trkpt lat="45.89674" lon="6.18672">
        <ele>1300.32</ele>
        <time>2012-09-16T10:24:24Z</time>
      </trkpt>
      <trkpt lat="45.89675" lon="6.18672">
        <ele>1300.32</ele>
        <time>2012-09-16T10:24:42Z</time>
      </trkpt>
      <trkpt lat="45.89675" lon="6.18673">
        <ele>1299.84</ele>
        <time>2012-09-16T10:25:01Z</time>
      </trkpt>
      <trkpt lat="45.89676" lon="6.18673">
        <ele>1299.36</ele>
        <time>2012-09-16T10:25:14Z</time>
      </trkpt>
      <trkpt lat="45.89676" lon="6.18671">
        <ele>1298.88</ele>
        <time>2012-09-16T10:25:30Z</time>
      </trkpt>
      <trkpt lat="45.89676" lon="6.1867">
        <ele>1298.88</ele>
        <time>2012-09-16T10:25:44Z</time>
      </trkpt>
      <trkpt lat="45.89676" lon="6.18669">
        <ele>1299.36</ele>
        <time>2012-09-16T10:26:00Z</time>
      </trkpt>
      <trkpt lat="45.89676" lon="6.18668">
        <ele>1299.36</ele>
        <time>2012-09-16T10:26:10Z</time>
      </trkpt>
      <trkpt lat="45.89676" lon="6.18668">
        <ele>1299.36</ele>
        <time>2012-09-16T10:26:24Z</time>
      </trkpt>
      <trkpt lat="45.89676" lon="6.18669">
        <ele>1299.36</ele>
        <time>2012-09-16T10:26:40Z</time>
      </trkpt>
      <trkpt lat="45.89676" lon="6.18669">
        <ele>1299.36</ele>
        <time>2012-09-16T10:27:00Z</time>
      </trkpt>
      <trkpt lat="45.89676" lon="6.18669">
        <ele>1299.36</ele>
        <time>2012-09-16T10:27:16Z</time>
      </trkpt>
      <trkpt lat="45.89676" lon="6.18669">
        <ele>1299.84</ele>
        <time>2012-09-16T10:27:29Z</time>
      </trkpt>
      <trkpt lat="45.89676" lon="6.18669">
        <ele>1299.84</ele>
        <time>2012-09-16T10:27:42Z</time>
      </trkpt>
      <trkpt lat="45.89676" lon="6.18669">
        <ele>1300.32</ele>
        <time>2012-09-16T10:27:56Z</time>
      </trkpt>
      <trkpt lat="45.89676" lon="6.18669">
        <ele>1300.8</ele>
        <time>2012-09-16T10:28:05Z</time>
      </trkpt>
      <trkpt lat="45.89676" lon="6.18668">
        <ele>1300.32</ele>
        <time>2012-09-16T10:28:15Z</time>
      </trkpt>
      <trkpt lat="45.89676" lon="6.18668">
        <ele>1300.32</ele>
        <time>2012-09-16T10:28:33Z</time>
      </trkpt>
      <trkpt lat="45.89677" lon="6.18668">
        <ele>1300.32</ele>
        <time>2012-09-16T10:28:45Z</time>
      </trkpt>
      <trkpt lat="45.89677" lon="6.18668">
        <ele>1300.32</ele>
        <time>2012-09-16T10:29:03Z</time>
      </trkpt>
      <trkpt lat="45.89677" lon="6.18668">
        <ele>1300.32</ele>
        <time>2012-09-16T10:29:16Z</time>
      </trkpt>
      <trkpt lat="45.89678" lon="6.18667">
        <ele>1300.32</ele>
        <time>2012-09-16T10:29:28Z</time>
      </trkpt>
      <trkpt lat="45.89678" lon="6.18667">
        <ele>1300.8</ele>
        <time>2012-09-16T10:29:41Z</time>
      </trkpt>
      <trkpt lat="45.89678" lon="6.18665">
        <ele>1302.24</ele>
        <time>2012-09-16T10:29:53Z</time>
      </trkpt>
      <trkpt lat="45.89679" lon="6.18666">
        <ele>1303.69</ele>
        <time>2012-09-16T10:29:57Z</time>
      </trkpt>
      <trkpt lat="45.89679" lon="6.18666">
        <ele>1303.69</ele>
        <time>2012-09-16T10:30:05Z</time>
      </trkpt>
      <trkpt lat="45.89679" lon="6.18666">
        <ele>1304.17</ele>
        <time>2012-09-16T10:30:17Z</time>
      </trkpt>
      <trkpt lat="45.89679" lon="6.18666">
        <ele>1303.69</ele>
        <time>2012-09-16T10:30:24Z</time>
      </trkpt>
      <trkpt lat="45.89679" lon="6.18666">
        <ele>1303.2</ele>
        <time>2012-09-16T10:30:39Z</time>
      </trkpt>
      <trkpt lat="45.89679" lon="6.18667">
        <ele>1302.72</ele>
        <time>2012-09-16T10:30:57Z</time>
      </trkpt>
      <trkpt lat="45.8968" lon="6.18668">
        <ele>1301.76</ele>
        <time>2012-09-16T10:31:07Z</time>
      </trkpt>
      <trkpt lat="45.8968" lon="6.18669">
        <ele>1301.76</ele>
        <time>2012-09-16T10:31:18Z</time>
      </trkpt>
      <trkpt lat="45.8968" lon="6.18669">
        <ele>1301.76</ele>
        <time>2012-09-16T10:31:28Z</time>
      </trkpt>
      <trkpt lat="45.89679" lon="6.1867">
        <ele>1301.28</ele>
        <time>2012-09-16T10:31:37Z</time>
      </trkpt>
      <trkpt lat="45.8968" lon="6.18669">
        <ele>1300.32</ele>
        <time>2012-09-16T10:31:46Z</time>
      </trkpt>
      <trkpt lat="45.89678" lon="6.18669">
        <ele>1300.8</ele>
        <time>2012-09-16T10:31:57Z</time>
      </trkpt>
      <trkpt lat="45.89678" lon="6.18669">
        <ele>1300.32</ele>
        <time>2012-09-16T10:32:05Z</time>
      </trkpt>
      <trkpt lat="45.89677" lon="6.18669">
        <ele>1300.32</ele>
        <time>2012-09-16T10:32:14Z</time>
      </trkpt>
      <trkpt lat="45.89678" lon="6.18669">
        <ele>1299.84</ele>
        <time>2012-09-16T10:32:20Z</time>
      </trkpt>
      <trkpt lat="45.89677" lon="6.18671">
        <ele>1298.88</ele>
        <time>2012-09-16T10:32:26Z</time>
      </trkpt>
      <trkpt lat="45.89676" lon="6.18671">
        <ele>1297.92</ele>
        <time>2012-09-16T10:32:33Z</time>
      </trkpt>
      <trkpt lat="45.89675" lon="6.18672">
        <ele>1296.48</ele>
        <time>2012-09-16T10:32:41Z</time>
      </trkpt>
      <trkpt lat="45.89675" lon="6.18672">
        <ele>1296.48</ele>
        <time>2012-09-16T10:32:42Z</time>
      </trkpt>
      <trkpt lat="45.89677" lon="6.18668">
        <ele>1296.96</ele>
        <time>2012-09-16T10:32:47Z</time>
      </trkpt>
      <trkpt lat="45.89677" lon="6.18669">
        <ele>1297.44</ele>
        <time>2012-09-16T10:32:59Z</time>
      </trkpt>
      <trkpt lat="45.89676" lon="6.1867">
        <ele>1297.44</ele>
        <time>2012-09-16T10:33:09Z</time>
      </trkpt>
      <trkpt lat="45.89676" lon="6.1867">
        <ele>1297.92</ele>
        <time>2012-09-16T10:33:17Z</time>
      </trkpt>
      <trkpt lat="45.89676" lon="6.1867">
        <ele>1297.92</ele>
        <time>2012-09-16T10:33:24Z</time>
      </trkpt>
      <trkpt lat="45.89676" lon="6.1867">
        <ele>1298.4</ele>
        <time>2012-09-16T10:33:34Z</time>
      </trkpt>
      <trkpt lat="45.89676" lon="6.18671">
        <ele>1297.92</ele>
        <time>2012-09-16T10:33:42Z</time>
      </trkpt>
      <trkpt lat="45.89676" lon="6.18671">
        <ele>1297.92</ele>
        <time>2012-09-16T10:33:53Z</time>
      </trkpt>
      <trkpt lat="45.89676" lon="6.18671">
        <ele>1298.4</ele>
        <time>2012-09-16T10:34:05Z</time>
      </trkpt>
      <trkpt lat="45.89676" lon="6.1867">
        <ele>1298.4</ele>
        <time>2012-09-16T10:34:13Z</time>
      </trkpt>
      <trkpt lat="45.89676" lon="6.18671">
        <ele>1297.92</ele>
        <time>2012-09-16T10:34:20Z</time>
      </trkpt>
      <trkpt lat="45.89676" lon="6.18671">
        <ele>1297.92</ele>
        <time>2012-09-16T10:34:29Z</time>
      </trkpt>
      <trkpt lat="45.89676" lon="6.18671">
        <ele>1298.4</ele>
        <time>2012-09-16T10:34:39Z</time>
      </trkpt>
      <trkpt lat="45.89676" lon="6.18671">
        <ele>1298.4</ele>
        <time>2012-09-16T10:34:49Z</time>
      </trkpt>
      <trkpt lat="45.89676" lon="6.18673">
        <ele>1298.4</ele>
        <time>2012-09-16T10:34:54Z</time>
      </trkpt>
      <trkpt lat="45.89676" lon="6.18671">
        <ele>1298.88</ele>
        <time>2012-09-16T10:35:05Z</time>
      </trkpt>
      <trkpt lat="45.89676" lon="6.18671">
        <ele>1298.88</ele>
        <time>2012-09-16T10:35:18Z</time>
      </trkpt>
      <trkpt lat="45.89676" lon="6.18671">
        <ele>1298.4</ele>
        <time>2012-09-16T10:35:27Z</time>
      </trkpt>
      <trkpt lat="45.89677" lon="6.18672">
        <ele>1298.88</ele>
        <time>2012-09-16T10:35:33Z</time>
      </trkpt>
      <trkpt lat="45.89675" lon="6.1867">
        <ele>1299.36</ele>
        <time>2012-09-16T10:35:47Z</time>
      </trkpt>
      <trkpt lat="45.89677" lon="6.1867">
        <ele>1298.88</ele>
        <time>2012-09-16T10:35:59Z</time>
      </trkpt>
      <trkpt lat="45.89677" lon="6.18671">
        <ele>1298.88</ele>
        <time>2012-09-16T10:36:11Z</time>
      </trkpt>
      <trkpt lat="45.89676" lon="6.18672">
        <ele>1299.36</ele>
        <time>2012-09-16T10:36:24Z</time>
      </trkpt>
      <trkpt lat="45.89678" lon="6.18672">
        <ele>1299.36</ele>
        <time>2012-09-16T10:36:33Z</time>
      </trkpt>
      <trkpt lat="45.89677" lon="6.18672">
        <ele>1299.36</ele>
        <time>2012-09-16T10:36:43Z</time>
      </trkpt>
      <trkpt lat="45.89676" lon="6.1867">
        <ele>1300.32</ele>
        <time>2012-09-16T10:36:52Z</time>
      </trkpt>
      <trkpt lat="45.89676" lon="6.1867">
        <ele>1300.32</ele>
        <time>2012-09-16T10:37:00Z</time>
      </trkpt>
      <trkpt lat="45.89679" lon="6.18669">
        <ele>1302.24</ele>
        <time>2012-09-16T10:37:10Z</time>
      </trkpt>
      <trkpt lat="45.89679" lon="6.1867">
        <ele>1301.76</ele>
        <time>2012-09-16T10:37:21Z</time>
      </trkpt>
      <trkpt lat="45.8968" lon="6.18671">
        <ele>1300.32</ele>
        <time>2012-09-16T10:37:32Z</time>
      </trkpt>
      <trkpt lat="45.89679" lon="6.18671">
        <ele>1298.88</ele>
        <time>2012-09-16T10:37:45Z</time>
      </trkpt>
      <trkpt lat="45.89679" lon="6.1867">
        <ele>1298.88</ele>
        <time>2012-09-16T10:37:58Z</time>
      </trkpt>
      <trkpt lat="45.89679" lon="6.18671">
        <ele>1298.88</ele>
        <time>2012-09-16T10:38:10Z</time>
      </trkpt>
      <trkpt lat="45.89679" lon="6.18672">
        <ele>1299.36</ele>
        <time>2012-09-16T10:38:19Z</time>
      </trkpt>
      <trkpt lat="45.89679" lon="6.18671">
        <ele>1299.36</ele>
        <time>2012-09-16T10:38:33Z</time>
      </trkpt>
      <trkpt lat="45.89679" lon="6.18672">
        <ele>1299.36</ele>
        <time>2012-09-16T10:38:43Z</time>
      </trkpt>
      <trkpt lat="45.89679" lon="6.18671">
        <ele>1299.36</ele>
        <time>2012-09-16T10:38:53Z</time>
      </trkpt>
      <trkpt lat="45.89677" lon="6.18669">
        <ele>1298.4</ele>
        <time>2012-09-16T10:39:00Z</time>
      </trkpt>
      <trkpt lat="45.89679" lon="6.18664">
        <ele>1299.36</ele>
        <time>2012-09-16T10:39:08Z</time>
      </trkpt>
      <trkpt lat="45.8968" lon="6.18663">
        <ele>1298.88</ele>
        <time>2012-09-16T10:39:13Z</time>
      </trkpt>
      <trkpt lat="45.89687" lon="6.18658">
        <ele>1295.99</ele>
        <time>2012-09-16T10:39:23Z</time>
      </trkpt>
      <trkpt lat="45.89689" lon="6.18654">
        <ele>1295.03</ele>
        <time>2012-09-16T10:39:30Z</time>
      </trkpt>
      <trkpt lat="45.89691" lon="6.1865">
        <ele>1294.07</ele>
        <time>2012-09-16T10:39:36Z</time>
      </trkpt>
      <trkpt lat="45.89689" lon="6.18648">
        <ele>1291.67</ele>
        <time>2012-09-16T10:39:43Z</time>
      </trkpt>
      <trkpt lat="45.89689" lon="6.18647">
        <ele>1291.67</ele>
        <time>2012-09-16T10:39:44Z</time>
      </trkpt>
      <trkpt lat="45.89692" lon="6.18641">
        <ele>1289.27</ele>
        <time>2012-09-16T10:39:51Z</time>
      </trkpt>
      <trkpt lat="45.89697" lon="6.18645">
        <ele>1287.34</ele>
        <time>2012-09-16T10:40:00Z</time>
      </trkpt>
      <trkpt lat="45.89699" lon="6.18646">
        <ele>1287.34</ele>
        <time>2012-09-16T10:40:09Z</time>
      </trkpt>
      <trkpt lat="45.89701" lon="6.18647">
        <ele>1287.34</ele>
        <time>2012-09-16T10:40:21Z</time>
      </trkpt>
      <trkpt lat="45.89701" lon="6.18647">
        <ele>1287.34</ele>
        <time>2012-09-16T10:40:35Z</time>
      </trkpt>
      <trkpt lat="45.89702" lon="6.18648">
        <ele>1288.3</ele>
        <time>2012-09-16T10:40:45Z</time>
      </trkpt>
      <trkpt lat="45.897" lon="6.18649">
        <ele>1289.75</ele>
        <time>2012-09-16T10:40:56Z</time>
      </trkpt>
      <trkpt lat="45.897" lon="6.18649">
        <ele>1289.75</ele>
        <time>2012-09-16T10:41:04Z</time>
      </trkpt>
      <trkpt lat="45.89699" lon="6.18647">
        <ele>1288.3</ele>
        <time>2012-09-16T10:41:20Z</time>
      </trkpt>
      <trkpt lat="45.897" lon="6.18648">
        <ele>1288.3</ele>
        <time>2012-09-16T10:41:32Z</time>
      </trkpt>
      <trkpt lat="45.89707" lon="6.1865">
        <ele>1286.38</ele>
        <time>2012-09-16T10:41:39Z</time>
      </trkpt>
      <trkpt lat="45.89709" lon="6.18646">
        <ele>1284.46</ele>
        <time>2012-09-16T10:41:47Z</time>
      </trkpt>
      <trkpt lat="45.8971" lon="6.18643">
        <ele>1283.02</ele>
        <time>2012-09-16T10:41:52Z</time>
      </trkpt>
      <trkpt lat="45.89709" lon="6.18639">
        <ele>1283.5</ele>
        <time>2012-09-16T10:41:56Z</time>
      </trkpt>
      <trkpt lat="45.89706" lon="6.18631">
        <ele>1281.57</ele>
        <time>2012-09-16T10:42:03Z</time>
      </trkpt>
      <trkpt lat="45.8971" lon="6.18621">
        <ele>1282.06</ele>
        <time>2012-09-16T10:42:11Z</time>
      </trkpt>
      <trkpt lat="45.89714" lon="6.1862">
        <ele>1283.5</ele>
        <time>2012-09-16T10:42:15Z</time>
      </trkpt>
      <trkpt lat="45.89716" lon="6.18617">
        <ele>1283.02</ele>
        <time>2012-09-16T10:42:21Z</time>
      </trkpt>
      <trkpt lat="45.89718" lon="6.1861">
        <ele>1281.57</ele>
        <time>2012-09-16T10:42:27Z</time>
      </trkpt>
      <trkpt lat="45.89723" lon="6.18605">
        <ele>1280.13</ele>
        <time>2012-09-16T10:42:32Z</time>
      </trkpt>
      <trkpt lat="45.89727" lon="6.18605">
        <ele>1279.65</ele>
        <time>2012-09-16T10:42:35Z</time>
      </trkpt>
      <trkpt lat="45.89736" lon="6.18609">
        <ele>1281.57</ele>
        <time>2012-09-16T10:42:41Z</time>
      </trkpt>
      <trkpt lat="45.89744" lon="6.18609">
        <ele>1282.54</ele>
        <time>2012-09-16T10:42:49Z</time>
      </trkpt>
      <trkpt lat="45.89747" lon="6.18611">
        <ele>1284.94</ele>
        <time>2012-09-16T10:43:01Z</time>
      </trkpt>
      <trkpt lat="45.8975" lon="6.18611">
        <ele>1285.42</ele>
        <time>2012-09-16T10:43:10Z</time>
      </trkpt>
      <trkpt lat="45.8975" lon="6.18611">
        <ele>1285.42</ele>
        <time>2012-09-16T10:43:20Z</time>
      </trkpt>
      <trkpt lat="45.89756" lon="6.18611">
        <ele>1285.42</ele>
        <time>2012-09-16T10:43:25Z</time>
      </trkpt>
      <trkpt lat="45.89762" lon="6.18608">
        <ele>1286.86</ele>
        <time>2012-09-16T10:43:30Z</time>
      </trkpt>
      <trkpt lat="45.89763" lon="6.18609">
        <ele>1286.86</ele>
        <time>2012-09-16T10:43:31Z</time>
      </trkpt>
      <trkpt lat="45.89768" lon="6.18607">
        <ele>1287.34</ele>
        <time>2012-09-16T10:43:38Z</time>
      </trkpt>
      <trkpt lat="45.89769" lon="6.18605">
        <ele>1286.86</ele>
        <time>2012-09-16T10:43:40Z</time>
      </trkpt>
      <trkpt lat="45.89775" lon="6.18599">
        <ele>1285.9</ele>
        <time>2012-09-16T10:43:45Z</time>
      </trkpt>
      <trkpt lat="45.89778" lon="6.18599">
        <ele>1285.42</ele>
        <time>2012-09-16T10:43:50Z</time>
      </trkpt>
      <trkpt lat="45.89792" lon="6.186">
        <ele>1284.46</ele>
        <time>2012-09-16T10:43:56Z</time>
      </trkpt>
      <trkpt lat="45.89797" lon="6.18601">
        <ele>1284.46</ele>
        <time>2012-09-16T10:44:01Z</time>
      </trkpt>
      <trkpt lat="45.89798" lon="6.18602">
        <ele>1284.46</ele>
        <time>2012-09-16T10:44:03Z</time>
      </trkpt>
      <trkpt lat="45.89802" lon="6.18603">
        <ele>1283.5</ele>
        <time>2012-09-16T10:44:07Z</time>
      </trkpt>
      <trkpt lat="45.89807" lon="6.18601">
        <ele>1279.65</ele>
        <time>2012-09-16T10:44:13Z</time>
      </trkpt>
      <trkpt lat="45.89813" lon="6.18602">
        <ele>1279.17</ele>
        <time>2012-09-16T10:44:18Z</time>
      </trkpt>
      <trkpt lat="45.89819" lon="6.18601">
        <ele>1277.73</ele>
        <time>2012-09-16T10:44:26Z</time>
      </trkpt>
      <trkpt lat="45.89824" lon="6.18601">
        <ele>1277.25</ele>
        <time>2012-09-16T10:44:30Z</time>
      </trkpt>
      <trkpt lat="45.89835" lon="6.186">
        <ele>1278.21</ele>
        <time>2012-09-16T10:44:38Z</time>
      </trkpt>
      <trkpt lat="45.89847" lon="6.18595">
        <ele>1276.29</ele>
        <time>2012-09-16T10:44:46Z</time>
      </trkpt>
      <trkpt lat="45.89853" lon="6.18596">
        <ele>1274.85</ele>
        <time>2012-09-16T10:44:51Z</time>
      </trkpt>
      <trkpt lat="45.89857" lon="6.18598">
        <ele>1271.48</ele>
        <time>2012-09-16T10:44:57Z</time>
      </trkpt>
      <trkpt lat="45.89859" lon="6.18602">
        <ele>1268.6</ele>
        <time>2012-09-16T10:45:03Z</time>
      </trkpt>
      <trkpt lat="45.89869" lon="6.18604">
        <ele>1267.64</ele>
        <time>2012-09-16T10:45:08Z</time>
      </trkpt>
      <trkpt lat="45.89878" lon="6.18606">
        <ele>1267.16</ele>
        <time>2012-09-16T10:45:16Z</time>
      </trkpt>
      <trkpt lat="45.89877" lon="6.18606">
        <ele>1267.16</ele>
        <time>2012-09-16T10:45:17Z</time>
      </trkpt>
      <trkpt lat="45.89878" lon="6.18607">
        <ele>1266.19</ele>
        <time>2012-09-16T10:45:24Z</time>
      </trkpt>
      <trkpt lat="45.89879" lon="6.18605">
        <ele>1265.71</ele>
        <time>2012-09-16T10:45:26Z</time>
      </trkpt>
      <trkpt lat="45.89882" lon="6.18601">
        <ele>1263.79</ele>
        <time>2012-09-16T10:45:32Z</time>
      </trkpt>
      <trkpt lat="45.89882" lon="6.18601">
        <ele>1263.31</ele>
        <time>2012-09-16T10:45:38Z</time>
      </trkpt>
      <trkpt lat="45.89883" lon="6.18595">
        <ele>1263.31</ele>
        <time>2012-09-16T10:45:44Z</time>
      </trkpt>
      <trkpt lat="45.89884" lon="6.18594">
        <ele>1262.35</ele>
        <time>2012-09-16T10:45:48Z</time>
      </trkpt>
      <trkpt lat="45.89879" lon="6.18583">
        <ele>1261.87</ele>
        <time>2012-09-16T10:45:54Z</time>
      </trkpt>
      <trkpt lat="45.89886" lon="6.18579">
        <ele>1259.94</ele>
        <time>2012-09-16T10:46:02Z</time>
      </trkpt>
      <trkpt lat="45.8989" lon="6.18577">
        <ele>1259.94</ele>
        <time>2012-09-16T10:46:05Z</time>
      </trkpt>
      <trkpt lat="45.89891" lon="6.18577">
        <ele>1259.94</ele>
        <time>2012-09-16T10:46:12Z</time>
      </trkpt>
      <trkpt lat="45.89896" lon="6.1858">
        <ele>1261.39</ele>
        <time>2012-09-16T10:46:19Z</time>
      </trkpt>
      <trkpt lat="45.89899" lon="6.18577">
        <ele>1260.91</ele>
        <time>2012-09-16T10:46:23Z</time>
      </trkpt>
      <trkpt lat="45.89904" lon="6.18576">
        <ele>1261.39</ele>
        <time>2012-09-16T10:46:29Z</time>
      </trkpt>
      <trkpt lat="45.89905" lon="6.18576">
        <ele>1261.39</ele>
        <time>2012-09-16T10:46:37Z</time>
      </trkpt>
      <trkpt lat="45.89907" lon="6.18577">
        <ele>1260.91</ele>
        <time>2012-09-16T10:46:45Z</time>
      </trkpt>
      <trkpt lat="45.89907" lon="6.18576">
        <ele>1260.43</ele>
        <time>2012-09-16T10:46:54Z</time>
      </trkpt>
      <trkpt lat="45.89902" lon="6.18577">
        <ele>1262.35</ele>
        <time>2012-09-16T10:47:01Z</time>
      </trkpt>
      <trkpt lat="45.89905" lon="6.18577">
        <ele>1262.83</ele>
        <time>2012-09-16T10:47:08Z</time>
      </trkpt>
      <trkpt lat="45.89906" lon="6.18577">
        <ele>1262.83</ele>
        <time>2012-09-16T10:47:29Z</time>
      </trkpt>
      <trkpt lat="45.89906" lon="6.18578">
        <ele>1264.27</ele>
        <time>2012-09-16T10:47:43Z</time>
      </trkpt>
      <trkpt lat="45.89907" lon="6.18578">
        <ele>1264.75</ele>
        <time>2012-09-16T10:47:55Z</time>
      </trkpt>
      <trkpt lat="45.8991" lon="6.18578">
        <ele>1263.31</ele>
        <time>2012-09-16T10:48:02Z</time>
      </trkpt>
      <trkpt lat="45.89918" lon="6.18574">
        <ele>1262.35</ele>
        <time>2012-09-16T10:48:09Z</time>
      </trkpt>
      <trkpt lat="45.89918" lon="6.18572">
        <ele>1262.35</ele>
        <time>2012-09-16T10:48:13Z</time>
      </trkpt>
      <trkpt lat="45.89919" lon="6.18572">
        <ele>1260.43</ele>
        <time>2012-09-16T10:48:19Z</time>
      </trkpt>
      <trkpt lat="45.8993" lon="6.18572">
        <ele>1257.06</ele>
        <time>2012-09-16T10:48:26Z</time>
      </trkpt>
      <trkpt lat="45.89936" lon="6.18571">
        <ele>1253.22</ele>
        <time>2012-09-16T10:48:32Z</time>
      </trkpt>
      <trkpt lat="45.89938" lon="6.18572">
        <ele>1251.77</ele>
        <time>2012-09-16T10:48:36Z</time>
      </trkpt>
      <trkpt lat="45.89941" lon="6.18571">
        <ele>1251.29</ele>
        <time>2012-09-16T10:48:41Z</time>
      </trkpt>
      <trkpt lat="45.89944" lon="6.1857">
        <ele>1250.81</ele>
        <time>2012-09-16T10:48:43Z</time>
      </trkpt>
      <trkpt lat="45.89948" lon="6.18567">
        <ele>1248.41</ele>
        <time>2012-09-16T10:48:49Z</time>
      </trkpt>
      <trkpt lat="45.89954" lon="6.18569">
        <ele>1247.45</ele>
        <time>2012-09-16T10:49:02Z</time>
      </trkpt>
      <trkpt lat="45.89965" lon="6.18569">
        <ele>1246.01</ele>
        <time>2012-09-16T10:49:09Z</time>
      </trkpt>
      <trkpt lat="45.89973" lon="6.18569">
        <ele>1243.6</ele>
        <time>2012-09-16T10:49:16Z</time>
      </trkpt>
      <trkpt lat="45.89982" lon="6.18565">
        <ele>1244.08</ele>
        <time>2012-09-16T10:49:23Z</time>
      </trkpt>
      <trkpt lat="45.8999" lon="6.1856">
        <ele>1243.6</ele>
        <time>2012-09-16T10:49:29Z</time>
      </trkpt>
      <trkpt lat="45.89992" lon="6.18561">
        <ele>1243.6</ele>
        <time>2012-09-16T10:49:36Z</time>
      </trkpt>
      <trkpt lat="45.89994" lon="6.18562">
        <ele>1243.6</ele>
        <time>2012-09-16T10:49:42Z</time>
      </trkpt>
      <trkpt lat="45.89999" lon="6.18564">
        <ele>1242.16</ele>
        <time>2012-09-16T10:49:47Z</time>
      </trkpt>
      <trkpt lat="45.90004" lon="6.18565">
        <ele>1240.72</ele>
        <time>2012-09-16T10:49:53Z</time>
      </trkpt>
      <trkpt lat="45.90004" lon="6.18565">
        <ele>1240.24</ele>
        <time>2012-09-16T10:50:05Z</time>
      </trkpt>
      <trkpt lat="45.90005" lon="6.18564">
        <ele>1240.24</ele>
        <time>2012-09-16T10:50:15Z</time>
      </trkpt>
      <trkpt lat="45.90009" lon="6.18567">
        <ele>1238.8</ele>
        <time>2012-09-16T10:50:20Z</time>
      </trkpt>
      <trkpt lat="45.90007" lon="6.18569">
        <ele>1238.32</ele>
        <time>2012-09-16T10:50:24Z</time>
      </trkpt>
      <trkpt lat="45.90005" lon="6.18574">
        <ele>1236.39</ele>
        <time>2012-09-16T10:50:32Z</time>
      </trkpt>
      <trkpt lat="45.90006" lon="6.18575">
        <ele>1235.43</ele>
        <time>2012-09-16T10:50:39Z</time>
      </trkpt>
      <trkpt lat="45.9001" lon="6.18578">
        <ele>1233.51</ele>
        <time>2012-09-16T10:50:44Z</time>
      </trkpt>
      <trkpt lat="45.90015" lon="6.18581">
        <ele>1230.62</ele>
        <time>2012-09-16T10:50:50Z</time>
      </trkpt>
      <trkpt lat="45.90016" lon="6.18582">
        <ele>1229.66</ele>
        <time>2012-09-16T10:50:56Z</time>
      </trkpt>
      <trkpt lat="45.90019" lon="6.18582">
        <ele>1228.7</ele>
        <time>2012-09-16T10:51:02Z</time>
      </trkpt>
      <trkpt lat="45.9002" lon="6.18584">
        <ele>1228.7</ele>
        <time>2012-09-16T10:51:07Z</time>
      </trkpt>
      <trkpt lat="45.9002" lon="6.18586">
        <ele>1228.22</ele>
        <time>2012-09-16T10:51:13Z</time>
      </trkpt>
      <trkpt lat="45.90023" lon="6.18587">
        <ele>1227.74</ele>
        <time>2012-09-16T10:51:18Z</time>
      </trkpt>
      <trkpt lat="45.90023" lon="6.18587">
        <ele>1227.26</ele>
        <time>2012-09-16T10:51:27Z</time>
      </trkpt>
      <trkpt lat="45.90029" lon="6.18589">
        <ele>1225.34</ele>
        <time>2012-09-16T10:51:34Z</time>
      </trkpt>
      <trkpt lat="45.90034" lon="6.18588">
        <ele>1224.86</ele>
        <time>2012-09-16T10:51:41Z</time>
      </trkpt>
      <trkpt lat="45.90041" lon="6.18586">
        <ele>1223.9</ele>
        <time>2012-09-16T10:51:48Z</time>
      </trkpt>
      <trkpt lat="45.90044" lon="6.18589">
        <ele>1221.49</ele>
        <time>2012-09-16T10:51:53Z</time>
      </trkpt>
      <trkpt lat="45.90044" lon="6.1859">
        <ele>1221.01</ele>
        <time>2012-09-16T10:51:54Z</time>
      </trkpt>
      <trkpt lat="45.90043" lon="6.18594">
        <ele>1219.57</ele>
        <time>2012-09-16T10:52:00Z</time>
      </trkpt>
      <trkpt lat="45.90043" lon="6.18595">
        <ele>1219.09</ele>
        <time>2012-09-16T10:52:03Z</time>
      </trkpt>
      <trkpt lat="45.90042" lon="6.186">
        <ele>1217.17</ele>
        <time>2012-09-16T10:52:10Z</time>
      </trkpt>
      <trkpt lat="45.90042" lon="6.18602">
        <ele>1216.21</ele>
        <time>2012-09-16T10:52:18Z</time>
      </trkpt>
      <trkpt lat="45.90044" lon="6.18605">
        <ele>1214.76</ele>
        <time>2012-09-16T10:52:21Z</time>
      </trkpt>
      <trkpt lat="45.90049" lon="6.18609">
        <ele>1213.8</ele>
        <time>2012-09-16T10:52:28Z</time>
      </trkpt>
      <trkpt lat="45.9005" lon="6.18608">
        <ele>1213.8</ele>
        <time>2012-09-16T10:52:44Z</time>
      </trkpt>
      <trkpt lat="45.90051" lon="6.18609">
        <ele>1212.36</ele>
        <time>2012-09-16T10:52:53Z</time>
      </trkpt>
      <trkpt lat="45.90053" lon="6.18609">
        <ele>1210.92</ele>
        <time>2012-09-16T10:53:01Z</time>
      </trkpt>
      <trkpt lat="45.90057" lon="6.18606">
        <ele>1209.48</ele>
        <time>2012-09-16T10:53:07Z</time>
      </trkpt>
      <trkpt lat="45.90061" lon="6.18606">
        <ele>1210.92</ele>
        <time>2012-09-16T10:53:16Z</time>
      </trkpt>
      <trkpt lat="45.90063" lon="6.18607">
        <ele>1211.88</ele>
        <time>2012-09-16T10:53:31Z</time>
      </trkpt>
      <trkpt lat="45.90063" lon="6.18607">
        <ele>1211.4</ele>
        <time>2012-09-16T10:53:36Z</time>
      </trkpt>
      <trkpt lat="45.90065" lon="6.18608">
        <ele>1210.92</ele>
        <time>2012-09-16T10:53:42Z</time>
      </trkpt>
      <trkpt lat="45.90065" lon="6.18607">
        <ele>1210.92</ele>
        <time>2012-09-16T10:53:47Z</time>
      </trkpt>
      <trkpt lat="45.90065" lon="6.18609">
        <ele>1210.44</ele>
        <time>2012-09-16T10:53:53Z</time>
      </trkpt>
      <trkpt lat="45.90065" lon="6.18611">
        <ele>1209.96</ele>
        <time>2012-09-16T10:54:00Z</time>
      </trkpt>
      <trkpt lat="45.90069" lon="6.18613">
        <ele>1207.55</ele>
        <time>2012-09-16T10:54:06Z</time>
      </trkpt>
      <trkpt lat="45.90073" lon="6.18615">
        <ele>1205.15</ele>
        <time>2012-09-16T10:54:11Z</time>
      </trkpt>
      <trkpt lat="45.90074" lon="6.18616">
        <ele>1204.19</ele>
        <time>2012-09-16T10:54:18Z</time>
      </trkpt>
      <trkpt lat="45.90075" lon="6.18616">
        <ele>1202.75</ele>
        <time>2012-09-16T10:54:24Z</time>
      </trkpt>
      <trkpt lat="45.90079" lon="6.18614">
        <ele>1198.9</ele>
        <time>2012-09-16T10:54:30Z</time>
      </trkpt>
      <trkpt lat="45.9008" lon="6.18614">
        <ele>1198.42</ele>
        <time>2012-09-16T10:54:31Z</time>
      </trkpt>
      <trkpt lat="45.90083" lon="6.18618">
        <ele>1196.98</ele>
        <time>2012-09-16T10:54:37Z</time>
      </trkpt>
      <trkpt lat="45.90083" lon="6.18618">
        <ele>1196.5</ele>
        <time>2012-09-16T10:54:39Z</time>
      </trkpt>
      <trkpt lat="45.90085" lon="6.18614">
        <ele>1192.65</ele>
        <time>2012-09-16T10:54:44Z</time>
      </trkpt>
      <trkpt lat="45.90087" lon="6.18615">
        <ele>1190.73</ele>
        <time>2012-09-16T10:54:47Z</time>
      </trkpt>
      <trkpt lat="45.90096" lon="6.18614">
        <ele>1186.4</ele>
        <time>2012-09-16T10:54:54Z</time>
      </trkpt>
      <trkpt lat="45.90099" lon="6.18612">
        <ele>1183.04</ele>
        <time>2012-09-16T10:55:00Z</time>
      </trkpt>
      <trkpt lat="45.90104" lon="6.18613">
        <ele>1182.08</ele>
        <time>2012-09-16T10:55:05Z</time>
      </trkpt>
      <trkpt lat="45.90108" lon="6.18611">
        <ele>1183.04</ele>
        <time>2012-09-16T10:55:10Z</time>
      </trkpt>
      <trkpt lat="45.90114" lon="6.18611">
        <ele>1182.56</ele>
        <time>2012-09-16T10:55:14Z</time>
      </trkpt>
      <trkpt lat="45.90115" lon="6.18611">
        <ele>1182.56</ele>
        <time>2012-09-16T10:55:16Z</time>
      </trkpt>
      <trkpt lat="45.90116" lon="6.18606">
        <ele>1182.08</ele>
        <time>2012-09-16T10:55:20Z</time>
      </trkpt>
      <trkpt lat="45.90119" lon="6.18602">
        <ele>1180.64</ele>
        <time>2012-09-16T10:55:26Z</time>
      </trkpt>
      <trkpt lat="45.90121" lon="6.186">
        <ele>1180.16</ele>
        <time>2012-09-16T10:55:29Z</time>
      </trkpt>
      <trkpt lat="45.90123" lon="6.18594">
        <ele>1178.23</ele>
        <time>2012-09-16T10:55:36Z</time>
      </trkpt>
      <trkpt lat="45.90124" lon="6.18591">
        <ele>1177.27</ele>
        <time>2012-09-16T10:55:41Z</time>
      </trkpt>
      <trkpt lat="45.90125" lon="6.18588">
        <ele>1176.79</ele>
        <time>2012-09-16T10:55:47Z</time>
      </trkpt>
      <trkpt lat="45.90129" lon="6.18585">
        <ele>1175.83</ele>
        <time>2012-09-16T10:55:55Z</time>
      </trkpt>
      <trkpt lat="45.9013" lon="6.18582">
        <ele>1175.83</ele>
        <time>2012-09-16T10:56:05Z</time>
      </trkpt>
      <trkpt lat="45.9013" lon="6.18582">
        <ele>1175.35</ele>
        <time>2012-09-16T10:56:12Z</time>
      </trkpt>
      <trkpt lat="45.90132" lon="6.18578">
        <ele>1175.35</ele>
        <time>2012-09-16T10:56:16Z</time>
      </trkpt>
      <trkpt lat="45.90136" lon="6.18568">
        <ele>1174.39</ele>
        <time>2012-09-16T10:56:23Z</time>
      </trkpt>
      <trkpt lat="45.90138" lon="6.18563">
        <ele>1174.39</ele>
        <time>2012-09-16T10:56:28Z</time>
      </trkpt>
      <trkpt lat="45.90142" lon="6.18557">
        <ele>1174.87</ele>
        <time>2012-09-16T10:56:34Z</time>
      </trkpt>
      <trkpt lat="45.90146" lon="6.18557">
        <ele>1175.83</ele>
        <time>2012-09-16T10:56:43Z</time>
      </trkpt>
      <trkpt lat="45.90151" lon="6.18553">
        <ele>1174.87</ele>
        <time>2012-09-16T10:56:51Z</time>
      </trkpt>
      <trkpt lat="45.90151" lon="6.18553">
        <ele>1174.87</ele>
        <time>2012-09-16T10:56:52Z</time>
      </trkpt>
      <trkpt lat="45.90167" lon="6.18553">
        <ele>1176.31</ele>
        <time>2012-09-16T10:57:00Z</time>
      </trkpt>
      <trkpt lat="45.90178" lon="6.18548">
        <ele>1175.83</ele>
        <time>2012-09-16T10:57:09Z</time>
      </trkpt>
      <trkpt lat="45.90181" lon="6.18543">
        <ele>1175.35</ele>
        <time>2012-09-16T10:57:15Z</time>
      </trkpt>
      <trkpt lat="45.90184" lon="6.18542">
        <ele>1174.39</ele>
        <time>2012-09-16T10:57:20Z</time>
      </trkpt>
      <trkpt lat="45.90191" lon="6.18542">
        <ele>1172.47</ele>
        <time>2012-09-16T10:57:27Z</time>
      </trkpt>
      <trkpt lat="45.90196" lon="6.1854">
        <ele>1169.58</ele>
        <time>2012-09-16T10:57:33Z</time>
      </trkpt>
      <trkpt lat="45.90198" lon="6.18539">
        <ele>1168.14</ele>
        <time>2012-09-16T10:57:38Z</time>
      </trkpt>
      <trkpt lat="45.902" lon="6.18539">
        <ele>1168.14</ele>
        <time>2012-09-16T10:57:40Z</time>
      </trkpt>
      <trkpt lat="45.90205" lon="6.18538">
        <ele>1167.18</ele>
        <time>2012-09-16T10:57:46Z</time>
      </trkpt>
      <trkpt lat="45.90212" lon="6.18538">
        <ele>1166.22</ele>
        <time>2012-09-16T10:57:51Z</time>
      </trkpt>
      <trkpt lat="45.90213" lon="6.18539">
        <ele>1165.74</ele>
        <time>2012-09-16T10:57:55Z</time>
      </trkpt>
      <trkpt lat="45.90215" lon="6.18536">
        <ele>1163.33</ele>
        <time>2012-09-16T10:58:01Z</time>
      </trkpt>
      <trkpt lat="45.90216" lon="6.18536">
        <ele>1162.85</ele>
        <time>2012-09-16T10:58:07Z</time>
      </trkpt>
      <trkpt lat="45.9022" lon="6.18535">
        <ele>1160.93</ele>
        <time>2012-09-16T10:58:15Z</time>
      </trkpt>
      <trkpt lat="45.9022" lon="6.18535">
        <ele>1160.93</ele>
        <time>2012-09-16T10:58:17Z</time>
      </trkpt>
      <trkpt lat="45.90223" lon="6.18534">
        <ele>1159.97</ele>
        <time>2012-09-16T10:58:19Z</time>
      </trkpt>
      <trkpt lat="45.90226" lon="6.18533">
        <ele>1159.01</ele>
        <time>2012-09-16T10:58:22Z</time>
      </trkpt>
      <trkpt lat="45.90237" lon="6.18529">
        <ele>1156.6</ele>
        <time>2012-09-16T10:58:30Z</time>
      </trkpt>
      <trkpt lat="45.90238" lon="6.18528">
        <ele>1156.12</ele>
        <time>2012-09-16T10:58:31Z</time>
      </trkpt>
      <trkpt lat="45.90241" lon="6.18523">
        <ele>1155.16</ele>
        <time>2012-09-16T10:58:37Z</time>
      </trkpt>
      <trkpt lat="45.9025" lon="6.18517">
        <ele>1153.24</ele>
        <time>2012-09-16T10:58:44Z</time>
      </trkpt>
      <trkpt lat="45.90254" lon="6.18511">
        <ele>1152.76</ele>
        <time>2012-09-16T10:58:50Z</time>
      </trkpt>
      <trkpt lat="45.90256" lon="6.1851">
        <ele>1152.76</ele>
        <time>2012-09-16T10:58:53Z</time>
      </trkpt>
      <trkpt lat="45.90265" lon="6.18509">
        <ele>1149.87</ele>
        <time>2012-09-16T10:59:01Z</time>
      </trkpt>
      <trkpt lat="45.9027" lon="6.18507">
        <ele>1146.99</ele>
        <time>2012-09-16T10:59:09Z</time>
      </trkpt>
      <trkpt lat="45.90274" lon="6.18506">
        <ele>1145.07</ele>
        <time>2012-09-16T10:59:17Z</time>
      </trkpt>
      <trkpt lat="45.90278" lon="6.18502">
        <ele>1140.74</ele>
        <time>2012-09-16T10:59:23Z</time>
      </trkpt>
      <trkpt lat="45.90281" lon="6.185">
        <ele>1138.82</ele>
        <time>2012-09-16T10:59:29Z</time>
      </trkpt>
      <trkpt lat="45.90288" lon="6.18499">
        <ele>1135.94</ele>
        <time>2012-09-16T10:59:36Z</time>
      </trkpt>
      <trkpt lat="45.90295" lon="6.18499">
        <ele>1138.34</ele>
        <time>2012-09-16T10:59:42Z</time>
      </trkpt>
      <trkpt lat="45.90297" lon="6.18498">
        <ele>1138.82</ele>
        <time>2012-09-16T10:59:48Z</time>
      </trkpt>
      <trkpt lat="45.90299" lon="6.18496">
        <ele>1138.82</ele>
        <time>2012-09-16T10:59:52Z</time>
      </trkpt>
      <trkpt lat="45.90306" lon="6.18494">
        <ele>1137.86</ele>
        <time>2012-09-16T10:59:58Z</time>
      </trkpt>
      <trkpt lat="45.90314" lon="6.18488">
        <ele>1138.82</ele>
        <time>2012-09-16T11:00:05Z</time>
      </trkpt>
      <trkpt lat="45.90317" lon="6.18488">
        <ele>1138.82</ele>
        <time>2012-09-16T11:00:13Z</time>
      </trkpt>
      <trkpt lat="45.9032" lon="6.1849">
        <ele>1139.3</ele>
        <time>2012-09-16T11:00:20Z</time>
      </trkpt>
      <trkpt lat="45.90322" lon="6.1849">
        <ele>1139.78</ele>
        <time>2012-09-16T11:00:26Z</time>
      </trkpt>
      <trkpt lat="45.90326" lon="6.1849">
        <ele>1140.74</ele>
        <time>2012-09-16T11:00:33Z</time>
      </trkpt>
      <trkpt lat="45.90333" lon="6.18493">
        <ele>1140.74</ele>
        <time>2012-09-16T11:00:39Z</time>
      </trkpt>
      <trkpt lat="45.90336" lon="6.18494">
        <ele>1140.26</ele>
        <time>2012-09-16T11:00:46Z</time>
      </trkpt>
      <trkpt lat="45.90339" lon="6.18495">
        <ele>1139.78</ele>
        <time>2012-09-16T11:00:54Z</time>
      </trkpt>
      <trkpt lat="45.90339" lon="6.18495">
        <ele>1138.82</ele>
        <time>2012-09-16T11:01:04Z</time>
      </trkpt>
      <trkpt lat="45.9034" lon="6.18496">
        <ele>1138.82</ele>
        <time>2012-09-16T11:01:12Z</time>
      </trkpt>
      <trkpt lat="45.90342" lon="6.18496">
        <ele>1137.86</ele>
        <time>2012-09-16T11:01:19Z</time>
      </trkpt>
      <trkpt lat="45.90344" lon="6.18497">
        <ele>1137.86</ele>
        <time>2012-09-16T11:01:26Z</time>
      </trkpt>
      <trkpt lat="45.90344" lon="6.18497">
        <ele>1137.38</ele>
        <time>2012-09-16T11:01:27Z</time>
      </trkpt>
      <trkpt lat="45.90354" lon="6.18496">
        <ele>1135.94</ele>
        <time>2012-09-16T11:01:35Z</time>
      </trkpt>
      <trkpt lat="45.90357" lon="6.18495">
        <ele>1135.45</ele>
        <time>2012-09-16T11:01:42Z</time>
      </trkpt>
      <trkpt lat="45.90358" lon="6.18494">
        <ele>1134.97</ele>
        <time>2012-09-16T11:01:51Z</time>
      </trkpt>
      <trkpt lat="45.90361" lon="6.18495">
        <ele>1134.49</ele>
        <time>2012-09-16T11:01:59Z</time>
      </trkpt>
      <trkpt lat="45.90366" lon="6.18493">
        <ele>1134.01</ele>
        <time>2012-09-16T11:02:05Z</time>
      </trkpt>
      <trkpt lat="45.90374" lon="6.18491">
        <ele>1133.05</ele>
        <time>2012-09-16T11:02:12Z</time>
      </trkpt>
      <trkpt lat="45.90383" lon="6.1849">
        <ele>1132.57</ele>
        <time>2012-09-16T11:02:19Z</time>
      </trkpt>
      <trkpt lat="45.90386" lon="6.18489">
        <ele>1132.09</ele>
        <time>2012-09-16T11:02:24Z</time>
      </trkpt>
      <trkpt lat="45.90394" lon="6.18491">
        <ele>1130.17</ele>
        <time>2012-09-16T11:02:31Z</time>
      </trkpt>
      <trkpt lat="45.90397" lon="6.18489">
        <ele>1130.17</ele>
        <time>2012-09-16T11:02:44Z</time>
      </trkpt>
      <trkpt lat="45.90402" lon="6.1849">
        <ele>1130.17</ele>
        <time>2012-09-16T11:02:54Z</time>
      </trkpt>
      <trkpt lat="45.90404" lon="6.1849">
        <ele>1129.21</ele>
        <time>2012-09-16T11:03:01Z</time>
      </trkpt>
      <trkpt lat="45.90405" lon="6.1849">
        <ele>1128.73</ele>
        <time>2012-09-16T11:03:04Z</time>
      </trkpt>
      <trkpt lat="45.90408" lon="6.18491">
        <ele>1125.36</ele>
        <time>2012-09-16T11:03:10Z</time>
      </trkpt>
      <trkpt lat="45.90415" lon="6.18489">
        <ele>1122.48</ele>
        <time>2012-09-16T11:03:17Z</time>
      </trkpt>
      <trkpt lat="45.9042" lon="6.18485">
        <ele>1122</ele>
        <time>2012-09-16T11:03:19Z</time>
      </trkpt>
      <trkpt lat="45.90431" lon="6.18484">
        <ele>1122.48</ele>
        <time>2012-09-16T11:03:25Z</time>
      </trkpt>
      <trkpt lat="45.90446" lon="6.1848">
        <ele>1122.48</ele>
        <time>2012-09-16T11:03:32Z</time>
      </trkpt>
      <trkpt lat="45.90465" lon="6.1847">
        <ele>1122.96</ele>
        <time>2012-09-16T11:03:39Z</time>
      </trkpt>
      <trkpt lat="45.90475" lon="6.18464">
        <ele>1120.55</ele>
        <time>2012-09-16T11:03:47Z</time>
      </trkpt>
      <trkpt lat="45.9048" lon="6.18463">
        <ele>1118.15</ele>
        <time>2012-09-16T11:03:53Z</time>
      </trkpt>
      <trkpt lat="45.90482" lon="6.18457">
        <ele>1115.27</ele>
        <time>2012-09-16T11:03:58Z</time>
      </trkpt>
      <trkpt lat="45.9049" lon="6.1846">
        <ele>1111.9</ele>
        <time>2012-09-16T11:04:06Z</time>
      </trkpt>
      <trkpt lat="45.90492" lon="6.18456">
        <ele>1109.98</ele>
        <time>2012-09-16T11:04:09Z</time>
      </trkpt>
      <trkpt lat="45.90497" lon="6.18449">
        <ele>1106.13</ele>
        <time>2012-09-16T11:04:17Z</time>
      </trkpt>
      <trkpt lat="45.90499" lon="6.18446">
        <ele>1105.65</ele>
        <time>2012-09-16T11:04:24Z</time>
      </trkpt>
      <trkpt lat="45.90501" lon="6.18445">
        <ele>1105.17</ele>
        <time>2012-09-16T11:04:31Z</time>
      </trkpt>
      <trkpt lat="45.90506" lon="6.1844">
        <ele>1100.37</ele>
        <time>2012-09-16T11:04:37Z</time>
      </trkpt>
      <trkpt lat="45.90507" lon="6.18437">
        <ele>1098.44</ele>
        <time>2012-09-16T11:04:48Z</time>
      </trkpt>
      <trkpt lat="45.90511" lon="6.18436">
        <ele>1098.92</ele>
        <time>2012-09-16T11:04:55Z</time>
      </trkpt>
      <trkpt lat="45.90515" lon="6.18434">
        <ele>1100.37</ele>
        <time>2012-09-16T11:05:04Z</time>
      </trkpt>
      <trkpt lat="45.90515" lon="6.18434">
        <ele>1099.89</ele>
        <time>2012-09-16T11:05:11Z</time>
      </trkpt>
      <trkpt lat="45.90521" lon="6.18426">
        <ele>1098.44</ele>
        <time>2012-09-16T11:05:16Z</time>
      </trkpt>
      <trkpt lat="45.90529" lon="6.18421">
        <ele>1097.48</ele>
        <time>2012-09-16T11:05:22Z</time>
      </trkpt>
      <trkpt lat="45.90534" lon="6.18414">
        <ele>1096.52</ele>
        <time>2012-09-16T11:05:30Z</time>
      </trkpt>
      <trkpt lat="45.90537" lon="6.18411">
        <ele>1096.04</ele>
        <time>2012-09-16T11:05:35Z</time>
      </trkpt>
      <trkpt lat="45.90539" lon="6.1841">
        <ele>1095.56</ele>
        <time>2012-09-16T11:05:37Z</time>
      </trkpt>
      <trkpt lat="45.90544" lon="6.18402">
        <ele>1093.16</ele>
        <time>2012-09-16T11:05:42Z</time>
      </trkpt>
      <trkpt lat="45.90545" lon="6.184">
        <ele>1092.68</ele>
        <time>2012-09-16T11:05:49Z</time>
      </trkpt>
      <trkpt lat="45.90549" lon="6.184">
        <ele>1094.12</ele>
        <time>2012-09-16T11:06:01Z</time>
      </trkpt>
      <trkpt lat="45.90551" lon="6.18398">
        <ele>1093.16</ele>
        <time>2012-09-16T11:06:12Z</time>
      </trkpt>
      <trkpt lat="45.90554" lon="6.18396">
        <ele>1091.71</ele>
        <time>2012-09-16T11:06:17Z</time>
      </trkpt>
      <trkpt lat="45.90554" lon="6.18395">
        <ele>1091.23</ele>
        <time>2012-09-16T11:06:18Z</time>
      </trkpt>
      <trkpt lat="45.90553" lon="6.18392">
        <ele>1088.83</ele>
        <time>2012-09-16T11:06:23Z</time>
      </trkpt>
      <trkpt lat="45.90556" lon="6.18391">
        <ele>1088.35</ele>
        <time>2012-09-16T11:06:27Z</time>
      </trkpt>
      <trkpt lat="45.90558" lon="6.18386">
        <ele>1086.43</ele>
        <time>2012-09-16T11:06:31Z</time>
      </trkpt>
      <trkpt lat="45.90564" lon="6.18381">
        <ele>1083.54</ele>
        <time>2012-09-16T11:06:37Z</time>
      </trkpt>
      <trkpt lat="45.90567" lon="6.18382">
        <ele>1082.58</ele>
        <time>2012-09-16T11:06:42Z</time>
      </trkpt>
      <trkpt lat="45.90572" lon="6.18384">
        <ele>1080.18</ele>
        <time>2012-09-16T11:06:49Z</time>
      </trkpt>
      <trkpt lat="45.90576" lon="6.18383">
        <ele>1078.74</ele>
        <time>2012-09-16T11:06:54Z</time>
      </trkpt>
      <trkpt lat="45.90581" lon="6.18383">
        <ele>1076.33</ele>
        <time>2012-09-16T11:06:59Z</time>
      </trkpt>
      <trkpt lat="45.90586" lon="6.18382">
        <ele>1076.81</ele>
        <time>2012-09-16T11:07:06Z</time>
      </trkpt>
      <trkpt lat="45.90588" lon="6.18382">
        <ele>1076.33</ele>
        <time>2012-09-16T11:07:12Z</time>
      </trkpt>
      <trkpt lat="45.90591" lon="6.18382">
        <ele>1075.85</ele>
        <time>2012-09-16T11:07:14Z</time>
      </trkpt>
      <trkpt lat="45.90598" lon="6.18374">
        <ele>1074.41</ele>
        <time>2012-09-16T11:07:18Z</time>
      </trkpt>
      <trkpt lat="45.90601" lon="6.18371">
        <ele>1073.93</ele>
        <time>2012-09-16T11:07:20Z</time>
      </trkpt>
      <trkpt lat="45.90605" lon="6.18371">
        <ele>1072.49</ele>
        <time>2012-09-16T11:07:24Z</time>
      </trkpt>
      <trkpt lat="45.90613" lon="6.1836">
        <ele>1070.57</ele>
        <time>2012-09-16T11:07:30Z</time>
      </trkpt>
      <trkpt lat="45.90616" lon="6.18357">
        <ele>1068.64</ele>
        <time>2012-09-16T11:07:35Z</time>
      </trkpt>
      <trkpt lat="45.90618" lon="6.18353">
        <ele>1066.72</ele>
        <time>2012-09-16T11:07:40Z</time>
      </trkpt>
      <trkpt lat="45.90622" lon="6.18348">
        <ele>1065.76</ele>
        <time>2012-09-16T11:07:46Z</time>
      </trkpt>
      <trkpt lat="45.90624" lon="6.18346">
        <ele>1065.28</ele>
        <time>2012-09-16T11:07:55Z</time>
      </trkpt>
      <trkpt lat="45.90627" lon="6.18344">
        <ele>1064.32</ele>
        <time>2012-09-16T11:07:58Z</time>
      </trkpt>
      <trkpt lat="45.90629" lon="6.18333">
        <ele>1060.47</ele>
        <time>2012-09-16T11:08:04Z</time>
      </trkpt>
      <trkpt lat="45.90634" lon="6.18327">
        <ele>1060.47</ele>
        <time>2012-09-16T11:08:12Z</time>
      </trkpt>
      <trkpt lat="45.90639" lon="6.18323">
        <ele>1059.51</ele>
        <time>2012-09-16T11:08:20Z</time>
      </trkpt>
      <trkpt lat="45.90641" lon="6.18319">
        <ele>1059.03</ele>
        <time>2012-09-16T11:08:25Z</time>
      </trkpt>
      <trkpt lat="45.90638" lon="6.18308">
        <ele>1058.07</ele>
        <time>2012-09-16T11:08:31Z</time>
      </trkpt>
      <trkpt lat="45.90645" lon="6.18304">
        <ele>1059.03</ele>
        <time>2012-09-16T11:08:37Z</time>
      </trkpt>
      <trkpt lat="45.90646" lon="6.18296">
        <ele>1058.07</ele>
        <time>2012-09-16T11:08:42Z</time>
      </trkpt>
      <trkpt lat="45.90655" lon="6.18297">
        <ele>1056.63</ele>
        <time>2012-09-16T11:08:48Z</time>
      </trkpt>
      <trkpt lat="45.90659" lon="6.18298">
        <ele>1056.15</ele>
        <time>2012-09-16T11:08:54Z</time>
      </trkpt>
      <trkpt lat="45.90661" lon="6.18298">
        <ele>1055.67</ele>
        <time>2012-09-16T11:08:59Z</time>
      </trkpt>
      <trkpt lat="45.9067" lon="6.18296">
        <ele>1053.26</ele>
        <time>2012-09-16T11:09:04Z</time>
      </trkpt>
      <trkpt lat="45.90671" lon="6.18297">
        <ele>1052.3</ele>
        <time>2012-09-16T11:09:06Z</time>
      </trkpt>
      <trkpt lat="45.90674" lon="6.18295">
        <ele>1051.82</ele>
        <time>2012-09-16T11:09:11Z</time>
      </trkpt>
      <trkpt lat="45.90677" lon="6.18293">
        <ele>1051.82</ele>
        <time>2012-09-16T11:09:15Z</time>
      </trkpt>
      <trkpt lat="45.90678" lon="6.18292">
        <ele>1050.86</ele>
        <time>2012-09-16T11:09:20Z</time>
      </trkpt>
      <trkpt lat="45.90678" lon="6.18291">
        <ele>1050.86</ele>
        <time>2012-09-16T11:09:21Z</time>
      </trkpt>
      <trkpt lat="45.90681" lon="6.18288">
        <ele>1048.94</ele>
        <time>2012-09-16T11:09:27Z</time>
      </trkpt>
      <trkpt lat="45.90683" lon="6.18286">
        <ele>1047.97</ele>
        <time>2012-09-16T11:09:35Z</time>
      </trkpt>
      <trkpt lat="45.90685" lon="6.18287">
        <ele>1047.01</ele>
        <time>2012-09-16T11:09:41Z</time>
      </trkpt>
      <trkpt lat="45.90689" lon="6.18288">
        <ele>1045.09</ele>
        <time>2012-09-16T11:09:47Z</time>
      </trkpt>
      <trkpt lat="45.90691" lon="6.18288">
        <ele>1044.13</ele>
        <time>2012-09-16T11:09:51Z</time>
      </trkpt>
      <trkpt lat="45.90696" lon="6.1829">
        <ele>1042.69</ele>
        <time>2012-09-16T11:09:57Z</time>
      </trkpt>
      <trkpt lat="45.90697" lon="6.1829">
        <ele>1040.76</ele>
        <time>2012-09-16T11:10:05Z</time>
      </trkpt>
      <trkpt lat="45.907" lon="6.18289">
        <ele>1039.32</ele>
        <time>2012-09-16T11:10:11Z</time>
      </trkpt>
      <trkpt lat="45.90704" lon="6.1829">
        <ele>1037.88</ele>
        <time>2012-09-16T11:10:19Z</time>
      </trkpt>
      <trkpt lat="45.90706" lon="6.18291">
        <ele>1037.88</ele>
        <time>2012-09-16T11:10:25Z</time>
      </trkpt>
      <trkpt lat="45.90711" lon="6.1829">
        <ele>1036.92</ele>
        <time>2012-09-16T11:10:30Z</time>
      </trkpt>
      <trkpt lat="45.90718" lon="6.18291">
        <ele>1035</ele>
        <time>2012-09-16T11:10:38Z</time>
      </trkpt>
      <trkpt lat="45.9072" lon="6.1829">
        <ele>1033.07</ele>
        <time>2012-09-16T11:10:44Z</time>
      </trkpt>
      <trkpt lat="45.90723" lon="6.18289">
        <ele>1032.59</ele>
        <time>2012-09-16T11:10:46Z</time>
      </trkpt>
      <trkpt lat="45.90732" lon="6.18285">
        <ele>1030.67</ele>
        <time>2012-09-16T11:10:53Z</time>
      </trkpt>
      <trkpt lat="45.90737" lon="6.18286">
        <ele>1029.23</ele>
        <time>2012-09-16T11:11:00Z</time>
      </trkpt>
      <trkpt lat="45.9074" lon="6.18286">
        <ele>1028.75</ele>
        <time>2012-09-16T11:11:06Z</time>
      </trkpt>
      <trkpt lat="45.90744" lon="6.18284">
        <ele>1026.83</ele>
        <time>2012-09-16T11:11:10Z</time>
      </trkpt>
      <trkpt lat="45.9075" lon="6.18275">
        <ele>1022.02</ele>
        <time>2012-09-16T11:11:16Z</time>
      </trkpt>
      <trkpt lat="45.90754" lon="6.18275">
        <ele>1021.54</ele>
        <time>2012-09-16T11:11:21Z</time>
      </trkpt>
      <trkpt lat="45.90757" lon="6.18268">
        <ele>1018.65</ele>
        <time>2012-09-16T11:11:26Z</time>
      </trkpt>
      <trkpt lat="45.90761" lon="6.18265">
        <ele>1016.25</ele>
        <time>2012-09-16T11:11:31Z</time>
      </trkpt>
      <trkpt lat="45.90764" lon="6.18262">
        <ele>1012.89</ele>
        <time>2012-09-16T11:11:35Z</time>
      </trkpt>
      <trkpt lat="45.90766" lon="6.18254">
        <ele>1008.56</ele>
        <time>2012-09-16T11:11:41Z</time>
      </trkpt>
      <trkpt lat="45.90766" lon="6.18251">
        <ele>1007.12</ele>
        <time>2012-09-16T11:11:43Z</time>
      </trkpt>
      <trkpt lat="45.90764" lon="6.18242">
        <ele>1003.75</ele>
        <time>2012-09-16T11:11:50Z</time>
      </trkpt>
      <trkpt lat="45.90764" lon="6.18237">
        <ele>1002.31</ele>
        <time>2012-09-16T11:11:54Z</time>
      </trkpt>
      <trkpt lat="45.90759" lon="6.18227">
        <ele>999.91</ele>
        <time>2012-09-16T11:12:02Z</time>
      </trkpt>
      <trkpt lat="45.90757" lon="6.18223">
        <ele>998.95</ele>
        <time>2012-09-16T11:12:07Z</time>
      </trkpt>
      <trkpt lat="45.90756" lon="6.18217">
        <ele>999.43</ele>
        <time>2012-09-16T11:12:12Z</time>
      </trkpt>
      <trkpt lat="45.90755" lon="6.18209">
        <ele>999.91</ele>
        <time>2012-09-16T11:12:17Z</time>
      </trkpt>
      <trkpt lat="45.90755" lon="6.18204">
        <ele>999.91</ele>
        <time>2012-09-16T11:12:23Z</time>
      </trkpt>
      <trkpt lat="45.90751" lon="6.18197">
        <ele>999.91</ele>
        <time>2012-09-16T11:12:28Z</time>
      </trkpt>
      <trkpt lat="45.90751" lon="6.18189">
        <ele>1000.87</ele>
        <time>2012-09-16T11:12:34Z</time>
      </trkpt>
      <trkpt lat="45.90752" lon="6.18182">
        <ele>1001.83</ele>
        <time>2012-09-16T11:12:39Z</time>
      </trkpt>
      <trkpt lat="45.90752" lon="6.18177">
        <ele>1002.31</ele>
        <time>2012-09-16T11:12:43Z</time>
      </trkpt>
      <trkpt lat="45.90755" lon="6.18171">
        <ele>1002.79</ele>
        <time>2012-09-16T11:12:48Z</time>
      </trkpt>
      <trkpt lat="45.90757" lon="6.18157">
        <ele>1004.72</ele>
        <time>2012-09-16T11:12:56Z</time>
      </trkpt>
      <trkpt lat="45.90757" lon="6.18149">
        <ele>1006.64</ele>
        <time>2012-09-16T11:13:02Z</time>
      </trkpt>
      <trkpt lat="45.90758" lon="6.18145">
        <ele>1010</ele>
        <time>2012-09-16T11:13:11Z</time>
      </trkpt>
      <trkpt lat="45.90757" lon="6.18144">
        <ele>1010.48</ele>
        <time>2012-09-16T11:13:13Z</time>
      </trkpt>
      <trkpt lat="45.90757" lon="6.18137">
        <ele>1011.44</ele>
        <time>2012-09-16T11:13:18Z</time>
      </trkpt>
      <trkpt lat="45.90758" lon="6.18133">
        <ele>1012.89</ele>
        <time>2012-09-16T11:13:23Z</time>
      </trkpt>
      <trkpt lat="45.90758" lon="6.18131">
        <ele>1013.37</ele>
        <time>2012-09-16T11:13:25Z</time>
      </trkpt>
      <trkpt lat="45.9076" lon="6.18121">
        <ele>1014.33</ele>
        <time>2012-09-16T11:13:32Z</time>
      </trkpt>
      <trkpt lat="45.90762" lon="6.18111">
        <ele>1015.29</ele>
        <time>2012-09-16T11:13:36Z</time>
      </trkpt>
      <trkpt lat="45.90764" lon="6.18105">
        <ele>1017.69</ele>
        <time>2012-09-16T11:13:42Z</time>
      </trkpt>
      <trkpt lat="45.90764" lon="6.18097">
        <ele>1018.17</ele>
        <time>2012-09-16T11:13:48Z</time>
      </trkpt>
      <trkpt lat="45.90764" lon="6.18094">
        <ele>1018.17</ele>
        <time>2012-09-16T11:13:50Z</time>
      </trkpt>
      <trkpt lat="45.90762" lon="6.18085">
        <ele>1019.62</ele>
        <time>2012-09-16T11:13:56Z</time>
      </trkpt>
      <trkpt lat="45.90761" lon="6.18077">
        <ele>1021.06</ele>
        <time>2012-09-16T11:14:00Z</time>
      </trkpt>
      <trkpt lat="45.90761" lon="6.18074">
        <ele>1021.54</ele>
        <time>2012-09-16T11:14:03Z</time>
      </trkpt>
      <trkpt lat="45.9076" lon="6.1807">
        <ele>1022.02</ele>
        <time>2012-09-16T11:14:07Z</time>
      </trkpt>
      <trkpt lat="45.9076" lon="6.18067">
        <ele>1022.5</ele>
        <time>2012-09-16T11:14:11Z</time>
      </trkpt>
      <trkpt lat="45.90764" lon="6.18064">
        <ele>1022.5</ele>
        <time>2012-09-16T11:14:17Z</time>
      </trkpt>
      <trkpt lat="45.90764" lon="6.18064">
        <ele>1022.02</ele>
        <time>2012-09-16T11:14:18Z</time>
      </trkpt>
      <trkpt lat="45.90766" lon="6.18061">
        <ele>1021.54</ele>
        <time>2012-09-16T11:14:23Z</time>
      </trkpt>
      <trkpt lat="45.90767" lon="6.18056">
        <ele>1020.58</ele>
        <time>2012-09-16T11:14:29Z</time>
      </trkpt>
      <trkpt lat="45.90767" lon="6.18056">
        <ele>1020.58</ele>
        <time>2012-09-16T11:14:30Z</time>
      </trkpt>
      <trkpt lat="45.90773" lon="6.18051">
        <ele>1018.65</ele>
        <time>2012-09-16T11:14:37Z</time>
      </trkpt>
      <trkpt lat="45.90775" lon="6.18048">
        <ele>1017.21</ele>
        <time>2012-09-16T11:14:44Z</time>
      </trkpt>
      <trkpt lat="45.90776" lon="6.18046">
        <ele>1017.21</ele>
        <time>2012-09-16T11:14:46Z</time>
      </trkpt>
      <trkpt lat="45.90778" lon="6.18045">
        <ele>1016.73</ele>
        <time>2012-09-16T11:14:50Z</time>
      </trkpt>
      <trkpt lat="45.90781" lon="6.18039">
        <ele>1015.29</ele>
        <time>2012-09-16T11:14:56Z</time>
      </trkpt>
      <trkpt lat="45.90785" lon="6.18035">
        <ele>1014.33</ele>
        <time>2012-09-16T11:15:00Z</time>
      </trkpt>
      <trkpt lat="45.90792" lon="6.18028">
        <ele>1012.89</ele>
        <time>2012-09-16T11:15:07Z</time>
      </trkpt>
      <trkpt lat="45.90795" lon="6.18022">
        <ele>1012.89</ele>
        <time>2012-09-16T11:15:13Z</time>
      </trkpt>
      <trkpt lat="45.90794" lon="6.18015">
        <ele>1012.89</ele>
        <time>2012-09-16T11:15:19Z</time>
      </trkpt>
      <trkpt lat="45.90792" lon="6.18007">
        <ele>1012.89</ele>
        <time>2012-09-16T11:15:24Z</time>
      </trkpt>
      <trkpt lat="45.90789" lon="6.17999">
        <ele>1013.37</ele>
        <time>2012-09-16T11:15:31Z</time>
      </trkpt>
      <trkpt lat="45.90786" lon="6.17995">
        <ele>1013.37</ele>
        <time>2012-09-16T11:15:36Z</time>
      </trkpt>
      <trkpt lat="45.90787" lon="6.17992">
        <ele>1013.85</ele>
        <time>2012-09-16T11:15:38Z</time>
      </trkpt>
      <trkpt lat="45.90789" lon="6.17985">
        <ele>1014.81</ele>
        <time>2012-09-16T11:15:45Z</time>
      </trkpt>
      <trkpt lat="45.90788" lon="6.17983">
        <ele>1014.81</ele>
        <time>2012-09-16T11:15:46Z</time>
      </trkpt>
      <trkpt lat="45.90788" lon="6.17976">
        <ele>1014.33</ele>
        <time>2012-09-16T11:15:52Z</time>
      </trkpt>
      <trkpt lat="45.90789" lon="6.17973">
        <ele>1013.37</ele>
        <time>2012-09-16T11:15:55Z</time>
      </trkpt>
      <trkpt lat="45.90791" lon="6.17967">
        <ele>1013.37</ele>
        <time>2012-09-16T11:16:00Z</time>
      </trkpt>
      <trkpt lat="45.90792" lon="6.17965">
        <ele>1013.85</ele>
        <time>2012-09-16T11:16:03Z</time>
      </trkpt>
      <trkpt lat="45.90791" lon="6.17959">
        <ele>1013.37</ele>
        <time>2012-09-16T11:16:08Z</time>
      </trkpt>
      <trkpt lat="45.90788" lon="6.1795">
        <ele>1013.37</ele>
        <time>2012-09-16T11:16:13Z</time>
      </trkpt>
      <trkpt lat="45.90787" lon="6.17943">
        <ele>1012.89</ele>
        <time>2012-09-16T11:16:19Z</time>
      </trkpt>
      <trkpt lat="45.90786" lon="6.17941">
        <ele>1012.89</ele>
        <time>2012-09-16T11:16:20Z</time>
      </trkpt>
      <trkpt lat="45.90787" lon="6.17932">
        <ele>1012.89</ele>
        <time>2012-09-16T11:16:26Z</time>
      </trkpt>
      <trkpt lat="45.90786" lon="6.17925">
        <ele>1013.37</ele>
        <time>2012-09-16T11:16:32Z</time>
      </trkpt>
      <trkpt lat="45.90785" lon="6.17924">
        <ele>1013.85</ele>
        <time>2012-09-16T11:16:35Z</time>
      </trkpt>
      <trkpt lat="45.90786" lon="6.17922">
        <ele>1013.85</ele>
        <time>2012-09-16T11:16:40Z</time>
      </trkpt>
      <trkpt lat="45.90786" lon="6.17921">
        <ele>1013.85</ele>
        <time>2012-09-16T11:16:47Z</time>
      </trkpt>
      <trkpt lat="45.90787" lon="6.1792">
        <ele>1013.37</ele>
        <time>2012-09-16T11:16:51Z</time>
      </trkpt>
      <trkpt lat="45.90787" lon="6.17917">
        <ele>1011.93</ele>
        <time>2012-09-16T11:16:57Z</time>
      </trkpt>
      <trkpt lat="45.90787" lon="6.17916">
        <ele>1010.96</ele>
        <time>2012-09-16T11:16:58Z</time>
      </trkpt>
      <trkpt lat="45.90784" lon="6.1791">
        <ele>1009.52</ele>
        <time>2012-09-16T11:17:03Z</time>
      </trkpt>
      <trkpt lat="45.90783" lon="6.17907">
        <ele>1009.04</ele>
        <time>2012-09-16T11:17:10Z</time>
      </trkpt>
      <trkpt lat="45.90782" lon="6.17903">
        <ele>1008.08</ele>
        <time>2012-09-16T11:17:14Z</time>
      </trkpt>
      <trkpt lat="45.90782" lon="6.17903">
        <ele>1008.08</ele>
        <time>2012-09-16T11:17:15Z</time>
      </trkpt>
      <trkpt lat="45.90783" lon="6.17891">
        <ele>1005.68</ele>
        <time>2012-09-16T11:17:22Z</time>
      </trkpt>
      <trkpt lat="45.90785" lon="6.17892">
        <ele>1003.27</ele>
        <time>2012-09-16T11:17:27Z</time>
      </trkpt>
      <trkpt lat="45.90788" lon="6.1789">
        <ele>1001.83</ele>
        <time>2012-09-16T11:17:33Z</time>
      </trkpt>
      <trkpt lat="45.90789" lon="6.17887">
        <ele>1000.87</ele>
        <time>2012-09-16T11:17:39Z</time>
      </trkpt>
      <trkpt lat="45.90789" lon="6.17886">
        <ele>1000.87</ele>
        <time>2012-09-16T11:17:40Z</time>
      </trkpt>
      <trkpt lat="45.90788" lon="6.1788">
        <ele>1000.39</ele>
        <time>2012-09-16T11:17:44Z</time>
      </trkpt>
      <trkpt lat="45.90787" lon="6.17878">
        <ele>999.91</ele>
        <time>2012-09-16T11:17:47Z</time>
      </trkpt>
      <trkpt lat="45.90788" lon="6.17871">
        <ele>1000.39</ele>
        <time>2012-09-16T11:17:53Z</time>
      </trkpt>
      <trkpt lat="45.90793" lon="6.17866">
        <ele>1001.83</ele>
        <time>2012-09-16T11:17:59Z</time>
      </trkpt>
      <trkpt lat="45.90794" lon="6.17864">
        <ele>1002.31</ele>
        <time>2012-09-16T11:18:05Z</time>
      </trkpt>
      <trkpt lat="45.90795" lon="6.17861">
        <ele>1002.31</ele>
        <time>2012-09-16T11:18:11Z</time>
      </trkpt>
      <trkpt lat="45.90796" lon="6.17861">
        <ele>1002.31</ele>
        <time>2012-09-16T11:18:12Z</time>
      </trkpt>
      <trkpt lat="45.90799" lon="6.17858">
        <ele>1000.87</ele>
        <time>2012-09-16T11:18:18Z</time>
      </trkpt>
      <trkpt lat="45.90799" lon="6.17855">
        <ele>999.91</ele>
        <time>2012-09-16T11:18:26Z</time>
      </trkpt>
      <trkpt lat="45.90801" lon="6.17854">
        <ele>999.43</ele>
        <time>2012-09-16T11:18:31Z</time>
      </trkpt>
      <trkpt lat="45.90806" lon="6.17853">
        <ele>998.47</ele>
        <time>2012-09-16T11:18:36Z</time>
      </trkpt>
      <trkpt lat="45.90806" lon="6.1785">
        <ele>997.02</ele>
        <time>2012-09-16T11:18:43Z</time>
      </trkpt>
      <trkpt lat="45.90808" lon="6.17847">
        <ele>996.06</ele>
        <time>2012-09-16T11:18:46Z</time>
      </trkpt>
      <trkpt lat="45.90809" lon="6.17843">
        <ele>992.7</ele>
        <time>2012-09-16T11:18:52Z</time>
      </trkpt>
      <trkpt lat="45.9081" lon="6.17841">
        <ele>992.7</ele>
        <time>2012-09-16T11:18:59Z</time>
      </trkpt>
      <trkpt lat="45.9081" lon="6.17839">
        <ele>992.7</ele>
        <time>2012-09-16T11:19:05Z</time>
      </trkpt>
      <trkpt lat="45.90812" lon="6.17837">
        <ele>991.74</ele>
        <time>2012-09-16T11:19:12Z</time>
      </trkpt>
      <trkpt lat="45.90812" lon="6.17837">
        <ele>990.78</ele>
        <time>2012-09-16T11:19:20Z</time>
      </trkpt>
      <trkpt lat="45.90813" lon="6.17834">
        <ele>990.3</ele>
        <time>2012-09-16T11:19:27Z</time>
      </trkpt>
      <trkpt lat="45.90813" lon="6.17831">
        <ele>990.78</ele>
        <time>2012-09-16T11:19:32Z</time>
      </trkpt>
      <trkpt lat="45.90814" lon="6.17826">
        <ele>990.78</ele>
        <time>2012-09-16T11:19:38Z</time>
      </trkpt>
      <trkpt lat="45.90814" lon="6.17825">
        <ele>990.78</ele>
        <time>2012-09-16T11:19:41Z</time>
      </trkpt>
      <trkpt lat="45.90816" lon="6.17822">
        <ele>990.78</ele>
        <time>2012-09-16T11:19:46Z</time>
      </trkpt>
      <trkpt lat="45.90817" lon="6.17823">
        <ele>990.78</ele>
        <time>2012-09-16T11:19:48Z</time>
      </trkpt>
      <trkpt lat="45.9082" lon="6.1782">
        <ele>989.33</ele>
        <time>2012-09-16T11:19:53Z</time>
      </trkpt>
      <trkpt lat="45.90821" lon="6.17818">
        <ele>988.85</ele>
        <time>2012-09-16T11:19:56Z</time>
      </trkpt>
      <trkpt lat="45.90816" lon="6.17809">
        <ele>986.45</ele>
        <time>2012-09-16T11:20:02Z</time>
      </trkpt>
      <trkpt lat="45.90812" lon="6.17803">
        <ele>984.53</ele>
        <time>2012-09-16T11:20:08Z</time>
      </trkpt>
      <trkpt lat="45.90813" lon="6.17802">
        <ele>984.53</ele>
        <time>2012-09-16T11:20:14Z</time>
      </trkpt>
      <trkpt lat="45.90813" lon="6.17801">
        <ele>984.05</ele>
        <time>2012-09-16T11:20:22Z</time>
      </trkpt>
      <trkpt lat="45.90814" lon="6.17798">
        <ele>984.05</ele>
        <time>2012-09-16T11:20:28Z</time>
      </trkpt>
      <trkpt lat="45.90813" lon="6.17794">
        <ele>984.05</ele>
        <time>2012-09-16T11:20:37Z</time>
      </trkpt>
      <trkpt lat="45.90814" lon="6.17791">
        <ele>983.57</ele>
        <time>2012-09-16T11:20:44Z</time>
      </trkpt>
      <trkpt lat="45.90814" lon="6.17787">
        <ele>984.05</ele>
        <time>2012-09-16T11:20:50Z</time>
      </trkpt>
      <trkpt lat="45.90814" lon="6.17782">
        <ele>983.09</ele>
        <time>2012-09-16T11:20:56Z</time>
      </trkpt>
      <trkpt lat="45.90814" lon="6.17773">
        <ele>981.64</ele>
        <time>2012-09-16T11:21:03Z</time>
      </trkpt>
      <trkpt lat="45.90814" lon="6.1777">
        <ele>980.68</ele>
        <time>2012-09-16T11:21:18Z</time>
      </trkpt>
      <trkpt lat="45.90815" lon="6.17766">
        <ele>980.68</ele>
        <time>2012-09-16T11:21:25Z</time>
      </trkpt>
      <trkpt lat="45.90815" lon="6.17765">
        <ele>980.68</ele>
        <time>2012-09-16T11:21:26Z</time>
      </trkpt>
      <trkpt lat="45.90818" lon="6.17757">
        <ele>980.68</ele>
        <time>2012-09-16T11:21:31Z</time>
      </trkpt>
      <trkpt lat="45.90817" lon="6.17754">
        <ele>980.2</ele>
        <time>2012-09-16T11:21:37Z</time>
      </trkpt>
      <trkpt lat="45.90819" lon="6.17751">
        <ele>979.24</ele>
        <time>2012-09-16T11:21:43Z</time>
      </trkpt>
      <trkpt lat="45.90819" lon="6.1775">
        <ele>978.76</ele>
        <time>2012-09-16T11:21:45Z</time>
      </trkpt>
      <trkpt lat="45.90819" lon="6.17747">
        <ele>977.8</ele>
        <time>2012-09-16T11:21:51Z</time>
      </trkpt>
      <trkpt lat="45.90821" lon="6.17746">
        <ele>976.84</ele>
        <time>2012-09-16T11:21:55Z</time>
      </trkpt>
      <trkpt lat="45.90823" lon="6.1774">
        <ele>973.95</ele>
        <time>2012-09-16T11:22:02Z</time>
      </trkpt>
      <trkpt lat="45.90825" lon="6.17734">
        <ele>972.99</ele>
        <time>2012-09-16T11:22:09Z</time>
      </trkpt>
      <trkpt lat="45.90824" lon="6.17731">
        <ele>972.03</ele>
        <time>2012-09-16T11:22:15Z</time>
      </trkpt>
      <trkpt lat="45.90825" lon="6.17728">
        <ele>972.03</ele>
        <time>2012-09-16T11:22:23Z</time>
      </trkpt>
      <trkpt lat="45.90825" lon="6.17726">
        <ele>972.03</ele>
        <time>2012-09-16T11:22:30Z</time>
      </trkpt>
      <trkpt lat="45.90829" lon="6.17721">
        <ele>972.03</ele>
        <time>2012-09-16T11:22:37Z</time>
      </trkpt>
      <trkpt lat="45.90833" lon="6.17712">
        <ele>972.03</ele>
        <time>2012-09-16T11:22:43Z</time>
      </trkpt>
      <trkpt lat="45.90838" lon="6.17702">
        <ele>971.07</ele>
        <time>2012-09-16T11:22:50Z</time>
      </trkpt>
      <trkpt lat="45.90848" lon="6.17706">
        <ele>966.74</ele>
        <time>2012-09-16T11:23:00Z</time>
      </trkpt>
      <trkpt lat="45.90849" lon="6.17706">
        <ele>963.38</ele>
        <time>2012-09-16T11:23:07Z</time>
      </trkpt>
      <trkpt lat="45.90852" lon="6.17704">
        <ele>961.94</ele>
        <time>2012-09-16T11:23:16Z</time>
      </trkpt>
      <trkpt lat="45.90853" lon="6.17703">
        <ele>960.49</ele>
        <time>2012-09-16T11:23:25Z</time>
      </trkpt>
      <trkpt lat="45.90854" lon="6.17703">
        <ele>959.53</ele>
        <time>2012-09-16T11:23:28Z</time>
      </trkpt>
      <trkpt lat="45.90858" lon="6.17706">
        <ele>957.61</ele>
        <time>2012-09-16T11:23:35Z</time>
      </trkpt>
      <trkpt lat="45.90864" lon="6.17712">
        <ele>954.73</ele>
        <time>2012-09-16T11:23:41Z</time>
      </trkpt>
      <trkpt lat="45.90868" lon="6.17707">
        <ele>949.44</ele>
        <time>2012-09-16T11:23:50Z</time>
      </trkpt>
      <trkpt lat="45.90871" lon="6.1771">
        <ele>948</ele>
        <time>2012-09-16T11:23:57Z</time>
      </trkpt>
      <trkpt lat="45.90871" lon="6.17709">
        <ele>945.59</ele>
        <time>2012-09-16T11:24:06Z</time>
      </trkpt>
      <trkpt lat="45.90873" lon="6.17711">
        <ele>943.19</ele>
        <time>2012-09-16T11:24:12Z</time>
      </trkpt>
      <trkpt lat="45.90876" lon="6.17715">
        <ele>940.79</ele>
        <time>2012-09-16T11:24:17Z</time>
      </trkpt>
      <trkpt lat="45.90877" lon="6.17714">
        <ele>937.9</ele>
        <time>2012-09-16T11:24:23Z</time>
      </trkpt>
      <trkpt lat="45.90877" lon="6.17713">
        <ele>937.9</ele>
        <time>2012-09-16T11:24:25Z</time>
      </trkpt>
      <trkpt lat="45.90878" lon="6.17706">
        <ele>934.06</ele>
        <time>2012-09-16T11:24:32Z</time>
      </trkpt>
      <trkpt lat="45.9088" lon="6.17704">
        <ele>932.14</ele>
        <time>2012-09-16T11:24:37Z</time>
      </trkpt>
      <trkpt lat="45.90886" lon="6.17696">
        <ele>928.29</ele>
        <time>2012-09-16T11:24:42Z</time>
      </trkpt>
      <trkpt lat="45.90892" lon="6.1769">
        <ele>927.81</ele>
        <time>2012-09-16T11:24:47Z</time>
      </trkpt>
      <trkpt lat="45.90894" lon="6.17686">
        <ele>927.81</ele>
        <time>2012-09-16T11:24:49Z</time>
      </trkpt>
      <trkpt lat="45.90899" lon="6.17676">
        <ele>926.37</ele>
        <time>2012-09-16T11:24:55Z</time>
      </trkpt>
      <trkpt lat="45.90899" lon="6.17675">
        <ele>926.37</ele>
        <time>2012-09-16T11:24:58Z</time>
      </trkpt>
      <trkpt lat="45.90903" lon="6.17661">
        <ele>928.29</ele>
        <time>2012-09-16T11:25:04Z</time>
      </trkpt>
      <trkpt lat="45.90904" lon="6.17659">
        <ele>929.25</ele>
        <time>2012-09-16T11:25:06Z</time>
      </trkpt>
      <trkpt lat="45.90904" lon="6.17644">
        <ele>929.73</ele>
        <time>2012-09-16T11:25:11Z</time>
      </trkpt>
      <trkpt lat="45.90904" lon="6.17642">
        <ele>930.21</ele>
        <time>2012-09-16T11:25:13Z</time>
      </trkpt>
      <trkpt lat="45.90909" lon="6.17643">
        <ele>930.21</ele>
        <time>2012-09-16T11:25:17Z</time>
      </trkpt>
      <trkpt lat="45.90909" lon="6.17639">
        <ele>930.21</ele>
        <time>2012-09-16T11:25:19Z</time>
      </trkpt>
      <trkpt lat="45.90907" lon="6.17627">
        <ele>933.1</ele>
        <time>2012-09-16T11:25:26Z</time>
      </trkpt>
      <trkpt lat="45.90908" lon="6.17626">
        <ele>933.58</ele>
        <time>2012-09-16T11:25:27Z</time>
      </trkpt>
      <trkpt lat="45.90906" lon="6.17614">
        <ele>935.98</ele>
        <time>2012-09-16T11:25:33Z</time>
      </trkpt>
      <trkpt lat="45.90905" lon="6.17608">
        <ele>936.94</ele>
        <time>2012-09-16T11:25:37Z</time>
      </trkpt>
      <trkpt lat="45.90904" lon="6.17598">
        <ele>938.86</ele>
        <time>2012-09-16T11:25:42Z</time>
      </trkpt>
      <trkpt lat="45.90904" lon="6.17589">
        <ele>938.86</ele>
        <time>2012-09-16T11:25:50Z</time>
      </trkpt>
      <trkpt lat="45.90903" lon="6.17588">
        <ele>938.86</ele>
        <time>2012-09-16T11:25:52Z</time>
      </trkpt>
      <trkpt lat="45.90903" lon="6.17584">
        <ele>938.86</ele>
        <time>2012-09-16T11:25:54Z</time>
      </trkpt>
      <trkpt lat="45.90898" lon="6.17573">
        <ele>937.9</ele>
        <time>2012-09-16T11:25:59Z</time>
      </trkpt>
      <trkpt lat="45.90897" lon="6.17572">
        <ele>937.9</ele>
        <time>2012-09-16T11:26:00Z</time>
      </trkpt>
      <trkpt lat="45.90897" lon="6.17568">
        <ele>937.9</ele>
        <time>2012-09-16T11:26:04Z</time>
      </trkpt>
      <trkpt lat="45.90893" lon="6.17562">
        <ele>936.94</ele>
        <time>2012-09-16T11:26:09Z</time>
      </trkpt>
      <trkpt lat="45.90895" lon="6.17561">
        <ele>936.46</ele>
        <time>2012-09-16T11:26:11Z</time>
      </trkpt>
      <trkpt lat="45.90895" lon="6.17558">
        <ele>936.46</ele>
        <time>2012-09-16T11:26:13Z</time>
      </trkpt>
      <trkpt lat="45.90888" lon="6.17553">
        <ele>936.46</ele>
        <time>2012-09-16T11:26:18Z</time>
      </trkpt>
      <trkpt lat="45.90886" lon="6.1755">
        <ele>935.98</ele>
        <time>2012-09-16T11:26:20Z</time>
      </trkpt>
      <trkpt lat="45.90886" lon="6.17535">
        <ele>935.02</ele>
        <time>2012-09-16T11:26:25Z</time>
      </trkpt>
      <trkpt lat="45.90884" lon="6.17528">
        <ele>934.54</ele>
        <time>2012-09-16T11:26:31Z</time>
      </trkpt>
      <trkpt lat="45.90882" lon="6.17515">
        <ele>934.54</ele>
        <time>2012-09-16T11:26:37Z</time>
      </trkpt>
      <trkpt lat="45.90882" lon="6.17515">
        <ele>934.54</ele>
        <time>2012-09-16T11:26:38Z</time>
      </trkpt>
      <trkpt lat="45.90884" lon="6.175">
        <ele>935.02</ele>
        <time>2012-09-16T11:26:44Z</time>
      </trkpt>
      <trkpt lat="45.90888" lon="6.17492">
        <ele>935.5</ele>
        <time>2012-09-16T11:26:49Z</time>
      </trkpt>
      <trkpt lat="45.90889" lon="6.1749">
        <ele>935.5</ele>
        <time>2012-09-16T11:26:50Z</time>
      </trkpt>
      <trkpt lat="45.9089" lon="6.17486">
        <ele>935.5</ele>
        <time>2012-09-16T11:26:55Z</time>
      </trkpt>
      <trkpt lat="45.90892" lon="6.17478">
        <ele>935.02</ele>
        <time>2012-09-16T11:26:59Z</time>
      </trkpt>
      <trkpt lat="45.90892" lon="6.17477">
        <ele>935.02</ele>
        <time>2012-09-16T11:27:00Z</time>
      </trkpt>
      <trkpt lat="45.90894" lon="6.17478">
        <ele>934.54</ele>
        <time>2012-09-16T11:27:02Z</time>
      </trkpt>
      <trkpt lat="45.90888" lon="6.17465">
        <ele>934.54</ele>
        <time>2012-09-16T11:27:08Z</time>
      </trkpt>
      <trkpt lat="45.9089" lon="6.17466">
        <ele>934.06</ele>
        <time>2012-09-16T11:27:11Z</time>
      </trkpt>
      <trkpt lat="45.90891" lon="6.17464">
        <ele>934.06</ele>
        <time>2012-09-16T11:27:15Z</time>
      </trkpt>
      <trkpt lat="45.90887" lon="6.17454">
        <ele>931.17</ele>
        <time>2012-09-16T11:27:21Z</time>
      </trkpt>
      <trkpt lat="45.90882" lon="6.17441">
        <ele>929.25</ele>
        <time>2012-09-16T11:27:28Z</time>
      </trkpt>
      <trkpt lat="45.90875" lon="6.17428">
        <ele>927.81</ele>
        <time>2012-09-16T11:27:35Z</time>
      </trkpt>
      <trkpt lat="45.90872" lon="6.1742">
        <ele>925.89</ele>
        <time>2012-09-16T11:27:42Z</time>
      </trkpt>
      <trkpt lat="45.90868" lon="6.17408">
        <ele>925.41</ele>
        <time>2012-09-16T11:27:50Z</time>
      </trkpt>
      <trkpt lat="45.90865" lon="6.17399">
        <ele>925.41</ele>
        <time>2012-09-16T11:27:56Z</time>
      </trkpt>
      <trkpt lat="45.90864" lon="6.17396">
        <ele>926.37</ele>
        <time>2012-09-16T11:28:00Z</time>
      </trkpt>
      <trkpt lat="45.9086" lon="6.17384">
        <ele>927.81</ele>
        <time>2012-09-16T11:28:06Z</time>
      </trkpt>
      <trkpt lat="45.90857" lon="6.17378">
        <ele>929.25</ele>
        <time>2012-09-16T11:28:12Z</time>
      </trkpt>
      <trkpt lat="45.90851" lon="6.17369">
        <ele>930.69</ele>
        <time>2012-09-16T11:28:18Z</time>
      </trkpt>
      <trkpt lat="45.90847" lon="6.17364">
        <ele>929.73</ele>
        <time>2012-09-16T11:28:25Z</time>
      </trkpt>
      <trkpt lat="45.90844" lon="6.17359">
        <ele>928.77</ele>
        <time>2012-09-16T11:28:30Z</time>
      </trkpt>
      <trkpt lat="45.90844" lon="6.17358">
        <ele>928.29</ele>
        <time>2012-09-16T11:28:31Z</time>
      </trkpt>
      <trkpt lat="45.90842" lon="6.17344">
        <ele>927.33</ele>
        <time>2012-09-16T11:28:36Z</time>
      </trkpt>
      <trkpt lat="45.90843" lon="6.17337">
        <ele>926.37</ele>
        <time>2012-09-16T11:28:39Z</time>
      </trkpt>
      <trkpt lat="45.90844" lon="6.17334">
        <ele>925.89</ele>
        <time>2012-09-16T11:28:41Z</time>
      </trkpt>
      <trkpt lat="45.90839" lon="6.1732">
        <ele>925.41</ele>
        <time>2012-09-16T11:28:49Z</time>
      </trkpt>
      <trkpt lat="45.90839" lon="6.17319">
        <ele>925.41</ele>
        <time>2012-09-16T11:28:52Z</time>
      </trkpt>
      <trkpt lat="45.90837" lon="6.17309">
        <ele>924.93</ele>
        <time>2012-09-16T11:28:58Z</time>
      </trkpt>
      <trkpt lat="45.90837" lon="6.17307">
        <ele>924.93</ele>
        <time>2012-09-16T11:28:59Z</time>
      </trkpt>
      <trkpt lat="45.90832" lon="6.17289">
        <ele>924.93</ele>
        <time>2012-09-16T11:29:05Z</time>
      </trkpt>
      <trkpt lat="45.90831" lon="6.17274">
        <ele>925.41</ele>
        <time>2012-09-16T11:29:13Z</time>
      </trkpt>
      <trkpt lat="45.9083" lon="6.17267">
        <ele>925.41</ele>
        <time>2012-09-16T11:29:17Z</time>
      </trkpt>
      <trkpt lat="45.9083" lon="6.17257">
        <ele>925.89</ele>
        <time>2012-09-16T11:29:24Z</time>
      </trkpt>
      <trkpt lat="45.90829" lon="6.17249">
        <ele>926.85</ele>
        <time>2012-09-16T11:29:28Z</time>
      </trkpt>
      <trkpt lat="45.90828" lon="6.17249">
        <ele>926.85</ele>
        <time>2012-09-16T11:29:32Z</time>
      </trkpt>
      <trkpt lat="45.90821" lon="6.17242">
        <ele>927.33</ele>
        <time>2012-09-16T11:29:37Z</time>
      </trkpt>
      <trkpt lat="45.90821" lon="6.17241">
        <ele>927.33</ele>
        <time>2012-09-16T11:29:39Z</time>
      </trkpt>
      <trkpt lat="45.90821" lon="6.17234">
        <ele>926.85</ele>
        <time>2012-09-16T11:29:44Z</time>
      </trkpt>
      <trkpt lat="45.90818" lon="6.17225">
        <ele>926.85</ele>
        <time>2012-09-16T11:29:48Z</time>
      </trkpt>
      <trkpt lat="45.90818" lon="6.17224">
        <ele>927.33</ele>
        <time>2012-09-16T11:29:51Z</time>
      </trkpt>
      <trkpt lat="45.90816" lon="6.17216">
        <ele>927.81</ele>
        <time>2012-09-16T11:29:55Z</time>
      </trkpt>
      <trkpt lat="45.90811" lon="6.17207">
        <ele>928.77</ele>
        <time>2012-09-16T11:30:01Z</time>
      </trkpt>
      <trkpt lat="45.90807" lon="6.17203">
        <ele>928.29</ele>
        <time>2012-09-16T11:30:08Z</time>
      </trkpt>
      <trkpt lat="45.90807" lon="6.17202">
        <ele>928.29</ele>
        <time>2012-09-16T11:30:09Z</time>
      </trkpt>
      <trkpt lat="45.90802" lon="6.17199">
        <ele>927.81</ele>
        <time>2012-09-16T11:30:17Z</time>
      </trkpt>
      <trkpt lat="45.90796" lon="6.17198">
        <ele>927.33</ele>
        <time>2012-09-16T11:30:21Z</time>
      </trkpt>
      <trkpt lat="45.90792" lon="6.17191">
        <ele>927.81</ele>
        <time>2012-09-16T11:30:29Z</time>
      </trkpt>
      <trkpt lat="45.90789" lon="6.17186">
        <ele>926.85</ele>
        <time>2012-09-16T11:30:39Z</time>
      </trkpt>
      <trkpt lat="45.90786" lon="6.17182">
        <ele>925.89</ele>
        <time>2012-09-16T11:30:45Z</time>
      </trkpt>
      <trkpt lat="45.90781" lon="6.17175">
        <ele>925.89</ele>
        <time>2012-09-16T11:30:50Z</time>
      </trkpt>
      <trkpt lat="45.9078" lon="6.17171">
        <ele>925.89</ele>
        <time>2012-09-16T11:30:56Z</time>
      </trkpt>
      <trkpt lat="45.90778" lon="6.17167">
        <ele>925.89</ele>
        <time>2012-09-16T11:31:03Z</time>
      </trkpt>
      <trkpt lat="45.90774" lon="6.17163">
        <ele>925.41</ele>
        <time>2012-09-16T11:31:09Z</time>
      </trkpt>
      <trkpt lat="45.90774" lon="6.17161">
        <ele>925.41</ele>
        <time>2012-09-16T11:31:12Z</time>
      </trkpt>
      <trkpt lat="45.9077" lon="6.17152">
        <ele>925.89</ele>
        <time>2012-09-16T11:31:18Z</time>
      </trkpt>
      <trkpt lat="45.90768" lon="6.17148">
        <ele>925.41</ele>
        <time>2012-09-16T11:31:23Z</time>
      </trkpt>
      <trkpt lat="45.90766" lon="6.17142">
        <ele>925.41</ele>
        <time>2012-09-16T11:31:29Z</time>
      </trkpt>
      <trkpt lat="45.90763" lon="6.17138">
        <ele>925.41</ele>
        <time>2012-09-16T11:31:36Z</time>
      </trkpt>
      <trkpt lat="45.90761" lon="6.17135">
        <ele>924.93</ele>
        <time>2012-09-16T11:31:39Z</time>
      </trkpt>
      <trkpt lat="45.90757" lon="6.17128">
        <ele>924.45</ele>
        <time>2012-09-16T11:31:45Z</time>
      </trkpt>
      <trkpt lat="45.90752" lon="6.17123">
        <ele>924.45</ele>
        <time>2012-09-16T11:31:49Z</time>
      </trkpt>
      <trkpt lat="45.90748" lon="6.17122">
        <ele>923.96</ele>
        <time>2012-09-16T11:31:55Z</time>
      </trkpt>
      <trkpt lat="45.90742" lon="6.17115">
        <ele>923.96</ele>
        <time>2012-09-16T11:31:59Z</time>
      </trkpt>
      <trkpt lat="45.90741" lon="6.17112">
        <ele>923.96</ele>
        <time>2012-09-16T11:32:03Z</time>
      </trkpt>
      <trkpt lat="45.90732" lon="6.17111">
        <ele>923</ele>
        <time>2012-09-16T11:32:09Z</time>
      </trkpt>
      <trkpt lat="45.90731" lon="6.17109">
        <ele>922.52</ele>
        <time>2012-09-16T11:32:10Z</time>
      </trkpt>
      <trkpt lat="45.90727" lon="6.17099">
        <ele>922.52</ele>
        <time>2012-09-16T11:32:16Z</time>
      </trkpt>
      <trkpt lat="45.90728" lon="6.17099">
        <ele>922.52</ele>
        <time>2012-09-16T11:32:17Z</time>
      </trkpt>
      <trkpt lat="45.90736" lon="6.17099">
        <ele>921.08</ele>
        <time>2012-09-16T11:32:23Z</time>
      </trkpt>
      <trkpt lat="45.90737" lon="6.17097">
        <ele>920.6</ele>
        <time>2012-09-16T11:32:27Z</time>
      </trkpt>
      <trkpt lat="45.90731" lon="6.1709">
        <ele>921.08</ele>
        <time>2012-09-16T11:32:34Z</time>
      </trkpt>
      <trkpt lat="45.9073" lon="6.17089">
        <ele>921.08</ele>
        <time>2012-09-16T11:32:35Z</time>
      </trkpt>
      <trkpt lat="45.90727" lon="6.17086">
        <ele>921.08</ele>
        <time>2012-09-16T11:32:38Z</time>
      </trkpt>
      <trkpt lat="45.90725" lon="6.17083">
        <ele>921.56</ele>
        <time>2012-09-16T11:32:43Z</time>
      </trkpt>
      <trkpt lat="45.90715" lon="6.17077">
        <ele>920.12</ele>
        <time>2012-09-16T11:32:49Z</time>
      </trkpt>
      <trkpt lat="45.90717" lon="6.17073">
        <ele>920.12</ele>
        <time>2012-09-16T11:32:52Z</time>
      </trkpt>
      <trkpt lat="45.90704" lon="6.17074">
        <ele>917.24</ele>
        <time>2012-09-16T11:32:57Z</time>
      </trkpt>
      <trkpt lat="45.907" lon="6.17075">
        <ele>916.27</ele>
        <time>2012-09-16T11:33:03Z</time>
      </trkpt>
      <trkpt lat="45.90697" lon="6.17074">
        <ele>914.83</ele>
        <time>2012-09-16T11:33:09Z</time>
      </trkpt>
      <trkpt lat="45.90696" lon="6.17074">
        <ele>914.35</ele>
        <time>2012-09-16T11:33:11Z</time>
      </trkpt>
      <trkpt lat="45.90698" lon="6.17072">
        <ele>913.87</ele>
        <time>2012-09-16T11:33:13Z</time>
      </trkpt>
      <trkpt lat="45.90702" lon="6.17063">
        <ele>909.54</ele>
        <time>2012-09-16T11:33:20Z</time>
      </trkpt>
      <trkpt lat="45.90703" lon="6.17062">
        <ele>908.1</ele>
        <time>2012-09-16T11:33:21Z</time>
      </trkpt>
      <trkpt lat="45.90705" lon="6.17058">
        <ele>906.66</ele>
        <time>2012-09-16T11:33:26Z</time>
      </trkpt>
      <trkpt lat="45.90708" lon="6.1706">
        <ele>906.66</ele>
        <time>2012-09-16T11:33:33Z</time>
      </trkpt>
      <trkpt lat="45.90714" lon="6.17064">
        <ele>906.66</ele>
        <time>2012-09-16T11:33:40Z</time>
      </trkpt>
      <trkpt lat="45.90714" lon="6.17063">
        <ele>906.66</ele>
        <time>2012-09-16T11:33:41Z</time>
      </trkpt>
      <trkpt lat="45.90708" lon="6.17053">
        <ele>907.14</ele>
        <time>2012-09-16T11:33:49Z</time>
      </trkpt>
      <trkpt lat="45.90708" lon="6.17053">
        <ele>905.7</ele>
        <time>2012-09-16T11:33:55Z</time>
      </trkpt>
      <trkpt lat="45.90703" lon="6.17049">
        <ele>904.26</ele>
        <time>2012-09-16T11:34:02Z</time>
      </trkpt>
      <trkpt lat="45.90702" lon="6.17049">
        <ele>903.78</ele>
        <time>2012-09-16T11:34:03Z</time>
      </trkpt>
      <trkpt lat="45.90696" lon="6.17049">
        <ele>901.85</ele>
        <time>2012-09-16T11:34:06Z</time>
      </trkpt>
      <trkpt lat="45.90692" lon="6.17051">
        <ele>900.41</ele>
        <time>2012-09-16T11:34:12Z</time>
      </trkpt>
      <trkpt lat="45.90689" lon="6.17052">
        <ele>899.93</ele>
        <time>2012-09-16T11:34:15Z</time>
      </trkpt>
      <trkpt lat="45.9069" lon="6.17051">
        <ele>898.49</ele>
        <time>2012-09-16T11:34:19Z</time>
      </trkpt>
      <trkpt lat="45.90694" lon="6.17039">
        <ele>894.64</ele>
        <time>2012-09-16T11:34:24Z</time>
      </trkpt>
      <trkpt lat="45.90696" lon="6.17035">
        <ele>891.28</ele>
        <time>2012-09-16T11:34:30Z</time>
      </trkpt>
      <trkpt lat="45.90699" lon="6.17034">
        <ele>889.84</ele>
        <time>2012-09-16T11:34:35Z</time>
      </trkpt>
      <trkpt lat="45.90703" lon="6.17036">
        <ele>889.84</ele>
        <time>2012-09-16T11:34:41Z</time>
      </trkpt>
      <trkpt lat="45.90707" lon="6.17037">
        <ele>889.84</ele>
        <time>2012-09-16T11:34:47Z</time>
      </trkpt>
      <trkpt lat="45.9071" lon="6.17036">
        <ele>889.84</ele>
        <time>2012-09-16T11:34:50Z</time>
      </trkpt>
      <trkpt lat="45.90708" lon="6.17032">
        <ele>889.36</ele>
        <time>2012-09-16T11:34:57Z</time>
      </trkpt>
      <trkpt lat="45.90706" lon="6.1703">
        <ele>888.4</ele>
        <time>2012-09-16T11:35:06Z</time>
      </trkpt>
      <trkpt lat="45.90712" lon="6.1703">
        <ele>889.36</ele>
        <time>2012-09-16T11:35:14Z</time>
      </trkpt>
      <trkpt lat="45.90719" lon="6.17029">
        <ele>890.32</ele>
        <time>2012-09-16T11:35:22Z</time>
      </trkpt>
      <trkpt lat="45.90722" lon="6.17026">
        <ele>893.2</ele>
        <time>2012-09-16T11:35:30Z</time>
      </trkpt>
      <trkpt lat="45.90722" lon="6.17018">
        <ele>892.72</ele>
        <time>2012-09-16T11:35:36Z</time>
      </trkpt>
      <trkpt lat="45.9072" lon="6.17016">
        <ele>891.28</ele>
        <time>2012-09-16T11:35:42Z</time>
      </trkpt>
      <trkpt lat="45.90715" lon="6.17011">
        <ele>890.8</ele>
        <time>2012-09-16T11:35:47Z</time>
      </trkpt>
      <trkpt lat="45.90714" lon="6.17002">
        <ele>891.28</ele>
        <time>2012-09-16T11:35:53Z</time>
      </trkpt>
      <trkpt lat="45.9071" lon="6.17005">
        <ele>890.8</ele>
        <time>2012-09-16T11:36:03Z</time>
      </trkpt>
      <trkpt lat="45.90712" lon="6.17003">
        <ele>889.36</ele>
        <time>2012-09-16T11:36:14Z</time>
      </trkpt>
      <trkpt lat="45.90711" lon="6.17001">
        <ele>889.36</ele>
        <time>2012-09-16T11:36:20Z</time>
      </trkpt>
      <trkpt lat="45.90712" lon="6.16996">
        <ele>888.88</ele>
        <time>2012-09-16T11:36:28Z</time>
      </trkpt>
      <trkpt lat="45.9071" lon="6.16988">
        <ele>887.91</ele>
        <time>2012-09-16T11:36:35Z</time>
      </trkpt>
      <trkpt lat="45.90709" lon="6.16985">
        <ele>888.4</ele>
        <time>2012-09-16T11:36:37Z</time>
      </trkpt>
      <trkpt lat="45.90703" lon="6.16975">
        <ele>886.47</ele>
        <time>2012-09-16T11:36:43Z</time>
      </trkpt>
      <trkpt lat="45.90703" lon="6.16972">
        <ele>885.51</ele>
        <time>2012-09-16T11:36:50Z</time>
      </trkpt>
      <trkpt lat="45.90706" lon="6.16964">
        <ele>883.59</ele>
        <time>2012-09-16T11:36:57Z</time>
      </trkpt>
      <trkpt lat="45.90705" lon="6.16963">
        <ele>883.11</ele>
        <time>2012-09-16T11:37:03Z</time>
      </trkpt>
      <trkpt lat="45.90705" lon="6.16957">
        <ele>880.71</ele>
        <time>2012-09-16T11:37:10Z</time>
      </trkpt>
      <trkpt lat="45.90707" lon="6.16953">
        <ele>877.34</ele>
        <time>2012-09-16T11:37:17Z</time>
      </trkpt>
      <trkpt lat="45.90707" lon="6.1695">
        <ele>875.42</ele>
        <time>2012-09-16T11:37:22Z</time>
      </trkpt>
      <trkpt lat="45.90706" lon="6.16947">
        <ele>874.94</ele>
        <time>2012-09-16T11:37:29Z</time>
      </trkpt>
      <trkpt lat="45.90705" lon="6.16943">
        <ele>874.94</ele>
        <time>2012-09-16T11:37:32Z</time>
      </trkpt>
      <trkpt lat="45.90698" lon="6.16934">
        <ele>872.53</ele>
        <time>2012-09-16T11:37:40Z</time>
      </trkpt>
      <trkpt lat="45.90695" lon="6.16937">
        <ele>871.57</ele>
        <time>2012-09-16T11:37:48Z</time>
      </trkpt>
      <trkpt lat="45.90694" lon="6.16939">
        <ele>870.13</ele>
        <time>2012-09-16T11:37:54Z</time>
      </trkpt>
      <trkpt lat="45.90692" lon="6.16941">
        <ele>868.21</ele>
        <time>2012-09-16T11:37:59Z</time>
      </trkpt>
      <trkpt lat="45.90689" lon="6.1694">
        <ele>866.29</ele>
        <time>2012-09-16T11:38:04Z</time>
      </trkpt>
      <trkpt lat="45.90683" lon="6.16943">
        <ele>863.4</ele>
        <time>2012-09-16T11:38:14Z</time>
      </trkpt>
      <trkpt lat="45.90681" lon="6.16943">
        <ele>862.44</ele>
        <time>2012-09-16T11:38:20Z</time>
      </trkpt>
      <trkpt lat="45.90677" lon="6.16939">
        <ele>860.04</ele>
        <time>2012-09-16T11:38:26Z</time>
      </trkpt>
      <trkpt lat="45.90676" lon="6.16929">
        <ele>859.08</ele>
        <time>2012-09-16T11:38:33Z</time>
      </trkpt>
      <trkpt lat="45.90673" lon="6.16923">
        <ele>858.11</ele>
        <time>2012-09-16T11:38:40Z</time>
      </trkpt>
      <trkpt lat="45.90673" lon="6.16922">
        <ele>858.11</ele>
        <time>2012-09-16T11:38:41Z</time>
      </trkpt>
      <trkpt lat="45.90672" lon="6.16919">
        <ele>857.15</ele>
        <time>2012-09-16T11:38:48Z</time>
      </trkpt>
      <trkpt lat="45.90672" lon="6.16917">
        <ele>855.71</ele>
        <time>2012-09-16T11:38:55Z</time>
      </trkpt>
      <trkpt lat="45.90673" lon="6.16914">
        <ele>853.79</ele>
        <time>2012-09-16T11:39:02Z</time>
      </trkpt>
      <trkpt lat="45.90672" lon="6.16914">
        <ele>852.35</ele>
        <time>2012-09-16T11:39:13Z</time>
      </trkpt>
      <trkpt lat="45.90674" lon="6.16915">
        <ele>851.87</ele>
        <time>2012-09-16T11:39:16Z</time>
      </trkpt>
      <trkpt lat="45.90681" lon="6.16902">
        <ele>848.98</ele>
        <time>2012-09-16T11:39:22Z</time>
      </trkpt>
      <trkpt lat="45.90682" lon="6.16894">
        <ele>844.66</ele>
        <time>2012-09-16T11:39:29Z</time>
      </trkpt>
      <trkpt lat="45.90682" lon="6.16893">
        <ele>844.18</ele>
        <time>2012-09-16T11:39:30Z</time>
      </trkpt>
      <trkpt lat="45.90685" lon="6.16891">
        <ele>842.73</ele>
        <time>2012-09-16T11:39:33Z</time>
      </trkpt>
      <trkpt lat="45.90689" lon="6.16881">
        <ele>838.41</ele>
        <time>2012-09-16T11:39:40Z</time>
      </trkpt>
      <trkpt lat="45.90692" lon="6.16873">
        <ele>835.04</ele>
        <time>2012-09-16T11:39:45Z</time>
      </trkpt>
      <trkpt lat="45.90694" lon="6.16868">
        <ele>829.76</ele>
        <time>2012-09-16T11:39:51Z</time>
      </trkpt>
      <trkpt lat="45.90695" lon="6.16861">
        <ele>826.39</ele>
        <time>2012-09-16T11:39:55Z</time>
      </trkpt>
      <trkpt lat="45.90701" lon="6.16859">
        <ele>822.06</ele>
        <time>2012-09-16T11:40:01Z</time>
      </trkpt>
      <trkpt lat="45.90703" lon="6.16854">
        <ele>817.74</ele>
        <time>2012-09-16T11:40:07Z</time>
      </trkpt>
      <trkpt lat="45.90707" lon="6.16848">
        <ele>812.45</ele>
        <time>2012-09-16T11:40:13Z</time>
      </trkpt>
      <trkpt lat="45.90711" lon="6.16844">
        <ele>808.61</ele>
        <time>2012-09-16T11:40:18Z</time>
      </trkpt>
      <trkpt lat="45.90712" lon="6.16845">
        <ele>807.64</ele>
        <time>2012-09-16T11:40:20Z</time>
      </trkpt>
      <trkpt lat="45.90712" lon="6.16842">
        <ele>806.68</ele>
        <time>2012-09-16T11:40:22Z</time>
      </trkpt>
      <trkpt lat="45.90716" lon="6.16837">
        <ele>806.68</ele>
        <time>2012-09-16T11:40:27Z</time>
      </trkpt>
      <trkpt lat="45.90722" lon="6.16829">
        <ele>806.2</ele>
        <time>2012-09-16T11:40:31Z</time>
      </trkpt>
      <trkpt lat="45.90724" lon="6.16829">
        <ele>805.24</ele>
        <time>2012-09-16T11:40:35Z</time>
      </trkpt>
      <trkpt lat="45.90729" lon="6.16824">
        <ele>803.32</ele>
        <time>2012-09-16T11:40:40Z</time>
      </trkpt>
      <trkpt lat="45.90729" lon="6.16823">
        <ele>802.84</ele>
        <time>2012-09-16T11:40:43Z</time>
      </trkpt>
      <trkpt lat="45.90733" lon="6.1682">
        <ele>800.44</ele>
        <time>2012-09-16T11:40:49Z</time>
      </trkpt>
      <trkpt lat="45.9073" lon="6.16817">
        <ele>798.51</ele>
        <time>2012-09-16T11:40:53Z</time>
      </trkpt>
      <trkpt lat="45.90724" lon="6.16819">
        <ele>795.15</ele>
        <time>2012-09-16T11:40:59Z</time>
      </trkpt>
      <trkpt lat="45.90722" lon="6.16821">
        <ele>793.71</ele>
        <time>2012-09-16T11:41:03Z</time>
      </trkpt>
      <trkpt lat="45.9072" lon="6.16822">
        <ele>792.26</ele>
        <time>2012-09-16T11:41:06Z</time>
      </trkpt>
      <trkpt lat="45.90719" lon="6.1682">
        <ele>791.78</ele>
        <time>2012-09-16T11:41:08Z</time>
      </trkpt>
      <trkpt lat="45.90712" lon="6.16825">
        <ele>791.3</ele>
        <time>2012-09-16T11:41:14Z</time>
      </trkpt>
      <trkpt lat="45.90711" lon="6.16825">
        <ele>791.3</ele>
        <time>2012-09-16T11:41:16Z</time>
      </trkpt>
      <trkpt lat="45.90703" lon="6.16825">
        <ele>791.78</ele>
        <time>2012-09-16T11:41:23Z</time>
      </trkpt>
      <trkpt lat="45.90697" lon="6.16826">
        <ele>790.34</ele>
        <time>2012-09-16T11:41:29Z</time>
      </trkpt>
      <trkpt lat="45.90696" lon="6.16827">
        <ele>790.34</ele>
        <time>2012-09-16T11:41:30Z</time>
      </trkpt>
      <trkpt lat="45.90693" lon="6.1683">
        <ele>789.86</ele>
        <time>2012-09-16T11:41:35Z</time>
      </trkpt>
      <trkpt lat="45.9069" lon="6.16832">
        <ele>789.38</ele>
        <time>2012-09-16T11:41:41Z</time>
      </trkpt>
      <trkpt lat="45.90686" lon="6.16834">
        <ele>789.86</ele>
        <time>2012-09-16T11:41:45Z</time>
      </trkpt>
      <trkpt lat="45.90685" lon="6.16833">
        <ele>789.86</ele>
        <time>2012-09-16T11:41:47Z</time>
      </trkpt>
      <trkpt lat="45.90683" lon="6.16832">
        <ele>789.38</ele>
        <time>2012-09-16T11:41:49Z</time>
      </trkpt>
      <trkpt lat="45.9068" lon="6.16834">
        <ele>789.38</ele>
        <time>2012-09-16T11:41:51Z</time>
      </trkpt>
      <trkpt lat="45.90673" lon="6.16839">
        <ele>788.9</ele>
        <time>2012-09-16T11:41:58Z</time>
      </trkpt>
      <trkpt lat="45.90669" lon="6.16844">
        <ele>788.42</ele>
        <time>2012-09-16T11:42:02Z</time>
      </trkpt>
      <trkpt lat="45.90666" lon="6.16847">
        <ele>788.42</ele>
        <time>2012-09-16T11:42:07Z</time>
      </trkpt>
      <trkpt lat="45.90665" lon="6.16849">
        <ele>787.94</ele>
        <time>2012-09-16T11:42:08Z</time>
      </trkpt>
      <trkpt lat="45.90661" lon="6.16851">
        <ele>788.42</ele>
        <time>2012-09-16T11:42:14Z</time>
      </trkpt>
      <trkpt lat="45.9066" lon="6.16853">
        <ele>788.42</ele>
        <time>2012-09-16T11:42:17Z</time>
      </trkpt>
      <trkpt lat="45.90661" lon="6.1685">
        <ele>789.38</ele>
        <time>2012-09-16T11:42:21Z</time>
      </trkpt>
      <trkpt lat="45.90662" lon="6.1684">
        <ele>789.38</ele>
        <time>2012-09-16T11:42:28Z</time>
      </trkpt>
      <trkpt lat="45.90666" lon="6.16833">
        <ele>788.42</ele>
        <time>2012-09-16T11:42:34Z</time>
      </trkpt>
      <trkpt lat="45.90667" lon="6.16832">
        <ele>787.94</ele>
        <time>2012-09-16T11:42:37Z</time>
      </trkpt>
      <trkpt lat="45.90667" lon="6.16824">
        <ele>786.98</ele>
        <time>2012-09-16T11:42:40Z</time>
      </trkpt>
      <trkpt lat="45.9067" lon="6.16821">
        <ele>786.5</ele>
        <time>2012-09-16T11:42:42Z</time>
      </trkpt>
      <trkpt lat="45.90675" lon="6.16817">
        <ele>785.05</ele>
        <time>2012-09-16T11:42:49Z</time>
      </trkpt>
      <trkpt lat="45.90681" lon="6.16809">
        <ele>784.57</ele>
        <time>2012-09-16T11:42:54Z</time>
      </trkpt>
      <trkpt lat="45.90681" lon="6.16808">
        <ele>784.09</ele>
        <time>2012-09-16T11:42:55Z</time>
      </trkpt>
      <trkpt lat="45.90684" lon="6.16806">
        <ele>783.13</ele>
        <time>2012-09-16T11:42:58Z</time>
      </trkpt>
      <trkpt lat="45.90686" lon="6.16798">
        <ele>780.25</ele>
        <time>2012-09-16T11:43:03Z</time>
      </trkpt>
      <trkpt lat="45.90687" lon="6.16796">
        <ele>777.36</ele>
        <time>2012-09-16T11:43:09Z</time>
      </trkpt>
      <trkpt lat="45.90688" lon="6.16795">
        <ele>776.4</ele>
        <time>2012-09-16T11:43:11Z</time>
      </trkpt>
      <trkpt lat="45.90687" lon="6.16791">
        <ele>774.48</ele>
        <time>2012-09-16T11:43:14Z</time>
      </trkpt>
      <trkpt lat="45.90684" lon="6.16791">
        <ele>772.08</ele>
        <time>2012-09-16T11:43:19Z</time>
      </trkpt>
      <trkpt lat="45.9068" lon="6.16796">
        <ele>769.67</ele>
        <time>2012-09-16T11:43:25Z</time>
      </trkpt>
      <trkpt lat="45.9068" lon="6.16797">
        <ele>769.19</ele>
        <time>2012-09-16T11:43:26Z</time>
      </trkpt>
      <trkpt lat="45.90673" lon="6.168">
        <ele>766.79</ele>
        <time>2012-09-16T11:43:31Z</time>
      </trkpt>
      <trkpt lat="45.90668" lon="6.16802">
        <ele>766.79</ele>
        <time>2012-09-16T11:43:36Z</time>
      </trkpt>
      <trkpt lat="45.90664" lon="6.16803">
        <ele>766.79</ele>
        <time>2012-09-16T11:43:42Z</time>
      </trkpt>
      <trkpt lat="45.90658" lon="6.1681">
        <ele>766.31</ele>
        <time>2012-09-16T11:43:48Z</time>
      </trkpt>
      <trkpt lat="45.90654" lon="6.16814">
        <ele>766.31</ele>
        <time>2012-09-16T11:43:54Z</time>
      </trkpt>
      <trkpt lat="45.9065" lon="6.16821">
        <ele>766.79</ele>
        <time>2012-09-16T11:43:59Z</time>
      </trkpt>
      <trkpt lat="45.90651" lon="6.16819">
        <ele>766.79</ele>
        <time>2012-09-16T11:44:10Z</time>
      </trkpt>
      <trkpt lat="45.90653" lon="6.16814">
        <ele>765.83</ele>
        <time>2012-09-16T11:44:16Z</time>
      </trkpt>
      <trkpt lat="45.90657" lon="6.16805">
        <ele>764.87</ele>
        <time>2012-09-16T11:44:21Z</time>
      </trkpt>
      <trkpt lat="45.90658" lon="6.16801">
        <ele>765.35</ele>
        <time>2012-09-16T11:44:24Z</time>
      </trkpt>
      <trkpt lat="45.90661" lon="6.16795">
        <ele>765.35</ele>
        <time>2012-09-16T11:44:28Z</time>
      </trkpt>
      <trkpt lat="45.90662" lon="6.16795">
        <ele>765.83</ele>
        <time>2012-09-16T11:44:30Z</time>
      </trkpt>
      <trkpt lat="45.90664" lon="6.16787">
        <ele>765.83</ele>
        <time>2012-09-16T11:44:36Z</time>
      </trkpt>
      <trkpt lat="45.90665" lon="6.16784">
        <ele>766.31</ele>
        <time>2012-09-16T11:44:38Z</time>
      </trkpt>
      <trkpt lat="45.90668" lon="6.1678">
        <ele>766.31</ele>
        <time>2012-09-16T11:44:43Z</time>
      </trkpt>
      <trkpt lat="45.90668" lon="6.16779">
        <ele>766.31</ele>
        <time>2012-09-16T11:44:44Z</time>
      </trkpt>
      <trkpt lat="45.90673" lon="6.16775">
        <ele>763.9</ele>
        <time>2012-09-16T11:44:50Z</time>
      </trkpt>
      <trkpt lat="45.90675" lon="6.1677">
        <ele>761.5</ele>
        <time>2012-09-16T11:44:55Z</time>
      </trkpt>
      <trkpt lat="45.90675" lon="6.1677">
        <ele>760.54</ele>
        <time>2012-09-16T11:45:00Z</time>
      </trkpt>
      <trkpt lat="45.90671" lon="6.1677">
        <ele>758.62</ele>
        <time>2012-09-16T11:45:07Z</time>
      </trkpt>
      <trkpt lat="45.90669" lon="6.16767">
        <ele>757.66</ele>
        <time>2012-09-16T11:45:14Z</time>
      </trkpt>
      <trkpt lat="45.90668" lon="6.16767">
        <ele>757.18</ele>
        <time>2012-09-16T11:45:20Z</time>
      </trkpt>
      <trkpt lat="45.90664" lon="6.16763">
        <ele>754.77</ele>
        <time>2012-09-16T11:45:25Z</time>
      </trkpt>
      <trkpt lat="45.90661" lon="6.16762">
        <ele>753.33</ele>
        <time>2012-09-16T11:45:31Z</time>
      </trkpt>
      <trkpt lat="45.9066" lon="6.16759">
        <ele>751.89</ele>
        <time>2012-09-16T11:45:35Z</time>
      </trkpt>
      <trkpt lat="45.90658" lon="6.16752">
        <ele>750.45</ele>
        <time>2012-09-16T11:45:38Z</time>
      </trkpt>
      <trkpt lat="45.90658" lon="6.16749">
        <ele>748.52</ele>
        <time>2012-09-16T11:45:41Z</time>
      </trkpt>
      <trkpt lat="45.90663" lon="6.16742">
        <ele>745.64</ele>
        <time>2012-09-16T11:45:47Z</time>
      </trkpt>
      <trkpt lat="45.90665" lon="6.16742">
        <ele>744.68</ele>
        <time>2012-09-16T11:45:49Z</time>
      </trkpt>
      <trkpt lat="45.90666" lon="6.16738">
        <ele>743.24</ele>
        <time>2012-09-16T11:45:51Z</time>
      </trkpt>
      <trkpt lat="45.9067" lon="6.16731">
        <ele>739.87</ele>
        <time>2012-09-16T11:45:56Z</time>
      </trkpt>
      <trkpt lat="45.90672" lon="6.16732">
        <ele>738.91</ele>
        <time>2012-09-16T11:45:58Z</time>
      </trkpt>
      <trkpt lat="45.90683" lon="6.16727">
        <ele>736.03</ele>
        <time>2012-09-16T11:46:03Z</time>
      </trkpt>
      <trkpt lat="45.90685" lon="6.16726">
        <ele>735.55</ele>
        <time>2012-09-16T11:46:04Z</time>
      </trkpt>
      <trkpt lat="45.90691" lon="6.16727">
        <ele>732.18</ele>
        <time>2012-09-16T11:46:10Z</time>
      </trkpt>
      <trkpt lat="45.90698" lon="6.16722">
        <ele>728.34</ele>
        <time>2012-09-16T11:46:17Z</time>
      </trkpt>
      <trkpt lat="45.907" lon="6.16723">
        <ele>726.41</ele>
        <time>2012-09-16T11:46:22Z</time>
      </trkpt>
      <trkpt lat="45.907" lon="6.1672">
        <ele>725.45</ele>
        <time>2012-09-16T11:46:26Z</time>
      </trkpt>
      <trkpt lat="45.90697" lon="6.16719">
        <ele>724.97</ele>
        <time>2012-09-16T11:46:28Z</time>
      </trkpt>
      <trkpt lat="45.90688" lon="6.16715">
        <ele>721.61</ele>
        <time>2012-09-16T11:46:34Z</time>
      </trkpt>
      <trkpt lat="45.90688" lon="6.16713">
        <ele>720.16</ele>
        <time>2012-09-16T11:46:38Z</time>
      </trkpt>
      <trkpt lat="45.90677" lon="6.16711">
        <ele>719.68</ele>
        <time>2012-09-16T11:46:44Z</time>
      </trkpt>
      <trkpt lat="45.90675" lon="6.16707">
        <ele>720.65</ele>
        <time>2012-09-16T11:46:49Z</time>
      </trkpt>
      <trkpt lat="45.90672" lon="6.16709">
        <ele>720.65</ele>
        <time>2012-09-16T11:46:54Z</time>
      </trkpt>
      <trkpt lat="45.90672" lon="6.16709">
        <ele>721.13</ele>
        <time>2012-09-16T11:46:55Z</time>
      </trkpt>
      <trkpt lat="45.90663" lon="6.16707">
        <ele>721.13</ele>
        <time>2012-09-16T11:47:01Z</time>
      </trkpt>
      <trkpt lat="45.90663" lon="6.16708">
        <ele>721.13</ele>
        <time>2012-09-16T11:47:03Z</time>
      </trkpt>
      <trkpt lat="45.90661" lon="6.16709">
        <ele>720.65</ele>
        <time>2012-09-16T11:47:05Z</time>
      </trkpt>
      <trkpt lat="45.90652" lon="6.16706">
        <ele>720.65</ele>
        <time>2012-09-16T11:47:13Z</time>
      </trkpt>
      <trkpt lat="45.90645" lon="6.16705">
        <ele>720.65</ele>
        <time>2012-09-16T11:47:19Z</time>
      </trkpt>
      <trkpt lat="45.90641" lon="6.16707">
        <ele>720.65</ele>
        <time>2012-09-16T11:47:21Z</time>
      </trkpt>
      <trkpt lat="45.90638" lon="6.16712">
        <ele>719.68</ele>
        <time>2012-09-16T11:47:27Z</time>
      </trkpt>
      <trkpt lat="45.90634" lon="6.16719">
        <ele>719.68</ele>
        <time>2012-09-16T11:47:31Z</time>
      </trkpt>
      <trkpt lat="45.90628" lon="6.16723">
        <ele>719.68</ele>
        <time>2012-09-16T11:47:37Z</time>
      </trkpt>
      <trkpt lat="45.90623" lon="6.16727">
        <ele>718.72</ele>
        <time>2012-09-16T11:47:43Z</time>
      </trkpt>
      <trkpt lat="45.9062" lon="6.16722">
        <ele>718.24</ele>
        <time>2012-09-16T11:47:51Z</time>
      </trkpt>
      <trkpt lat="45.9062" lon="6.16722">
        <ele>718.24</ele>
        <time>2012-09-16T11:47:52Z</time>
      </trkpt>
      <trkpt lat="45.90624" lon="6.16711">
        <ele>717.76</ele>
        <time>2012-09-16T11:47:58Z</time>
      </trkpt>
      <trkpt lat="45.90624" lon="6.1671">
        <ele>717.28</ele>
        <time>2012-09-16T11:48:00Z</time>
      </trkpt>
      <trkpt lat="45.90628" lon="6.16702">
        <ele>716.8</ele>
        <time>2012-09-16T11:48:04Z</time>
      </trkpt>
      <trkpt lat="45.90629" lon="6.16696">
        <ele>716.8</ele>
        <time>2012-09-16T11:48:10Z</time>
      </trkpt>
      <trkpt lat="45.90633" lon="6.16689">
        <ele>716.32</ele>
        <time>2012-09-16T11:48:17Z</time>
      </trkpt>
      <trkpt lat="45.90626" lon="6.16683">
        <ele>715.84</ele>
        <time>2012-09-16T11:48:22Z</time>
      </trkpt>
      <trkpt lat="45.90627" lon="6.16684">
        <ele>715.36</ele>
        <time>2012-09-16T11:48:27Z</time>
      </trkpt>
      <trkpt lat="45.90625" lon="6.16685">
        <ele>715.36</ele>
        <time>2012-09-16T11:48:33Z</time>
      </trkpt>
      <trkpt lat="45.90619" lon="6.16691">
        <ele>715.36</ele>
        <time>2012-09-16T11:48:39Z</time>
      </trkpt>
      <trkpt lat="45.90616" lon="6.16694">
        <ele>715.36</ele>
        <time>2012-09-16T11:48:44Z</time>
      </trkpt>
      <trkpt lat="45.90614" lon="6.16696">
        <ele>715.36</ele>
        <time>2012-09-16T11:48:47Z</time>
      </trkpt>
      <trkpt lat="45.90612" lon="6.16696">
        <ele>714.88</ele>
        <time>2012-09-16T11:48:51Z</time>
      </trkpt>
      <trkpt lat="45.90608" lon="6.16698">
        <ele>714.4</ele>
        <time>2012-09-16T11:48:57Z</time>
      </trkpt>
      <trkpt lat="45.90603" lon="6.16704">
        <ele>714.4</ele>
        <time>2012-09-16T11:49:03Z</time>
      </trkpt>
      <trkpt lat="45.90602" lon="6.16706">
        <ele>713.92</ele>
        <time>2012-09-16T11:49:07Z</time>
      </trkpt>
      <trkpt lat="45.90602" lon="6.16703">
        <ele>713.44</ele>
        <time>2012-09-16T11:49:10Z</time>
      </trkpt>
      <trkpt lat="45.90605" lon="6.16698">
        <ele>712.95</ele>
        <time>2012-09-16T11:49:16Z</time>
      </trkpt>
      <trkpt lat="45.90605" lon="6.16695">
        <ele>712.95</ele>
        <time>2012-09-16T11:49:18Z</time>
      </trkpt>
      <trkpt lat="45.90608" lon="6.16684">
        <ele>712.47</ele>
        <time>2012-09-16T11:49:23Z</time>
      </trkpt>
      <trkpt lat="45.90609" lon="6.16679">
        <ele>711.99</ele>
        <time>2012-09-16T11:49:28Z</time>
      </trkpt>
      <trkpt lat="45.90609" lon="6.16675">
        <ele>711.99</ele>
        <time>2012-09-16T11:49:30Z</time>
      </trkpt>
      <trkpt lat="45.90612" lon="6.16672">
        <ele>711.51</ele>
        <time>2012-09-16T11:49:35Z</time>
      </trkpt>
      <trkpt lat="45.90614" lon="6.16666">
        <ele>709.59</ele>
        <time>2012-09-16T11:49:41Z</time>
      </trkpt>
      <trkpt lat="45.90618" lon="6.16665">
        <ele>706.23</ele>
        <time>2012-09-16T11:49:49Z</time>
      </trkpt>
      <trkpt lat="45.90619" lon="6.16659">
        <ele>699.98</ele>
        <time>2012-09-16T11:49:55Z</time>
      </trkpt>
      <trkpt lat="45.90618" lon="6.16656">
        <ele>698.53</ele>
        <time>2012-09-16T11:50:01Z</time>
      </trkpt>
      <trkpt lat="45.90613" lon="6.16656">
        <ele>696.13</ele>
        <time>2012-09-16T11:50:07Z</time>
      </trkpt>
      <trkpt lat="45.90613" lon="6.16656">
        <ele>695.65</ele>
        <time>2012-09-16T11:50:08Z</time>
      </trkpt>
      <trkpt lat="45.90609" lon="6.16659">
        <ele>693.25</ele>
        <time>2012-09-16T11:50:14Z</time>
      </trkpt>
      <trkpt lat="45.90607" lon="6.16662">
        <ele>691.81</ele>
        <time>2012-09-16T11:50:16Z</time>
      </trkpt>
      <trkpt lat="45.906" lon="6.16669">
        <ele>688.92</ele>
        <time>2012-09-16T11:50:22Z</time>
      </trkpt>
      <trkpt lat="45.90599" lon="6.16667">
        <ele>688.44</ele>
        <time>2012-09-16T11:50:25Z</time>
      </trkpt>
      <trkpt lat="45.90593" lon="6.16671">
        <ele>686.52</ele>
        <time>2012-09-16T11:50:32Z</time>
      </trkpt>
      <trkpt lat="45.90592" lon="6.16674">
        <ele>686.52</ele>
        <time>2012-09-16T11:50:34Z</time>
      </trkpt>
      <trkpt lat="45.9059" lon="6.16682">
        <ele>686.52</ele>
        <time>2012-09-16T11:50:39Z</time>
      </trkpt>
      <trkpt lat="45.90584" lon="6.16683">
        <ele>687</ele>
        <time>2012-09-16T11:50:45Z</time>
      </trkpt>
      <trkpt lat="45.90579" lon="6.16675">
        <ele>687</ele>
        <time>2012-09-16T11:50:51Z</time>
      </trkpt>
      <trkpt lat="45.90576" lon="6.16668">
        <ele>684.6</ele>
        <time>2012-09-16T11:50:58Z</time>
      </trkpt>
      <trkpt lat="45.90575" lon="6.16667">
        <ele>684.12</ele>
        <time>2012-09-16T11:51:01Z</time>
      </trkpt>
      <trkpt lat="45.9057" lon="6.1666">
        <ele>685.56</ele>
        <time>2012-09-16T11:51:07Z</time>
      </trkpt>
      <trkpt lat="45.9057" lon="6.16659">
        <ele>686.04</ele>
        <time>2012-09-16T11:51:08Z</time>
      </trkpt>
      <trkpt lat="45.90568" lon="6.16656">
        <ele>686.52</ele>
        <time>2012-09-16T11:51:10Z</time>
      </trkpt>
      <trkpt lat="45.90566" lon="6.16653">
        <ele>686.52</ele>
        <time>2012-09-16T11:51:15Z</time>
      </trkpt>
      <trkpt lat="45.90563" lon="6.16651">
        <ele>687.48</ele>
        <time>2012-09-16T11:51:20Z</time>
      </trkpt>
      <trkpt lat="45.9056" lon="6.16649">
        <ele>687</ele>
        <time>2012-09-16T11:51:25Z</time>
      </trkpt>
      <trkpt lat="45.90558" lon="6.16645">
        <ele>686.52</ele>
        <time>2012-09-16T11:51:30Z</time>
      </trkpt>
      <trkpt lat="45.90552" lon="6.16642">
        <ele>686.04</ele>
        <time>2012-09-16T11:51:35Z</time>
      </trkpt>
      <trkpt lat="45.90551" lon="6.16641">
        <ele>685.56</ele>
        <time>2012-09-16T11:51:38Z</time>
      </trkpt>
      <trkpt lat="45.90548" lon="6.16638">
        <ele>685.56</ele>
        <time>2012-09-16T11:51:41Z</time>
      </trkpt>
      <trkpt lat="45.90546" lon="6.16634">
        <ele>683.63</ele>
        <time>2012-09-16T11:51:46Z</time>
      </trkpt>
      <trkpt lat="45.90544" lon="6.16634">
        <ele>681.23</ele>
        <time>2012-09-16T11:51:51Z</time>
      </trkpt>
      <trkpt lat="45.90537" lon="6.16631">
        <ele>676.42</ele>
        <time>2012-09-16T11:51:56Z</time>
      </trkpt>
      <trkpt lat="45.90537" lon="6.1663">
        <ele>675.94</ele>
        <time>2012-09-16T11:51:57Z</time>
      </trkpt>
      <trkpt lat="45.9053" lon="6.16632">
        <ele>672.58</ele>
        <time>2012-09-16T11:52:03Z</time>
      </trkpt>
      <trkpt lat="45.90528" lon="6.1663">
        <ele>670.66</ele>
        <time>2012-09-16T11:52:07Z</time>
      </trkpt>
      <trkpt lat="45.90523" lon="6.16628">
        <ele>669.7</ele>
        <time>2012-09-16T11:52:13Z</time>
      </trkpt>
      <trkpt lat="45.9052" lon="6.16622">
        <ele>666.81</ele>
        <time>2012-09-16T11:52:20Z</time>
      </trkpt>
      <trkpt lat="45.90521" lon="6.1662">
        <ele>666.33</ele>
        <time>2012-09-16T11:52:27Z</time>
      </trkpt>
      <trkpt lat="45.90528" lon="6.1662">
        <ele>667.29</ele>
        <time>2012-09-16T11:52:32Z</time>
      </trkpt>
      <trkpt lat="45.90535" lon="6.16615">
        <ele>667.77</ele>
        <time>2012-09-16T11:52:36Z</time>
      </trkpt>
      <trkpt lat="45.90537" lon="6.16614">
        <ele>667.77</ele>
        <time>2012-09-16T11:52:41Z</time>
      </trkpt>
      <trkpt lat="45.9054" lon="6.1661">
        <ele>666.33</ele>
        <time>2012-09-16T11:52:47Z</time>
      </trkpt>
      <trkpt lat="45.90533" lon="6.16605">
        <ele>662.49</ele>
        <time>2012-09-16T11:52:53Z</time>
      </trkpt>
      <trkpt lat="45.90534" lon="6.16603">
        <ele>660.08</ele>
        <time>2012-09-16T11:52:57Z</time>
      </trkpt>
      <trkpt lat="45.9053" lon="6.16602">
        <ele>657.2</ele>
        <time>2012-09-16T11:53:02Z</time>
      </trkpt>
      <trkpt lat="45.90529" lon="6.16602">
        <ele>656.72</ele>
        <time>2012-09-16T11:53:03Z</time>
      </trkpt>
      <trkpt lat="45.90522" lon="6.16602">
        <ele>654.31</ele>
        <time>2012-09-16T11:53:08Z</time>
      </trkpt>
      <trkpt lat="45.90523" lon="6.16601">
        <ele>652.87</ele>
        <time>2012-09-16T11:53:10Z</time>
      </trkpt>
      <trkpt lat="45.90516" lon="6.16601">
        <ele>651.91</ele>
        <time>2012-09-16T11:53:14Z</time>
      </trkpt>
      <trkpt lat="45.90515" lon="6.16598">
        <ele>650.95</ele>
        <time>2012-09-16T11:53:17Z</time>
      </trkpt>
      <trkpt lat="45.90507" lon="6.16598">
        <ele>649.99</ele>
        <time>2012-09-16T11:53:23Z</time>
      </trkpt>
      <trkpt lat="45.90506" lon="6.16598">
        <ele>649.99</ele>
        <time>2012-09-16T11:53:26Z</time>
      </trkpt>
      <trkpt lat="45.90502" lon="6.16595">
        <ele>649.51</ele>
        <time>2012-09-16T11:53:32Z</time>
      </trkpt>
      <trkpt lat="45.90496" lon="6.16592">
        <ele>648.55</ele>
        <time>2012-09-16T11:53:37Z</time>
      </trkpt>
      <trkpt lat="45.90494" lon="6.16591">
        <ele>648.07</ele>
        <time>2012-09-16T11:53:39Z</time>
      </trkpt>
      <trkpt lat="45.90494" lon="6.16587">
        <ele>646.14</ele>
        <time>2012-09-16T11:53:44Z</time>
      </trkpt>
      <trkpt lat="45.90496" lon="6.16586">
        <ele>643.74</ele>
        <time>2012-09-16T11:53:49Z</time>
      </trkpt>
      <trkpt lat="45.90494" lon="6.1658">
        <ele>639.89</ele>
        <time>2012-09-16T11:53:55Z</time>
      </trkpt>
      <trkpt lat="45.90489" lon="6.16573">
        <ele>637.97</ele>
        <time>2012-09-16T11:53:59Z</time>
      </trkpt>
      <trkpt lat="45.90489" lon="6.16568">
        <ele>636.53</ele>
        <time>2012-09-16T11:54:05Z</time>
      </trkpt>
      <trkpt lat="45.90489" lon="6.16568">
        <ele>636.53</ele>
        <time>2012-09-16T11:54:06Z</time>
      </trkpt>
      <trkpt lat="45.90483" lon="6.16567">
        <ele>634.61</ele>
        <time>2012-09-16T11:54:12Z</time>
      </trkpt>
      <trkpt lat="45.90472" lon="6.16564">
        <ele>636.05</ele>
        <time>2012-09-16T11:54:18Z</time>
      </trkpt>
      <trkpt lat="45.90469" lon="6.16562">
        <ele>636.53</ele>
        <time>2012-09-16T11:54:22Z</time>
      </trkpt>
      <trkpt lat="45.90464" lon="6.16565">
        <ele>637.01</ele>
        <time>2012-09-16T11:54:26Z</time>
      </trkpt>
      <trkpt lat="45.90464" lon="6.16563">
        <ele>637.01</ele>
        <time>2012-09-16T11:54:29Z</time>
      </trkpt>
      <trkpt lat="45.90464" lon="6.16559">
        <ele>637.49</ele>
        <time>2012-09-16T11:54:35Z</time>
      </trkpt>
      <trkpt lat="45.90466" lon="6.16558">
        <ele>637.01</ele>
        <time>2012-09-16T11:54:39Z</time>
      </trkpt>
      <trkpt lat="45.9047" lon="6.16558">
        <ele>635.09</ele>
        <time>2012-09-16T11:54:45Z</time>
      </trkpt>
      <trkpt lat="45.90475" lon="6.16559">
        <ele>634.61</ele>
        <time>2012-09-16T11:54:51Z</time>
      </trkpt>
      <trkpt lat="45.90475" lon="6.16556">
        <ele>633.65</ele>
        <time>2012-09-16T11:54:53Z</time>
      </trkpt>
      <trkpt lat="45.90471" lon="6.16553">
        <ele>631.24</ele>
        <time>2012-09-16T11:54:59Z</time>
      </trkpt>
      <trkpt lat="45.90469" lon="6.16556">
        <ele>629.32</ele>
        <time>2012-09-16T11:55:06Z</time>
      </trkpt>
      <trkpt lat="45.9047" lon="6.16551">
        <ele>628.84</ele>
        <time>2012-09-16T11:55:09Z</time>
      </trkpt>
      <trkpt lat="45.90464" lon="6.16551">
        <ele>628.36</ele>
        <time>2012-09-16T11:55:13Z</time>
      </trkpt>
      <trkpt lat="45.90461" lon="6.16553">
        <ele>628.84</ele>
        <time>2012-09-16T11:55:17Z</time>
      </trkpt>
      <trkpt lat="45.90453" lon="6.16547">
        <ele>630.76</ele>
        <time>2012-09-16T11:55:23Z</time>
      </trkpt>
      <trkpt lat="45.90449" lon="6.16539">
        <ele>632.2</ele>
        <time>2012-09-16T11:55:31Z</time>
      </trkpt>
      <trkpt lat="45.90443" lon="6.16542">
        <ele>632.2</ele>
        <time>2012-09-16T11:55:36Z</time>
      </trkpt>
      <trkpt lat="45.90437" lon="6.16541">
        <ele>630.76</ele>
        <time>2012-09-16T11:55:42Z</time>
      </trkpt>
      <trkpt lat="45.90435" lon="6.16542">
        <ele>630.28</ele>
        <time>2012-09-16T11:55:43Z</time>
      </trkpt>
      <trkpt lat="45.90427" lon="6.16545">
        <ele>631.24</ele>
        <time>2012-09-16T11:55:50Z</time>
      </trkpt>
      <trkpt lat="45.90425" lon="6.16543">
        <ele>631.24</ele>
        <time>2012-09-16T11:55:53Z</time>
      </trkpt>
      <trkpt lat="45.90419" lon="6.16536">
        <ele>630.76</ele>
        <time>2012-09-16T11:55:58Z</time>
      </trkpt>
      <trkpt lat="45.90413" lon="6.16535">
        <ele>631.24</ele>
        <time>2012-09-16T11:56:05Z</time>
      </trkpt>
      <trkpt lat="45.90412" lon="6.16535">
        <ele>630.28</ele>
        <time>2012-09-16T11:56:14Z</time>
      </trkpt>
      <trkpt lat="45.90415" lon="6.16533">
        <ele>632.68</ele>
        <time>2012-09-16T11:56:24Z</time>
      </trkpt>
      <trkpt lat="45.90418" lon="6.16533">
        <ele>632.2</ele>
        <time>2012-09-16T11:56:30Z</time>
      </trkpt>
      <trkpt lat="45.90418" lon="6.16533">
        <ele>631.72</ele>
        <time>2012-09-16T11:56:34Z</time>
      </trkpt>
      <trkpt lat="45.90425" lon="6.16534">
        <ele>630.76</ele>
        <time>2012-09-16T11:56:41Z</time>
      </trkpt>
      <trkpt lat="45.90431" lon="6.16535">
        <ele>629.32</ele>
        <time>2012-09-16T11:56:45Z</time>
      </trkpt>
      <trkpt lat="45.90437" lon="6.16539">
        <ele>627.88</ele>
        <time>2012-09-16T11:56:49Z</time>
      </trkpt>
      <trkpt lat="45.90444" lon="6.16544">
        <ele>629.32</ele>
        <time>2012-09-16T11:56:55Z</time>
      </trkpt>
      <trkpt lat="45.9045" lon="6.16545">
        <ele>629.32</ele>
        <time>2012-09-16T11:57:02Z</time>
      </trkpt>
      <trkpt lat="45.9045" lon="6.16545">
        <ele>629.8</ele>
        <time>2012-09-16T11:57:03Z</time>
      </trkpt>
      <trkpt lat="45.90458" lon="6.16546">
        <ele>629.8</ele>
        <time>2012-09-16T11:57:09Z</time>
      </trkpt>
      <trkpt lat="45.90468" lon="6.1655">
        <ele>629.32</ele>
        <time>2012-09-16T11:57:17Z</time>
      </trkpt>
      <trkpt lat="45.90475" lon="6.16556">
        <ele>633.17</ele>
        <time>2012-09-16T11:57:24Z</time>
      </trkpt>
      <trkpt lat="45.90478" lon="6.16556">
        <ele>636.53</ele>
        <time>2012-09-16T11:57:31Z</time>
      </trkpt>
      <trkpt lat="45.90478" lon="6.16556">
        <ele>637.49</ele>
        <time>2012-09-16T11:57:35Z</time>
      </trkpt>
      <trkpt lat="45.90482" lon="6.16553">
        <ele>637.97</ele>
        <time>2012-09-16T11:57:41Z</time>
      </trkpt>
      <trkpt lat="45.90483" lon="6.16554">
        <ele>637.01</ele>
        <time>2012-09-16T11:57:50Z</time>
      </trkpt>
      <trkpt lat="45.90484" lon="6.16555">
        <ele>637.01</ele>
        <time>2012-09-16T11:57:51Z</time>
      </trkpt>
      <trkpt lat="45.90492" lon="6.16561">
        <ele>636.53</ele>
        <time>2012-09-16T11:57:59Z</time>
      </trkpt>
      <trkpt lat="45.90494" lon="6.16559">
        <ele>633.65</ele>
        <time>2012-09-16T11:58:08Z</time>
      </trkpt>
      <trkpt lat="45.90495" lon="6.16558">
        <ele>633.65</ele>
        <time>2012-09-16T11:58:19Z</time>
      </trkpt>
      <trkpt lat="45.90501" lon="6.16559">
        <ele>630.76</ele>
        <time>2012-09-16T11:58:28Z</time>
      </trkpt>
      <trkpt lat="45.90502" lon="6.16558">
        <ele>629.8</ele>
        <time>2012-09-16T11:58:36Z</time>
      </trkpt>
      <trkpt lat="45.90506" lon="6.16557">
        <ele>630.76</ele>
        <time>2012-09-16T11:58:46Z</time>
      </trkpt>
      <trkpt lat="45.90511" lon="6.16558">
        <ele>629.32</ele>
        <time>2012-09-16T11:58:54Z</time>
      </trkpt>
      <trkpt lat="45.90514" lon="6.16559">
        <ele>627.88</ele>
        <time>2012-09-16T11:59:00Z</time>
      </trkpt>
      <trkpt lat="45.90515" lon="6.16558">
        <ele>626.92</ele>
        <time>2012-09-16T11:59:07Z</time>
      </trkpt>
      <trkpt lat="45.90517" lon="6.16556">
        <ele>624.99</ele>
        <time>2012-09-16T11:59:13Z</time>
      </trkpt>
      <trkpt lat="45.9052" lon="6.16553">
        <ele>623.55</ele>
        <time>2012-09-16T11:59:18Z</time>
      </trkpt>
      <trkpt lat="45.90522" lon="6.1655">
        <ele>622.59</ele>
        <time>2012-09-16T11:59:22Z</time>
      </trkpt>
      <trkpt lat="45.90527" lon="6.1655">
        <ele>621.15</ele>
        <time>2012-09-16T11:59:29Z</time>
      </trkpt>
      <trkpt lat="45.90528" lon="6.16548">
        <ele>619.71</ele>
        <time>2012-09-16T11:59:35Z</time>
      </trkpt>
      <trkpt lat="45.9053" lon="6.16549">
        <ele>618.75</ele>
        <time>2012-09-16T11:59:44Z</time>
      </trkpt>
      <trkpt lat="45.90531" lon="6.16548">
        <ele>617.78</ele>
        <time>2012-09-16T11:59:47Z</time>
      </trkpt>
      <trkpt lat="45.90534" lon="6.1655">
        <ele>617.78</ele>
        <time>2012-09-16T11:59:52Z</time>
      </trkpt>
      <trkpt lat="45.90535" lon="6.1655">
        <ele>617.3</ele>
        <time>2012-09-16T11:59:53Z</time>
      </trkpt>
      <trkpt lat="45.90542" lon="6.16554">
        <ele>615.86</ele>
        <time>2012-09-16T12:00:00Z</time>
      </trkpt>
      <trkpt lat="45.90545" lon="6.16554">
        <ele>613.94</ele>
        <time>2012-09-16T12:00:05Z</time>
      </trkpt>
      <trkpt lat="45.90549" lon="6.16554">
        <ele>612.02</ele>
        <time>2012-09-16T12:00:12Z</time>
      </trkpt>
      <trkpt lat="45.90549" lon="6.16552">
        <ele>611.54</ele>
        <time>2012-09-16T12:00:18Z</time>
      </trkpt>
      <trkpt lat="45.90549" lon="6.16551">
        <ele>610.57</ele>
        <time>2012-09-16T12:00:21Z</time>
      </trkpt>
      <trkpt lat="45.90548" lon="6.16549">
        <ele>609.61</ele>
        <time>2012-09-16T12:00:27Z</time>
      </trkpt>
      <trkpt lat="45.90546" lon="6.16549">
        <ele>609.13</ele>
        <time>2012-09-16T12:00:34Z</time>
      </trkpt>
      <trkpt lat="45.90544" lon="6.16545">
        <ele>607.21</ele>
        <time>2012-09-16T12:00:41Z</time>
      </trkpt>
      <trkpt lat="45.90541" lon="6.1654">
        <ele>606.25</ele>
        <time>2012-09-16T12:00:48Z</time>
      </trkpt>
      <trkpt lat="45.90542" lon="6.16535">
        <ele>605.77</ele>
        <time>2012-09-16T12:00:53Z</time>
      </trkpt>
      <trkpt lat="45.9054" lon="6.16532">
        <ele>604.81</ele>
        <time>2012-09-16T12:00:59Z</time>
      </trkpt>
      <trkpt lat="45.90541" lon="6.16531">
        <ele>604.33</ele>
        <time>2012-09-16T12:01:06Z</time>
      </trkpt>
      <trkpt lat="45.9054" lon="6.16529">
        <ele>602.88</ele>
        <time>2012-09-16T12:01:13Z</time>
      </trkpt>
      <trkpt lat="45.90539" lon="6.16527">
        <ele>601.44</ele>
        <time>2012-09-16T12:01:21Z</time>
      </trkpt>
      <trkpt lat="45.90538" lon="6.16524">
        <ele>600</ele>
        <time>2012-09-16T12:01:29Z</time>
      </trkpt>
      <trkpt lat="45.90538" lon="6.16521">
        <ele>601.44</ele>
        <time>2012-09-16T12:01:34Z</time>
      </trkpt>
      <trkpt lat="45.9054" lon="6.16518">
        <ele>601.44</ele>
        <time>2012-09-16T12:01:38Z</time>
      </trkpt>
      <trkpt lat="45.9054" lon="6.16516">
        <ele>600.96</ele>
        <time>2012-09-16T12:01:43Z</time>
      </trkpt>
      <trkpt lat="45.90539" lon="6.16513">
        <ele>599.52</ele>
        <time>2012-09-16T12:01:48Z</time>
      </trkpt>
      <trkpt lat="45.90538" lon="6.16512">
        <ele>599.04</ele>
        <time>2012-09-16T12:01:52Z</time>
      </trkpt>
      <trkpt lat="45.90536" lon="6.1651">
        <ele>599.52</ele>
        <time>2012-09-16T12:01:57Z</time>
      </trkpt>
      <trkpt lat="45.90536" lon="6.16508">
        <ele>599.04</ele>
        <time>2012-09-16T12:02:02Z</time>
      </trkpt>
      <trkpt lat="45.90532" lon="6.1651">
        <ele>598.56</ele>
        <time>2012-09-16T12:02:08Z</time>
      </trkpt>
      <trkpt lat="45.90529" lon="6.16509">
        <ele>599.52</ele>
        <time>2012-09-16T12:02:15Z</time>
      </trkpt>
      <trkpt lat="45.90522" lon="6.16507">
        <ele>600.48</ele>
        <time>2012-09-16T12:02:21Z</time>
      </trkpt>
      <trkpt lat="45.90515" lon="6.16502">
        <ele>599.04</ele>
        <time>2012-09-16T12:02:28Z</time>
      </trkpt>
      <trkpt lat="45.90513" lon="6.16501">
        <ele>598.56</ele>
        <time>2012-09-16T12:02:33Z</time>
      </trkpt>
      <trkpt lat="45.90508" lon="6.16498">
        <ele>597.12</ele>
        <time>2012-09-16T12:02:38Z</time>
      </trkpt>
      <trkpt lat="45.90503" lon="6.16492">
        <ele>595.67</ele>
        <time>2012-09-16T12:02:44Z</time>
      </trkpt>
      <trkpt lat="45.90501" lon="6.16492">
        <ele>595.19</ele>
        <time>2012-09-16T12:02:49Z</time>
      </trkpt>
      <trkpt lat="45.90499" lon="6.16491">
        <ele>595.19</ele>
        <time>2012-09-16T12:02:51Z</time>
      </trkpt>
      <trkpt lat="45.90492" lon="6.16493">
        <ele>593.27</ele>
        <time>2012-09-16T12:02:56Z</time>
      </trkpt>
      <trkpt lat="45.9049" lon="6.16493">
        <ele>591.83</ele>
        <time>2012-09-16T12:03:03Z</time>
      </trkpt>
      <trkpt lat="45.9049" lon="6.16493">
        <ele>591.83</ele>
        <time>2012-09-16T12:03:04Z</time>
      </trkpt>
      <trkpt lat="45.90485" lon="6.16501">
        <ele>589.43</ele>
        <time>2012-09-16T12:03:12Z</time>
      </trkpt>
      <trkpt lat="45.90483" lon="6.165">
        <ele>588.46</ele>
        <time>2012-09-16T12:03:20Z</time>
      </trkpt>
      <trkpt lat="45.90478" lon="6.16491">
        <ele>585.58</ele>
        <time>2012-09-16T12:03:26Z</time>
      </trkpt>
      <trkpt lat="45.90478" lon="6.16488">
        <ele>585.58</ele>
        <time>2012-09-16T12:03:33Z</time>
      </trkpt>
      <trkpt lat="45.90478" lon="6.16486">
        <ele>583.66</ele>
        <time>2012-09-16T12:03:38Z</time>
      </trkpt>
      <trkpt lat="45.90479" lon="6.16488">
        <ele>580.77</ele>
        <time>2012-09-16T12:03:44Z</time>
      </trkpt>
      <trkpt lat="45.90479" lon="6.16487">
        <ele>579.33</ele>
        <time>2012-09-16T12:03:47Z</time>
      </trkpt>
      <trkpt lat="45.90477" lon="6.16482">
        <ele>577.89</ele>
        <time>2012-09-16T12:03:50Z</time>
      </trkpt>
      <trkpt lat="45.90471" lon="6.16479">
        <ele>576.93</ele>
        <time>2012-09-16T12:03:57Z</time>
      </trkpt>
      <trkpt lat="45.90463" lon="6.16473">
        <ele>577.41</ele>
        <time>2012-09-16T12:04:01Z</time>
      </trkpt>
      <trkpt lat="45.90461" lon="6.16469">
        <ele>577.89</ele>
        <time>2012-09-16T12:04:05Z</time>
      </trkpt>
      <trkpt lat="45.90456" lon="6.16463">
        <ele>575.01</ele>
        <time>2012-09-16T12:04:12Z</time>
      </trkpt>
      <trkpt lat="45.90459" lon="6.16467">
        <ele>571.64</ele>
        <time>2012-09-16T12:04:20Z</time>
      </trkpt>
      <trkpt lat="45.90464" lon="6.16471">
        <ele>569.24</ele>
        <time>2012-09-16T12:04:27Z</time>
      </trkpt>
      <trkpt lat="45.90463" lon="6.1647">
        <ele>568.76</ele>
        <time>2012-09-16T12:04:29Z</time>
      </trkpt>
      <trkpt lat="45.90458" lon="6.16467">
        <ele>566.35</ele>
        <time>2012-09-16T12:04:35Z</time>
      </trkpt>
      <trkpt lat="45.90455" lon="6.16465">
        <ele>563.47</ele>
        <time>2012-09-16T12:04:41Z</time>
      </trkpt>
      <trkpt lat="45.90452" lon="6.16464">
        <ele>560.59</ele>
        <time>2012-09-16T12:04:45Z</time>
      </trkpt>
      <trkpt lat="45.90447" lon="6.16461">
        <ele>554.34</ele>
        <time>2012-09-16T12:04:53Z</time>
      </trkpt>
      <trkpt lat="45.90445" lon="6.16461">
        <ele>553.38</ele>
        <time>2012-09-16T12:04:55Z</time>
      </trkpt>
      <trkpt lat="45.9044" lon="6.16458">
        <ele>553.38</ele>
        <time>2012-09-16T12:04:59Z</time>
      </trkpt>
      <trkpt lat="45.90434" lon="6.16453">
        <ele>553.38</ele>
        <time>2012-09-16T12:05:04Z</time>
      </trkpt>
      <trkpt lat="45.90427" lon="6.16455">
        <ele>552.9</ele>
        <time>2012-09-16T12:05:13Z</time>
      </trkpt>
      <trkpt lat="45.90426" lon="6.16453">
        <ele>552.41</ele>
        <time>2012-09-16T12:05:20Z</time>
      </trkpt>
      <trkpt lat="45.90427" lon="6.16451">
        <ele>551.93</ele>
        <time>2012-09-16T12:05:23Z</time>
      </trkpt>
      <trkpt lat="45.90429" lon="6.16444">
        <ele>551.45</ele>
        <time>2012-09-16T12:05:26Z</time>
      </trkpt>
      <trkpt lat="45.90435" lon="6.16444">
        <ele>547.61</ele>
        <time>2012-09-16T12:05:34Z</time>
      </trkpt>
      <trkpt lat="45.90442" lon="6.16442">
        <ele>545.2</ele>
        <time>2012-09-16T12:05:41Z</time>
      </trkpt>
      <trkpt lat="45.90443" lon="6.16442">
        <ele>544.72</ele>
        <time>2012-09-16T12:05:43Z</time>
      </trkpt>
      <trkpt lat="45.90444" lon="6.16444">
        <ele>544.24</ele>
        <time>2012-09-16T12:05:46Z</time>
      </trkpt>
      <trkpt lat="45.90451" lon="6.16442">
        <ele>546.17</ele>
        <time>2012-09-16T12:05:52Z</time>
      </trkpt>
      <trkpt lat="45.90453" lon="6.16441">
        <ele>546.65</ele>
        <time>2012-09-16T12:05:54Z</time>
      </trkpt>
      <trkpt lat="45.90458" lon="6.16441">
        <ele>547.13</ele>
        <time>2012-09-16T12:06:01Z</time>
      </trkpt>
      <trkpt lat="45.90462" lon="6.1644">
        <ele>547.13</ele>
        <time>2012-09-16T12:06:09Z</time>
      </trkpt>
      <trkpt lat="45.90465" lon="6.16434">
        <ele>546.65</ele>
        <time>2012-09-16T12:06:15Z</time>
      </trkpt>
      <trkpt lat="45.9047" lon="6.16434">
        <ele>548.09</ele>
        <time>2012-09-16T12:06:20Z</time>
      </trkpt>
      <trkpt lat="45.9047" lon="6.16427">
        <ele>549.53</ele>
        <time>2012-09-16T12:06:26Z</time>
      </trkpt>
      <trkpt lat="45.9047" lon="6.16428">
        <ele>549.53</ele>
        <time>2012-09-16T12:06:28Z</time>
      </trkpt>
      <trkpt lat="45.9046" lon="6.16423">
        <ele>548.09</ele>
        <time>2012-09-16T12:06:35Z</time>
      </trkpt>
      <trkpt lat="45.90459" lon="6.1642">
        <ele>547.13</ele>
        <time>2012-09-16T12:06:38Z</time>
      </trkpt>
      <trkpt lat="45.90452" lon="6.16416">
        <ele>546.65</ele>
        <time>2012-09-16T12:06:43Z</time>
      </trkpt>
      <trkpt lat="45.90451" lon="6.16418">
        <ele>546.17</ele>
        <time>2012-09-16T12:06:47Z</time>
      </trkpt>
      <trkpt lat="45.90451" lon="6.16417">
        <ele>546.17</ele>
        <time>2012-09-16T12:06:48Z</time>
      </trkpt>
      <trkpt lat="45.90442" lon="6.16411">
        <ele>546.17</ele>
        <time>2012-09-16T12:06:55Z</time>
      </trkpt>
      <trkpt lat="45.90442" lon="6.16411">
        <ele>546.17</ele>
        <time>2012-09-16T12:06:56Z</time>
      </trkpt>
      <trkpt lat="45.90441" lon="6.16411">
        <ele>545.2</ele>
        <time>2012-09-16T12:07:03Z</time>
      </trkpt>
      <trkpt lat="45.90445" lon="6.16411">
        <ele>543.76</ele>
        <time>2012-09-16T12:07:10Z</time>
      </trkpt>
      <trkpt lat="45.90445" lon="6.16411">
        <ele>543.76</ele>
        <time>2012-09-16T12:07:11Z</time>
      </trkpt>
      <trkpt lat="45.9045" lon="6.16407">
        <ele>542.8</ele>
        <time>2012-09-16T12:07:17Z</time>
      </trkpt>
      <trkpt lat="45.90456" lon="6.16409">
        <ele>541.36</ele>
        <time>2012-09-16T12:07:23Z</time>
      </trkpt>
      <trkpt lat="45.9046" lon="6.16409">
        <ele>538.96</ele>
        <time>2012-09-16T12:07:27Z</time>
      </trkpt>
      <trkpt lat="45.90467" lon="6.16407">
        <ele>538.48</ele>
        <time>2012-09-16T12:07:31Z</time>
      </trkpt>
      <trkpt lat="45.90469" lon="6.16405">
        <ele>538.96</ele>
        <time>2012-09-16T12:07:34Z</time>
      </trkpt>
      <trkpt lat="45.90475" lon="6.16404">
        <ele>538.48</ele>
        <time>2012-09-16T12:07:39Z</time>
      </trkpt>
      <trkpt lat="45.90476" lon="6.16402">
        <ele>538.48</ele>
        <time>2012-09-16T12:07:41Z</time>
      </trkpt>
      <trkpt lat="45.90483" lon="6.164">
        <ele>536.55</ele>
        <time>2012-09-16T12:07:46Z</time>
      </trkpt>
      <trkpt lat="45.90484" lon="6.164">
        <ele>536.07</ele>
        <time>2012-09-16T12:07:47Z</time>
      </trkpt>
      <trkpt lat="45.90486" lon="6.16402">
        <ele>534.63</ele>
        <time>2012-09-16T12:07:51Z</time>
      </trkpt>
      <trkpt lat="45.90491" lon="6.16398">
        <ele>533.67</ele>
        <time>2012-09-16T12:07:55Z</time>
      </trkpt>
      <trkpt lat="45.90491" lon="6.16396">
        <ele>533.19</ele>
        <time>2012-09-16T12:07:58Z</time>
      </trkpt>
      <trkpt lat="45.905" lon="6.16396">
        <ele>531.75</ele>
        <time>2012-09-16T12:08:05Z</time>
      </trkpt>
      <trkpt lat="45.90504" lon="6.16397">
        <ele>532.23</ele>
        <time>2012-09-16T12:08:10Z</time>
      </trkpt>
      <trkpt lat="45.90505" lon="6.16401">
        <ele>529.82</ele>
        <time>2012-09-16T12:08:14Z</time>
      </trkpt>
      <trkpt lat="45.90512" lon="6.16405">
        <ele>525.5</ele>
        <time>2012-09-16T12:08:21Z</time>
      </trkpt>
      <trkpt lat="45.90514" lon="6.16407">
        <ele>522.13</ele>
        <time>2012-09-16T12:08:29Z</time>
      </trkpt>
      <trkpt lat="45.90518" lon="6.16408">
        <ele>519.73</ele>
        <time>2012-09-16T12:08:36Z</time>
      </trkpt>
      <trkpt lat="45.90517" lon="6.16406">
        <ele>523.58</ele>
        <time>2012-09-16T12:08:49Z</time>
      </trkpt>
      <trkpt lat="45.9052" lon="6.16401">
        <ele>524.06</ele>
        <time>2012-09-16T12:08:54Z</time>
      </trkpt>
      <trkpt lat="45.90526" lon="6.16401">
        <ele>522.61</ele>
        <time>2012-09-16T12:08:59Z</time>
      </trkpt>
      <trkpt lat="45.90532" lon="6.16399">
        <ele>520.21</ele>
        <time>2012-09-16T12:09:04Z</time>
      </trkpt>
      <trkpt lat="45.90538" lon="6.16397">
        <ele>519.25</ele>
        <time>2012-09-16T12:09:08Z</time>
      </trkpt>
      <trkpt lat="45.90542" lon="6.16398">
        <ele>519.25</ele>
        <time>2012-09-16T12:09:13Z</time>
      </trkpt>
      <trkpt lat="45.90548" lon="6.16398">
        <ele>519.25</ele>
        <time>2012-09-16T12:09:17Z</time>
      </trkpt>
      <trkpt lat="45.90554" lon="6.164">
        <ele>518.77</ele>
        <time>2012-09-16T12:09:23Z</time>
      </trkpt>
      <trkpt lat="45.90557" lon="6.16399">
        <ele>518.29</ele>
        <time>2012-09-16T12:09:25Z</time>
      </trkpt>
      <trkpt lat="45.90562" lon="6.16399">
        <ele>517.81</ele>
        <time>2012-09-16T12:09:30Z</time>
      </trkpt>
      <trkpt lat="45.90565" lon="6.16395">
        <ele>517.33</ele>
        <time>2012-09-16T12:09:34Z</time>
      </trkpt>
      <trkpt lat="45.90567" lon="6.16389">
        <ele>516.37</ele>
        <time>2012-09-16T12:09:38Z</time>
      </trkpt>
      <trkpt lat="45.90564" lon="6.16383">
        <ele>516.85</ele>
        <time>2012-09-16T12:09:45Z</time>
      </trkpt>
      <trkpt lat="45.90555" lon="6.16372">
        <ele>517.81</ele>
        <time>2012-09-16T12:09:52Z</time>
      </trkpt>
      <trkpt lat="45.90554" lon="6.16371">
        <ele>518.29</ele>
        <time>2012-09-16T12:09:56Z</time>
      </trkpt>
      <trkpt lat="45.90552" lon="6.1637">
        <ele>518.29</ele>
        <time>2012-09-16T12:09:57Z</time>
      </trkpt>
      <trkpt lat="45.90547" lon="6.16363">
        <ele>516.85</ele>
        <time>2012-09-16T12:10:04Z</time>
      </trkpt>
      <trkpt lat="45.90546" lon="6.1636">
        <ele>514.92</ele>
        <time>2012-09-16T12:10:10Z</time>
      </trkpt>
      <trkpt lat="45.9055" lon="6.16359">
        <ele>513.96</ele>
        <time>2012-09-16T12:10:15Z</time>
      </trkpt>
      <trkpt lat="45.90552" lon="6.16361">
        <ele>513.48</ele>
        <time>2012-09-16T12:10:21Z</time>
      </trkpt>
      <trkpt lat="45.90556" lon="6.16354">
        <ele>513.48</ele>
        <time>2012-09-16T12:10:26Z</time>
      </trkpt>
      <trkpt lat="45.90556" lon="6.1635">
        <ele>513</ele>
        <time>2012-09-16T12:10:30Z</time>
      </trkpt>
      <trkpt lat="45.90555" lon="6.16348">
        <ele>512.04</ele>
        <time>2012-09-16T12:10:32Z</time>
      </trkpt>
      <trkpt lat="45.9055" lon="6.1634">
        <ele>511.08</ele>
        <time>2012-09-16T12:10:37Z</time>
      </trkpt>
      <trkpt lat="45.90554" lon="6.16342">
        <ele>509.64</ele>
        <time>2012-09-16T12:10:40Z</time>
      </trkpt>
      <trkpt lat="45.90561" lon="6.16339">
        <ele>506.27</ele>
        <time>2012-09-16T12:10:45Z</time>
      </trkpt>
      <trkpt lat="45.90569" lon="6.16338">
        <ele>502.43</ele>
        <time>2012-09-16T12:10:51Z</time>
      </trkpt>
      <trkpt lat="45.90577" lon="6.16334">
        <ele>500.98</ele>
        <time>2012-09-16T12:10:59Z</time>
      </trkpt>
      <trkpt lat="45.90588" lon="6.16329">
        <ele>499.06</ele>
        <time>2012-09-16T12:11:07Z</time>
      </trkpt>
      <trkpt lat="45.90588" lon="6.16328">
        <ele>495.7</ele>
        <time>2012-09-16T12:11:11Z</time>
      </trkpt>
      <trkpt lat="45.90589" lon="6.16328">
        <ele>495.22</ele>
        <time>2012-09-16T12:11:12Z</time>
      </trkpt>
      <trkpt lat="45.90599" lon="6.16324">
        <ele>490.89</ele>
        <time>2012-09-16T12:11:18Z</time>
      </trkpt>
      <trkpt lat="45.90602" lon="6.16323">
        <ele>488.97</ele>
        <time>2012-09-16T12:11:24Z</time>
      </trkpt>
      <trkpt lat="45.90607" lon="6.1632">
        <ele>488.49</ele>
        <time>2012-09-16T12:11:27Z</time>
      </trkpt>
      <trkpt lat="45.90606" lon="6.16323">
        <ele>488.49</ele>
        <time>2012-09-16T12:11:30Z</time>
      </trkpt>
      <trkpt lat="45.90616" lon="6.1632">
        <ele>488.97</ele>
        <time>2012-09-16T12:11:35Z</time>
      </trkpt>
      <trkpt lat="45.90622" lon="6.16321">
        <ele>490.41</ele>
        <time>2012-09-16T12:11:41Z</time>
      </trkpt>
      <trkpt lat="45.90631" lon="6.16321">
        <ele>492.33</ele>
        <time>2012-09-16T12:11:47Z</time>
      </trkpt>
      <trkpt lat="45.90639" lon="6.16321">
        <ele>492.33</ele>
        <time>2012-09-16T12:11:53Z</time>
      </trkpt>
      <trkpt lat="45.9064" lon="6.16323">
        <ele>491.37</ele>
        <time>2012-09-16T12:11:58Z</time>
      </trkpt>
      <trkpt lat="45.90647" lon="6.16323">
        <ele>492.33</ele>
        <time>2012-09-16T12:12:03Z</time>
      </trkpt>
      <trkpt lat="45.90648" lon="6.16324">
        <ele>492.33</ele>
        <time>2012-09-16T12:12:05Z</time>
      </trkpt>
      <trkpt lat="45.90655" lon="6.1632">
        <ele>491.85</ele>
        <time>2012-09-16T12:12:10Z</time>
      </trkpt>
      <trkpt lat="45.90656" lon="6.16321">
        <ele>492.33</ele>
        <time>2012-09-16T12:12:14Z</time>
      </trkpt>
      <trkpt lat="45.90659" lon="6.1632">
        <ele>492.81</ele>
        <time>2012-09-16T12:12:18Z</time>
      </trkpt>
      <trkpt lat="45.9066" lon="6.16322">
        <ele>494.26</ele>
        <time>2012-09-16T12:12:21Z</time>
      </trkpt>
      <trkpt lat="45.90669" lon="6.16318">
        <ele>495.22</ele>
        <time>2012-09-16T12:12:25Z</time>
      </trkpt>
      <trkpt lat="45.90669" lon="6.1632">
        <ele>496.18</ele>
        <time>2012-09-16T12:12:29Z</time>
      </trkpt>
      <trkpt lat="45.90669" lon="6.1632">
        <ele>496.66</ele>
        <time>2012-09-16T12:12:30Z</time>
      </trkpt>
      <trkpt lat="45.90677" lon="6.1632">
        <ele>497.14</ele>
        <time>2012-09-16T12:12:35Z</time>
      </trkpt>
      <trkpt lat="45.90678" lon="6.16319">
        <ele>497.14</ele>
        <time>2012-09-16T12:12:37Z</time>
      </trkpt>
      <trkpt lat="45.90691" lon="6.16314">
        <ele>498.1</ele>
        <time>2012-09-16T12:12:43Z</time>
      </trkpt>
      <trkpt lat="45.90694" lon="6.16313">
        <ele>499.06</ele>
        <time>2012-09-16T12:12:48Z</time>
      </trkpt>
      <trkpt lat="45.90701" lon="6.16306">
        <ele>498.1</ele>
        <time>2012-09-16T12:12:53Z</time>
      </trkpt>
      <trkpt lat="45.90701" lon="6.16305">
        <ele>497.62</ele>
        <time>2012-09-16T12:12:58Z</time>
      </trkpt>
      <trkpt lat="45.90701" lon="6.16305">
        <ele>497.62</ele>
        <time>2012-09-16T12:13:09Z</time>
      </trkpt>
      <trkpt lat="45.907" lon="6.16304">
        <ele>497.14</ele>
        <time>2012-09-16T12:13:10Z</time>
      </trkpt>
      <trkpt lat="45.90698" lon="6.163">
        <ele>496.66</ele>
        <time>2012-09-16T12:13:12Z</time>
      </trkpt>
      <trkpt lat="45.90698" lon="6.16295">
        <ele>495.22</ele>
        <time>2012-09-16T12:13:18Z</time>
      </trkpt>
      <trkpt lat="45.90698" lon="6.16293">
        <ele>495.22</ele>
        <time>2012-09-16T12:13:19Z</time>
      </trkpt>
      <trkpt lat="45.90696" lon="6.16287">
        <ele>492.33</ele>
        <time>2012-09-16T12:13:26Z</time>
      </trkpt>
      <trkpt lat="45.9069" lon="6.16275">
        <ele>491.85</ele>
        <time>2012-09-16T12:13:31Z</time>
      </trkpt>
      <trkpt lat="45.90691" lon="6.16269">
        <ele>491.85</ele>
        <time>2012-09-16T12:13:36Z</time>
      </trkpt>
      <trkpt lat="45.90686" lon="6.16261">
        <ele>490.41</ele>
        <time>2012-09-16T12:13:39Z</time>
      </trkpt>
      <trkpt lat="45.90688" lon="6.16255">
        <ele>489.93</ele>
        <time>2012-09-16T12:13:44Z</time>
      </trkpt>
      <trkpt lat="45.90683" lon="6.16246">
        <ele>490.89</ele>
        <time>2012-09-16T12:13:48Z</time>
      </trkpt>
      <trkpt lat="45.90683" lon="6.16246">
        <ele>490.89</ele>
        <time>2012-09-16T12:13:50Z</time>
      </trkpt>
      <trkpt lat="45.90681" lon="6.16239">
        <ele>491.37</ele>
        <time>2012-09-16T12:13:55Z</time>
      </trkpt>
      <trkpt lat="45.90684" lon="6.16236">
        <ele>491.37</ele>
        <time>2012-09-16T12:13:59Z</time>
      </trkpt>
      <trkpt lat="45.90682" lon="6.16234">
        <ele>491.37</ele>
        <time>2012-09-16T12:14:00Z</time>
      </trkpt>
      <trkpt lat="45.90678" lon="6.16227">
        <ele>489.93</ele>
        <time>2012-09-16T12:14:03Z</time>
      </trkpt>
      <trkpt lat="45.90678" lon="6.16226">
        <ele>488.01</ele>
        <time>2012-09-16T12:14:07Z</time>
      </trkpt>
      <trkpt lat="45.90675" lon="6.16219">
        <ele>483.68</ele>
        <time>2012-09-16T12:14:13Z</time>
      </trkpt>
      <trkpt lat="45.90672" lon="6.16213">
        <ele>481.76</ele>
        <time>2012-09-16T12:14:17Z</time>
      </trkpt>
      <trkpt lat="45.90672" lon="6.16212">
        <ele>480.8</ele>
        <time>2012-09-16T12:14:20Z</time>
      </trkpt>
      <trkpt lat="45.90672" lon="6.16205">
        <ele>479.35</ele>
        <time>2012-09-16T12:14:24Z</time>
      </trkpt>
      <trkpt lat="45.90671" lon="6.162">
        <ele>477.91</ele>
        <time>2012-09-16T12:14:27Z</time>
      </trkpt>
      <trkpt lat="45.90673" lon="6.16198">
        <ele>476.95</ele>
        <time>2012-09-16T12:14:30Z</time>
      </trkpt>
      <trkpt lat="45.90668" lon="6.16189">
        <ele>474.55</ele>
        <time>2012-09-16T12:14:36Z</time>
      </trkpt>
      <trkpt lat="45.90662" lon="6.16182">
        <ele>473.11</ele>
        <time>2012-09-16T12:14:40Z</time>
      </trkpt>
      <trkpt lat="45.90662" lon="6.16181">
        <ele>473.11</ele>
        <time>2012-09-16T12:14:41Z</time>
      </trkpt>
      <trkpt lat="45.90664" lon="6.16181">
        <ele>472.63</ele>
        <time>2012-09-16T12:14:43Z</time>
      </trkpt>
      <trkpt lat="45.90659" lon="6.16172">
        <ele>470.22</ele>
        <time>2012-09-16T12:14:48Z</time>
      </trkpt>
      <trkpt lat="45.90659" lon="6.16172">
        <ele>469.26</ele>
        <time>2012-09-16T12:14:50Z</time>
      </trkpt>
      <trkpt lat="45.90656" lon="6.16166">
        <ele>467.34</ele>
        <time>2012-09-16T12:14:54Z</time>
      </trkpt>
      <trkpt lat="45.90656" lon="6.16165">
        <ele>466.86</ele>
        <time>2012-09-16T12:14:55Z</time>
      </trkpt>
      <trkpt lat="45.90659" lon="6.16163">
        <ele>466.38</ele>
        <time>2012-09-16T12:14:57Z</time>
      </trkpt>
      <trkpt lat="45.90655" lon="6.16152">
        <ele>466.38</ele>
        <time>2012-09-16T12:15:03Z</time>
      </trkpt>
      <trkpt lat="45.90653" lon="6.16144">
        <ele>467.82</ele>
        <time>2012-09-16T12:15:09Z</time>
      </trkpt>
      <trkpt lat="45.90653" lon="6.1614">
        <ele>467.82</ele>
        <time>2012-09-16T12:15:14Z</time>
      </trkpt>
      <trkpt lat="45.9065" lon="6.16134">
        <ele>466.86</ele>
        <time>2012-09-16T12:15:18Z</time>
      </trkpt>
      <trkpt lat="45.90651" lon="6.16134">
        <ele>465.9</ele>
        <time>2012-09-16T12:15:21Z</time>
      </trkpt>
      <trkpt lat="45.90651" lon="6.16127">
        <ele>464.45</ele>
        <time>2012-09-16T12:15:24Z</time>
      </trkpt>
      <trkpt lat="45.90651" lon="6.16123">
        <ele>462.53</ele>
        <time>2012-09-16T12:15:30Z</time>
      </trkpt>
      <trkpt lat="45.90646" lon="6.1611">
        <ele>461.57</ele>
        <time>2012-09-16T12:15:34Z</time>
      </trkpt>
      <trkpt lat="45.90645" lon="6.16106">
        <ele>462.53</ele>
        <time>2012-09-16T12:15:37Z</time>
      </trkpt>
      <trkpt lat="45.90642" lon="6.16099">
        <ele>463.97</ele>
        <time>2012-09-16T12:15:41Z</time>
      </trkpt>
      <trkpt lat="45.90641" lon="6.16096">
        <ele>464.93</ele>
        <time>2012-09-16T12:15:45Z</time>
      </trkpt>
      <trkpt lat="45.90636" lon="6.16086">
        <ele>464.93</ele>
        <time>2012-09-16T12:15:50Z</time>
      </trkpt>
      <trkpt lat="45.90636" lon="6.16085">
        <ele>464.93</ele>
        <time>2012-09-16T12:15:51Z</time>
      </trkpt>
      <trkpt lat="45.90637" lon="6.16086">
        <ele>464.93</ele>
        <time>2012-09-16T12:15:53Z</time>
      </trkpt>
      <trkpt lat="45.90634" lon="6.16076">
        <ele>464.45</ele>
        <time>2012-09-16T12:15:58Z</time>
      </trkpt>
      <trkpt lat="45.90636" lon="6.16076">
        <ele>463.97</ele>
        <time>2012-09-16T12:16:00Z</time>
      </trkpt>
      <trkpt lat="45.90629" lon="6.1607">
        <ele>462.53</ele>
        <time>2012-09-16T12:16:04Z</time>
      </trkpt>
      <trkpt lat="45.90628" lon="6.16069">
        <ele>461.57</ele>
        <time>2012-09-16T12:16:08Z</time>
      </trkpt>
      <trkpt lat="45.90626" lon="6.16059">
        <ele>460.13</ele>
        <time>2012-09-16T12:16:13Z</time>
      </trkpt>
      <trkpt lat="45.90626" lon="6.16056">
        <ele>459.65</ele>
        <time>2012-09-16T12:16:17Z</time>
      </trkpt>
      <trkpt lat="45.90625" lon="6.16053">
        <ele>459.65</ele>
        <time>2012-09-16T12:16:18Z</time>
      </trkpt>
      <trkpt lat="45.90623" lon="6.16049">
        <ele>458.21</ele>
        <time>2012-09-16T12:16:24Z</time>
      </trkpt>
      <trkpt lat="45.90623" lon="6.1604">
        <ele>456.76</ele>
        <time>2012-09-16T12:16:28Z</time>
      </trkpt>
      <trkpt lat="45.90624" lon="6.16039">
        <ele>456.76</ele>
        <time>2012-09-16T12:16:30Z</time>
      </trkpt>
      <trkpt lat="45.9062" lon="6.16031">
        <ele>456.28</ele>
        <time>2012-09-16T12:16:34Z</time>
      </trkpt>
      <trkpt lat="45.90622" lon="6.16029">
        <ele>457.24</ele>
        <time>2012-09-16T12:16:38Z</time>
      </trkpt>
      <trkpt lat="45.90621" lon="6.16019">
        <ele>457.24</ele>
        <time>2012-09-16T12:16:41Z</time>
      </trkpt>
      <trkpt lat="45.90621" lon="6.16017">
        <ele>456.76</ele>
        <time>2012-09-16T12:16:44Z</time>
      </trkpt>
      <trkpt lat="45.9062" lon="6.16015">
        <ele>456.76</ele>
        <time>2012-09-16T12:16:45Z</time>
      </trkpt>
      <trkpt lat="45.90617" lon="6.16008">
        <ele>456.28</ele>
        <time>2012-09-16T12:16:48Z</time>
      </trkpt>
      <trkpt lat="45.9062" lon="6.16006">
        <ele>455.32</ele>
        <time>2012-09-16T12:16:52Z</time>
      </trkpt>
      <trkpt lat="45.90616" lon="6.16">
        <ele>454.36</ele>
        <time>2012-09-16T12:16:55Z</time>
      </trkpt>
      <trkpt lat="45.90616" lon="6.15996">
        <ele>453.4</ele>
        <time>2012-09-16T12:16:58Z</time>
      </trkpt>
      <trkpt lat="45.90616" lon="6.15994">
        <ele>452.92</ele>
        <time>2012-09-16T12:17:00Z</time>
      </trkpt>
      <trkpt lat="45.90615" lon="6.15987">
        <ele>451.48</ele>
        <time>2012-09-16T12:17:05Z</time>
      </trkpt>
      <trkpt lat="45.90612" lon="6.15981">
        <ele>450.03</ele>
        <time>2012-09-16T12:17:09Z</time>
      </trkpt>
      <trkpt lat="45.90611" lon="6.15977">
        <ele>449.55</ele>
        <time>2012-09-16T12:17:14Z</time>
      </trkpt>
      <trkpt lat="45.90609" lon="6.15967">
        <ele>449.55</ele>
        <time>2012-09-16T12:17:18Z</time>
      </trkpt>
      <trkpt lat="45.90607" lon="6.15963">
        <ele>450.52</ele>
        <time>2012-09-16T12:17:22Z</time>
      </trkpt>
      <trkpt lat="45.90602" lon="6.15958">
        <ele>451</ele>
        <time>2012-09-16T12:17:27Z</time>
      </trkpt>
      <trkpt lat="45.90602" lon="6.15957">
        <ele>451.48</ele>
        <time>2012-09-16T12:17:29Z</time>
      </trkpt>
      <trkpt lat="45.90597" lon="6.15952">
        <ele>450.52</ele>
        <time>2012-09-16T12:17:34Z</time>
      </trkpt>
      <trkpt lat="45.90598" lon="6.1595">
        <ele>450.52</ele>
        <time>2012-09-16T12:17:37Z</time>
      </trkpt>
      <trkpt lat="45.90595" lon="6.15938">
        <ele>450.52</ele>
        <time>2012-09-16T12:17:43Z</time>
      </trkpt>
      <trkpt lat="45.90596" lon="6.15935">
        <ele>450.03</ele>
        <time>2012-09-16T12:17:47Z</time>
      </trkpt>
      <trkpt lat="45.90594" lon="6.15923">
        <ele>449.07</ele>
        <time>2012-09-16T12:17:53Z</time>
      </trkpt>
      <trkpt lat="45.90594" lon="6.15923">
        <ele>449.07</ele>
        <time>2012-09-16T12:17:54Z</time>
      </trkpt>
      <trkpt lat="45.90596" lon="6.15909">
        <ele>449.07</ele>
        <time>2012-09-16T12:17:59Z</time>
      </trkpt>
      <trkpt lat="45.90597" lon="6.15909">
        <ele>449.07</ele>
        <time>2012-09-16T12:18:01Z</time>
      </trkpt>
      <trkpt lat="45.90596" lon="6.15897">
        <ele>449.07</ele>
        <time>2012-09-16T12:18:07Z</time>
      </trkpt>
      <trkpt lat="45.90597" lon="6.15895">
        <ele>448.59</ele>
        <time>2012-09-16T12:18:11Z</time>
      </trkpt>
      <trkpt lat="45.90588" lon="6.15887">
        <ele>448.59</ele>
        <time>2012-09-16T12:18:17Z</time>
      </trkpt>
      <trkpt lat="45.90588" lon="6.15885">
        <ele>447.63</ele>
        <time>2012-09-16T12:18:20Z</time>
      </trkpt>
      <trkpt lat="45.90582" lon="6.15877">
        <ele>447.63</ele>
        <time>2012-09-16T12:18:27Z</time>
      </trkpt>
      <trkpt lat="45.90577" lon="6.15873">
        <ele>447.15</ele>
        <time>2012-09-16T12:18:32Z</time>
      </trkpt>
      <trkpt lat="45.90576" lon="6.15869">
        <ele>447.15</ele>
        <time>2012-09-16T12:18:36Z</time>
      </trkpt>
      <trkpt lat="45.90575" lon="6.15867">
        <ele>447.15</ele>
        <time>2012-09-16T12:18:38Z</time>
      </trkpt>
      <trkpt lat="45.90568" lon="6.15862">
        <ele>447.63</ele>
        <time>2012-09-16T12:18:43Z</time>
      </trkpt>
      <trkpt lat="45.90568" lon="6.15861">
        <ele>447.63</ele>
        <time>2012-09-16T12:18:46Z</time>
      </trkpt>
      <trkpt lat="45.9056" lon="6.1586">
        <ele>447.63</ele>
        <time>2012-09-16T12:18:49Z</time>
      </trkpt>
      <trkpt lat="45.90558" lon="6.15855">
        <ele>448.11</ele>
        <time>2012-09-16T12:18:54Z</time>
      </trkpt>
      <trkpt lat="45.9055" lon="6.15855">
        <ele>448.59</ele>
        <time>2012-09-16T12:18:58Z</time>
      </trkpt>
      <trkpt lat="45.9055" lon="6.15854">
        <ele>448.59</ele>
        <time>2012-09-16T12:19:01Z</time>
      </trkpt>
      <trkpt lat="45.90544" lon="6.1586">
        <ele>448.59</ele>
        <time>2012-09-16T12:19:06Z</time>
      </trkpt>
      <trkpt lat="45.90544" lon="6.15859">
        <ele>448.59</ele>
        <time>2012-09-16T12:19:08Z</time>
      </trkpt>
      <trkpt lat="45.90538" lon="6.15853">
        <ele>449.07</ele>
        <time>2012-09-16T12:19:13Z</time>
      </trkpt>
      <trkpt lat="45.90538" lon="6.15846">
        <ele>447.63</ele>
        <time>2012-09-16T12:19:19Z</time>
      </trkpt>
      <trkpt lat="45.90536" lon="6.15837">
        <ele>446.67</ele>
        <time>2012-09-16T12:19:24Z</time>
      </trkpt>
      <trkpt lat="45.90536" lon="6.15836">
        <ele>446.67</ele>
        <time>2012-09-16T12:19:28Z</time>
      </trkpt>
      <trkpt lat="45.9054" lon="6.15827">
        <ele>447.15</ele>
        <time>2012-09-16T12:19:34Z</time>
      </trkpt>
      <trkpt lat="45.90545" lon="6.15817">
        <ele>447.63</ele>
        <time>2012-09-16T12:19:41Z</time>
      </trkpt>
      <trkpt lat="45.9055" lon="6.15806">
        <ele>448.11</ele>
        <time>2012-09-16T12:19:46Z</time>
      </trkpt>
      <trkpt lat="45.90552" lon="6.15801">
        <ele>448.59</ele>
        <time>2012-09-16T12:19:51Z</time>
      </trkpt>
      <trkpt lat="45.90554" lon="6.15797">
        <ele>448.59</ele>
        <time>2012-09-16T12:19:54Z</time>
      </trkpt>
      <trkpt lat="45.90556" lon="6.15788">
        <ele>448.11</ele>
        <time>2012-09-16T12:20:01Z</time>
      </trkpt>
      <trkpt lat="45.90556" lon="6.15784">
        <ele>448.11</ele>
        <time>2012-09-16T12:20:03Z</time>
      </trkpt>
      <trkpt lat="45.90563" lon="6.15775">
        <ele>447.63</ele>
        <time>2012-09-16T12:20:09Z</time>
      </trkpt>
      <trkpt lat="45.90566" lon="6.15766">
        <ele>448.11</ele>
        <time>2012-09-16T12:20:13Z</time>
      </trkpt>
      <trkpt lat="45.90567" lon="6.15762">
        <ele>448.59</ele>
        <time>2012-09-16T12:20:18Z</time>
      </trkpt>
      <trkpt lat="45.9057" lon="6.15754">
        <ele>449.55</ele>
        <time>2012-09-16T12:20:23Z</time>
      </trkpt>
      <trkpt lat="45.9057" lon="6.15754">
        <ele>449.55</ele>
        <time>2012-09-16T12:20:24Z</time>
      </trkpt>
      <trkpt lat="45.90571" lon="6.15741">
        <ele>450.52</ele>
        <time>2012-09-16T12:20:30Z</time>
      </trkpt>
      <trkpt lat="45.90573" lon="6.15734">
        <ele>450.52</ele>
        <time>2012-09-16T12:20:35Z</time>
      </trkpt>
      <trkpt lat="45.90577" lon="6.15732">
        <ele>450.52</ele>
        <time>2012-09-16T12:20:40Z</time>
      </trkpt>
      <trkpt lat="45.90579" lon="6.15721">
        <ele>450.52</ele>
        <time>2012-09-16T12:20:46Z</time>
      </trkpt>
      <trkpt lat="45.90582" lon="6.15713">
        <ele>450.52</ele>
        <time>2012-09-16T12:20:51Z</time>
      </trkpt>
      <trkpt lat="45.90583" lon="6.15705">
        <ele>449.55</ele>
        <time>2012-09-16T12:20:57Z</time>
      </trkpt>
      <trkpt lat="45.90583" lon="6.15692">
        <ele>449.07</ele>
        <time>2012-09-16T12:21:04Z</time>
      </trkpt>
      <trkpt lat="45.90583" lon="6.15691">
        <ele>449.55</ele>
        <time>2012-09-16T12:21:05Z</time>
      </trkpt>
      <trkpt lat="45.90583" lon="6.15679">
        <ele>448.11</ele>
        <time>2012-09-16T12:21:11Z</time>
      </trkpt>
      <trkpt lat="45.90583" lon="6.15675">
        <ele>448.11</ele>
        <time>2012-09-16T12:21:15Z</time>
      </trkpt>
      <trkpt lat="45.90584" lon="6.15667">
        <ele>448.59</ele>
        <time>2012-09-16T12:21:20Z</time>
      </trkpt>
      <trkpt lat="45.90584" lon="6.15667">
        <ele>448.59</ele>
        <time>2012-09-16T12:21:23Z</time>
      </trkpt>
      <trkpt lat="45.90585" lon="6.15657">
        <ele>451</ele>
        <time>2012-09-16T12:21:28Z</time>
      </trkpt>
      <trkpt lat="45.90585" lon="6.15645">
        <ele>453.88</ele>
        <time>2012-09-16T12:21:34Z</time>
      </trkpt>
      <trkpt lat="45.90587" lon="6.1564">
        <ele>453.88</ele>
        <time>2012-09-16T12:21:38Z</time>
      </trkpt>
      <trkpt lat="45.90587" lon="6.15631">
        <ele>454.36</ele>
        <time>2012-09-16T12:21:42Z</time>
      </trkpt>
      <trkpt lat="45.90588" lon="6.15625">
        <ele>453.88</ele>
        <time>2012-09-16T12:21:46Z</time>
      </trkpt>
      <trkpt lat="45.90588" lon="6.15617">
        <ele>453.88</ele>
        <time>2012-09-16T12:21:51Z</time>
      </trkpt>
      <trkpt lat="45.90588" lon="6.15609">
        <ele>452.92</ele>
        <time>2012-09-16T12:21:57Z</time>
      </trkpt>
      <trkpt lat="45.90587" lon="6.15596">
        <ele>451.48</ele>
        <time>2012-09-16T12:22:03Z</time>
      </trkpt>
      <trkpt lat="45.90587" lon="6.15584">
        <ele>449.07</ele>
        <time>2012-09-16T12:22:10Z</time>
      </trkpt>
      <trkpt lat="45.90587" lon="6.15581">
        <ele>449.07</ele>
        <time>2012-09-16T12:22:12Z</time>
      </trkpt>
      <trkpt lat="45.90587" lon="6.15572">
        <ele>448.59</ele>
        <time>2012-09-16T12:22:18Z</time>
      </trkpt>
      <trkpt lat="45.90588" lon="6.15569">
        <ele>447.63</ele>
        <time>2012-09-16T12:22:20Z</time>
      </trkpt>
      <trkpt lat="45.90586" lon="6.1556">
        <ele>447.15</ele>
        <time>2012-09-16T12:22:27Z</time>
      </trkpt>
      <trkpt lat="45.90584" lon="6.15549">
        <ele>446.67</ele>
        <time>2012-09-16T12:22:32Z</time>
      </trkpt>
      <trkpt lat="45.90581" lon="6.15539">
        <ele>447.15</ele>
        <time>2012-09-16T12:22:38Z</time>
      </trkpt>
      <trkpt lat="45.9058" lon="6.15533">
        <ele>446.19</ele>
        <time>2012-09-16T12:22:44Z</time>
      </trkpt>
      <trkpt lat="45.90579" lon="6.15523">
        <ele>445.23</ele>
        <time>2012-09-16T12:22:49Z</time>
      </trkpt>
      <trkpt lat="45.90579" lon="6.15514">
        <ele>443.79</ele>
        <time>2012-09-16T12:22:57Z</time>
      </trkpt>
      <trkpt lat="45.90578" lon="6.15505">
        <ele>443.31</ele>
        <time>2012-09-16T12:23:02Z</time>
      </trkpt>
      <trkpt lat="45.90576" lon="6.15493">
        <ele>444.27</ele>
        <time>2012-09-16T12:23:08Z</time>
      </trkpt>
      <trkpt lat="45.90576" lon="6.15482">
        <ele>445.23</ele>
        <time>2012-09-16T12:23:14Z</time>
      </trkpt>
      <trkpt lat="45.90574" lon="6.15472">
        <ele>445.23</ele>
        <time>2012-09-16T12:23:21Z</time>
      </trkpt>
      <trkpt lat="45.90574" lon="6.15471">
        <ele>445.23</ele>
        <time>2012-09-16T12:23:22Z</time>
      </trkpt>
      <trkpt lat="45.90573" lon="6.15462">
        <ele>445.71</ele>
        <time>2012-09-16T12:23:28Z</time>
      </trkpt>
      <trkpt lat="45.90573" lon="6.15459">
        <ele>445.23</ele>
        <time>2012-09-16T12:23:30Z</time>
      </trkpt>
      <trkpt lat="45.90572" lon="6.15453">
        <ele>444.75</ele>
        <time>2012-09-16T12:23:35Z</time>
      </trkpt>
      <trkpt lat="45.90569" lon="6.15444">
        <ele>443.79</ele>
        <time>2012-09-16T12:23:42Z</time>
      </trkpt>
      <trkpt lat="45.90569" lon="6.15441">
        <ele>443.79</ele>
        <time>2012-09-16T12:23:44Z</time>
      </trkpt>
      <trkpt lat="45.90569" lon="6.15434">
        <ele>444.27</ele>
        <time>2012-09-16T12:23:49Z</time>
      </trkpt>
      <trkpt lat="45.90567" lon="6.15426">
        <ele>442.82</ele>
        <time>2012-09-16T12:23:56Z</time>
      </trkpt>
      <trkpt lat="45.90565" lon="6.15417">
        <ele>442.34</ele>
        <time>2012-09-16T12:24:01Z</time>
      </trkpt>
      <trkpt lat="45.90565" lon="6.15409">
        <ele>442.34</ele>
        <time>2012-09-16T12:24:05Z</time>
      </trkpt>
      <trkpt lat="45.90564" lon="6.15406">
        <ele>442.34</ele>
        <time>2012-09-16T12:24:06Z</time>
      </trkpt>
      <trkpt lat="45.90564" lon="6.15398">
        <ele>442.82</ele>
        <time>2012-09-16T12:24:12Z</time>
      </trkpt>
      <trkpt lat="45.90563" lon="6.15387">
        <ele>444.27</ele>
        <time>2012-09-16T12:24:18Z</time>
      </trkpt>
      <trkpt lat="45.90563" lon="6.15385">
        <ele>444.27</ele>
        <time>2012-09-16T12:24:20Z</time>
      </trkpt>
      <trkpt lat="45.9056" lon="6.15373">
        <ele>445.23</ele>
        <time>2012-09-16T12:24:27Z</time>
      </trkpt>
      <trkpt lat="45.90559" lon="6.15365">
        <ele>445.71</ele>
        <time>2012-09-16T12:24:32Z</time>
      </trkpt>
      <trkpt lat="45.90559" lon="6.1536">
        <ele>446.67</ele>
        <time>2012-09-16T12:24:37Z</time>
      </trkpt>
      <trkpt lat="45.90556" lon="6.15348">
        <ele>446.67</ele>
        <time>2012-09-16T12:24:44Z</time>
      </trkpt>
      <trkpt lat="45.90555" lon="6.15344">
        <ele>446.67</ele>
        <time>2012-09-16T12:24:46Z</time>
      </trkpt>
      <trkpt lat="45.90555" lon="6.15334">
        <ele>447.15</ele>
        <time>2012-09-16T12:24:53Z</time>
      </trkpt>
      <trkpt lat="45.90552" lon="6.15323">
        <ele>447.15</ele>
        <time>2012-09-16T12:24:58Z</time>
      </trkpt>
      <trkpt lat="45.90552" lon="6.15312">
        <ele>446.67</ele>
        <time>2012-09-16T12:25:05Z</time>
      </trkpt>
      <trkpt lat="45.9055" lon="6.15301">
        <ele>446.19</ele>
        <time>2012-09-16T12:25:10Z</time>
      </trkpt>
      <trkpt lat="45.9055" lon="6.15298">
        <ele>445.71</ele>
        <time>2012-09-16T12:25:15Z</time>
      </trkpt>
      <trkpt lat="45.90548" lon="6.15292">
        <ele>443.79</ele>
        <time>2012-09-16T12:25:21Z</time>
      </trkpt>
      <trkpt lat="45.90546" lon="6.15277">
        <ele>442.82</ele>
        <time>2012-09-16T12:25:29Z</time>
      </trkpt>
      <trkpt lat="45.90546" lon="6.15271">
        <ele>442.34</ele>
        <time>2012-09-16T12:25:32Z</time>
      </trkpt>
      <trkpt lat="45.90546" lon="6.15265">
        <ele>440.9</ele>
        <time>2012-09-16T12:25:37Z</time>
      </trkpt>
      <trkpt lat="45.90544" lon="6.15252">
        <ele>439.46</ele>
        <time>2012-09-16T12:25:43Z</time>
      </trkpt>
      <trkpt lat="45.90543" lon="6.15245">
        <ele>438.5</ele>
        <time>2012-09-16T12:25:49Z</time>
      </trkpt>
      <trkpt lat="45.90544" lon="6.15242">
        <ele>437.06</ele>
        <time>2012-09-16T12:25:54Z</time>
      </trkpt>
      <trkpt lat="45.90545" lon="6.15242">
        <ele>437.06</ele>
        <time>2012-09-16T12:25:57Z</time>
      </trkpt>
      <trkpt lat="45.90542" lon="6.15235">
        <ele>436.58</ele>
        <time>2012-09-16T12:26:03Z</time>
      </trkpt>
      <trkpt lat="45.90541" lon="6.15232">
        <ele>437.06</ele>
        <time>2012-09-16T12:26:06Z</time>
      </trkpt>
      <trkpt lat="45.90538" lon="6.15225">
        <ele>436.58</ele>
        <time>2012-09-16T12:26:12Z</time>
      </trkpt>
      <trkpt lat="45.90536" lon="6.15216">
        <ele>436.58</ele>
        <time>2012-09-16T12:26:18Z</time>
      </trkpt>
      <trkpt lat="45.90535" lon="6.15205">
        <ele>436.1</ele>
        <time>2012-09-16T12:26:23Z</time>
      </trkpt>
      <trkpt lat="45.90535" lon="6.15204">
        <ele>436.1</ele>
        <time>2012-09-16T12:26:24Z</time>
      </trkpt>
      <trkpt lat="45.90533" lon="6.15193">
        <ele>436.1</ele>
        <time>2012-09-16T12:26:31Z</time>
      </trkpt>
      <trkpt lat="45.90531" lon="6.15182">
        <ele>436.1</ele>
        <time>2012-09-16T12:26:35Z</time>
      </trkpt>
      <trkpt lat="45.90532" lon="6.15177">
        <ele>437.54</ele>
        <time>2012-09-16T12:26:37Z</time>
      </trkpt>
      <trkpt lat="45.9053" lon="6.15168">
        <ele>437.54</ele>
        <time>2012-09-16T12:26:43Z</time>
      </trkpt>
      <trkpt lat="45.90529" lon="6.15166">
        <ele>437.06</ele>
        <time>2012-09-16T12:26:46Z</time>
      </trkpt>
      <trkpt lat="45.90528" lon="6.15159">
        <ele>435.61</ele>
        <time>2012-09-16T12:26:52Z</time>
      </trkpt>
      <trkpt lat="45.90528" lon="6.15149">
        <ele>434.65</ele>
        <time>2012-09-16T12:26:59Z</time>
      </trkpt>
      <trkpt lat="45.90527" lon="6.15141">
        <ele>435.61</ele>
        <time>2012-09-16T12:27:01Z</time>
      </trkpt>
      <trkpt lat="45.90526" lon="6.15131">
        <ele>437.06</ele>
        <time>2012-09-16T12:27:07Z</time>
      </trkpt>
      <trkpt lat="45.90525" lon="6.15128">
        <ele>437.54</ele>
        <time>2012-09-16T12:27:08Z</time>
      </trkpt>
      <trkpt lat="45.90525" lon="6.1512">
        <ele>438.98</ele>
        <time>2012-09-16T12:27:13Z</time>
      </trkpt>
      <trkpt lat="45.90522" lon="6.15114">
        <ele>437.54</ele>
        <time>2012-09-16T12:27:20Z</time>
      </trkpt>
      <trkpt lat="45.90519" lon="6.15101">
        <ele>438.02</ele>
        <time>2012-09-16T12:27:25Z</time>
      </trkpt>
      <trkpt lat="45.90519" lon="6.15099">
        <ele>438.02</ele>
        <time>2012-09-16T12:27:26Z</time>
      </trkpt>
      <trkpt lat="45.90516" lon="6.15088">
        <ele>439.46</ele>
        <time>2012-09-16T12:27:31Z</time>
      </trkpt>
      <trkpt lat="45.90515" lon="6.15082">
        <ele>439.46</ele>
        <time>2012-09-16T12:27:35Z</time>
      </trkpt>
      <trkpt lat="45.90516" lon="6.15075">
        <ele>440.42</ele>
        <time>2012-09-16T12:27:41Z</time>
      </trkpt>
      <trkpt lat="45.90514" lon="6.15067">
        <ele>441.86</ele>
        <time>2012-09-16T12:27:47Z</time>
      </trkpt>
      <trkpt lat="45.90513" lon="6.15067">
        <ele>442.34</ele>
        <time>2012-09-16T12:27:52Z</time>
      </trkpt>
      <trkpt lat="45.90513" lon="6.15068">
        <ele>442.34</ele>
        <time>2012-09-16T12:28:11Z</time>
      </trkpt>
      <trkpt lat="45.90513" lon="6.15067">
        <ele>443.79</ele>
        <time>2012-09-16T12:28:20Z</time>
      </trkpt>
      <trkpt lat="45.90512" lon="6.15064">
        <ele>445.23</ele>
        <time>2012-09-16T12:28:29Z</time>
      </trkpt>
      <trkpt lat="45.90512" lon="6.15061">
        <ele>444.27</ele>
        <time>2012-09-16T12:28:34Z</time>
      </trkpt>
      <trkpt lat="45.90511" lon="6.15059">
        <ele>444.27</ele>
        <time>2012-09-16T12:28:35Z</time>
      </trkpt>
      <trkpt lat="45.90513" lon="6.15056">
        <ele>442.34</ele>
        <time>2012-09-16T12:28:40Z</time>
      </trkpt>
      <trkpt lat="45.90513" lon="6.15055">
        <ele>441.86</ele>
        <time>2012-09-16T12:28:41Z</time>
      </trkpt>
      <trkpt lat="45.90511" lon="6.15046">
        <ele>440.9</ele>
        <time>2012-09-16T12:28:47Z</time>
      </trkpt>
      <trkpt lat="45.90509" lon="6.15038">
        <ele>439.94</ele>
        <time>2012-09-16T12:28:52Z</time>
      </trkpt>
      <trkpt lat="45.90508" lon="6.15031">
        <ele>439.46</ele>
        <time>2012-09-16T12:28:57Z</time>
      </trkpt>
      <trkpt lat="45.90506" lon="6.15025">
        <ele>438.98</ele>
        <time>2012-09-16T12:29:01Z</time>
      </trkpt>
      <trkpt lat="45.90506" lon="6.15023">
        <ele>438.98</ele>
        <time>2012-09-16T12:29:02Z</time>
      </trkpt>
      <trkpt lat="45.90506" lon="6.15015">
        <ele>438.02</ele>
        <time>2012-09-16T12:29:09Z</time>
      </trkpt>
      <trkpt lat="45.90505" lon="6.15006">
        <ele>437.54</ele>
        <time>2012-09-16T12:29:14Z</time>
      </trkpt>
      <trkpt lat="45.90503" lon="6.14991">
        <ele>437.54</ele>
        <time>2012-09-16T12:29:20Z</time>
      </trkpt>
      <trkpt lat="45.90502" lon="6.14978">
        <ele>439.94</ele>
        <time>2012-09-16T12:29:25Z</time>
      </trkpt>
      <trkpt lat="45.90499" lon="6.14974">
        <ele>440.42</ele>
        <time>2012-09-16T12:29:28Z</time>
      </trkpt>
      <trkpt lat="45.905" lon="6.14968">
        <ele>439.94</ele>
        <time>2012-09-16T12:29:34Z</time>
      </trkpt>
      <trkpt lat="45.905" lon="6.14968">
        <ele>439.94</ele>
        <time>2012-09-16T12:29:35Z</time>
      </trkpt>
      <trkpt lat="45.90498" lon="6.14958">
        <ele>438.98</ele>
        <time>2012-09-16T12:29:42Z</time>
      </trkpt>
      <trkpt lat="45.90495" lon="6.14945">
        <ele>440.42</ele>
        <time>2012-09-16T12:29:47Z</time>
      </trkpt>
      <trkpt lat="45.90496" lon="6.14936">
        <ele>439.46</ele>
        <time>2012-09-16T12:29:53Z</time>
      </trkpt>
      <trkpt lat="45.90494" lon="6.14932">
        <ele>439.46</ele>
        <time>2012-09-16T12:29:56Z</time>
      </trkpt>
      <trkpt lat="45.90494" lon="6.14927">
        <ele>439.94</ele>
        <time>2012-09-16T12:30:02Z</time>
      </trkpt>
      <trkpt lat="45.90492" lon="6.14914">
        <ele>438.02</ele>
        <time>2012-09-16T12:30:08Z</time>
      </trkpt>
      <trkpt lat="45.90493" lon="6.14915">
        <ele>437.54</ele>
        <time>2012-09-16T12:30:10Z</time>
      </trkpt>
      <trkpt lat="45.90491" lon="6.14907">
        <ele>435.61</ele>
        <time>2012-09-16T12:30:16Z</time>
      </trkpt>
      <trkpt lat="45.9049" lon="6.149">
        <ele>434.17</ele>
        <time>2012-09-16T12:30:22Z</time>
      </trkpt>
      <trkpt lat="45.90489" lon="6.14897">
        <ele>433.21</ele>
        <time>2012-09-16T12:30:25Z</time>
      </trkpt>
      <trkpt lat="45.90486" lon="6.14887">
        <ele>432.73</ele>
        <time>2012-09-16T12:30:31Z</time>
      </trkpt>
      <trkpt lat="45.90485" lon="6.14886">
        <ele>432.25</ele>
        <time>2012-09-16T12:30:32Z</time>
      </trkpt>
      <trkpt lat="45.90486" lon="6.14881">
        <ele>431.77</ele>
        <time>2012-09-16T12:30:38Z</time>
      </trkpt>
      <trkpt lat="45.90484" lon="6.14863">
        <ele>436.1</ele>
        <time>2012-09-16T12:30:45Z</time>
      </trkpt>
      <trkpt lat="45.90484" lon="6.1486">
        <ele>435.61</ele>
        <time>2012-09-16T12:30:47Z</time>
      </trkpt>
      <trkpt lat="45.90482" lon="6.14849">
        <ele>437.06</ele>
        <time>2012-09-16T12:30:50Z</time>
      </trkpt>
      <trkpt lat="45.9048" lon="6.14839">
        <ele>435.61</ele>
        <time>2012-09-16T12:30:57Z</time>
      </trkpt>
      <trkpt lat="45.90479" lon="6.14837">
        <ele>435.61</ele>
        <time>2012-09-16T12:30:58Z</time>
      </trkpt>
      <trkpt lat="45.90479" lon="6.14831">
        <ele>435.61</ele>
        <time>2012-09-16T12:31:03Z</time>
      </trkpt>
      <trkpt lat="45.90477" lon="6.14826">
        <ele>435.61</ele>
        <time>2012-09-16T12:31:05Z</time>
      </trkpt>
      <trkpt lat="45.90478" lon="6.14821">
        <ele>436.58</ele>
        <time>2012-09-16T12:31:10Z</time>
      </trkpt>
      <trkpt lat="45.90475" lon="6.1481">
        <ele>438.98</ele>
        <time>2012-09-16T12:31:16Z</time>
      </trkpt>
      <trkpt lat="45.90474" lon="6.14802">
        <ele>438.02</ele>
        <time>2012-09-16T12:31:22Z</time>
      </trkpt>
      <trkpt lat="45.90471" lon="6.14797">
        <ele>437.54</ele>
        <time>2012-09-16T12:31:25Z</time>
      </trkpt>
      <trkpt lat="45.90471" lon="6.14791">
        <ele>437.54</ele>
        <time>2012-09-16T12:31:30Z</time>
      </trkpt>
      <trkpt lat="45.90471" lon="6.1479">
        <ele>437.06</ele>
        <time>2012-09-16T12:31:31Z</time>
      </trkpt>
      <trkpt lat="45.90468" lon="6.14779">
        <ele>436.1</ele>
        <time>2012-09-16T12:31:38Z</time>
      </trkpt>
      <trkpt lat="45.90469" lon="6.14774">
        <ele>436.1</ele>
        <time>2012-09-16T12:31:41Z</time>
      </trkpt>
      <trkpt lat="45.90466" lon="6.14765">
        <ele>434.65</ele>
        <time>2012-09-16T12:31:47Z</time>
      </trkpt>
      <trkpt lat="45.90467" lon="6.14763">
        <ele>435.13</ele>
        <time>2012-09-16T12:31:50Z</time>
      </trkpt>
      <trkpt lat="45.90466" lon="6.14751">
        <ele>434.65</ele>
        <time>2012-09-16T12:31:55Z</time>
      </trkpt>
      <trkpt lat="45.90465" lon="6.14748">
        <ele>434.65</ele>
        <time>2012-09-16T12:31:59Z</time>
      </trkpt>
      <trkpt lat="45.90462" lon="6.14739">
        <ele>433.69</ele>
        <time>2012-09-16T12:32:04Z</time>
      </trkpt>
      <trkpt lat="45.90462" lon="6.14731">
        <ele>432.73</ele>
        <time>2012-09-16T12:32:09Z</time>
      </trkpt>
      <trkpt lat="45.90459" lon="6.1472">
        <ele>431.29</ele>
        <time>2012-09-16T12:32:16Z</time>
      </trkpt>
      <trkpt lat="45.9046" lon="6.14712">
        <ele>431.29</ele>
        <time>2012-09-16T12:32:21Z</time>
      </trkpt>
      <trkpt lat="45.9046" lon="6.14709">
        <ele>431.29</ele>
        <time>2012-09-16T12:32:22Z</time>
      </trkpt>
      <trkpt lat="45.9046" lon="6.14704">
        <ele>433.21</ele>
        <time>2012-09-16T12:32:26Z</time>
      </trkpt>
      <trkpt lat="45.90458" lon="6.14692">
        <ele>432.73</ele>
        <time>2012-09-16T12:32:31Z</time>
      </trkpt>
      <trkpt lat="45.90459" lon="6.14686">
        <ele>435.13</ele>
        <time>2012-09-16T12:32:35Z</time>
      </trkpt>
      <trkpt lat="45.90457" lon="6.14675">
        <ele>438.02</ele>
        <time>2012-09-16T12:32:39Z</time>
      </trkpt>
      <trkpt lat="45.90458" lon="6.1466">
        <ele>442.34</ele>
        <time>2012-09-16T12:32:45Z</time>
      </trkpt>
      <trkpt lat="45.90457" lon="6.14651">
        <ele>444.27</ele>
        <time>2012-09-16T12:32:48Z</time>
      </trkpt>
      <trkpt lat="45.90457" lon="6.1464">
        <ele>446.19</ele>
        <time>2012-09-16T12:32:54Z</time>
      </trkpt>
      <trkpt lat="45.90455" lon="6.14631">
        <ele>447.15</ele>
        <time>2012-09-16T12:32:59Z</time>
      </trkpt>
      <trkpt lat="45.90457" lon="6.14629">
        <ele>447.63</ele>
        <time>2012-09-16T12:33:01Z</time>
      </trkpt>
      <trkpt lat="45.90457" lon="6.14615">
        <ele>446.19</ele>
        <time>2012-09-16T12:33:07Z</time>
      </trkpt>
      <trkpt lat="45.90456" lon="6.14615">
        <ele>446.19</ele>
        <time>2012-09-16T12:33:10Z</time>
      </trkpt>
      <trkpt lat="45.90457" lon="6.14604">
        <ele>445.71</ele>
        <time>2012-09-16T12:33:16Z</time>
      </trkpt>
      <trkpt lat="45.90457" lon="6.14604">
        <ele>445.71</ele>
        <time>2012-09-16T12:33:17Z</time>
      </trkpt>
      <trkpt lat="45.90458" lon="6.1459">
        <ele>445.71</ele>
        <time>2012-09-16T12:33:23Z</time>
      </trkpt>
      <trkpt lat="45.90459" lon="6.14589">
        <ele>446.19</ele>
        <time>2012-09-16T12:33:25Z</time>
      </trkpt>
      <trkpt lat="45.9046" lon="6.14578">
        <ele>446.67</ele>
        <time>2012-09-16T12:33:29Z</time>
      </trkpt>
      <trkpt lat="45.90462" lon="6.14573">
        <ele>447.15</ele>
        <time>2012-09-16T12:33:34Z</time>
      </trkpt>
      <trkpt lat="45.90461" lon="6.14564">
        <ele>446.67</ele>
        <time>2012-09-16T12:33:39Z</time>
      </trkpt>
      <trkpt lat="45.90462" lon="6.14549">
        <ele>448.11</ele>
        <time>2012-09-16T12:33:45Z</time>
      </trkpt>
      <trkpt lat="45.90463" lon="6.14547">
        <ele>448.59</ele>
        <time>2012-09-16T12:33:49Z</time>
      </trkpt>
      <trkpt lat="45.90463" lon="6.14535">
        <ele>448.11</ele>
        <time>2012-09-16T12:33:55Z</time>
      </trkpt>
      <trkpt lat="45.90464" lon="6.14534">
        <ele>448.59</ele>
        <time>2012-09-16T12:33:57Z</time>
      </trkpt>
      <trkpt lat="45.90465" lon="6.14523">
        <ele>447.63</ele>
        <time>2012-09-16T12:34:04Z</time>
      </trkpt>
      <trkpt lat="45.90467" lon="6.14515">
        <ele>448.11</ele>
        <time>2012-09-16T12:34:09Z</time>
      </trkpt>
      <trkpt lat="45.90468" lon="6.14508">
        <ele>446.67</ele>
        <time>2012-09-16T12:34:15Z</time>
      </trkpt>
      <trkpt lat="45.90471" lon="6.14497">
        <ele>445.71</ele>
        <time>2012-09-16T12:34:21Z</time>
      </trkpt>
      <trkpt lat="45.90471" lon="6.14492">
        <ele>445.71</ele>
        <time>2012-09-16T12:34:25Z</time>
      </trkpt>
      <trkpt lat="45.90473" lon="6.14485">
        <ele>445.71</ele>
        <time>2012-09-16T12:34:30Z</time>
      </trkpt>
      <trkpt lat="45.90475" lon="6.14476">
        <ele>445.23</ele>
        <time>2012-09-16T12:34:34Z</time>
      </trkpt>
      <trkpt lat="45.90476" lon="6.14472">
        <ele>445.23</ele>
        <time>2012-09-16T12:34:38Z</time>
      </trkpt>
      <trkpt lat="45.90478" lon="6.14461">
        <ele>445.71</ele>
        <time>2012-09-16T12:34:45Z</time>
      </trkpt>
      <trkpt lat="45.90479" lon="6.14449">
        <ele>444.27</ele>
        <time>2012-09-16T12:34:50Z</time>
      </trkpt>
      <trkpt lat="45.90481" lon="6.14443">
        <ele>443.31</ele>
        <time>2012-09-16T12:34:55Z</time>
      </trkpt>
      <trkpt lat="45.90483" lon="6.14438">
        <ele>442.82</ele>
        <time>2012-09-16T12:35:00Z</time>
      </trkpt>
      <trkpt lat="45.90484" lon="6.14429">
        <ele>442.34</ele>
        <time>2012-09-16T12:35:05Z</time>
      </trkpt>
      <trkpt lat="45.90486" lon="6.14426">
        <ele>442.82</ele>
        <time>2012-09-16T12:35:10Z</time>
      </trkpt>
      <trkpt lat="45.90487" lon="6.14424">
        <ele>442.82</ele>
        <time>2012-09-16T12:35:11Z</time>
      </trkpt>
      <trkpt lat="45.90491" lon="6.14416">
        <ele>443.79</ele>
        <time>2012-09-16T12:35:15Z</time>
      </trkpt>
      <trkpt lat="45.90492" lon="6.14408">
        <ele>443.79</ele>
        <time>2012-09-16T12:35:21Z</time>
      </trkpt>
      <trkpt lat="45.90495" lon="6.144">
        <ele>444.27</ele>
        <time>2012-09-16T12:35:27Z</time>
      </trkpt>
      <trkpt lat="45.90498" lon="6.14393">
        <ele>443.79</ele>
        <time>2012-09-16T12:35:33Z</time>
      </trkpt>
      <trkpt lat="45.90499" lon="6.14389">
        <ele>444.27</ele>
        <time>2012-09-16T12:35:37Z</time>
      </trkpt>
      <trkpt lat="45.90498" lon="6.14384">
        <ele>445.23</ele>
        <time>2012-09-16T12:35:39Z</time>
      </trkpt>
      <trkpt lat="45.90499" lon="6.14375">
        <ele>448.59</ele>
        <time>2012-09-16T12:35:44Z</time>
      </trkpt>
      <trkpt lat="45.905" lon="6.14368">
        <ele>449.55</ele>
        <time>2012-09-16T12:35:48Z</time>
      </trkpt>
      <trkpt lat="45.90503" lon="6.1436">
        <ele>450.52</ele>
        <time>2012-09-16T12:35:54Z</time>
      </trkpt>
      <trkpt lat="45.90506" lon="6.14351">
        <ele>448.11</ele>
        <time>2012-09-16T12:36:00Z</time>
      </trkpt>
      <trkpt lat="45.90506" lon="6.14336">
        <ele>448.59</ele>
        <time>2012-09-16T12:36:05Z</time>
      </trkpt>
      <trkpt lat="45.90506" lon="6.14328">
        <ele>448.11</ele>
        <time>2012-09-16T12:36:11Z</time>
      </trkpt>
      <trkpt lat="45.90506" lon="6.14319">
        <ele>448.59</ele>
        <time>2012-09-16T12:36:17Z</time>
      </trkpt>
      <trkpt lat="45.90505" lon="6.14306">
        <ele>449.07</ele>
        <time>2012-09-16T12:36:23Z</time>
      </trkpt>
      <trkpt lat="45.90505" lon="6.14296">
        <ele>448.11</ele>
        <time>2012-09-16T12:36:29Z</time>
      </trkpt>
      <trkpt lat="45.90506" lon="6.14289">
        <ele>447.63</ele>
        <time>2012-09-16T12:36:34Z</time>
      </trkpt>
      <trkpt lat="45.90505" lon="6.14287">
        <ele>447.63</ele>
        <time>2012-09-16T12:36:35Z</time>
      </trkpt>
      <trkpt lat="45.90506" lon="6.14278">
        <ele>446.19</ele>
        <time>2012-09-16T12:36:42Z</time>
      </trkpt>
      <trkpt lat="45.90506" lon="6.14273">
        <ele>445.23</ele>
        <time>2012-09-16T12:36:46Z</time>
      </trkpt>
      <trkpt lat="45.90504" lon="6.14263">
        <ele>445.23</ele>
        <time>2012-09-16T12:36:51Z</time>
      </trkpt>
      <trkpt lat="45.90505" lon="6.1426">
        <ele>444.75</ele>
        <time>2012-09-16T12:36:54Z</time>
      </trkpt>
      <trkpt lat="45.90507" lon="6.14253">
        <ele>444.75</ele>
        <time>2012-09-16T12:37:00Z</time>
      </trkpt>
      <trkpt lat="45.90509" lon="6.14252">
        <ele>443.79</ele>
        <time>2012-09-16T12:37:05Z</time>
      </trkpt>
      <trkpt lat="45.90509" lon="6.14252">
        <ele>443.79</ele>
        <time>2012-09-16T12:37:14Z</time>
      </trkpt>
      <trkpt lat="45.90509" lon="6.1425">
        <ele>444.75</ele>
        <time>2012-09-16T12:37:22Z</time>
      </trkpt>
      <trkpt lat="45.9051" lon="6.14249">
        <ele>445.71</ele>
        <time>2012-09-16T12:37:33Z</time>
      </trkpt>
      <trkpt lat="45.90511" lon="6.14249">
        <ele>445.23</ele>
        <time>2012-09-16T12:37:40Z</time>
      </trkpt>
      <trkpt lat="45.90519" lon="6.14243">
        <ele>445.23</ele>
        <time>2012-09-16T12:37:46Z</time>
      </trkpt>
      <trkpt lat="45.90523" lon="6.14241">
        <ele>445.23</ele>
        <time>2012-09-16T12:37:51Z</time>
      </trkpt>
      <trkpt lat="45.90524" lon="6.14231">
        <ele>444.27</ele>
        <time>2012-09-16T12:37:58Z</time>
      </trkpt>
      <trkpt lat="45.9052" lon="6.14226">
        <ele>442.82</ele>
        <time>2012-09-16T12:38:05Z</time>
      </trkpt>
      <trkpt lat="45.90518" lon="6.14223">
        <ele>442.82</ele>
        <time>2012-09-16T12:38:07Z</time>
      </trkpt>
      <trkpt lat="45.90517" lon="6.14218">
        <ele>441.38</ele>
        <time>2012-09-16T12:38:12Z</time>
      </trkpt>
      <trkpt lat="45.90513" lon="6.14209">
        <ele>440.42</ele>
        <time>2012-09-16T12:38:18Z</time>
      </trkpt>
      <trkpt lat="45.9051" lon="6.142">
        <ele>439.94</ele>
        <time>2012-09-16T12:38:24Z</time>
      </trkpt>
      <trkpt lat="45.90507" lon="6.14194">
        <ele>438.98</ele>
        <time>2012-09-16T12:38:30Z</time>
      </trkpt>
      <trkpt lat="45.90506" lon="6.1419">
        <ele>438.98</ele>
        <time>2012-09-16T12:38:32Z</time>
      </trkpt>
      <trkpt lat="45.90505" lon="6.14183">
        <ele>438.5</ele>
        <time>2012-09-16T12:38:36Z</time>
      </trkpt>
      <trkpt lat="45.90501" lon="6.14175">
        <ele>439.46</ele>
        <time>2012-09-16T12:38:41Z</time>
      </trkpt>
      <trkpt lat="45.90499" lon="6.14166">
        <ele>440.42</ele>
        <time>2012-09-16T12:38:47Z</time>
      </trkpt>
      <trkpt lat="45.90497" lon="6.14162">
        <ele>439.94</ele>
        <time>2012-09-16T12:38:49Z</time>
      </trkpt>
      <trkpt lat="45.90496" lon="6.1416">
        <ele>439.94</ele>
        <time>2012-09-16T12:38:51Z</time>
      </trkpt>
      <trkpt lat="45.90493" lon="6.14149">
        <ele>439.46</ele>
        <time>2012-09-16T12:38:57Z</time>
      </trkpt>
      <trkpt lat="45.90493" lon="6.14144">
        <ele>438.98</ele>
        <time>2012-09-16T12:39:02Z</time>
      </trkpt>
      <trkpt lat="45.90491" lon="6.14134">
        <ele>438.5</ele>
        <time>2012-09-16T12:39:09Z</time>
      </trkpt>
      <trkpt lat="45.90487" lon="6.14121">
        <ele>439.94</ele>
        <time>2012-09-16T12:39:16Z</time>
      </trkpt>
      <trkpt lat="45.90484" lon="6.14109">
        <ele>441.86</ele>
        <time>2012-09-16T12:39:21Z</time>
      </trkpt>
      <trkpt lat="45.90483" lon="6.14101">
        <ele>443.31</ele>
        <time>2012-09-16T12:39:26Z</time>
      </trkpt>
      <trkpt lat="45.90481" lon="6.14094">
        <ele>443.79</ele>
        <time>2012-09-16T12:39:29Z</time>
      </trkpt>
      <trkpt lat="45.90479" lon="6.14087">
        <ele>442.34</ele>
        <time>2012-09-16T12:39:34Z</time>
      </trkpt>
      <trkpt lat="45.90477" lon="6.14077">
        <ele>440.42</ele>
        <time>2012-09-16T12:39:41Z</time>
      </trkpt>
      <trkpt lat="45.90477" lon="6.14074">
        <ele>439.94</ele>
        <time>2012-09-16T12:39:43Z</time>
      </trkpt>
      <trkpt lat="45.90474" lon="6.14066">
        <ele>441.38</ele>
        <time>2012-09-16T12:39:49Z</time>
      </trkpt>
      <trkpt lat="45.90471" lon="6.14057">
        <ele>442.82</ele>
        <time>2012-09-16T12:39:55Z</time>
      </trkpt>
      <trkpt lat="45.90466" lon="6.14044">
        <ele>442.82</ele>
        <time>2012-09-16T12:40:02Z</time>
      </trkpt>
      <trkpt lat="45.90466" lon="6.14043">
        <ele>442.34</ele>
        <time>2012-09-16T12:40:03Z</time>
      </trkpt>
      <trkpt lat="45.90463" lon="6.1403">
        <ele>442.34</ele>
        <time>2012-09-16T12:40:10Z</time>
      </trkpt>
      <trkpt lat="45.90462" lon="6.14026">
        <ele>442.34</ele>
        <time>2012-09-16T12:40:13Z</time>
      </trkpt>
      <trkpt lat="45.90459" lon="6.14021">
        <ele>442.34</ele>
        <time>2012-09-16T12:40:18Z</time>
      </trkpt>
      <trkpt lat="45.90459" lon="6.14018">
        <ele>441.86</ele>
        <time>2012-09-16T12:40:20Z</time>
      </trkpt>
      <trkpt lat="45.90458" lon="6.14009">
        <ele>442.82</ele>
        <time>2012-09-16T12:40:26Z</time>
      </trkpt>
      <trkpt lat="45.90457" lon="6.14009">
        <ele>442.82</ele>
        <time>2012-09-16T12:40:27Z</time>
      </trkpt>
      <trkpt lat="45.90455" lon="6.13998">
        <ele>443.79</ele>
        <time>2012-09-16T12:40:33Z</time>
      </trkpt>
      <trkpt lat="45.90454" lon="6.1399">
        <ele>443.31</ele>
        <time>2012-09-16T12:40:40Z</time>
      </trkpt>
      <trkpt lat="45.90451" lon="6.13982">
        <ele>443.79</ele>
        <time>2012-09-16T12:40:45Z</time>
      </trkpt>
      <trkpt lat="45.90451" lon="6.13978">
        <ele>444.75</ele>
        <time>2012-09-16T12:40:47Z</time>
      </trkpt>
      <trkpt lat="45.90453" lon="6.13977">
        <ele>445.71</ele>
        <time>2012-09-16T12:40:49Z</time>
      </trkpt>
      <trkpt lat="45.90449" lon="6.13963">
        <ele>447.63</ele>
        <time>2012-09-16T12:40:55Z</time>
      </trkpt>
      <trkpt lat="45.90449" lon="6.13963">
        <ele>447.63</ele>
        <time>2012-09-16T12:40:56Z</time>
      </trkpt>
      <trkpt lat="45.90443" lon="6.13951">
        <ele>447.63</ele>
        <time>2012-09-16T12:41:04Z</time>
      </trkpt>
      <trkpt lat="45.90439" lon="6.13944">
        <ele>445.23</ele>
        <time>2012-09-16T12:41:10Z</time>
      </trkpt>
      <trkpt lat="45.90439" lon="6.13942">
        <ele>445.23</ele>
        <time>2012-09-16T12:41:11Z</time>
      </trkpt>
      <trkpt lat="45.90438" lon="6.13931">
        <ele>444.75</ele>
        <time>2012-09-16T12:41:18Z</time>
      </trkpt>
      <trkpt lat="45.90436" lon="6.13924">
        <ele>443.79</ele>
        <time>2012-09-16T12:41:24Z</time>
      </trkpt>
      <trkpt lat="45.90435" lon="6.13921">
        <ele>443.79</ele>
        <time>2012-09-16T12:41:27Z</time>
      </trkpt>
      <trkpt lat="45.90433" lon="6.13915">
        <ele>443.79</ele>
        <time>2012-09-16T12:41:33Z</time>
      </trkpt>
      <trkpt lat="45.9043" lon="6.13908">
        <ele>442.34</ele>
        <time>2012-09-16T12:41:41Z</time>
      </trkpt>
      <trkpt lat="45.90428" lon="6.13901">
        <ele>440.9</ele>
        <time>2012-09-16T12:41:48Z</time>
      </trkpt>
      <trkpt lat="45.90426" lon="6.13894">
        <ele>440.42</ele>
        <time>2012-09-16T12:41:53Z</time>
      </trkpt>
      <trkpt lat="45.90426" lon="6.13892">
        <ele>439.94</ele>
        <time>2012-09-16T12:41:54Z</time>
      </trkpt>
      <trkpt lat="45.90423" lon="6.13886">
        <ele>438.98</ele>
        <time>2012-09-16T12:42:00Z</time>
      </trkpt>
      <trkpt lat="45.90423" lon="6.13878">
        <ele>438.5</ele>
        <time>2012-09-16T12:42:06Z</time>
      </trkpt>
      <trkpt lat="45.90421" lon="6.13862">
        <ele>438.98</ele>
        <time>2012-09-16T12:42:14Z</time>
      </trkpt>
      <trkpt lat="45.9042" lon="6.1386">
        <ele>438.98</ele>
        <time>2012-09-16T12:42:15Z</time>
      </trkpt>
      <trkpt lat="45.90419" lon="6.13849">
        <ele>438.98</ele>
        <time>2012-09-16T12:42:22Z</time>
      </trkpt>
      <trkpt lat="45.90419" lon="6.13844">
        <ele>438.5</ele>
        <time>2012-09-16T12:42:25Z</time>
      </trkpt>
      <trkpt lat="45.90415" lon="6.13834">
        <ele>437.54</ele>
        <time>2012-09-16T12:42:31Z</time>
      </trkpt>
      <trkpt lat="45.90414" lon="6.13834">
        <ele>437.54</ele>
        <time>2012-09-16T12:42:33Z</time>
      </trkpt>
      <trkpt lat="45.9041" lon="6.13826">
        <ele>436.58</ele>
        <time>2012-09-16T12:42:39Z</time>
      </trkpt>
      <trkpt lat="45.90407" lon="6.1382">
        <ele>435.61</ele>
        <time>2012-09-16T12:42:44Z</time>
      </trkpt>
      <trkpt lat="45.90406" lon="6.13817">
        <ele>434.65</ele>
        <time>2012-09-16T12:42:48Z</time>
      </trkpt>
      <trkpt lat="45.90404" lon="6.13814">
        <ele>434.65</ele>
        <time>2012-09-16T12:42:50Z</time>
      </trkpt>
      <trkpt lat="45.90404" lon="6.13807">
        <ele>433.69</ele>
        <time>2012-09-16T12:42:55Z</time>
      </trkpt>
      <trkpt lat="45.90402" lon="6.13799">
        <ele>432.25</ele>
        <time>2012-09-16T12:43:02Z</time>
      </trkpt>
      <trkpt lat="45.904" lon="6.13792">
        <ele>430.81</ele>
        <time>2012-09-16T12:43:08Z</time>
      </trkpt>
      <trkpt lat="45.90397" lon="6.13786">
        <ele>429.85</ele>
        <time>2012-09-16T12:43:11Z</time>
      </trkpt>
      <trkpt lat="45.90398" lon="6.13779">
        <ele>427.44</ele>
        <time>2012-09-16T12:43:16Z</time>
      </trkpt>
      <trkpt lat="45.90396" lon="6.1377">
        <ele>425.04</ele>
        <time>2012-09-16T12:43:23Z</time>
      </trkpt>
      <trkpt lat="45.90395" lon="6.13766">
        <ele>423.12</ele>
        <time>2012-09-16T12:43:29Z</time>
      </trkpt>
      <trkpt lat="45.90393" lon="6.1376">
        <ele>421.19</ele>
        <time>2012-09-16T12:43:34Z</time>
      </trkpt>
      <trkpt lat="45.90392" lon="6.13752">
        <ele>421.19</ele>
        <time>2012-09-16T12:43:38Z</time>
      </trkpt>
      <trkpt lat="45.90391" lon="6.13743">
        <ele>422.16</ele>
        <time>2012-09-16T12:43:45Z</time>
      </trkpt>
      <trkpt lat="45.90389" lon="6.13735">
        <ele>422.64</ele>
        <time>2012-09-16T12:43:51Z</time>
      </trkpt>
      <trkpt lat="45.90386" lon="6.13729">
        <ele>422.16</ele>
        <time>2012-09-16T12:43:55Z</time>
      </trkpt>
      <trkpt lat="45.90384" lon="6.13721">
        <ele>423.12</ele>
        <time>2012-09-16T12:44:00Z</time>
      </trkpt>
      <trkpt lat="45.90377" lon="6.13703">
        <ele>425.52</ele>
        <time>2012-09-16T12:44:08Z</time>
      </trkpt>
      <trkpt lat="45.90373" lon="6.1369">
        <ele>426.96</ele>
        <time>2012-09-16T12:44:14Z</time>
      </trkpt>
      <trkpt lat="45.90371" lon="6.13678">
        <ele>431.29</ele>
        <time>2012-09-16T12:44:19Z</time>
      </trkpt>
      <trkpt lat="45.90368" lon="6.1367">
        <ele>432.73</ele>
        <time>2012-09-16T12:44:24Z</time>
      </trkpt>
      <trkpt lat="45.90367" lon="6.13668">
        <ele>432.73</ele>
        <time>2012-09-16T12:44:28Z</time>
      </trkpt>
      <trkpt lat="45.90366" lon="6.13663">
        <ele>432.73</ele>
        <time>2012-09-16T12:44:33Z</time>
      </trkpt>
      <trkpt lat="45.90364" lon="6.13657">
        <ele>432.73</ele>
        <time>2012-09-16T12:44:40Z</time>
      </trkpt>
      <trkpt lat="45.90361" lon="6.13648">
        <ele>431.29</ele>
        <time>2012-09-16T12:44:46Z</time>
      </trkpt>
      <trkpt lat="45.9036" lon="6.13643">
        <ele>430.81</ele>
        <time>2012-09-16T12:44:51Z</time>
      </trkpt>
      <trkpt lat="45.90358" lon="6.13634">
        <ele>430.33</ele>
        <time>2012-09-16T12:44:57Z</time>
      </trkpt>
      <trkpt lat="45.90358" lon="6.13631">
        <ele>429.85</ele>
        <time>2012-09-16T12:45:00Z</time>
      </trkpt>
      <trkpt lat="45.90357" lon="6.13624">
        <ele>427.92</ele>
        <time>2012-09-16T12:45:06Z</time>
      </trkpt>
      <trkpt lat="45.90358" lon="6.13611">
        <ele>426.96</ele>
        <time>2012-09-16T12:45:12Z</time>
      </trkpt>
      <trkpt lat="45.90358" lon="6.13608">
        <ele>427.44</ele>
        <time>2012-09-16T12:45:15Z</time>
      </trkpt>
      <trkpt lat="45.90356" lon="6.13602">
        <ele>428.4</ele>
        <time>2012-09-16T12:45:21Z</time>
      </trkpt>
      <trkpt lat="45.90351" lon="6.13591">
        <ele>428.89</ele>
        <time>2012-09-16T12:45:26Z</time>
      </trkpt>
      <trkpt lat="45.90351" lon="6.1359">
        <ele>428.89</ele>
        <time>2012-09-16T12:45:27Z</time>
      </trkpt>
      <trkpt lat="45.90345" lon="6.1358">
        <ele>428.89</ele>
        <time>2012-09-16T12:45:32Z</time>
      </trkpt>
      <trkpt lat="45.90344" lon="6.13576">
        <ele>428.89</ele>
        <time>2012-09-16T12:45:35Z</time>
      </trkpt>
      <trkpt lat="45.90339" lon="6.13565">
        <ele>430.81</ele>
        <time>2012-09-16T12:45:40Z</time>
      </trkpt>
      <trkpt lat="45.90337" lon="6.13557">
        <ele>432.25</ele>
        <time>2012-09-16T12:45:44Z</time>
      </trkpt>
      <trkpt lat="45.90335" lon="6.13546">
        <ele>434.17</ele>
        <time>2012-09-16T12:45:49Z</time>
      </trkpt>
      <trkpt lat="45.90332" lon="6.1353">
        <ele>441.38</ele>
        <time>2012-09-16T12:45:53Z</time>
      </trkpt>
      <trkpt lat="45.90329" lon="6.13518">
        <ele>444.27</ele>
        <time>2012-09-16T12:45:58Z</time>
      </trkpt>
      <trkpt lat="45.90329" lon="6.13514">
        <ele>445.23</ele>
        <time>2012-09-16T12:46:01Z</time>
      </trkpt>
      <trkpt lat="45.90326" lon="6.13507">
        <ele>445.71</ele>
        <time>2012-09-16T12:46:06Z</time>
      </trkpt>
      <trkpt lat="45.90325" lon="6.13499">
        <ele>444.75</ele>
        <time>2012-09-16T12:46:11Z</time>
      </trkpt>
      <trkpt lat="45.90321" lon="6.1349">
        <ele>444.27</ele>
        <time>2012-09-16T12:46:16Z</time>
      </trkpt>
      <trkpt lat="45.90319" lon="6.13484">
        <ele>444.27</ele>
        <time>2012-09-16T12:46:21Z</time>
      </trkpt>
      <trkpt lat="45.90318" lon="6.13474">
        <ele>440.42</ele>
        <time>2012-09-16T12:46:27Z</time>
      </trkpt>
      <trkpt lat="45.90317" lon="6.13471">
        <ele>438.98</ele>
        <time>2012-09-16T12:46:32Z</time>
      </trkpt>
      <trkpt lat="45.90314" lon="6.13462">
        <ele>437.54</ele>
        <time>2012-09-16T12:46:37Z</time>
      </trkpt>
      <trkpt lat="45.90313" lon="6.13457">
        <ele>436.58</ele>
        <time>2012-09-16T12:46:42Z</time>
      </trkpt>
      <trkpt lat="45.90311" lon="6.13448">
        <ele>435.61</ele>
        <time>2012-09-16T12:46:49Z</time>
      </trkpt>
      <trkpt lat="45.90312" lon="6.13446">
        <ele>435.13</ele>
        <time>2012-09-16T12:46:50Z</time>
      </trkpt>
      <trkpt lat="45.90306" lon="6.13437">
        <ele>432.73</ele>
        <time>2012-09-16T12:46:56Z</time>
      </trkpt>
      <trkpt lat="45.90304" lon="6.13426">
        <ele>430.33</ele>
        <time>2012-09-16T12:47:02Z</time>
      </trkpt>
      <trkpt lat="45.90306" lon="6.13424">
        <ele>430.33</ele>
        <time>2012-09-16T12:47:04Z</time>
      </trkpt>
      <trkpt lat="45.90308" lon="6.13419">
        <ele>429.85</ele>
        <time>2012-09-16T12:47:10Z</time>
      </trkpt>
      <trkpt lat="45.90305" lon="6.1341">
        <ele>429.37</ele>
        <time>2012-09-16T12:47:15Z</time>
      </trkpt>
      <trkpt lat="45.90301" lon="6.134">
        <ele>430.33</ele>
        <time>2012-09-16T12:47:20Z</time>
      </trkpt>
      <trkpt lat="45.90301" lon="6.13397">
        <ele>432.25</ele>
        <time>2012-09-16T12:47:24Z</time>
      </trkpt>
      <trkpt lat="45.90297" lon="6.13389">
        <ele>434.17</ele>
        <time>2012-09-16T12:47:30Z</time>
      </trkpt>
      <trkpt lat="45.90296" lon="6.13381">
        <ele>434.65</ele>
        <time>2012-09-16T12:47:33Z</time>
      </trkpt>
      <trkpt lat="45.90298" lon="6.1338">
        <ele>435.13</ele>
        <time>2012-09-16T12:47:35Z</time>
      </trkpt>
      <trkpt lat="45.90299" lon="6.13379">
        <ele>435.13</ele>
        <time>2012-09-16T12:47:37Z</time>
      </trkpt>
      <trkpt lat="45.90296" lon="6.13367">
        <ele>437.06</ele>
        <time>2012-09-16T12:47:43Z</time>
      </trkpt>
      <trkpt lat="45.90297" lon="6.13366">
        <ele>437.54</ele>
        <time>2012-09-16T12:47:45Z</time>
      </trkpt>
      <trkpt lat="45.90293" lon="6.13358">
        <ele>437.54</ele>
        <time>2012-09-16T12:47:51Z</time>
      </trkpt>
      <trkpt lat="45.90289" lon="6.13353">
        <ele>438.02</ele>
        <time>2012-09-16T12:47:56Z</time>
      </trkpt>
      <trkpt lat="45.90289" lon="6.1335">
        <ele>438.02</ele>
        <time>2012-09-16T12:47:59Z</time>
      </trkpt>
      <trkpt lat="45.90287" lon="6.13344">
        <ele>439.94</ele>
        <time>2012-09-16T12:48:04Z</time>
      </trkpt>
      <trkpt lat="45.90284" lon="6.13337">
        <ele>439.94</ele>
        <time>2012-09-16T12:48:08Z</time>
      </trkpt>
      <trkpt lat="45.90284" lon="6.13333">
        <ele>440.42</ele>
        <time>2012-09-16T12:48:13Z</time>
      </trkpt>
      <trkpt lat="45.90282" lon="6.13328">
        <ele>439.94</ele>
        <time>2012-09-16T12:48:17Z</time>
      </trkpt>
      <trkpt lat="45.9028" lon="6.13321">
        <ele>440.42</ele>
        <time>2012-09-16T12:48:21Z</time>
      </trkpt>
      <trkpt lat="45.90276" lon="6.13311">
        <ele>440.42</ele>
        <time>2012-09-16T12:48:26Z</time>
      </trkpt>
      <trkpt lat="45.90271" lon="6.13302">
        <ele>438.5</ele>
        <time>2012-09-16T12:48:31Z</time>
      </trkpt>
      <trkpt lat="45.90271" lon="6.13301">
        <ele>438.5</ele>
        <time>2012-09-16T12:48:32Z</time>
      </trkpt>
      <trkpt lat="45.9027" lon="6.13294">
        <ele>438.98</ele>
        <time>2012-09-16T12:48:37Z</time>
      </trkpt>
      <trkpt lat="45.90266" lon="6.13284">
        <ele>439.94</ele>
        <time>2012-09-16T12:48:44Z</time>
      </trkpt>
      <trkpt lat="45.90263" lon="6.13279">
        <ele>439.46</ele>
        <time>2012-09-16T12:48:48Z</time>
      </trkpt>
      <trkpt lat="45.90263" lon="6.13276">
        <ele>440.42</ele>
        <time>2012-09-16T12:48:50Z</time>
      </trkpt>
      <trkpt lat="45.9026" lon="6.13264">
        <ele>443.31</ele>
        <time>2012-09-16T12:48:56Z</time>
      </trkpt>
      <trkpt lat="45.9026" lon="6.13264">
        <ele>443.31</ele>
        <time>2012-09-16T12:48:57Z</time>
      </trkpt>
      <trkpt lat="45.90259" lon="6.13258">
        <ele>442.82</ele>
        <time>2012-09-16T12:49:03Z</time>
      </trkpt>
      <trkpt lat="45.90257" lon="6.13251">
        <ele>442.82</ele>
        <time>2012-09-16T12:49:07Z</time>
      </trkpt>
      <trkpt lat="45.90253" lon="6.1324">
        <ele>442.34</ele>
        <time>2012-09-16T12:49:13Z</time>
      </trkpt>
      <trkpt lat="45.9025" lon="6.1323">
        <ele>443.79</ele>
        <time>2012-09-16T12:49:19Z</time>
      </trkpt>
      <trkpt lat="45.90246" lon="6.1322">
        <ele>444.75</ele>
        <time>2012-09-16T12:49:27Z</time>
      </trkpt>
      <trkpt lat="45.90243" lon="6.13205">
        <ele>446.67</ele>
        <time>2012-09-16T12:49:33Z</time>
      </trkpt>
      <trkpt lat="45.90243" lon="6.13199">
        <ele>446.67</ele>
        <time>2012-09-16T12:49:38Z</time>
      </trkpt>
      <trkpt lat="45.90243" lon="6.13197">
        <ele>446.67</ele>
        <time>2012-09-16T12:49:39Z</time>
      </trkpt>
      <trkpt lat="45.90247" lon="6.13194">
        <ele>446.67</ele>
        <time>2012-09-16T12:49:44Z</time>
      </trkpt>
      <trkpt lat="45.90239" lon="6.13179">
        <ele>446.19</ele>
        <time>2012-09-16T12:49:52Z</time>
      </trkpt>
      <trkpt lat="45.90239" lon="6.13176">
        <ele>446.67</ele>
        <time>2012-09-16T12:49:56Z</time>
      </trkpt>
      <trkpt lat="45.90236" lon="6.13167">
        <ele>447.15</ele>
        <time>2012-09-16T12:50:00Z</time>
      </trkpt>
      <trkpt lat="45.90237" lon="6.13166">
        <ele>447.63</ele>
        <time>2012-09-16T12:50:03Z</time>
      </trkpt>
      <trkpt lat="45.90234" lon="6.13159">
        <ele>447.63</ele>
        <time>2012-09-16T12:50:08Z</time>
      </trkpt>
      <trkpt lat="45.90233" lon="6.13156">
        <ele>447.63</ele>
        <time>2012-09-16T12:50:11Z</time>
      </trkpt>
      <trkpt lat="45.90233" lon="6.1315">
        <ele>446.67</ele>
        <time>2012-09-16T12:50:16Z</time>
      </trkpt>
      <trkpt lat="45.90233" lon="6.13148">
        <ele>446.19</ele>
        <time>2012-09-16T12:50:17Z</time>
      </trkpt>
      <trkpt lat="45.90234" lon="6.13142">
        <ele>445.23</ele>
        <time>2012-09-16T12:50:22Z</time>
      </trkpt>
      <trkpt lat="45.90233" lon="6.13135">
        <ele>444.27</ele>
        <time>2012-09-16T12:50:25Z</time>
      </trkpt>
      <trkpt lat="45.90235" lon="6.13135">
        <ele>443.31</ele>
        <time>2012-09-16T12:50:27Z</time>
      </trkpt>
      <trkpt lat="45.90234" lon="6.13129">
        <ele>439.46</ele>
        <time>2012-09-16T12:50:33Z</time>
      </trkpt>
      <trkpt lat="45.90234" lon="6.13127">
        <ele>438.5</ele>
        <time>2012-09-16T12:50:38Z</time>
      </trkpt>
      <trkpt lat="45.90233" lon="6.13121">
        <ele>437.06</ele>
        <time>2012-09-16T12:50:44Z</time>
      </trkpt>
      <trkpt lat="45.90234" lon="6.13115">
        <ele>437.54</ele>
        <time>2012-09-16T12:50:49Z</time>
      </trkpt>
      <trkpt lat="45.90233" lon="6.1311">
        <ele>436.58</ele>
        <time>2012-09-16T12:50:53Z</time>
      </trkpt>
      <trkpt lat="45.90232" lon="6.13106">
        <ele>436.58</ele>
        <time>2012-09-16T12:50:57Z</time>
      </trkpt>
      <trkpt lat="45.90229" lon="6.13097">
        <ele>437.54</ele>
        <time>2012-09-16T12:51:01Z</time>
      </trkpt>
      <trkpt lat="45.90228" lon="6.13091">
        <ele>439.94</ele>
        <time>2012-09-16T12:51:05Z</time>
      </trkpt>
      <trkpt lat="45.90227" lon="6.1308">
        <ele>442.34</ele>
        <time>2012-09-16T12:51:11Z</time>
      </trkpt>
      <trkpt lat="45.90227" lon="6.13069">
        <ele>443.31</ele>
        <time>2012-09-16T12:51:17Z</time>
      </trkpt>
      <trkpt lat="45.90226" lon="6.13069">
        <ele>443.31</ele>
        <time>2012-09-16T12:51:18Z</time>
      </trkpt>
      <trkpt lat="45.90223" lon="6.13057">
        <ele>446.19</ele>
        <time>2012-09-16T12:51:23Z</time>
      </trkpt>
      <trkpt lat="45.90222" lon="6.13054">
        <ele>446.19</ele>
        <time>2012-09-16T12:51:25Z</time>
      </trkpt>
      <trkpt lat="45.9022" lon="6.13044">
        <ele>445.23</ele>
        <time>2012-09-16T12:51:31Z</time>
      </trkpt>
      <trkpt lat="45.9022" lon="6.13043">
        <ele>445.23</ele>
        <time>2012-09-16T12:51:32Z</time>
      </trkpt>
      <trkpt lat="45.90221" lon="6.13041">
        <ele>444.75</ele>
        <time>2012-09-16T12:51:34Z</time>
      </trkpt>
      <trkpt lat="45.9022" lon="6.13035">
        <ele>443.79</ele>
        <time>2012-09-16T12:51:40Z</time>
      </trkpt>
      <trkpt lat="45.90217" lon="6.13027">
        <ele>442.34</ele>
        <time>2012-09-16T12:51:46Z</time>
      </trkpt>
      <trkpt lat="45.90218" lon="6.13022">
        <ele>440.9</ele>
        <time>2012-09-16T12:51:50Z</time>
      </trkpt>
      <trkpt lat="45.9022" lon="6.13018">
        <ele>440.42</ele>
        <time>2012-09-16T12:51:55Z</time>
      </trkpt>
      <trkpt lat="45.90222" lon="6.13015">
        <ele>441.38</ele>
        <time>2012-09-16T12:51:59Z</time>
      </trkpt>
      <trkpt lat="45.90221" lon="6.13006">
        <ele>441.38</ele>
        <time>2012-09-16T12:52:04Z</time>
      </trkpt>
      <trkpt lat="45.90221" lon="6.13005">
        <ele>441.38</ele>
        <time>2012-09-16T12:52:05Z</time>
      </trkpt>
      <trkpt lat="45.90218" lon="6.13001">
        <ele>441.38</ele>
        <time>2012-09-16T12:52:11Z</time>
      </trkpt>
      <trkpt lat="45.90218" lon="6.13001">
        <ele>441.38</ele>
        <time>2012-09-16T12:52:12Z</time>
      </trkpt>
      <trkpt lat="45.90215" lon="6.12994">
        <ele>440.9</ele>
        <time>2012-09-16T12:52:18Z</time>
      </trkpt>
      <trkpt lat="45.90214" lon="6.12991">
        <ele>440.9</ele>
        <time>2012-09-16T12:52:23Z</time>
      </trkpt>
      <trkpt lat="45.90213" lon="6.12986">
        <ele>440.9</ele>
        <time>2012-09-16T12:52:28Z</time>
      </trkpt>
      <trkpt lat="45.90214" lon="6.12979">
        <ele>441.38</ele>
        <time>2012-09-16T12:52:33Z</time>
      </trkpt>
      <trkpt lat="45.90214" lon="6.1298">
        <ele>441.38</ele>
        <time>2012-09-16T12:52:34Z</time>
      </trkpt>
      <trkpt lat="45.90218" lon="6.12972">
        <ele>442.82</ele>
        <time>2012-09-16T12:52:40Z</time>
      </trkpt>
      <trkpt lat="45.90219" lon="6.12971">
        <ele>443.79</ele>
        <time>2012-09-16T12:52:42Z</time>
      </trkpt>
      <trkpt lat="45.90222" lon="6.12962">
        <ele>446.19</ele>
        <time>2012-09-16T12:52:47Z</time>
      </trkpt>
      <trkpt lat="45.90223" lon="6.12958">
        <ele>446.19</ele>
        <time>2012-09-16T12:52:49Z</time>
      </trkpt>
      <trkpt lat="45.9022" lon="6.12949">
        <ele>446.19</ele>
        <time>2012-09-16T12:52:55Z</time>
      </trkpt>
      <trkpt lat="45.9022" lon="6.12945">
        <ele>445.23</ele>
        <time>2012-09-16T12:52:57Z</time>
      </trkpt>
      <trkpt lat="45.90217" lon="6.1294">
        <ele>444.75</ele>
        <time>2012-09-16T12:53:01Z</time>
      </trkpt>
      <trkpt lat="45.90218" lon="6.12935">
        <ele>444.75</ele>
        <time>2012-09-16T12:53:08Z</time>
      </trkpt>
      <trkpt lat="45.90218" lon="6.12934">
        <ele>444.75</ele>
        <time>2012-09-16T12:53:09Z</time>
      </trkpt>
      <trkpt lat="45.90216" lon="6.12927">
        <ele>444.27</ele>
        <time>2012-09-16T12:53:14Z</time>
      </trkpt>
      <trkpt lat="45.90215" lon="6.12916">
        <ele>445.23</ele>
        <time>2012-09-16T12:53:19Z</time>
      </trkpt>
      <trkpt lat="45.90213" lon="6.12905">
        <ele>444.75</ele>
        <time>2012-09-16T12:53:24Z</time>
      </trkpt>
      <trkpt lat="45.90213" lon="6.12902">
        <ele>443.31</ele>
        <time>2012-09-16T12:53:28Z</time>
      </trkpt>
      <trkpt lat="45.90215" lon="6.129">
        <ele>440.9</ele>
        <time>2012-09-16T12:53:33Z</time>
      </trkpt>
      <trkpt lat="45.90218" lon="6.12897">
        <ele>437.54</ele>
        <time>2012-09-16T12:53:38Z</time>
      </trkpt>
      <trkpt lat="45.90219" lon="6.12895">
        <ele>436.58</ele>
        <time>2012-09-16T12:53:41Z</time>
      </trkpt>
      <trkpt lat="45.90215" lon="6.12884">
        <ele>435.61</ele>
        <time>2012-09-16T12:53:46Z</time>
      </trkpt>
      <trkpt lat="45.90209" lon="6.12871">
        <ele>435.61</ele>
        <time>2012-09-16T12:53:52Z</time>
      </trkpt>
      <trkpt lat="45.90206" lon="6.12863">
        <ele>436.58</ele>
        <time>2012-09-16T12:53:57Z</time>
      </trkpt>
      <trkpt lat="45.90206" lon="6.12863">
        <ele>437.06</ele>
        <time>2012-09-16T12:53:58Z</time>
      </trkpt>
      <trkpt lat="45.90203" lon="6.12858">
        <ele>438.98</ele>
        <time>2012-09-16T12:54:03Z</time>
      </trkpt>
      <trkpt lat="45.902" lon="6.12855">
        <ele>437.54</ele>
        <time>2012-09-16T12:54:09Z</time>
      </trkpt>
      <trkpt lat="45.90194" lon="6.12852">
        <ele>436.58</ele>
        <time>2012-09-16T12:54:13Z</time>
      </trkpt>
      <trkpt lat="45.90181" lon="6.12791">
        <ele>437.06</ele>
        <time>2012-09-16T12:54:53Z</time>
      </trkpt>
      <trkpt lat="45.90185" lon="6.12789">
        <ele>439.94</ele>
        <time>2012-09-16T12:55:02Z</time>
      </trkpt>
      <trkpt lat="45.90184" lon="6.12787">
        <ele>441.38</ele>
        <time>2012-09-16T12:55:12Z</time>
      </trkpt>
      <trkpt lat="45.90171" lon="6.12777">
        <ele>442.34</ele>
        <time>2012-09-16T12:55:20Z</time>
      </trkpt>
      <trkpt lat="45.90152" lon="6.12747">
        <ele>475.51</ele>
        <time>2012-09-16T12:55:27Z</time>
      </trkpt>
      <trkpt lat="45.90144" lon="6.12738">
        <ele>485.12</ele>
        <time>2012-09-16T12:55:35Z</time>
      </trkpt>
      <trkpt lat="45.90146" lon="6.1273">
        <ele>487.53</ele>
        <time>2012-09-16T12:55:41Z</time>
      </trkpt>
      <trkpt lat="45.90149" lon="6.1271">
        <ele>479.35</ele>
        <time>2012-09-16T12:55:49Z</time>
      </trkpt>
      <trkpt lat="45.90151" lon="6.12703">
        <ele>475.51</ele>
        <time>2012-09-16T12:55:53Z</time>
      </trkpt>
      <trkpt lat="45.90151" lon="6.12701">
        <ele>471.66</ele>
        <time>2012-09-16T12:55:58Z</time>
      </trkpt>
      <trkpt lat="45.90154" lon="6.127">
        <ele>467.34</ele>
        <time>2012-09-16T12:56:05Z</time>
      </trkpt>
      <trkpt lat="45.90157" lon="6.12706">
        <ele>463.49</ele>
        <time>2012-09-16T12:56:13Z</time>
      </trkpt>
      <trkpt lat="45.90166" lon="6.12719">
        <ele>462.05</ele>
        <time>2012-09-16T12:56:20Z</time>
      </trkpt>
      <trkpt lat="45.90167" lon="6.12714">
        <ele>461.57</ele>
        <time>2012-09-16T12:56:26Z</time>
      </trkpt>
      <trkpt lat="45.90172" lon="6.1271">
        <ele>460.13</ele>
        <time>2012-09-16T12:56:32Z</time>
      </trkpt>
      <trkpt lat="45.9018" lon="6.12706">
        <ele>458.21</ele>
        <time>2012-09-16T12:56:42Z</time>
      </trkpt>
    </trkseg>
  </trk>
</gpx>